<?xml version="1.0" encoding="UTF-8" standalone="no" ?>
<gpx xmlns="http://www.topografix.com/GPX/1/1" xmlns:xsi="http://www.w3.org/2001/XMLSchema-instance" xsi:schemaLocation="http://www.topografix.com/GPX/1/1 http://www.topografix.com/GPX/1/1/gpx.xsd" version="1.1" creator="VisuGPX - https://www.visugpx.com">
  <metadata>
    <name>La Fontaine du Fou,Valempoulières</name>
  </metadata>
  <trk>
    <name><![CDATA[La Fontaine du Fou,Valempoulières_1]]></name>
    <extensions>
      <line xmlns="http://www.topografix.com/GPX/gpx_style/0/2">
        <color>0000FF</color>
        <width>4</width>
      </line>
    </extensions>
    <trkseg>
      <trkpt lat="46.85777" lon="5.89823">
        <ele>636.4</ele>
        <time>2021-08-12T06:29:47Z</time>
      </trkpt>
      <trkpt lat="46.85777" lon="5.89831">
        <ele>642.6</ele>
        <time>2021-08-12T06:29:59Z</time>
      </trkpt>
      <trkpt lat="46.85781" lon="5.89836">
        <ele>643.6</ele>
        <time>2021-08-12T06:30:02Z</time>
      </trkpt>
      <trkpt lat="46.85782" lon="5.89843">
        <ele>644</ele>
        <time>2021-08-12T06:30:07Z</time>
      </trkpt>
      <trkpt lat="46.85783" lon="5.89851">
        <ele>642.4</ele>
        <time>2021-08-12T06:30:15Z</time>
      </trkpt>
      <trkpt lat="46.85785" lon="5.89859">
        <ele>641.1</ele>
        <time>2021-08-12T06:30:19Z</time>
      </trkpt>
      <trkpt lat="46.85789" lon="5.89864">
        <ele>640</ele>
        <time>2021-08-12T06:30:24Z</time>
      </trkpt>
      <trkpt lat="46.85793" lon="5.89868">
        <ele>639.8</ele>
        <time>2021-08-12T06:30:28Z</time>
      </trkpt>
      <trkpt lat="46.85794" lon="5.89875">
        <ele>639.9</ele>
        <time>2021-08-12T06:30:34Z</time>
      </trkpt>
      <trkpt lat="46.85792" lon="5.89882">
        <ele>639.4</ele>
        <time>2021-08-12T06:30:37Z</time>
      </trkpt>
      <trkpt lat="46.8579" lon="5.89891">
        <ele>639.5</ele>
        <time>2021-08-12T06:30:40Z</time>
      </trkpt>
      <trkpt lat="46.85787" lon="5.89898">
        <ele>639.4</ele>
        <time>2021-08-12T06:30:43Z</time>
      </trkpt>
      <trkpt lat="46.8579" lon="5.89906">
        <ele>639</ele>
        <time>2021-08-12T06:30:47Z</time>
      </trkpt>
      <trkpt lat="46.85795" lon="5.89915">
        <ele>637.8</ele>
        <time>2021-08-12T06:30:50Z</time>
      </trkpt>
      <trkpt lat="46.85799" lon="5.89921">
        <ele>636.6</ele>
        <time>2021-08-12T06:30:53Z</time>
      </trkpt>
      <trkpt lat="46.85804" lon="5.89927">
        <ele>635.5</ele>
        <time>2021-08-12T06:30:56Z</time>
      </trkpt>
      <trkpt lat="46.85806" lon="5.89932">
        <ele>634.4</ele>
        <time>2021-08-12T06:30:59Z</time>
      </trkpt>
      <trkpt lat="46.85809" lon="5.8994">
        <ele>633.2</ele>
        <time>2021-08-12T06:31:02Z</time>
      </trkpt>
      <trkpt lat="46.85809" lon="5.89948">
        <ele>632.1</ele>
        <time>2021-08-12T06:31:05Z</time>
      </trkpt>
      <trkpt lat="46.85808" lon="5.89954">
        <ele>631.1</ele>
        <time>2021-08-12T06:31:08Z</time>
      </trkpt>
      <trkpt lat="46.85807" lon="5.89961">
        <ele>629.9</ele>
        <time>2021-08-12T06:31:12Z</time>
      </trkpt>
      <trkpt lat="46.85811" lon="5.89967">
        <ele>629.6</ele>
        <time>2021-08-12T06:31:15Z</time>
      </trkpt>
      <trkpt lat="46.85815" lon="5.89972">
        <ele>629.3</ele>
        <time>2021-08-12T06:31:18Z</time>
      </trkpt>
      <trkpt lat="46.85818" lon="5.89978">
        <ele>629</ele>
        <time>2021-08-12T06:31:21Z</time>
      </trkpt>
      <trkpt lat="46.85819" lon="5.89984">
        <ele>628.9</ele>
        <time>2021-08-12T06:31:26Z</time>
      </trkpt>
      <trkpt lat="46.8582" lon="5.89992">
        <ele>629</ele>
        <time>2021-08-12T06:31:30Z</time>
      </trkpt>
      <trkpt lat="46.85824" lon="5.89998">
        <ele>629.3</ele>
        <time>2021-08-12T06:31:34Z</time>
      </trkpt>
      <trkpt lat="46.85827" lon="5.90004">
        <ele>629.7</ele>
        <time>2021-08-12T06:31:37Z</time>
      </trkpt>
      <trkpt lat="46.85828" lon="5.9001">
        <ele>630.7</ele>
        <time>2021-08-12T06:31:41Z</time>
      </trkpt>
      <trkpt lat="46.85829" lon="5.90018">
        <ele>631.9</ele>
        <time>2021-08-12T06:31:45Z</time>
      </trkpt>
      <trkpt lat="46.8583" lon="5.90025">
        <ele>633.6</ele>
        <time>2021-08-12T06:31:50Z</time>
      </trkpt>
      <trkpt lat="46.85832" lon="5.90032">
        <ele>635</ele>
        <time>2021-08-12T06:31:55Z</time>
      </trkpt>
      <trkpt lat="46.85835" lon="5.90039">
        <ele>636.6</ele>
        <time>2021-08-12T06:32:01Z</time>
      </trkpt>
      <trkpt lat="46.85838" lon="5.90043">
        <ele>637.4</ele>
        <time>2021-08-12T06:32:04Z</time>
      </trkpt>
      <trkpt lat="46.85842" lon="5.90048">
        <ele>638.2</ele>
        <time>2021-08-12T06:32:07Z</time>
      </trkpt>
      <trkpt lat="46.85845" lon="5.90055">
        <ele>639.6</ele>
        <time>2021-08-12T06:32:11Z</time>
      </trkpt>
      <trkpt lat="46.85847" lon="5.90061">
        <ele>641</ele>
        <time>2021-08-12T06:32:15Z</time>
      </trkpt>
      <trkpt lat="46.85851" lon="5.90068">
        <ele>642.8</ele>
        <time>2021-08-12T06:32:19Z</time>
      </trkpt>
      <trkpt lat="46.85852" lon="5.90076">
        <ele>644</ele>
        <time>2021-08-12T06:32:23Z</time>
      </trkpt>
      <trkpt lat="46.85852" lon="5.90084">
        <ele>644.8</ele>
        <time>2021-08-12T06:32:27Z</time>
      </trkpt>
      <trkpt lat="46.85852" lon="5.90092">
        <ele>645.8</ele>
        <time>2021-08-12T06:32:31Z</time>
      </trkpt>
      <trkpt lat="46.8585" lon="5.901">
        <ele>646.9</ele>
        <time>2021-08-12T06:32:35Z</time>
      </trkpt>
      <trkpt lat="46.85848" lon="5.90106">
        <ele>647.6</ele>
        <time>2021-08-12T06:32:38Z</time>
      </trkpt>
      <trkpt lat="46.85846" lon="5.90113">
        <ele>648.4</ele>
        <time>2021-08-12T06:32:41Z</time>
      </trkpt>
      <trkpt lat="46.85845" lon="5.9012">
        <ele>649.1</ele>
        <time>2021-08-12T06:32:44Z</time>
      </trkpt>
      <trkpt lat="46.85842" lon="5.90126">
        <ele>649.4</ele>
        <time>2021-08-12T06:32:47Z</time>
      </trkpt>
      <trkpt lat="46.85841" lon="5.90133">
        <ele>649.4</ele>
        <time>2021-08-12T06:32:51Z</time>
      </trkpt>
      <trkpt lat="46.85842" lon="5.9014">
        <ele>649.2</ele>
        <time>2021-08-12T06:32:55Z</time>
      </trkpt>
      <trkpt lat="46.85842" lon="5.90147">
        <ele>649.2</ele>
        <time>2021-08-12T06:32:58Z</time>
      </trkpt>
      <trkpt lat="46.85843" lon="5.90155">
        <ele>649.3</ele>
        <time>2021-08-12T06:33:01Z</time>
      </trkpt>
      <trkpt lat="46.85841" lon="5.90162">
        <ele>649.4</ele>
        <time>2021-08-12T06:33:05Z</time>
      </trkpt>
      <trkpt lat="46.85839" lon="5.90169">
        <ele>649.5</ele>
        <time>2021-08-12T06:33:10Z</time>
      </trkpt>
      <trkpt lat="46.85838" lon="5.90177">
        <ele>649.2</ele>
        <time>2021-08-12T06:33:14Z</time>
      </trkpt>
      <trkpt lat="46.85837" lon="5.90184">
        <ele>648.7</ele>
        <time>2021-08-12T06:33:17Z</time>
      </trkpt>
      <trkpt lat="46.85834" lon="5.9019">
        <ele>647.9</ele>
        <time>2021-08-12T06:33:21Z</time>
      </trkpt>
      <trkpt lat="46.85832" lon="5.90196">
        <ele>647.1</ele>
        <time>2021-08-12T06:33:26Z</time>
      </trkpt>
      <trkpt lat="46.8583" lon="5.90203">
        <ele>645.6</ele>
        <time>2021-08-12T06:33:33Z</time>
      </trkpt>
      <trkpt lat="46.85826" lon="5.90205">
        <ele>644.3</ele>
        <time>2021-08-12T06:33:38Z</time>
      </trkpt>
      <trkpt lat="46.85821" lon="5.90208">
        <ele>643</ele>
        <time>2021-08-12T06:33:42Z</time>
      </trkpt>
      <trkpt lat="46.85817" lon="5.90211">
        <ele>641.1</ele>
        <time>2021-08-12T06:33:49Z</time>
      </trkpt>
      <trkpt lat="46.85812" lon="5.90213">
        <ele>639.3</ele>
        <time>2021-08-12T06:33:56Z</time>
      </trkpt>
      <trkpt lat="46.85807" lon="5.90216">
        <ele>638.3</ele>
        <time>2021-08-12T06:34:01Z</time>
      </trkpt>
      <trkpt lat="46.85802" lon="5.90219">
        <ele>637.9</ele>
        <time>2021-08-12T06:34:05Z</time>
      </trkpt>
      <trkpt lat="46.85798" lon="5.90222">
        <ele>637.5</ele>
        <time>2021-08-12T06:34:10Z</time>
      </trkpt>
      <trkpt lat="46.85793" lon="5.90226">
        <ele>637.2</ele>
        <time>2021-08-12T06:34:14Z</time>
      </trkpt>
      <trkpt lat="46.85789" lon="5.90232">
        <ele>636.6</ele>
        <time>2021-08-12T06:34:19Z</time>
      </trkpt>
      <trkpt lat="46.85786" lon="5.90237">
        <ele>635.4</ele>
        <time>2021-08-12T06:34:24Z</time>
      </trkpt>
      <trkpt lat="46.85781" lon="5.90243">
        <ele>634.3</ele>
        <time>2021-08-12T06:34:28Z</time>
      </trkpt>
      <trkpt lat="46.85778" lon="5.90248">
        <ele>633.4</ele>
        <time>2021-08-12T06:34:31Z</time>
      </trkpt>
      <trkpt lat="46.85775" lon="5.90253">
        <ele>632.6</ele>
        <time>2021-08-12T06:34:34Z</time>
      </trkpt>
      <trkpt lat="46.85772" lon="5.9026">
        <ele>631.8</ele>
        <time>2021-08-12T06:34:38Z</time>
      </trkpt>
      <trkpt lat="46.85769" lon="5.90265">
        <ele>631.5</ele>
        <time>2021-08-12T06:34:42Z</time>
      </trkpt>
      <trkpt lat="46.85765" lon="5.90271">
        <ele>631.3</ele>
        <time>2021-08-12T06:34:46Z</time>
      </trkpt>
      <trkpt lat="46.85763" lon="5.90277">
        <ele>630.5</ele>
        <time>2021-08-12T06:34:52Z</time>
      </trkpt>
      <trkpt lat="46.85761" lon="5.90284">
        <ele>630.4</ele>
        <time>2021-08-12T06:34:56Z</time>
      </trkpt>
      <trkpt lat="46.85758" lon="5.9029">
        <ele>630.4</ele>
        <time>2021-08-12T06:35:00Z</time>
      </trkpt>
      <trkpt lat="46.85758" lon="5.90298">
        <ele>630.5</ele>
        <time>2021-08-12T06:35:05Z</time>
      </trkpt>
      <trkpt lat="46.85756" lon="5.90304">
        <ele>630.7</ele>
        <time>2021-08-12T06:35:09Z</time>
      </trkpt>
      <trkpt lat="46.85752" lon="5.9031">
        <ele>630.4</ele>
        <time>2021-08-12T06:35:14Z</time>
      </trkpt>
      <trkpt lat="46.8575" lon="5.90316">
        <ele>629.9</ele>
        <time>2021-08-12T06:35:18Z</time>
      </trkpt>
      <trkpt lat="46.8575" lon="5.90323">
        <ele>629.8</ele>
        <time>2021-08-12T06:35:22Z</time>
      </trkpt>
      <trkpt lat="46.85748" lon="5.9033">
        <ele>629.4</ele>
        <time>2021-08-12T06:35:27Z</time>
      </trkpt>
      <trkpt lat="46.85747" lon="5.90338">
        <ele>628.1</ele>
        <time>2021-08-12T06:35:34Z</time>
      </trkpt>
      <trkpt lat="46.85747" lon="5.90346">
        <ele>627.4</ele>
        <time>2021-08-12T06:35:39Z</time>
      </trkpt>
      <trkpt lat="46.85745" lon="5.90353">
        <ele>626.8</ele>
        <time>2021-08-12T06:35:43Z</time>
      </trkpt>
      <trkpt lat="46.85742" lon="5.9036">
        <ele>626.4</ele>
        <time>2021-08-12T06:35:47Z</time>
      </trkpt>
      <trkpt lat="46.85739" lon="5.90367">
        <ele>626.1</ele>
        <time>2021-08-12T06:35:50Z</time>
      </trkpt>
      <trkpt lat="46.85736" lon="5.90372">
        <ele>626</ele>
        <time>2021-08-12T06:35:53Z</time>
      </trkpt>
      <trkpt lat="46.85732" lon="5.90378">
        <ele>625.8</ele>
        <time>2021-08-12T06:35:57Z</time>
      </trkpt>
      <trkpt lat="46.85728" lon="5.90384">
        <ele>626</ele>
        <time>2021-08-12T06:36:01Z</time>
      </trkpt>
      <trkpt lat="46.85725" lon="5.90389">
        <ele>626.3</ele>
        <time>2021-08-12T06:36:04Z</time>
      </trkpt>
      <trkpt lat="46.85722" lon="5.90394">
        <ele>626.8</ele>
        <time>2021-08-12T06:36:08Z</time>
      </trkpt>
      <trkpt lat="46.85717" lon="5.90397">
        <ele>627.5</ele>
        <time>2021-08-12T06:36:13Z</time>
      </trkpt>
      <trkpt lat="46.85714" lon="5.90403">
        <ele>626.9</ele>
        <time>2021-08-12T06:36:22Z</time>
      </trkpt>
      <trkpt lat="46.85714" lon="5.9041">
        <ele>625.3</ele>
        <time>2021-08-12T06:36:28Z</time>
      </trkpt>
      <trkpt lat="46.85715" lon="5.90417">
        <ele>623.8</ele>
        <time>2021-08-12T06:36:34Z</time>
      </trkpt>
      <trkpt lat="46.85714" lon="5.90425">
        <ele>623.2</ele>
        <time>2021-08-12T06:36:39Z</time>
      </trkpt>
      <trkpt lat="46.85713" lon="5.90431">
        <ele>622.9</ele>
        <time>2021-08-12T06:36:44Z</time>
      </trkpt>
      <trkpt lat="46.85712" lon="5.90439">
        <ele>622.5</ele>
        <time>2021-08-12T06:36:49Z</time>
      </trkpt>
      <trkpt lat="46.8571" lon="5.90446">
        <ele>622.4</ele>
        <time>2021-08-12T06:36:54Z</time>
      </trkpt>
      <trkpt lat="46.85709" lon="5.90453">
        <ele>622.1</ele>
        <time>2021-08-12T06:37:01Z</time>
      </trkpt>
      <trkpt lat="46.85707" lon="5.90459">
        <ele>622.4</ele>
        <time>2021-08-12T06:37:06Z</time>
      </trkpt>
      <trkpt lat="46.85703" lon="5.90464">
        <ele>622.7</ele>
        <time>2021-08-12T06:37:11Z</time>
      </trkpt>
      <trkpt lat="46.857" lon="5.90471">
        <ele>623</ele>
        <time>2021-08-12T06:37:15Z</time>
      </trkpt>
      <trkpt lat="46.85696" lon="5.90475">
        <ele>623.2</ele>
        <time>2021-08-12T06:37:18Z</time>
      </trkpt>
      <trkpt lat="46.85692" lon="5.9048">
        <ele>623.4</ele>
        <time>2021-08-12T06:37:22Z</time>
      </trkpt>
      <trkpt lat="46.85687" lon="5.90485">
        <ele>623.7</ele>
        <time>2021-08-12T06:37:26Z</time>
      </trkpt>
      <trkpt lat="46.85683" lon="5.9049">
        <ele>624</ele>
        <time>2021-08-12T06:37:29Z</time>
      </trkpt>
      <trkpt lat="46.85679" lon="5.90495">
        <ele>624.3</ele>
        <time>2021-08-12T06:37:34Z</time>
      </trkpt>
      <trkpt lat="46.85675" lon="5.90498">
        <ele>623.8</ele>
        <time>2021-08-12T06:37:39Z</time>
      </trkpt>
      <trkpt lat="46.85671" lon="5.90503">
        <ele>623.2</ele>
        <time>2021-08-12T06:37:45Z</time>
      </trkpt>
      <trkpt lat="46.85667" lon="5.90505">
        <ele>622.7</ele>
        <time>2021-08-12T06:37:49Z</time>
      </trkpt>
      <trkpt lat="46.85663" lon="5.90508">
        <ele>621.7</ele>
        <time>2021-08-12T06:37:54Z</time>
      </trkpt>
      <trkpt lat="46.85659" lon="5.9051">
        <ele>620.8</ele>
        <time>2021-08-12T06:37:59Z</time>
      </trkpt>
      <trkpt lat="46.85655" lon="5.90514">
        <ele>620.1</ele>
        <time>2021-08-12T06:38:03Z</time>
      </trkpt>
      <trkpt lat="46.85652" lon="5.9052">
        <ele>619</ele>
        <time>2021-08-12T06:38:08Z</time>
      </trkpt>
      <trkpt lat="46.8565" lon="5.90526">
        <ele>617.1</ele>
        <time>2021-08-12T06:38:14Z</time>
      </trkpt>
      <trkpt lat="46.85646" lon="5.90533">
        <ele>615.5</ele>
        <time>2021-08-12T06:38:20Z</time>
      </trkpt>
      <trkpt lat="46.85642" lon="5.90536">
        <ele>615.2</ele>
        <time>2021-08-12T06:38:23Z</time>
      </trkpt>
      <trkpt lat="46.85637" lon="5.9054">
        <ele>614.9</ele>
        <time>2021-08-12T06:38:27Z</time>
      </trkpt>
      <trkpt lat="46.85634" lon="5.90544">
        <ele>614.2</ele>
        <time>2021-08-12T06:38:32Z</time>
      </trkpt>
      <trkpt lat="46.8563" lon="5.90548">
        <ele>613.1</ele>
        <time>2021-08-12T06:38:38Z</time>
      </trkpt>
      <trkpt lat="46.85625" lon="5.90552">
        <ele>612.6</ele>
        <time>2021-08-12T06:38:42Z</time>
      </trkpt>
      <trkpt lat="46.85621" lon="5.90556">
        <ele>612.1</ele>
        <time>2021-08-12T06:38:46Z</time>
      </trkpt>
      <trkpt lat="46.85616" lon="5.90559">
        <ele>611.2</ele>
        <time>2021-08-12T06:38:52Z</time>
      </trkpt>
      <trkpt lat="46.85611" lon="5.90561">
        <ele>610.6</ele>
        <time>2021-08-12T06:38:56Z</time>
      </trkpt>
      <trkpt lat="46.85606" lon="5.90563">
        <ele>610.1</ele>
        <time>2021-08-12T06:39:01Z</time>
      </trkpt>
      <trkpt lat="46.85601" lon="5.90568">
        <ele>610.1</ele>
        <time>2021-08-12T06:39:05Z</time>
      </trkpt>
      <trkpt lat="46.85597" lon="5.90573">
        <ele>610.2</ele>
        <time>2021-08-12T06:39:08Z</time>
      </trkpt>
      <trkpt lat="46.85593" lon="5.90576">
        <ele>610.3</ele>
        <time>2021-08-12T06:39:11Z</time>
      </trkpt>
      <trkpt lat="46.85588" lon="5.90581">
        <ele>610.2</ele>
        <time>2021-08-12T06:39:15Z</time>
      </trkpt>
      <trkpt lat="46.85584" lon="5.90586">
        <ele>610.6</ele>
        <time>2021-08-12T06:39:19Z</time>
      </trkpt>
      <trkpt lat="46.8558" lon="5.9059">
        <ele>610.8</ele>
        <time>2021-08-12T06:39:22Z</time>
      </trkpt>
      <trkpt lat="46.85576" lon="5.90595">
        <ele>611.2</ele>
        <time>2021-08-12T06:39:27Z</time>
      </trkpt>
      <trkpt lat="46.85571" lon="5.90598">
        <ele>612.1</ele>
        <time>2021-08-12T06:39:34Z</time>
      </trkpt>
      <trkpt lat="46.85567" lon="5.90602">
        <ele>612.9</ele>
        <time>2021-08-12T06:39:39Z</time>
      </trkpt>
      <trkpt lat="46.85564" lon="5.90608">
        <ele>613.5</ele>
        <time>2021-08-12T06:39:44Z</time>
      </trkpt>
      <trkpt lat="46.8556" lon="5.90613">
        <ele>613.9</ele>
        <time>2021-08-12T06:39:49Z</time>
      </trkpt>
      <trkpt lat="46.85556" lon="5.90617">
        <ele>614.2</ele>
        <time>2021-08-12T06:39:53Z</time>
      </trkpt>
      <trkpt lat="46.85553" lon="5.90622">
        <ele>614.4</ele>
        <time>2021-08-12T06:39:57Z</time>
      </trkpt>
      <trkpt lat="46.85549" lon="5.90627">
        <ele>614.6</ele>
        <time>2021-08-12T06:40:01Z</time>
      </trkpt>
      <trkpt lat="46.85545" lon="5.90631">
        <ele>615</ele>
        <time>2021-08-12T06:40:04Z</time>
      </trkpt>
      <trkpt lat="46.85541" lon="5.90636">
        <ele>615.5</ele>
        <time>2021-08-12T06:40:08Z</time>
      </trkpt>
      <trkpt lat="46.85537" lon="5.90641">
        <ele>616.3</ele>
        <time>2021-08-12T06:40:13Z</time>
      </trkpt>
      <trkpt lat="46.85532" lon="5.90646">
        <ele>616.6</ele>
        <time>2021-08-12T06:40:17Z</time>
      </trkpt>
      <trkpt lat="46.85529" lon="5.90651">
        <ele>616.6</ele>
        <time>2021-08-12T06:40:22Z</time>
      </trkpt>
      <trkpt lat="46.85525" lon="5.90656">
        <ele>616.2</ele>
        <time>2021-08-12T06:40:28Z</time>
      </trkpt>
      <trkpt lat="46.85522" lon="5.90662">
        <ele>615.8</ele>
        <time>2021-08-12T06:40:34Z</time>
      </trkpt>
      <trkpt lat="46.85517" lon="5.90664">
        <ele>615.5</ele>
        <time>2021-08-12T06:40:40Z</time>
      </trkpt>
      <trkpt lat="46.85513" lon="5.90667">
        <ele>615.1</ele>
        <time>2021-08-12T06:40:44Z</time>
      </trkpt>
      <trkpt lat="46.85507" lon="5.9067">
        <ele>614.8</ele>
        <time>2021-08-12T06:40:47Z</time>
      </trkpt>
      <trkpt lat="46.85503" lon="5.90674">
        <ele>614</ele>
        <time>2021-08-12T06:40:52Z</time>
      </trkpt>
      <trkpt lat="46.85498" lon="5.90675">
        <ele>613.5</ele>
        <time>2021-08-12T06:40:56Z</time>
      </trkpt>
      <trkpt lat="46.85493" lon="5.90677">
        <ele>613.4</ele>
        <time>2021-08-12T06:41:00Z</time>
      </trkpt>
      <trkpt lat="46.85487" lon="5.9068">
        <ele>613.7</ele>
        <time>2021-08-12T06:41:04Z</time>
      </trkpt>
      <trkpt lat="46.85483" lon="5.90683">
        <ele>614.2</ele>
        <time>2021-08-12T06:41:08Z</time>
      </trkpt>
      <trkpt lat="46.85479" lon="5.90686">
        <ele>614.9</ele>
        <time>2021-08-12T06:41:13Z</time>
      </trkpt>
      <trkpt lat="46.85475" lon="5.9069">
        <ele>615.4</ele>
        <time>2021-08-12T06:41:18Z</time>
      </trkpt>
      <trkpt lat="46.85471" lon="5.90693">
        <ele>615.2</ele>
        <time>2021-08-12T06:41:23Z</time>
      </trkpt>
      <trkpt lat="46.85466" lon="5.90695">
        <ele>614.8</ele>
        <time>2021-08-12T06:41:27Z</time>
      </trkpt>
      <trkpt lat="46.8546" lon="5.90698">
        <ele>614.5</ele>
        <time>2021-08-12T06:41:31Z</time>
      </trkpt>
      <trkpt lat="46.85457" lon="5.90704">
        <ele>614.1</ele>
        <time>2021-08-12T06:41:35Z</time>
      </trkpt>
      <trkpt lat="46.85454" lon="5.90711">
        <ele>613.6</ele>
        <time>2021-08-12T06:41:40Z</time>
      </trkpt>
      <trkpt lat="46.85451" lon="5.90716">
        <ele>613</ele>
        <time>2021-08-12T06:41:44Z</time>
      </trkpt>
      <trkpt lat="46.85446" lon="5.9072">
        <ele>612.4</ele>
        <time>2021-08-12T06:41:48Z</time>
      </trkpt>
      <trkpt lat="46.85442" lon="5.90724">
        <ele>612</ele>
        <time>2021-08-12T06:41:51Z</time>
      </trkpt>
      <trkpt lat="46.85438" lon="5.90728">
        <ele>611.7</ele>
        <time>2021-08-12T06:41:55Z</time>
      </trkpt>
      <trkpt lat="46.85436" lon="5.90735">
        <ele>611.6</ele>
        <time>2021-08-12T06:42:00Z</time>
      </trkpt>
      <trkpt lat="46.85432" lon="5.90739">
        <ele>611.7</ele>
        <time>2021-08-12T06:42:05Z</time>
      </trkpt>
      <trkpt lat="46.85428" lon="5.90744">
        <ele>611.6</ele>
        <time>2021-08-12T06:42:09Z</time>
      </trkpt>
      <trkpt lat="46.85424" lon="5.90749">
        <ele>611.8</ele>
        <time>2021-08-12T06:42:14Z</time>
      </trkpt>
      <trkpt lat="46.8542" lon="5.90753">
        <ele>611.7</ele>
        <time>2021-08-12T06:42:18Z</time>
      </trkpt>
      <trkpt lat="46.85414" lon="5.90753">
        <ele>611.6</ele>
        <time>2021-08-12T06:42:22Z</time>
      </trkpt>
      <trkpt lat="46.85409" lon="5.90756">
        <ele>611.5</ele>
        <time>2021-08-12T06:42:27Z</time>
      </trkpt>
      <trkpt lat="46.85406" lon="5.90762">
        <ele>611.7</ele>
        <time>2021-08-12T06:42:32Z</time>
      </trkpt>
      <trkpt lat="46.85403" lon="5.90766">
        <ele>611.9</ele>
        <time>2021-08-12T06:42:36Z</time>
      </trkpt>
      <trkpt lat="46.85399" lon="5.90771">
        <ele>611.7</ele>
        <time>2021-08-12T06:42:40Z</time>
      </trkpt>
      <trkpt lat="46.85395" lon="5.90775">
        <ele>611.3</ele>
        <time>2021-08-12T06:42:45Z</time>
      </trkpt>
      <trkpt lat="46.85391" lon="5.9078">
        <ele>610.7</ele>
        <time>2021-08-12T06:42:50Z</time>
      </trkpt>
      <trkpt lat="46.85389" lon="5.90786">
        <ele>609.6</ele>
        <time>2021-08-12T06:42:55Z</time>
      </trkpt>
      <trkpt lat="46.85384" lon="5.90788">
        <ele>608.8</ele>
        <time>2021-08-12T06:42:58Z</time>
      </trkpt>
      <trkpt lat="46.85379" lon="5.90792">
        <ele>608.1</ele>
        <time>2021-08-12T06:43:01Z</time>
      </trkpt>
      <trkpt lat="46.85375" lon="5.90796">
        <ele>607.6</ele>
        <time>2021-08-12T06:43:05Z</time>
      </trkpt>
      <trkpt lat="46.85374" lon="5.90802">
        <ele>607.1</ele>
        <time>2021-08-12T06:43:10Z</time>
      </trkpt>
      <trkpt lat="46.85372" lon="5.90809">
        <ele>607</ele>
        <time>2021-08-12T06:43:16Z</time>
      </trkpt>
      <trkpt lat="46.85368" lon="5.90813">
        <ele>607.2</ele>
        <time>2021-08-12T06:43:19Z</time>
      </trkpt>
      <trkpt lat="46.85364" lon="5.90816">
        <ele>607.7</ele>
        <time>2021-08-12T06:43:22Z</time>
      </trkpt>
      <trkpt lat="46.85359" lon="5.90817">
        <ele>607.7</ele>
        <time>2021-08-12T06:43:26Z</time>
      </trkpt>
      <trkpt lat="46.85355" lon="5.9082">
        <ele>607.5</ele>
        <time>2021-08-12T06:43:30Z</time>
      </trkpt>
      <trkpt lat="46.8535" lon="5.90822">
        <ele>607.1</ele>
        <time>2021-08-12T06:43:36Z</time>
      </trkpt>
      <trkpt lat="46.85346" lon="5.90824">
        <ele>606.7</ele>
        <time>2021-08-12T06:43:41Z</time>
      </trkpt>
      <trkpt lat="46.85342" lon="5.90828">
        <ele>606.4</ele>
        <time>2021-08-12T06:43:46Z</time>
      </trkpt>
      <trkpt lat="46.85338" lon="5.90833">
        <ele>605.8</ele>
        <time>2021-08-12T06:43:51Z</time>
      </trkpt>
      <trkpt lat="46.85334" lon="5.90837">
        <ele>605.1</ele>
        <time>2021-08-12T06:43:56Z</time>
      </trkpt>
      <trkpt lat="46.85329" lon="5.90842">
        <ele>604.2</ele>
        <time>2021-08-12T06:44:01Z</time>
      </trkpt>
      <trkpt lat="46.85325" lon="5.90848">
        <ele>603.5</ele>
        <time>2021-08-12T06:44:05Z</time>
      </trkpt>
      <trkpt lat="46.8532" lon="5.90851">
        <ele>603.3</ele>
        <time>2021-08-12T06:44:09Z</time>
      </trkpt>
      <trkpt lat="46.85317" lon="5.90855">
        <ele>603.3</ele>
        <time>2021-08-12T06:44:13Z</time>
      </trkpt>
      <trkpt lat="46.85314" lon="5.90861">
        <ele>603.1</ele>
        <time>2021-08-12T06:44:18Z</time>
      </trkpt>
      <trkpt lat="46.85309" lon="5.90866">
        <ele>602.7</ele>
        <time>2021-08-12T06:44:24Z</time>
      </trkpt>
      <trkpt lat="46.85305" lon="5.90872">
        <ele>602.7</ele>
        <time>2021-08-12T06:44:28Z</time>
      </trkpt>
      <trkpt lat="46.85302" lon="5.90878">
        <ele>602.9</ele>
        <time>2021-08-12T06:44:31Z</time>
      </trkpt>
      <trkpt lat="46.85299" lon="5.90883">
        <ele>603.7</ele>
        <time>2021-08-12T06:44:36Z</time>
      </trkpt>
      <trkpt lat="46.85294" lon="5.90883">
        <ele>604.3</ele>
        <time>2021-08-12T06:44:42Z</time>
      </trkpt>
      <trkpt lat="46.8529" lon="5.90886">
        <ele>601</ele>
        <time>2021-08-12T06:45:09Z</time>
      </trkpt>
      <trkpt lat="46.85287" lon="5.90892">
        <ele>600.9</ele>
        <time>2021-08-12T06:45:12Z</time>
      </trkpt>
      <trkpt lat="46.85282" lon="5.90893">
        <ele>600.3</ele>
        <time>2021-08-12T06:45:19Z</time>
      </trkpt>
      <trkpt lat="46.85278" lon="5.90897">
        <ele>599.5</ele>
        <time>2021-08-12T06:45:25Z</time>
      </trkpt>
      <trkpt lat="46.85274" lon="5.90903">
        <ele>599.3</ele>
        <time>2021-08-12T06:45:29Z</time>
      </trkpt>
      <trkpt lat="46.85271" lon="5.90908">
        <ele>599.1</ele>
        <time>2021-08-12T06:45:34Z</time>
      </trkpt>
      <trkpt lat="46.85267" lon="5.90913">
        <ele>599.7</ele>
        <time>2021-08-12T06:45:38Z</time>
      </trkpt>
      <trkpt lat="46.85264" lon="5.90917">
        <ele>600.6</ele>
        <time>2021-08-12T06:45:42Z</time>
      </trkpt>
      <trkpt lat="46.85259" lon="5.9092">
        <ele>601.4</ele>
        <time>2021-08-12T06:45:47Z</time>
      </trkpt>
      <trkpt lat="46.85255" lon="5.90924">
        <ele>601.7</ele>
        <time>2021-08-12T06:45:52Z</time>
      </trkpt>
      <trkpt lat="46.85251" lon="5.90927">
        <ele>601.9</ele>
        <time>2021-08-12T06:45:57Z</time>
      </trkpt>
      <trkpt lat="46.85247" lon="5.90932">
        <ele>602.1</ele>
        <time>2021-08-12T06:46:03Z</time>
      </trkpt>
      <trkpt lat="46.85244" lon="5.90937">
        <ele>602.3</ele>
        <time>2021-08-12T06:46:06Z</time>
      </trkpt>
      <trkpt lat="46.8524" lon="5.90943">
        <ele>602.5</ele>
        <time>2021-08-12T06:46:09Z</time>
      </trkpt>
      <trkpt lat="46.85236" lon="5.9095">
        <ele>602.7</ele>
        <time>2021-08-12T06:46:13Z</time>
      </trkpt>
      <trkpt lat="46.85231" lon="5.90949">
        <ele>602.4</ele>
        <time>2021-08-12T06:46:21Z</time>
      </trkpt>
      <trkpt lat="46.85227" lon="5.90946">
        <ele>602.1</ele>
        <time>2021-08-12T06:46:25Z</time>
      </trkpt>
      <trkpt lat="46.85223" lon="5.90941">
        <ele>601.9</ele>
        <time>2021-08-12T06:46:30Z</time>
      </trkpt>
      <trkpt lat="46.85219" lon="5.90937">
        <ele>601.7</ele>
        <time>2021-08-12T06:46:35Z</time>
      </trkpt>
      <trkpt lat="46.85223" lon="5.90934">
        <ele>601.4</ele>
        <time>2021-08-12T06:46:41Z</time>
      </trkpt>
      <trkpt lat="46.85226" lon="5.9093">
        <ele>600.4</ele>
        <time>2021-08-12T06:46:51Z</time>
      </trkpt>
      <trkpt lat="46.8523" lon="5.90925">
        <ele>599</ele>
        <time>2021-08-12T06:47:00Z</time>
      </trkpt>
      <trkpt lat="46.85231" lon="5.90918">
        <ele>597.8</ele>
        <time>2021-08-12T06:47:07Z</time>
      </trkpt>
      <trkpt lat="46.85231" lon="5.90909">
        <ele>597.7</ele>
        <time>2021-08-12T06:47:12Z</time>
      </trkpt>
      <trkpt lat="46.85231" lon="5.90901">
        <ele>597.7</ele>
        <time>2021-08-12T06:47:16Z</time>
      </trkpt>
      <trkpt lat="46.85229" lon="5.90895">
        <ele>598</ele>
        <time>2021-08-12T06:47:20Z</time>
      </trkpt>
      <trkpt lat="46.85228" lon="5.90887">
        <ele>598.4</ele>
        <time>2021-08-12T06:47:23Z</time>
      </trkpt>
      <trkpt lat="46.85228" lon="5.9088">
        <ele>599.2</ele>
        <time>2021-08-12T06:47:26Z</time>
      </trkpt>
      <trkpt lat="46.85234" lon="5.90877">
        <ele>599.8</ele>
        <time>2021-08-12T06:47:33Z</time>
      </trkpt>
      <trkpt lat="46.85238" lon="5.90873">
        <ele>599.4</ele>
        <time>2021-08-12T06:47:37Z</time>
      </trkpt>
      <trkpt lat="46.85233" lon="5.90871">
        <ele>596.3</ele>
        <time>2021-08-12T06:48:11Z</time>
      </trkpt>
      <trkpt lat="46.85232" lon="5.90864">
        <ele>597.2</ele>
        <time>2021-08-12T06:48:16Z</time>
      </trkpt>
      <trkpt lat="46.85235" lon="5.90859">
        <ele>598.9</ele>
        <time>2021-08-12T06:48:20Z</time>
      </trkpt>
      <trkpt lat="46.8524" lon="5.90854">
        <ele>601.3</ele>
        <time>2021-08-12T06:48:25Z</time>
      </trkpt>
      <trkpt lat="46.85244" lon="5.90851">
        <ele>603.4</ele>
        <time>2021-08-12T06:48:30Z</time>
      </trkpt>
      <trkpt lat="46.85242" lon="5.90845">
        <ele>607.7</ele>
        <time>2021-08-12T06:48:50Z</time>
      </trkpt>
      <trkpt lat="46.85242" lon="5.90838">
        <ele>613.6</ele>
        <time>2021-08-12T06:49:08Z</time>
      </trkpt>
      <trkpt lat="46.85241" lon="5.9083">
        <ele>614.6</ele>
        <time>2021-08-12T06:49:13Z</time>
      </trkpt>
      <trkpt lat="46.85237" lon="5.90824">
        <ele>615.1</ele>
        <time>2021-08-12T06:49:16Z</time>
      </trkpt>
      <trkpt lat="46.85232" lon="5.90819">
        <ele>615.9</ele>
        <time>2021-08-12T06:49:19Z</time>
      </trkpt>
      <trkpt lat="46.85227" lon="5.90815">
        <ele>616.2</ele>
        <time>2021-08-12T06:49:22Z</time>
      </trkpt>
      <trkpt lat="46.85225" lon="5.90809">
        <ele>618.8</ele>
        <time>2021-08-12T06:49:31Z</time>
      </trkpt>
      <trkpt lat="46.85222" lon="5.90803">
        <ele>619.3</ele>
        <time>2021-08-12T06:49:36Z</time>
      </trkpt>
      <trkpt lat="46.85219" lon="5.90797">
        <ele>619.4</ele>
        <time>2021-08-12T06:49:41Z</time>
      </trkpt>
      <trkpt lat="46.85216" lon="5.90792">
        <ele>618.8</ele>
        <time>2021-08-12T06:49:48Z</time>
      </trkpt>
      <trkpt lat="46.85216" lon="5.90785">
        <ele>618.6</ele>
        <time>2021-08-12T06:49:54Z</time>
      </trkpt>
      <trkpt lat="46.85212" lon="5.90783">
        <ele>617.1</ele>
        <time>2021-08-12T06:50:03Z</time>
      </trkpt>
      <trkpt lat="46.85208" lon="5.90777">
        <ele>616.4</ele>
        <time>2021-08-12T06:50:07Z</time>
      </trkpt>
      <trkpt lat="46.85204" lon="5.90773">
        <ele>616.1</ele>
        <time>2021-08-12T06:50:10Z</time>
      </trkpt>
      <trkpt lat="46.85199" lon="5.90771">
        <ele>616.4</ele>
        <time>2021-08-12T06:50:15Z</time>
      </trkpt>
      <trkpt lat="46.85199" lon="5.90764">
        <ele>615.9</ele>
        <time>2021-08-12T06:50:22Z</time>
      </trkpt>
      <trkpt lat="46.85199" lon="5.90757">
        <ele>615</ele>
        <time>2021-08-12T06:50:26Z</time>
      </trkpt>
      <trkpt lat="46.85197" lon="5.90751">
        <ele>614.2</ele>
        <time>2021-08-12T06:50:31Z</time>
      </trkpt>
      <trkpt lat="46.85195" lon="5.90744">
        <ele>614.1</ele>
        <time>2021-08-12T06:50:35Z</time>
      </trkpt>
      <trkpt lat="46.85196" lon="5.90737">
        <ele>614.5</ele>
        <time>2021-08-12T06:50:40Z</time>
      </trkpt>
      <trkpt lat="46.852" lon="5.90734">
        <ele>614.1</ele>
        <time>2021-08-12T06:50:45Z</time>
      </trkpt>
      <trkpt lat="46.85196" lon="5.90728">
        <ele>613.5</ele>
        <time>2021-08-12T06:50:51Z</time>
      </trkpt>
      <trkpt lat="46.85194" lon="5.90721">
        <ele>613.7</ele>
        <time>2021-08-12T06:51:00Z</time>
      </trkpt>
      <trkpt lat="46.85191" lon="5.90713">
        <ele>614.1</ele>
        <time>2021-08-12T06:51:04Z</time>
      </trkpt>
      <trkpt lat="46.85187" lon="5.90708">
        <ele>614.7</ele>
        <time>2021-08-12T06:51:07Z</time>
      </trkpt>
      <trkpt lat="46.85184" lon="5.90702">
        <ele>615.7</ele>
        <time>2021-08-12T06:51:11Z</time>
      </trkpt>
      <trkpt lat="46.85188" lon="5.90698">
        <ele>617.2</ele>
        <time>2021-08-12T06:51:17Z</time>
      </trkpt>
      <trkpt lat="46.85187" lon="5.90691">
        <ele>618.9</ele>
        <time>2021-08-12T06:51:25Z</time>
      </trkpt>
      <trkpt lat="46.85182" lon="5.90687">
        <ele>620.1</ele>
        <time>2021-08-12T06:51:29Z</time>
      </trkpt>
      <trkpt lat="46.85178" lon="5.90684">
        <ele>620.9</ele>
        <time>2021-08-12T06:51:33Z</time>
      </trkpt>
      <trkpt lat="46.85177" lon="5.90677">
        <ele>621.6</ele>
        <time>2021-08-12T06:51:38Z</time>
      </trkpt>
      <trkpt lat="46.85179" lon="5.90669">
        <ele>622.5</ele>
        <time>2021-08-12T06:51:44Z</time>
      </trkpt>
      <trkpt lat="46.85177" lon="5.90663">
        <ele>624.6</ele>
        <time>2021-08-12T06:52:01Z</time>
      </trkpt>
      <trkpt lat="46.85173" lon="5.90659">
        <ele>624.6</ele>
        <time>2021-08-12T06:52:05Z</time>
      </trkpt>
      <trkpt lat="46.85169" lon="5.90654">
        <ele>624.5</ele>
        <time>2021-08-12T06:52:09Z</time>
      </trkpt>
      <trkpt lat="46.85165" lon="5.90649">
        <ele>624.5</ele>
        <time>2021-08-12T06:52:12Z</time>
      </trkpt>
      <trkpt lat="46.8516" lon="5.90644">
        <ele>625.1</ele>
        <time>2021-08-12T06:52:15Z</time>
      </trkpt>
      <trkpt lat="46.85159" lon="5.90637">
        <ele>626.7</ele>
        <time>2021-08-12T06:52:19Z</time>
      </trkpt>
      <trkpt lat="46.8516" lon="5.90629">
        <ele>628.3</ele>
        <time>2021-08-12T06:52:22Z</time>
      </trkpt>
      <trkpt lat="46.85156" lon="5.90625">
        <ele>629.9</ele>
        <time>2021-08-12T06:52:26Z</time>
      </trkpt>
      <trkpt lat="46.85152" lon="5.90629">
        <ele>628.7</ele>
        <time>2021-08-12T06:52:41Z</time>
      </trkpt>
      <trkpt lat="46.85148" lon="5.90633">
        <ele>627.8</ele>
        <time>2021-08-12T06:52:47Z</time>
      </trkpt>
      <trkpt lat="46.85145" lon="5.90638">
        <ele>626.3</ele>
        <time>2021-08-12T06:52:55Z</time>
      </trkpt>
      <trkpt lat="46.85142" lon="5.90648">
        <ele>624.3</ele>
        <time>2021-08-12T06:53:29Z</time>
      </trkpt>
      <trkpt lat="46.85137" lon="5.90653">
        <ele>624.2</ele>
        <time>2021-08-12T06:53:32Z</time>
      </trkpt>
      <trkpt lat="46.85133" lon="5.90657">
        <ele>624.2</ele>
        <time>2021-08-12T06:53:36Z</time>
      </trkpt>
      <trkpt lat="46.85128" lon="5.90662">
        <ele>624.1</ele>
        <time>2021-08-12T06:53:39Z</time>
      </trkpt>
      <trkpt lat="46.85123" lon="5.90665">
        <ele>623.9</ele>
        <time>2021-08-12T06:53:43Z</time>
      </trkpt>
      <trkpt lat="46.85118" lon="5.90667">
        <ele>623.8</ele>
        <time>2021-08-12T06:53:48Z</time>
      </trkpt>
      <trkpt lat="46.85113" lon="5.90667">
        <ele>624.3</ele>
        <time>2021-08-12T06:53:54Z</time>
      </trkpt>
      <trkpt lat="46.85108" lon="5.9067">
        <ele>625.1</ele>
        <time>2021-08-12T06:53:59Z</time>
      </trkpt>
      <trkpt lat="46.85102" lon="5.9067">
        <ele>626</ele>
        <time>2021-08-12T06:54:05Z</time>
      </trkpt>
      <trkpt lat="46.85098" lon="5.90671">
        <ele>626.3</ele>
        <time>2021-08-12T06:54:11Z</time>
      </trkpt>
      <trkpt lat="46.85093" lon="5.9067">
        <ele>625.7</ele>
        <time>2021-08-12T06:54:17Z</time>
      </trkpt>
      <trkpt lat="46.85089" lon="5.90672">
        <ele>625</ele>
        <time>2021-08-12T06:54:22Z</time>
      </trkpt>
      <trkpt lat="46.85083" lon="5.90674">
        <ele>624.2</ele>
        <time>2021-08-12T06:54:32Z</time>
      </trkpt>
      <trkpt lat="46.85077" lon="5.90673">
        <ele>624.2</ele>
        <time>2021-08-12T06:54:35Z</time>
      </trkpt>
      <trkpt lat="46.8507" lon="5.90669">
        <ele>624.3</ele>
        <time>2021-08-12T06:54:38Z</time>
      </trkpt>
      <trkpt lat="46.85065" lon="5.90667">
        <ele>624.7</ele>
        <time>2021-08-12T06:54:42Z</time>
      </trkpt>
      <trkpt lat="46.85061" lon="5.90667">
        <ele>625.3</ele>
        <time>2021-08-12T06:54:46Z</time>
      </trkpt>
      <trkpt lat="46.85055" lon="5.90664">
        <ele>625.9</ele>
        <time>2021-08-12T06:54:49Z</time>
      </trkpt>
      <trkpt lat="46.8505" lon="5.9066">
        <ele>626.6</ele>
        <time>2021-08-12T06:54:53Z</time>
      </trkpt>
      <trkpt lat="46.85046" lon="5.90654">
        <ele>627</ele>
        <time>2021-08-12T06:54:56Z</time>
      </trkpt>
      <trkpt lat="46.85047" lon="5.90647">
        <ele>627</ele>
        <time>2021-08-12T06:55:08Z</time>
      </trkpt>
      <trkpt lat="46.85047" lon="5.9064">
        <ele>626.7</ele>
        <time>2021-08-12T06:55:11Z</time>
      </trkpt>
      <trkpt lat="46.85047" lon="5.90631">
        <ele>626.5</ele>
        <time>2021-08-12T06:55:14Z</time>
      </trkpt>
      <trkpt lat="46.85047" lon="5.90624">
        <ele>626.8</ele>
        <time>2021-08-12T06:55:17Z</time>
      </trkpt>
      <trkpt lat="46.85047" lon="5.90617">
        <ele>627.3</ele>
        <time>2021-08-12T06:55:21Z</time>
      </trkpt>
      <trkpt lat="46.85047" lon="5.90609">
        <ele>629</ele>
        <time>2021-08-12T06:55:32Z</time>
      </trkpt>
      <trkpt lat="46.85042" lon="5.90607">
        <ele>629.8</ele>
        <time>2021-08-12T06:55:36Z</time>
      </trkpt>
      <trkpt lat="46.85034" lon="5.90604">
        <ele>629.6</ele>
        <time>2021-08-12T06:55:39Z</time>
      </trkpt>
      <trkpt lat="46.85027" lon="5.90603">
        <ele>629</ele>
        <time>2021-08-12T06:55:42Z</time>
      </trkpt>
      <trkpt lat="46.8502" lon="5.906">
        <ele>628.2</ele>
        <time>2021-08-12T06:55:45Z</time>
      </trkpt>
      <trkpt lat="46.85015" lon="5.90596">
        <ele>627.5</ele>
        <time>2021-08-12T06:55:49Z</time>
      </trkpt>
      <trkpt lat="46.85011" lon="5.9059">
        <ele>626.7</ele>
        <time>2021-08-12T06:55:53Z</time>
      </trkpt>
      <trkpt lat="46.85006" lon="5.9059">
        <ele>626.1</ele>
        <time>2021-08-12T06:56:04Z</time>
      </trkpt>
      <trkpt lat="46.85002" lon="5.90591">
        <ele>629</ele>
        <time>2021-08-12T06:56:20Z</time>
      </trkpt>
      <trkpt lat="46.84997" lon="5.90592">
        <ele>630.2</ele>
        <time>2021-08-12T06:56:26Z</time>
      </trkpt>
      <trkpt lat="46.84992" lon="5.90592">
        <ele>631.2</ele>
        <time>2021-08-12T06:56:29Z</time>
      </trkpt>
      <trkpt lat="46.84986" lon="5.90594">
        <ele>632.4</ele>
        <time>2021-08-12T06:56:33Z</time>
      </trkpt>
      <trkpt lat="46.84982" lon="5.90598">
        <ele>632.8</ele>
        <time>2021-08-12T06:56:37Z</time>
      </trkpt>
      <trkpt lat="46.84978" lon="5.90601">
        <ele>632.8</ele>
        <time>2021-08-12T06:56:42Z</time>
      </trkpt>
      <trkpt lat="46.84974" lon="5.90603">
        <ele>631.7</ele>
        <time>2021-08-12T06:56:51Z</time>
      </trkpt>
      <trkpt lat="46.84972" lon="5.9061">
        <ele>631.2</ele>
        <time>2021-08-12T06:57:00Z</time>
      </trkpt>
      <trkpt lat="46.84968" lon="5.90614">
        <ele>631.3</ele>
        <time>2021-08-12T06:57:04Z</time>
      </trkpt>
      <trkpt lat="46.84964" lon="5.90617">
        <ele>629.5</ele>
        <time>2021-08-12T06:57:19Z</time>
      </trkpt>
      <trkpt lat="46.84958" lon="5.90619">
        <ele>628.2</ele>
        <time>2021-08-12T06:57:23Z</time>
      </trkpt>
      <trkpt lat="46.84954" lon="5.90619">
        <ele>627.2</ele>
        <time>2021-08-12T06:57:27Z</time>
      </trkpt>
      <trkpt lat="46.84948" lon="5.90619">
        <ele>626</ele>
        <time>2021-08-12T06:57:37Z</time>
      </trkpt>
      <trkpt lat="46.84942" lon="5.90618">
        <ele>625.6</ele>
        <time>2021-08-12T06:57:41Z</time>
      </trkpt>
      <trkpt lat="46.84938" lon="5.9062">
        <ele>625.3</ele>
        <time>2021-08-12T06:57:45Z</time>
      </trkpt>
      <trkpt lat="46.84933" lon="5.90625">
        <ele>624.8</ele>
        <time>2021-08-12T06:57:49Z</time>
      </trkpt>
      <trkpt lat="46.84929" lon="5.90628">
        <ele>624.7</ele>
        <time>2021-08-12T06:57:53Z</time>
      </trkpt>
      <trkpt lat="46.84924" lon="5.90628">
        <ele>624.6</ele>
        <time>2021-08-12T06:58:00Z</time>
      </trkpt>
      <trkpt lat="46.84918" lon="5.90628">
        <ele>624.7</ele>
        <time>2021-08-12T06:58:08Z</time>
      </trkpt>
      <trkpt lat="46.84914" lon="5.9063">
        <ele>624.9</ele>
        <time>2021-08-12T06:58:11Z</time>
      </trkpt>
      <trkpt lat="46.8491" lon="5.90636">
        <ele>624.5</ele>
        <time>2021-08-12T06:58:14Z</time>
      </trkpt>
      <trkpt lat="46.84905" lon="5.90641">
        <ele>624</ele>
        <time>2021-08-12T06:58:18Z</time>
      </trkpt>
      <trkpt lat="46.84902" lon="5.90645">
        <ele>623.8</ele>
        <time>2021-08-12T06:58:35Z</time>
      </trkpt>
      <trkpt lat="46.84897" lon="5.90648">
        <ele>623.9</ele>
        <time>2021-08-12T06:58:40Z</time>
      </trkpt>
      <trkpt lat="46.84893" lon="5.90651">
        <ele>624.1</ele>
        <time>2021-08-12T06:58:43Z</time>
      </trkpt>
      <trkpt lat="46.84888" lon="5.90654">
        <ele>624.5</ele>
        <time>2021-08-12T06:58:47Z</time>
      </trkpt>
      <trkpt lat="46.84883" lon="5.90659">
        <ele>625.9</ele>
        <time>2021-08-12T06:58:52Z</time>
      </trkpt>
      <trkpt lat="46.84881" lon="5.90664">
        <ele>626.7</ele>
        <time>2021-08-12T06:58:55Z</time>
      </trkpt>
      <trkpt lat="46.84878" lon="5.9067">
        <ele>627.6</ele>
        <time>2021-08-12T06:58:59Z</time>
      </trkpt>
      <trkpt lat="46.84873" lon="5.90668">
        <ele>629.3</ele>
        <time>2021-08-12T06:59:12Z</time>
      </trkpt>
      <trkpt lat="46.84875" lon="5.90661">
        <ele>633.4</ele>
        <time>2021-08-12T06:59:30Z</time>
      </trkpt>
      <trkpt lat="46.84879" lon="5.90658">
        <ele>634.2</ele>
        <time>2021-08-12T06:59:46Z</time>
      </trkpt>
      <trkpt lat="46.84875" lon="5.90654">
        <ele>631.5</ele>
        <time>2021-08-12T07:00:02Z</time>
      </trkpt>
      <trkpt lat="46.84877" lon="5.90661">
        <ele>630.9</ele>
        <time>2021-08-12T07:00:44Z</time>
      </trkpt>
      <trkpt lat="46.84877" lon="5.90668">
        <ele>629.8</ele>
        <time>2021-08-12T07:00:52Z</time>
      </trkpt>
      <trkpt lat="46.84874" lon="5.90674">
        <ele>630.3</ele>
        <time>2021-08-12T07:00:55Z</time>
      </trkpt>
      <trkpt lat="46.8487" lon="5.90679">
        <ele>631.7</ele>
        <time>2021-08-12T07:01:00Z</time>
      </trkpt>
      <trkpt lat="46.84865" lon="5.90681">
        <ele>633.2</ele>
        <time>2021-08-12T07:01:06Z</time>
      </trkpt>
      <trkpt lat="46.8486" lon="5.90681">
        <ele>633.8</ele>
        <time>2021-08-12T07:01:10Z</time>
      </trkpt>
      <trkpt lat="46.84856" lon="5.90683">
        <ele>634.7</ele>
        <time>2021-08-12T07:01:15Z</time>
      </trkpt>
      <trkpt lat="46.84851" lon="5.90683">
        <ele>635.5</ele>
        <time>2021-08-12T07:01:19Z</time>
      </trkpt>
      <trkpt lat="46.84846" lon="5.90685">
        <ele>636.6</ele>
        <time>2021-08-12T07:01:24Z</time>
      </trkpt>
      <trkpt lat="46.84841" lon="5.90688">
        <ele>637.4</ele>
        <time>2021-08-12T07:01:30Z</time>
      </trkpt>
      <trkpt lat="46.84837" lon="5.90689">
        <ele>638.1</ele>
        <time>2021-08-12T07:01:37Z</time>
      </trkpt>
      <trkpt lat="46.84832" lon="5.90689">
        <ele>638.5</ele>
        <time>2021-08-12T07:01:44Z</time>
      </trkpt>
      <trkpt lat="46.84827" lon="5.90689">
        <ele>638.4</ele>
        <time>2021-08-12T07:01:49Z</time>
      </trkpt>
      <trkpt lat="46.84822" lon="5.9069">
        <ele>639.2</ele>
        <time>2021-08-12T07:01:57Z</time>
      </trkpt>
      <trkpt lat="46.84817" lon="5.90692">
        <ele>639.4</ele>
        <time>2021-08-12T07:02:01Z</time>
      </trkpt>
      <trkpt lat="46.84812" lon="5.90695">
        <ele>639.1</ele>
        <time>2021-08-12T07:02:05Z</time>
      </trkpt>
      <trkpt lat="46.84807" lon="5.90696">
        <ele>638.7</ele>
        <time>2021-08-12T07:02:11Z</time>
      </trkpt>
      <trkpt lat="46.84805" lon="5.90702">
        <ele>638.4</ele>
        <time>2021-08-12T07:02:21Z</time>
      </trkpt>
      <trkpt lat="46.84801" lon="5.90704">
        <ele>638.1</ele>
        <time>2021-08-12T07:02:29Z</time>
      </trkpt>
      <trkpt lat="46.84794" lon="5.90707">
        <ele>637.7</ele>
        <time>2021-08-12T07:02:32Z</time>
      </trkpt>
      <trkpt lat="46.84787" lon="5.90711">
        <ele>637.3</ele>
        <time>2021-08-12T07:02:35Z</time>
      </trkpt>
      <trkpt lat="46.84782" lon="5.90711">
        <ele>636.9</ele>
        <time>2021-08-12T07:02:38Z</time>
      </trkpt>
      <trkpt lat="46.84778" lon="5.9071">
        <ele>636.4</ele>
        <time>2021-08-12T07:02:41Z</time>
      </trkpt>
      <trkpt lat="46.84773" lon="5.90708">
        <ele>636.2</ele>
        <time>2021-08-12T07:02:44Z</time>
      </trkpt>
      <trkpt lat="46.84768" lon="5.90705">
        <ele>635.8</ele>
        <time>2021-08-12T07:02:49Z</time>
      </trkpt>
      <trkpt lat="46.84766" lon="5.90711">
        <ele>635</ele>
        <time>2021-08-12T07:03:01Z</time>
      </trkpt>
      <trkpt lat="46.84767" lon="5.90719">
        <ele>634.7</ele>
        <time>2021-08-12T07:03:06Z</time>
      </trkpt>
      <trkpt lat="46.84767" lon="5.90725">
        <ele>634.6</ele>
        <time>2021-08-12T07:03:12Z</time>
      </trkpt>
      <trkpt lat="46.84767" lon="5.90733">
        <ele>634.9</ele>
        <time>2021-08-12T07:03:17Z</time>
      </trkpt>
      <trkpt lat="46.84764" lon="5.90738">
        <ele>634.8</ele>
        <time>2021-08-12T07:03:23Z</time>
      </trkpt>
      <trkpt lat="46.84763" lon="5.90745">
        <ele>634.9</ele>
        <time>2021-08-12T07:03:29Z</time>
      </trkpt>
      <trkpt lat="46.84764" lon="5.90753">
        <ele>635.1</ele>
        <time>2021-08-12T07:03:34Z</time>
      </trkpt>
      <trkpt lat="46.8476" lon="5.90759">
        <ele>635.4</ele>
        <time>2021-08-12T07:03:38Z</time>
      </trkpt>
      <trkpt lat="46.84757" lon="5.90764">
        <ele>635.7</ele>
        <time>2021-08-12T07:03:42Z</time>
      </trkpt>
      <trkpt lat="46.84757" lon="5.90771">
        <ele>635.7</ele>
        <time>2021-08-12T07:03:49Z</time>
      </trkpt>
      <trkpt lat="46.84752" lon="5.90777">
        <ele>635.6</ele>
        <time>2021-08-12T07:03:55Z</time>
      </trkpt>
      <trkpt lat="46.84748" lon="5.90782">
        <ele>635.7</ele>
        <time>2021-08-12T07:03:59Z</time>
      </trkpt>
      <trkpt lat="46.84742" lon="5.90786">
        <ele>635.9</ele>
        <time>2021-08-12T07:04:02Z</time>
      </trkpt>
      <trkpt lat="46.84738" lon="5.90789">
        <ele>635.9</ele>
        <time>2021-08-12T07:04:05Z</time>
      </trkpt>
      <trkpt lat="46.84734" lon="5.90792">
        <ele>636</ele>
        <time>2021-08-12T07:04:09Z</time>
      </trkpt>
      <trkpt lat="46.84728" lon="5.90795">
        <ele>636.3</ele>
        <time>2021-08-12T07:04:13Z</time>
      </trkpt>
      <trkpt lat="46.84724" lon="5.90798">
        <ele>636.6</ele>
        <time>2021-08-12T07:04:17Z</time>
      </trkpt>
      <trkpt lat="46.84718" lon="5.908">
        <ele>637.3</ele>
        <time>2021-08-12T07:04:23Z</time>
      </trkpt>
      <trkpt lat="46.84714" lon="5.90799">
        <ele>638.2</ele>
        <time>2021-08-12T07:04:28Z</time>
      </trkpt>
      <trkpt lat="46.84709" lon="5.90794">
        <ele>638.9</ele>
        <time>2021-08-12T07:04:32Z</time>
      </trkpt>
      <trkpt lat="46.84705" lon="5.90789">
        <ele>639.6</ele>
        <time>2021-08-12T07:04:40Z</time>
      </trkpt>
      <trkpt lat="46.847" lon="5.90786">
        <ele>639.8</ele>
        <time>2021-08-12T07:04:43Z</time>
      </trkpt>
      <trkpt lat="46.84695" lon="5.90787">
        <ele>640.8</ele>
        <time>2021-08-12T07:04:49Z</time>
      </trkpt>
      <trkpt lat="46.84691" lon="5.90792">
        <ele>641.4</ele>
        <time>2021-08-12T07:04:56Z</time>
      </trkpt>
      <trkpt lat="46.84687" lon="5.90793">
        <ele>642.1</ele>
        <time>2021-08-12T07:05:00Z</time>
      </trkpt>
      <trkpt lat="46.84682" lon="5.9079">
        <ele>642.9</ele>
        <time>2021-08-12T07:05:04Z</time>
      </trkpt>
      <trkpt lat="46.84677" lon="5.90788">
        <ele>644.1</ele>
        <time>2021-08-12T07:05:10Z</time>
      </trkpt>
      <trkpt lat="46.84673" lon="5.9079">
        <ele>644.6</ele>
        <time>2021-08-12T07:05:16Z</time>
      </trkpt>
      <trkpt lat="46.84669" lon="5.90794">
        <ele>645.2</ele>
        <time>2021-08-12T07:05:22Z</time>
      </trkpt>
      <trkpt lat="46.84665" lon="5.90799">
        <ele>645.3</ele>
        <time>2021-08-12T07:05:31Z</time>
      </trkpt>
      <trkpt lat="46.84661" lon="5.90799">
        <ele>644.7</ele>
        <time>2021-08-12T07:05:38Z</time>
      </trkpt>
      <trkpt lat="46.84655" lon="5.90796">
        <ele>644</ele>
        <time>2021-08-12T07:05:41Z</time>
      </trkpt>
      <trkpt lat="46.8465" lon="5.90793">
        <ele>643.3</ele>
        <time>2021-08-12T07:05:44Z</time>
      </trkpt>
      <trkpt lat="46.84645" lon="5.90791">
        <ele>643</ele>
        <time>2021-08-12T07:05:47Z</time>
      </trkpt>
      <trkpt lat="46.8464" lon="5.9079">
        <ele>642.8</ele>
        <time>2021-08-12T07:05:50Z</time>
      </trkpt>
      <trkpt lat="46.84635" lon="5.90789">
        <ele>642.8</ele>
        <time>2021-08-12T07:05:53Z</time>
      </trkpt>
      <trkpt lat="46.84631" lon="5.90786">
        <ele>642.5</ele>
        <time>2021-08-12T07:05:57Z</time>
      </trkpt>
      <trkpt lat="46.84627" lon="5.90782">
        <ele>642</ele>
        <time>2021-08-12T07:06:01Z</time>
      </trkpt>
      <trkpt lat="46.84623" lon="5.90779">
        <ele>641.6</ele>
        <time>2021-08-12T07:06:05Z</time>
      </trkpt>
      <trkpt lat="46.84619" lon="5.90774">
        <ele>641.8</ele>
        <time>2021-08-12T07:06:13Z</time>
      </trkpt>
      <trkpt lat="46.84614" lon="5.90772">
        <ele>642.4</ele>
        <time>2021-08-12T07:06:18Z</time>
      </trkpt>
      <trkpt lat="46.8461" lon="5.90771">
        <ele>643.1</ele>
        <time>2021-08-12T07:06:26Z</time>
      </trkpt>
      <trkpt lat="46.84605" lon="5.90772">
        <ele>643.5</ele>
        <time>2021-08-12T07:06:30Z</time>
      </trkpt>
      <trkpt lat="46.84599" lon="5.9077">
        <ele>643.9</ele>
        <time>2021-08-12T07:06:34Z</time>
      </trkpt>
      <trkpt lat="46.84594" lon="5.90771">
        <ele>644.4</ele>
        <time>2021-08-12T07:06:40Z</time>
      </trkpt>
      <trkpt lat="46.84589" lon="5.90773">
        <ele>645</ele>
        <time>2021-08-12T07:06:47Z</time>
      </trkpt>
      <trkpt lat="46.84584" lon="5.9077">
        <ele>645.1</ele>
        <time>2021-08-12T07:06:53Z</time>
      </trkpt>
      <trkpt lat="46.8458" lon="5.90769">
        <ele>645.1</ele>
        <time>2021-08-12T07:06:58Z</time>
      </trkpt>
      <trkpt lat="46.84573" lon="5.90768">
        <ele>645.7</ele>
        <time>2021-08-12T07:07:03Z</time>
      </trkpt>
      <trkpt lat="46.84568" lon="5.90769">
        <ele>646.2</ele>
        <time>2021-08-12T07:07:06Z</time>
      </trkpt>
      <trkpt lat="46.84563" lon="5.9077">
        <ele>646.9</ele>
        <time>2021-08-12T07:07:10Z</time>
      </trkpt>
      <trkpt lat="46.84558" lon="5.90768">
        <ele>646.9</ele>
        <time>2021-08-12T07:07:19Z</time>
      </trkpt>
      <trkpt lat="46.84553" lon="5.90766">
        <ele>647.1</ele>
        <time>2021-08-12T07:07:28Z</time>
      </trkpt>
      <trkpt lat="46.84548" lon="5.90765">
        <ele>646.7</ele>
        <time>2021-08-12T07:07:33Z</time>
      </trkpt>
      <trkpt lat="46.84543" lon="5.90766">
        <ele>645.6</ele>
        <time>2021-08-12T07:07:38Z</time>
      </trkpt>
      <trkpt lat="46.84538" lon="5.90764">
        <ele>644.6</ele>
        <time>2021-08-12T07:07:42Z</time>
      </trkpt>
      <trkpt lat="46.84534" lon="5.90764">
        <ele>642.7</ele>
        <time>2021-08-12T07:07:58Z</time>
      </trkpt>
      <trkpt lat="46.84529" lon="5.90761">
        <ele>642.3</ele>
        <time>2021-08-12T07:08:04Z</time>
      </trkpt>
      <trkpt lat="46.84524" lon="5.9076">
        <ele>641.7</ele>
        <time>2021-08-12T07:08:13Z</time>
      </trkpt>
      <trkpt lat="46.84518" lon="5.90761">
        <ele>641.6</ele>
        <time>2021-08-12T07:08:16Z</time>
      </trkpt>
      <trkpt lat="46.84514" lon="5.90757">
        <ele>641.7</ele>
        <time>2021-08-12T07:08:21Z</time>
      </trkpt>
      <trkpt lat="46.84509" lon="5.90755">
        <ele>643</ele>
        <time>2021-08-12T07:08:39Z</time>
      </trkpt>
      <trkpt lat="46.84504" lon="5.90754">
        <ele>643.2</ele>
        <time>2021-08-12T07:08:43Z</time>
      </trkpt>
      <trkpt lat="46.84497" lon="5.90754">
        <ele>643.2</ele>
        <time>2021-08-12T07:08:46Z</time>
      </trkpt>
      <trkpt lat="46.84489" lon="5.90751">
        <ele>643.3</ele>
        <time>2021-08-12T07:08:49Z</time>
      </trkpt>
      <trkpt lat="46.84484" lon="5.90749">
        <ele>643.3</ele>
        <time>2021-08-12T07:08:52Z</time>
      </trkpt>
      <trkpt lat="46.84489" lon="5.90749">
        <ele>643.1</ele>
        <time>2021-08-12T07:09:07Z</time>
      </trkpt>
      <trkpt lat="46.84492" lon="5.90744">
        <ele>645.2</ele>
        <time>2021-08-12T07:09:14Z</time>
      </trkpt>
      <trkpt lat="46.84494" lon="5.90738">
        <ele>647.7</ele>
        <time>2021-08-12T07:09:20Z</time>
      </trkpt>
      <trkpt lat="46.84491" lon="5.90733">
        <ele>650.1</ele>
        <time>2021-08-12T07:09:29Z</time>
      </trkpt>
      <trkpt lat="46.84496" lon="5.90734">
        <ele>651.1</ele>
        <time>2021-08-12T07:09:37Z</time>
      </trkpt>
      <trkpt lat="46.84492" lon="5.90739">
        <ele>650.6</ele>
        <time>2021-08-12T07:09:51Z</time>
      </trkpt>
      <trkpt lat="46.84488" lon="5.90742">
        <ele>650.5</ele>
        <time>2021-08-12T07:09:54Z</time>
      </trkpt>
      <trkpt lat="46.84481" lon="5.90744">
        <ele>649.9</ele>
        <time>2021-08-12T07:09:57Z</time>
      </trkpt>
      <trkpt lat="46.84476" lon="5.90745">
        <ele>649</ele>
        <time>2021-08-12T07:10:00Z</time>
      </trkpt>
      <trkpt lat="46.84473" lon="5.90738">
        <ele>647</ele>
        <time>2021-08-12T07:10:11Z</time>
      </trkpt>
      <trkpt lat="46.84472" lon="5.90732">
        <ele>646.8</ele>
        <time>2021-08-12T07:10:14Z</time>
      </trkpt>
      <trkpt lat="46.84477" lon="5.90731">
        <ele>646.2</ele>
        <time>2021-08-12T07:10:29Z</time>
      </trkpt>
      <trkpt lat="46.84477" lon="5.90737">
        <ele>651.1</ele>
        <time>2021-08-12T07:10:56Z</time>
      </trkpt>
      <trkpt lat="46.84474" lon="5.90742">
        <ele>652.2</ele>
        <time>2021-08-12T07:11:11Z</time>
      </trkpt>
      <trkpt lat="46.84468" lon="5.90742">
        <ele>652.3</ele>
        <time>2021-08-12T07:11:15Z</time>
      </trkpt>
      <trkpt lat="46.84464" lon="5.90741">
        <ele>652.6</ele>
        <time>2021-08-12T07:11:20Z</time>
      </trkpt>
      <trkpt lat="46.84459" lon="5.90738">
        <ele>652.7</ele>
        <time>2021-08-12T07:11:25Z</time>
      </trkpt>
      <trkpt lat="46.84463" lon="5.90743">
        <ele>652.1</ele>
        <time>2021-08-12T07:11:28Z</time>
      </trkpt>
      <trkpt lat="46.84467" lon="5.90748">
        <ele>651.4</ele>
        <time>2021-08-12T07:11:31Z</time>
      </trkpt>
      <trkpt lat="46.84471" lon="5.90749">
        <ele>650.6</ele>
        <time>2021-08-12T07:11:38Z</time>
      </trkpt>
      <trkpt lat="46.84477" lon="5.90754">
        <ele>650.4</ele>
        <time>2021-08-12T07:11:54Z</time>
      </trkpt>
      <trkpt lat="46.8448" lon="5.90761">
        <ele>650</ele>
        <time>2021-08-12T07:11:57Z</time>
      </trkpt>
      <trkpt lat="46.84484" lon="5.90767">
        <ele>647.1</ele>
        <time>2021-08-12T07:12:10Z</time>
      </trkpt>
      <trkpt lat="46.84481" lon="5.90761">
        <ele>643.9</ele>
        <time>2021-08-12T07:12:20Z</time>
      </trkpt>
      <trkpt lat="46.84485" lon="5.90757">
        <ele>642.6</ele>
        <time>2021-08-12T07:12:25Z</time>
      </trkpt>
      <trkpt lat="46.84481" lon="5.90761">
        <ele>641.7</ele>
        <time>2021-08-12T07:12:44Z</time>
      </trkpt>
      <trkpt lat="46.84476" lon="5.90764">
        <ele>641.9</ele>
        <time>2021-08-12T07:12:50Z</time>
      </trkpt>
      <trkpt lat="46.84472" lon="5.90761">
        <ele>642.5</ele>
        <time>2021-08-12T07:12:58Z</time>
      </trkpt>
      <trkpt lat="46.84466" lon="5.9076">
        <ele>643.7</ele>
        <time>2021-08-12T07:13:03Z</time>
      </trkpt>
      <trkpt lat="46.84462" lon="5.90764">
        <ele>645.6</ele>
        <time>2021-08-12T07:13:09Z</time>
      </trkpt>
      <trkpt lat="46.84456" lon="5.90762">
        <ele>646.1</ele>
        <time>2021-08-12T07:13:12Z</time>
      </trkpt>
      <trkpt lat="46.84453" lon="5.90756">
        <ele>646.8</ele>
        <time>2021-08-12T07:13:23Z</time>
      </trkpt>
      <trkpt lat="46.84459" lon="5.9076">
        <ele>646.4</ele>
        <time>2021-08-12T07:13:46Z</time>
      </trkpt>
      <trkpt lat="46.84467" lon="5.90761">
        <ele>646.4</ele>
        <time>2021-08-12T07:13:49Z</time>
      </trkpt>
      <trkpt lat="46.84473" lon="5.9076">
        <ele>646.3</ele>
        <time>2021-08-12T07:13:52Z</time>
      </trkpt>
      <trkpt lat="46.84481" lon="5.90757">
        <ele>646</ele>
        <time>2021-08-12T07:13:55Z</time>
      </trkpt>
      <trkpt lat="46.84486" lon="5.90755">
        <ele>645.8</ele>
        <time>2021-08-12T07:13:58Z</time>
      </trkpt>
      <trkpt lat="46.84491" lon="5.90754">
        <ele>645.7</ele>
        <time>2021-08-12T07:14:05Z</time>
      </trkpt>
      <trkpt lat="46.84495" lon="5.90756">
        <ele>645.3</ele>
        <time>2021-08-12T07:14:13Z</time>
      </trkpt>
      <trkpt lat="46.84497" lon="5.9075">
        <ele>640.1</ele>
        <time>2021-08-12T07:14:42Z</time>
      </trkpt>
      <trkpt lat="46.84494" lon="5.90755">
        <ele>639.3</ele>
        <time>2021-08-12T07:14:53Z</time>
      </trkpt>
      <trkpt lat="46.84496" lon="5.90761">
        <ele>639.8</ele>
        <time>2021-08-12T07:14:59Z</time>
      </trkpt>
      <trkpt lat="46.84492" lon="5.90764">
        <ele>640.7</ele>
        <time>2021-08-12T07:15:13Z</time>
      </trkpt>
      <trkpt lat="46.84488" lon="5.90767">
        <ele>642.5</ele>
        <time>2021-08-12T07:15:22Z</time>
      </trkpt>
      <trkpt lat="46.84483" lon="5.90767">
        <ele>644.5</ele>
        <time>2021-08-12T07:15:27Z</time>
      </trkpt>
      <trkpt lat="46.84479" lon="5.90769">
        <ele>645</ele>
        <time>2021-08-12T07:15:33Z</time>
      </trkpt>
      <trkpt lat="46.84484" lon="5.90766">
        <ele>645.2</ele>
        <time>2021-08-12T07:15:49Z</time>
      </trkpt>
      <trkpt lat="46.84481" lon="5.90761">
        <ele>646.1</ele>
        <time>2021-08-12T07:15:59Z</time>
      </trkpt>
      <trkpt lat="46.84486" lon="5.90763">
        <ele>646.2</ele>
        <time>2021-08-12T07:16:08Z</time>
      </trkpt>
      <trkpt lat="46.8449" lon="5.90759">
        <ele>646.1</ele>
        <time>2021-08-12T07:16:12Z</time>
      </trkpt>
      <trkpt lat="46.84495" lon="5.9076">
        <ele>647.6</ele>
        <time>2021-08-12T07:16:35Z</time>
      </trkpt>
      <trkpt lat="46.84492" lon="5.90754">
        <ele>649.6</ele>
        <time>2021-08-12T07:16:47Z</time>
      </trkpt>
      <trkpt lat="46.84489" lon="5.90749">
        <ele>651.1</ele>
        <time>2021-08-12T07:16:50Z</time>
      </trkpt>
      <trkpt lat="46.84489" lon="5.90756">
        <ele>655.6</ele>
        <time>2021-08-12T07:17:07Z</time>
      </trkpt>
      <trkpt lat="46.84484" lon="5.90757">
        <ele>657.2</ele>
        <time>2021-08-12T07:17:12Z</time>
      </trkpt>
      <trkpt lat="46.8448" lon="5.90753">
        <ele>657.7</ele>
        <time>2021-08-12T07:17:15Z</time>
      </trkpt>
      <trkpt lat="46.84475" lon="5.90749">
        <ele>658</ele>
        <time>2021-08-12T07:17:20Z</time>
      </trkpt>
      <trkpt lat="46.84475" lon="5.90756">
        <ele>659.2</ele>
        <time>2021-08-12T07:17:46Z</time>
      </trkpt>
      <trkpt lat="46.84473" lon="5.9075">
        <ele>658.8</ele>
        <time>2021-08-12T07:18:23Z</time>
      </trkpt>
      <trkpt lat="46.84469" lon="5.90745">
        <ele>660.9</ele>
        <time>2021-08-12T07:18:42Z</time>
      </trkpt>
      <trkpt lat="46.84468" lon="5.90738">
        <ele>661.5</ele>
        <time>2021-08-12T07:18:49Z</time>
      </trkpt>
      <trkpt lat="46.84471" lon="5.90733">
        <ele>662.7</ele>
        <time>2021-08-12T07:19:05Z</time>
      </trkpt>
      <trkpt lat="46.84475" lon="5.90737">
        <ele>662.8</ele>
        <time>2021-08-12T07:19:12Z</time>
      </trkpt>
      <trkpt lat="46.84477" lon="5.9073">
        <ele>662.7</ele>
        <time>2021-08-12T07:19:21Z</time>
      </trkpt>
      <trkpt lat="46.84472" lon="5.90723">
        <ele>663.1</ele>
        <time>2021-08-12T07:19:31Z</time>
      </trkpt>
      <trkpt lat="46.8447" lon="5.90729">
        <ele>664.2</ele>
        <time>2021-08-12T07:19:41Z</time>
      </trkpt>
      <trkpt lat="46.84474" lon="5.90734">
        <ele>665.4</ele>
        <time>2021-08-12T07:19:47Z</time>
      </trkpt>
      <trkpt lat="46.84477" lon="5.9074">
        <ele>665.6</ele>
        <time>2021-08-12T07:19:51Z</time>
      </trkpt>
      <trkpt lat="46.84479" lon="5.90745">
        <ele>665.1</ele>
        <time>2021-08-12T07:19:57Z</time>
      </trkpt>
      <trkpt lat="46.84475" lon="5.90744">
        <ele>664.5</ele>
        <time>2021-08-12T07:20:06Z</time>
      </trkpt>
      <trkpt lat="46.84473" lon="5.90737">
        <ele>664.6</ele>
        <time>2021-08-12T07:20:15Z</time>
      </trkpt>
      <trkpt lat="46.84472" lon="5.90746">
        <ele>663.6</ele>
        <time>2021-08-12T07:20:25Z</time>
      </trkpt>
      <trkpt lat="46.84471" lon="5.90752">
        <ele>662.3</ele>
        <time>2021-08-12T07:20:29Z</time>
      </trkpt>
      <trkpt lat="46.84468" lon="5.90758">
        <ele>659.3</ele>
        <time>2021-08-12T07:20:35Z</time>
      </trkpt>
      <trkpt lat="46.84464" lon="5.90761">
        <ele>656.5</ele>
        <time>2021-08-12T07:20:42Z</time>
      </trkpt>
      <trkpt lat="46.8446" lon="5.90767">
        <ele>654.6</ele>
        <time>2021-08-12T07:20:46Z</time>
      </trkpt>
      <trkpt lat="46.84456" lon="5.9077">
        <ele>653.1</ele>
        <time>2021-08-12T07:20:50Z</time>
      </trkpt>
      <trkpt lat="46.84451" lon="5.90771">
        <ele>651.2</ele>
        <time>2021-08-12T07:20:55Z</time>
      </trkpt>
      <trkpt lat="46.84446" lon="5.90773">
        <ele>649.4</ele>
        <time>2021-08-12T07:20:59Z</time>
      </trkpt>
      <trkpt lat="46.84442" lon="5.90777">
        <ele>647.7</ele>
        <time>2021-08-12T07:21:04Z</time>
      </trkpt>
      <trkpt lat="46.84438" lon="5.9078">
        <ele>646</ele>
        <time>2021-08-12T07:21:11Z</time>
      </trkpt>
      <trkpt lat="46.84433" lon="5.90783">
        <ele>645.2</ele>
        <time>2021-08-12T07:21:18Z</time>
      </trkpt>
      <trkpt lat="46.84429" lon="5.90785">
        <ele>645.5</ele>
        <time>2021-08-12T07:21:23Z</time>
      </trkpt>
      <trkpt lat="46.84423" lon="5.90788">
        <ele>645.3</ele>
        <time>2021-08-12T07:21:29Z</time>
      </trkpt>
      <trkpt lat="46.84419" lon="5.90791">
        <ele>645</ele>
        <time>2021-08-12T07:21:33Z</time>
      </trkpt>
      <trkpt lat="46.84414" lon="5.90793">
        <ele>643.6</ele>
        <time>2021-08-12T07:21:40Z</time>
      </trkpt>
      <trkpt lat="46.8441" lon="5.90796">
        <ele>642.1</ele>
        <time>2021-08-12T07:21:46Z</time>
      </trkpt>
      <trkpt lat="46.84406" lon="5.908">
        <ele>641</ele>
        <time>2021-08-12T07:21:51Z</time>
      </trkpt>
      <trkpt lat="46.84402" lon="5.90804">
        <ele>639.8</ele>
        <time>2021-08-12T07:21:58Z</time>
      </trkpt>
      <trkpt lat="46.84398" lon="5.9081">
        <ele>639.8</ele>
        <time>2021-08-12T07:22:03Z</time>
      </trkpt>
      <trkpt lat="46.84394" lon="5.90814">
        <ele>639.7</ele>
        <time>2021-08-12T07:22:07Z</time>
      </trkpt>
      <trkpt lat="46.8439" lon="5.90817">
        <ele>639.3</ele>
        <time>2021-08-12T07:22:11Z</time>
      </trkpt>
      <trkpt lat="46.84385" lon="5.90819">
        <ele>639.1</ele>
        <time>2021-08-12T07:22:17Z</time>
      </trkpt>
      <trkpt lat="46.8438" lon="5.90821">
        <ele>639.2</ele>
        <time>2021-08-12T07:22:22Z</time>
      </trkpt>
      <trkpt lat="46.84375" lon="5.90821">
        <ele>639.1</ele>
        <time>2021-08-12T07:22:26Z</time>
      </trkpt>
      <trkpt lat="46.8437" lon="5.90821">
        <ele>638.7</ele>
        <time>2021-08-12T07:22:31Z</time>
      </trkpt>
      <trkpt lat="46.84366" lon="5.90819">
        <ele>638.3</ele>
        <time>2021-08-12T07:22:36Z</time>
      </trkpt>
      <trkpt lat="46.84361" lon="5.90815">
        <ele>637.5</ele>
        <time>2021-08-12T07:22:42Z</time>
      </trkpt>
      <trkpt lat="46.8436" lon="5.90821">
        <ele>637.5</ele>
        <time>2021-08-12T07:22:54Z</time>
      </trkpt>
      <trkpt lat="46.84359" lon="5.90814">
        <ele>637.2</ele>
        <time>2021-08-12T07:23:06Z</time>
      </trkpt>
      <trkpt lat="46.84354" lon="5.9081">
        <ele>637.1</ele>
        <time>2021-08-12T07:23:10Z</time>
      </trkpt>
      <trkpt lat="46.8435" lon="5.9081">
        <ele>636.9</ele>
        <time>2021-08-12T07:23:13Z</time>
      </trkpt>
      <trkpt lat="46.84344" lon="5.90811">
        <ele>636.8</ele>
        <time>2021-08-12T07:23:16Z</time>
      </trkpt>
      <trkpt lat="46.84337" lon="5.90809">
        <ele>636.9</ele>
        <time>2021-08-12T07:23:19Z</time>
      </trkpt>
      <trkpt lat="46.84329" lon="5.90803">
        <ele>637.3</ele>
        <time>2021-08-12T07:23:22Z</time>
      </trkpt>
      <trkpt lat="46.84324" lon="5.90794">
        <ele>637.5</ele>
        <time>2021-08-12T07:23:25Z</time>
      </trkpt>
      <trkpt lat="46.84321" lon="5.90789">
        <ele>637.9</ele>
        <time>2021-08-12T07:23:28Z</time>
      </trkpt>
      <trkpt lat="46.84316" lon="5.90786">
        <ele>638.3</ele>
        <time>2021-08-12T07:23:36Z</time>
      </trkpt>
      <trkpt lat="46.84312" lon="5.90784">
        <ele>638.7</ele>
        <time>2021-08-12T07:23:41Z</time>
      </trkpt>
      <trkpt lat="46.84307" lon="5.90783">
        <ele>639</ele>
        <time>2021-08-12T07:23:44Z</time>
      </trkpt>
      <trkpt lat="46.84301" lon="5.9078">
        <ele>639.3</ele>
        <time>2021-08-12T07:23:47Z</time>
      </trkpt>
      <trkpt lat="46.84295" lon="5.90775">
        <ele>639.7</ele>
        <time>2021-08-12T07:23:50Z</time>
      </trkpt>
      <trkpt lat="46.84289" lon="5.90771">
        <ele>640</ele>
        <time>2021-08-12T07:23:53Z</time>
      </trkpt>
      <trkpt lat="46.84286" lon="5.90765">
        <ele>640.8</ele>
        <time>2021-08-12T07:24:00Z</time>
      </trkpt>
      <trkpt lat="46.84282" lon="5.90762">
        <ele>640.7</ele>
        <time>2021-08-12T07:24:03Z</time>
      </trkpt>
      <trkpt lat="46.84279" lon="5.90758">
        <ele>640.7</ele>
        <time>2021-08-12T07:24:16Z</time>
      </trkpt>
      <trkpt lat="46.84275" lon="5.90752">
        <ele>640.1</ele>
        <time>2021-08-12T07:24:22Z</time>
      </trkpt>
      <trkpt lat="46.84272" lon="5.90747">
        <ele>639.5</ele>
        <time>2021-08-12T07:24:25Z</time>
      </trkpt>
      <trkpt lat="46.8427" lon="5.90741">
        <ele>638.9</ele>
        <time>2021-08-12T07:24:28Z</time>
      </trkpt>
      <trkpt lat="46.84266" lon="5.90736">
        <ele>637.9</ele>
        <time>2021-08-12T07:24:32Z</time>
      </trkpt>
      <trkpt lat="46.84263" lon="5.90731">
        <ele>637.7</ele>
        <time>2021-08-12T07:24:36Z</time>
      </trkpt>
      <trkpt lat="46.8426" lon="5.90725">
        <ele>637.6</ele>
        <time>2021-08-12T07:24:40Z</time>
      </trkpt>
      <trkpt lat="46.84261" lon="5.90718">
        <ele>638.2</ele>
        <time>2021-08-12T07:24:47Z</time>
      </trkpt>
      <trkpt lat="46.8426" lon="5.9071">
        <ele>639.1</ele>
        <time>2021-08-12T07:24:51Z</time>
      </trkpt>
      <trkpt lat="46.84257" lon="5.90705">
        <ele>638.6</ele>
        <time>2021-08-12T07:24:56Z</time>
      </trkpt>
      <trkpt lat="46.84254" lon="5.90699">
        <ele>637.6</ele>
        <time>2021-08-12T07:25:01Z</time>
      </trkpt>
      <trkpt lat="46.84252" lon="5.90692">
        <ele>636.8</ele>
        <time>2021-08-12T07:25:05Z</time>
      </trkpt>
      <trkpt lat="46.8425" lon="5.90685">
        <ele>635.7</ele>
        <time>2021-08-12T07:25:09Z</time>
      </trkpt>
      <trkpt lat="46.84251" lon="5.90679">
        <ele>634.9</ele>
        <time>2021-08-12T07:25:13Z</time>
      </trkpt>
      <trkpt lat="46.84252" lon="5.90671">
        <ele>634.1</ele>
        <time>2021-08-12T07:25:18Z</time>
      </trkpt>
      <trkpt lat="46.84253" lon="5.90664">
        <ele>634.2</ele>
        <time>2021-08-12T07:25:22Z</time>
      </trkpt>
      <trkpt lat="46.84254" lon="5.90656">
        <ele>634.8</ele>
        <time>2021-08-12T07:25:27Z</time>
      </trkpt>
      <trkpt lat="46.84254" lon="5.9065">
        <ele>635.4</ele>
        <time>2021-08-12T07:25:31Z</time>
      </trkpt>
      <trkpt lat="46.84253" lon="5.90643">
        <ele>634.9</ele>
        <time>2021-08-12T07:25:36Z</time>
      </trkpt>
      <trkpt lat="46.84254" lon="5.90635">
        <ele>635</ele>
        <time>2021-08-12T07:25:42Z</time>
      </trkpt>
      <trkpt lat="46.84254" lon="5.90628">
        <ele>635.7</ele>
        <time>2021-08-12T07:25:46Z</time>
      </trkpt>
      <trkpt lat="46.84251" lon="5.90621">
        <ele>636.1</ele>
        <time>2021-08-12T07:25:49Z</time>
      </trkpt>
      <trkpt lat="46.84248" lon="5.90617">
        <ele>636.6</ele>
        <time>2021-08-12T07:25:54Z</time>
      </trkpt>
      <trkpt lat="46.84243" lon="5.90612">
        <ele>637.1</ele>
        <time>2021-08-12T07:26:01Z</time>
      </trkpt>
      <trkpt lat="46.84241" lon="5.90605">
        <ele>637.3</ele>
        <time>2021-08-12T07:26:06Z</time>
      </trkpt>
      <trkpt lat="46.84238" lon="5.906">
        <ele>636.6</ele>
        <time>2021-08-12T07:26:14Z</time>
      </trkpt>
      <trkpt lat="46.84233" lon="5.90598">
        <ele>636.3</ele>
        <time>2021-08-12T07:26:18Z</time>
      </trkpt>
      <trkpt lat="46.84228" lon="5.90592">
        <ele>636</ele>
        <time>2021-08-12T07:26:22Z</time>
      </trkpt>
      <trkpt lat="46.84225" lon="5.90587">
        <ele>635.5</ele>
        <time>2021-08-12T07:26:26Z</time>
      </trkpt>
      <trkpt lat="46.8422" lon="5.90584">
        <ele>635.4</ele>
        <time>2021-08-12T07:26:29Z</time>
      </trkpt>
      <trkpt lat="46.84216" lon="5.90581">
        <ele>635.2</ele>
        <time>2021-08-12T07:26:34Z</time>
      </trkpt>
      <trkpt lat="46.84212" lon="5.90577">
        <ele>634.1</ele>
        <time>2021-08-12T07:26:57Z</time>
      </trkpt>
      <trkpt lat="46.84209" lon="5.90571">
        <ele>633.5</ele>
        <time>2021-08-12T07:27:03Z</time>
      </trkpt>
      <trkpt lat="46.84205" lon="5.90566">
        <ele>633.6</ele>
        <time>2021-08-12T07:27:07Z</time>
      </trkpt>
      <trkpt lat="46.84202" lon="5.90561">
        <ele>633.7</ele>
        <time>2021-08-12T07:27:10Z</time>
      </trkpt>
      <trkpt lat="46.842" lon="5.90555">
        <ele>634.1</ele>
        <time>2021-08-12T07:27:13Z</time>
      </trkpt>
      <trkpt lat="46.84202" lon="5.90547">
        <ele>634.7</ele>
        <time>2021-08-12T07:27:19Z</time>
      </trkpt>
      <trkpt lat="46.84204" lon="5.9054">
        <ele>634.3</ele>
        <time>2021-08-12T07:27:23Z</time>
      </trkpt>
      <trkpt lat="46.84206" lon="5.90534">
        <ele>634.2</ele>
        <time>2021-08-12T07:27:27Z</time>
      </trkpt>
      <trkpt lat="46.84209" lon="5.90527">
        <ele>634.5</ele>
        <time>2021-08-12T07:27:31Z</time>
      </trkpt>
      <trkpt lat="46.84212" lon="5.90522">
        <ele>635</ele>
        <time>2021-08-12T07:27:35Z</time>
      </trkpt>
      <trkpt lat="46.84216" lon="5.90518">
        <ele>635.7</ele>
        <time>2021-08-12T07:27:41Z</time>
      </trkpt>
      <trkpt lat="46.84217" lon="5.90511">
        <ele>636</ele>
        <time>2021-08-12T07:27:46Z</time>
      </trkpt>
      <trkpt lat="46.84217" lon="5.90503">
        <ele>635.6</ele>
        <time>2021-08-12T07:27:51Z</time>
      </trkpt>
      <trkpt lat="46.84217" lon="5.90497">
        <ele>634.9</ele>
        <time>2021-08-12T07:27:56Z</time>
      </trkpt>
      <trkpt lat="46.84213" lon="5.90492">
        <ele>633.5</ele>
        <time>2021-08-12T07:28:03Z</time>
      </trkpt>
      <trkpt lat="46.84209" lon="5.90487">
        <ele>632.8</ele>
        <time>2021-08-12T07:28:07Z</time>
      </trkpt>
      <trkpt lat="46.84206" lon="5.9048">
        <ele>632.2</ele>
        <time>2021-08-12T07:28:11Z</time>
      </trkpt>
      <trkpt lat="46.84202" lon="5.90476">
        <ele>631.8</ele>
        <time>2021-08-12T07:28:14Z</time>
      </trkpt>
      <trkpt lat="46.84198" lon="5.90472">
        <ele>631.5</ele>
        <time>2021-08-12T07:28:17Z</time>
      </trkpt>
      <trkpt lat="46.84201" lon="5.90466">
        <ele>630</ele>
        <time>2021-08-12T07:28:27Z</time>
      </trkpt>
      <trkpt lat="46.84201" lon="5.90459">
        <ele>628.3</ele>
        <time>2021-08-12T07:28:39Z</time>
      </trkpt>
      <trkpt lat="46.842" lon="5.9045">
        <ele>627.5</ele>
        <time>2021-08-12T07:28:44Z</time>
      </trkpt>
      <trkpt lat="46.84197" lon="5.90443">
        <ele>626.9</ele>
        <time>2021-08-12T07:28:48Z</time>
      </trkpt>
      <trkpt lat="46.84194" lon="5.90437">
        <ele>626.2</ele>
        <time>2021-08-12T07:28:51Z</time>
      </trkpt>
      <trkpt lat="46.8419" lon="5.90433">
        <ele>625.6</ele>
        <time>2021-08-12T07:28:54Z</time>
      </trkpt>
      <trkpt lat="46.84188" lon="5.90427">
        <ele>625.3</ele>
        <time>2021-08-12T07:29:03Z</time>
      </trkpt>
      <trkpt lat="46.84182" lon="5.9042">
        <ele>624.5</ele>
        <time>2021-08-12T07:29:15Z</time>
      </trkpt>
      <trkpt lat="46.84179" lon="5.90416">
        <ele>624.2</ele>
        <time>2021-08-12T07:29:18Z</time>
      </trkpt>
      <trkpt lat="46.84174" lon="5.90411">
        <ele>623.8</ele>
        <time>2021-08-12T07:29:24Z</time>
      </trkpt>
      <trkpt lat="46.8417" lon="5.90406">
        <ele>623.8</ele>
        <time>2021-08-12T07:29:29Z</time>
      </trkpt>
      <trkpt lat="46.84166" lon="5.90402">
        <ele>623.9</ele>
        <time>2021-08-12T07:29:35Z</time>
      </trkpt>
      <trkpt lat="46.8416" lon="5.90399">
        <ele>623.7</ele>
        <time>2021-08-12T07:29:39Z</time>
      </trkpt>
      <trkpt lat="46.84156" lon="5.90398">
        <ele>623.8</ele>
        <time>2021-08-12T07:29:44Z</time>
      </trkpt>
      <trkpt lat="46.84151" lon="5.90395">
        <ele>623.2</ele>
        <time>2021-08-12T07:30:00Z</time>
      </trkpt>
      <trkpt lat="46.84147" lon="5.9039">
        <ele>623.1</ele>
        <time>2021-08-12T07:30:03Z</time>
      </trkpt>
      <trkpt lat="46.84145" lon="5.90383">
        <ele>622.4</ele>
        <time>2021-08-12T07:30:10Z</time>
      </trkpt>
      <trkpt lat="46.84142" lon="5.90377">
        <ele>622.1</ele>
        <time>2021-08-12T07:30:15Z</time>
      </trkpt>
      <trkpt lat="46.84137" lon="5.90373">
        <ele>621.7</ele>
        <time>2021-08-12T07:30:19Z</time>
      </trkpt>
      <trkpt lat="46.84133" lon="5.9037">
        <ele>621.2</ele>
        <time>2021-08-12T07:30:22Z</time>
      </trkpt>
      <trkpt lat="46.84128" lon="5.90367">
        <ele>620.3</ele>
        <time>2021-08-12T07:30:26Z</time>
      </trkpt>
      <trkpt lat="46.84123" lon="5.90363">
        <ele>619.7</ele>
        <time>2021-08-12T07:30:29Z</time>
      </trkpt>
      <trkpt lat="46.84118" lon="5.90359">
        <ele>618.9</ele>
        <time>2021-08-12T07:30:33Z</time>
      </trkpt>
      <trkpt lat="46.84114" lon="5.90354">
        <ele>618.3</ele>
        <time>2021-08-12T07:30:37Z</time>
      </trkpt>
      <trkpt lat="46.8411" lon="5.9035">
        <ele>618.1</ele>
        <time>2021-08-12T07:30:44Z</time>
      </trkpt>
      <trkpt lat="46.84107" lon="5.90344">
        <ele>617.9</ele>
        <time>2021-08-12T07:30:50Z</time>
      </trkpt>
      <trkpt lat="46.84103" lon="5.9034">
        <ele>617.2</ele>
        <time>2021-08-12T07:30:54Z</time>
      </trkpt>
      <trkpt lat="46.84099" lon="5.90336">
        <ele>617.1</ele>
        <time>2021-08-12T07:31:02Z</time>
      </trkpt>
      <trkpt lat="46.84094" lon="5.90333">
        <ele>616.8</ele>
        <time>2021-08-12T07:31:07Z</time>
      </trkpt>
      <trkpt lat="46.8409" lon="5.9033">
        <ele>616.6</ele>
        <time>2021-08-12T07:31:10Z</time>
      </trkpt>
      <trkpt lat="46.84085" lon="5.90329">
        <ele>616.5</ele>
        <time>2021-08-12T07:31:15Z</time>
      </trkpt>
      <trkpt lat="46.84082" lon="5.90323">
        <ele>616.7</ele>
        <time>2021-08-12T07:31:25Z</time>
      </trkpt>
      <trkpt lat="46.8408" lon="5.90317">
        <ele>617</ele>
        <time>2021-08-12T07:31:29Z</time>
      </trkpt>
      <trkpt lat="46.84077" lon="5.9031">
        <ele>617.2</ele>
        <time>2021-08-12T07:31:34Z</time>
      </trkpt>
      <trkpt lat="46.84074" lon="5.90304">
        <ele>617.2</ele>
        <time>2021-08-12T07:31:38Z</time>
      </trkpt>
      <trkpt lat="46.84073" lon="5.90296">
        <ele>617.3</ele>
        <time>2021-08-12T07:31:44Z</time>
      </trkpt>
      <trkpt lat="46.84071" lon="5.90288">
        <ele>618</ele>
        <time>2021-08-12T07:31:48Z</time>
      </trkpt>
      <trkpt lat="46.84069" lon="5.90282">
        <ele>619</ele>
        <time>2021-08-12T07:31:52Z</time>
      </trkpt>
      <trkpt lat="46.8407" lon="5.90276">
        <ele>620.2</ele>
        <time>2021-08-12T07:31:56Z</time>
      </trkpt>
      <trkpt lat="46.84072" lon="5.90268">
        <ele>621.4</ele>
        <time>2021-08-12T07:32:01Z</time>
      </trkpt>
      <trkpt lat="46.84073" lon="5.90261">
        <ele>622.3</ele>
        <time>2021-08-12T07:32:06Z</time>
      </trkpt>
      <trkpt lat="46.84071" lon="5.90253">
        <ele>622.9</ele>
        <time>2021-08-12T07:32:11Z</time>
      </trkpt>
      <trkpt lat="46.84071" lon="5.90246">
        <ele>623.4</ele>
        <time>2021-08-12T07:32:16Z</time>
      </trkpt>
      <trkpt lat="46.84074" lon="5.90241">
        <ele>623.9</ele>
        <time>2021-08-12T07:32:20Z</time>
      </trkpt>
      <trkpt lat="46.84074" lon="5.90234">
        <ele>625.3</ele>
        <time>2021-08-12T07:32:29Z</time>
      </trkpt>
      <trkpt lat="46.84071" lon="5.90228">
        <ele>625.9</ele>
        <time>2021-08-12T07:32:33Z</time>
      </trkpt>
      <trkpt lat="46.84068" lon="5.9022">
        <ele>626.4</ele>
        <time>2021-08-12T07:32:37Z</time>
      </trkpt>
      <trkpt lat="46.84064" lon="5.90217">
        <ele>626.4</ele>
        <time>2021-08-12T07:32:42Z</time>
      </trkpt>
      <trkpt lat="46.84061" lon="5.90212">
        <ele>626.6</ele>
        <time>2021-08-12T07:32:47Z</time>
      </trkpt>
      <trkpt lat="46.84057" lon="5.90207">
        <ele>627</ele>
        <time>2021-08-12T07:32:51Z</time>
      </trkpt>
      <trkpt lat="46.8406" lon="5.90201">
        <ele>627.9</ele>
        <time>2021-08-12T07:32:59Z</time>
      </trkpt>
      <trkpt lat="46.84059" lon="5.90193">
        <ele>628.1</ele>
        <time>2021-08-12T07:33:02Z</time>
      </trkpt>
      <trkpt lat="46.84059" lon="5.90186">
        <ele>628.2</ele>
        <time>2021-08-12T07:33:06Z</time>
      </trkpt>
      <trkpt lat="46.84061" lon="5.9018">
        <ele>628.5</ele>
        <time>2021-08-12T07:33:10Z</time>
      </trkpt>
      <trkpt lat="46.84062" lon="5.90173">
        <ele>629.1</ele>
        <time>2021-08-12T07:33:15Z</time>
      </trkpt>
      <trkpt lat="46.84061" lon="5.90166">
        <ele>629.5</ele>
        <time>2021-08-12T07:33:23Z</time>
      </trkpt>
      <trkpt lat="46.84061" lon="5.90158">
        <ele>629.9</ele>
        <time>2021-08-12T07:33:30Z</time>
      </trkpt>
      <trkpt lat="46.84059" lon="5.90153">
        <ele>629.7</ele>
        <time>2021-08-12T07:33:36Z</time>
      </trkpt>
      <trkpt lat="46.8406" lon="5.90146">
        <ele>629.5</ele>
        <time>2021-08-12T07:33:47Z</time>
      </trkpt>
      <trkpt lat="46.84061" lon="5.90139">
        <ele>628.5</ele>
        <time>2021-08-12T07:33:57Z</time>
      </trkpt>
      <trkpt lat="46.8406" lon="5.90132">
        <ele>627.8</ele>
        <time>2021-08-12T07:34:00Z</time>
      </trkpt>
      <trkpt lat="46.84058" lon="5.90125">
        <ele>627</ele>
        <time>2021-08-12T07:34:03Z</time>
      </trkpt>
      <trkpt lat="46.84056" lon="5.90118">
        <ele>626.1</ele>
        <time>2021-08-12T07:34:09Z</time>
      </trkpt>
      <trkpt lat="46.84053" lon="5.90111">
        <ele>625.6</ele>
        <time>2021-08-12T07:34:13Z</time>
      </trkpt>
      <trkpt lat="46.84049" lon="5.90104">
        <ele>625.3</ele>
        <time>2021-08-12T07:34:17Z</time>
      </trkpt>
      <trkpt lat="46.84045" lon="5.901">
        <ele>624.9</ele>
        <time>2021-08-12T07:34:21Z</time>
      </trkpt>
      <trkpt lat="46.84041" lon="5.90097">
        <ele>624.3</ele>
        <time>2021-08-12T07:34:25Z</time>
      </trkpt>
      <trkpt lat="46.84036" lon="5.90093">
        <ele>623.9</ele>
        <time>2021-08-12T07:34:30Z</time>
      </trkpt>
      <trkpt lat="46.84032" lon="5.90088">
        <ele>623.8</ele>
        <time>2021-08-12T07:34:34Z</time>
      </trkpt>
      <trkpt lat="46.84027" lon="5.90089">
        <ele>622.7</ele>
        <time>2021-08-12T07:34:46Z</time>
      </trkpt>
      <trkpt lat="46.84027" lon="5.90096">
        <ele>625.1</ele>
        <time>2021-08-12T07:35:37Z</time>
      </trkpt>
      <trkpt lat="46.84023" lon="5.90094">
        <ele>627.5</ele>
        <time>2021-08-12T07:35:41Z</time>
      </trkpt>
      <trkpt lat="46.84019" lon="5.9009">
        <ele>629.2</ele>
        <time>2021-08-12T07:35:45Z</time>
      </trkpt>
      <trkpt lat="46.84015" lon="5.90084">
        <ele>631.1</ele>
        <time>2021-08-12T07:35:51Z</time>
      </trkpt>
      <trkpt lat="46.84014" lon="5.90078">
        <ele>632.6</ele>
        <time>2021-08-12T07:35:57Z</time>
      </trkpt>
      <trkpt lat="46.84014" lon="5.90071">
        <ele>633.7</ele>
        <time>2021-08-12T07:36:02Z</time>
      </trkpt>
      <trkpt lat="46.84013" lon="5.90064">
        <ele>634.7</ele>
        <time>2021-08-12T07:36:06Z</time>
      </trkpt>
      <trkpt lat="46.84011" lon="5.90055">
        <ele>635.7</ele>
        <time>2021-08-12T07:36:10Z</time>
      </trkpt>
      <trkpt lat="46.8401" lon="5.90049">
        <ele>636.6</ele>
        <time>2021-08-12T07:36:16Z</time>
      </trkpt>
      <trkpt lat="46.84009" lon="5.90042">
        <ele>637.3</ele>
        <time>2021-08-12T07:36:21Z</time>
      </trkpt>
      <trkpt lat="46.84006" lon="5.90033">
        <ele>637.8</ele>
        <time>2021-08-12T07:36:24Z</time>
      </trkpt>
      <trkpt lat="46.84003" lon="5.90028">
        <ele>638.1</ele>
        <time>2021-08-12T07:36:28Z</time>
      </trkpt>
      <trkpt lat="46.84" lon="5.90022">
        <ele>638.6</ele>
        <time>2021-08-12T07:36:34Z</time>
      </trkpt>
      <trkpt lat="46.83997" lon="5.90018">
        <ele>639.3</ele>
        <time>2021-08-12T07:36:39Z</time>
      </trkpt>
      <trkpt lat="46.83996" lon="5.90011">
        <ele>639.7</ele>
        <time>2021-08-12T07:36:47Z</time>
      </trkpt>
      <trkpt lat="46.83992" lon="5.90006">
        <ele>638.9</ele>
        <time>2021-08-12T07:36:52Z</time>
      </trkpt>
      <trkpt lat="46.83986" lon="5.90003">
        <ele>637.7</ele>
        <time>2021-08-12T07:36:59Z</time>
      </trkpt>
      <trkpt lat="46.83983" lon="5.89998">
        <ele>637.2</ele>
        <time>2021-08-12T07:37:02Z</time>
      </trkpt>
      <trkpt lat="46.83979" lon="5.89993">
        <ele>636.9</ele>
        <time>2021-08-12T07:37:05Z</time>
      </trkpt>
      <trkpt lat="46.83977" lon="5.89986">
        <ele>636.7</ele>
        <time>2021-08-12T07:37:09Z</time>
      </trkpt>
      <trkpt lat="46.83972" lon="5.89982">
        <ele>636.9</ele>
        <time>2021-08-12T07:37:17Z</time>
      </trkpt>
      <trkpt lat="46.83966" lon="5.89981">
        <ele>637.2</ele>
        <time>2021-08-12T07:37:21Z</time>
      </trkpt>
      <trkpt lat="46.83962" lon="5.89979">
        <ele>637.4</ele>
        <time>2021-08-12T07:37:24Z</time>
      </trkpt>
      <trkpt lat="46.83957" lon="5.89977">
        <ele>637.9</ele>
        <time>2021-08-12T07:37:29Z</time>
      </trkpt>
      <trkpt lat="46.83954" lon="5.89972">
        <ele>638.3</ele>
        <time>2021-08-12T07:37:34Z</time>
      </trkpt>
      <trkpt lat="46.83951" lon="5.89965">
        <ele>638.3</ele>
        <time>2021-08-12T07:37:48Z</time>
      </trkpt>
      <trkpt lat="46.83948" lon="5.89961">
        <ele>638.5</ele>
        <time>2021-08-12T07:37:51Z</time>
      </trkpt>
      <trkpt lat="46.83944" lon="5.89956">
        <ele>638.5</ele>
        <time>2021-08-12T07:37:55Z</time>
      </trkpt>
      <trkpt lat="46.8394" lon="5.89951">
        <ele>637.5</ele>
        <time>2021-08-12T07:38:01Z</time>
      </trkpt>
      <trkpt lat="46.83936" lon="5.89948">
        <ele>636.7</ele>
        <time>2021-08-12T07:38:08Z</time>
      </trkpt>
      <trkpt lat="46.83932" lon="5.89943">
        <ele>635.8</ele>
        <time>2021-08-12T07:38:12Z</time>
      </trkpt>
      <trkpt lat="46.83927" lon="5.89939">
        <ele>634.7</ele>
        <time>2021-08-12T07:38:15Z</time>
      </trkpt>
      <trkpt lat="46.83923" lon="5.89936">
        <ele>632.8</ele>
        <time>2021-08-12T07:38:23Z</time>
      </trkpt>
      <trkpt lat="46.83921" lon="5.89929">
        <ele>631.7</ele>
        <time>2021-08-12T07:38:29Z</time>
      </trkpt>
      <trkpt lat="46.83919" lon="5.89922">
        <ele>631.2</ele>
        <time>2021-08-12T07:38:33Z</time>
      </trkpt>
      <trkpt lat="46.83916" lon="5.89917">
        <ele>630.9</ele>
        <time>2021-08-12T07:38:37Z</time>
      </trkpt>
      <trkpt lat="46.83912" lon="5.89912">
        <ele>630.8</ele>
        <time>2021-08-12T07:38:42Z</time>
      </trkpt>
      <trkpt lat="46.83907" lon="5.89908">
        <ele>630.9</ele>
        <time>2021-08-12T07:38:47Z</time>
      </trkpt>
      <trkpt lat="46.83904" lon="5.89903">
        <ele>631.3</ele>
        <time>2021-08-12T07:38:54Z</time>
      </trkpt>
      <trkpt lat="46.839" lon="5.89899">
        <ele>631.4</ele>
        <time>2021-08-12T07:39:10Z</time>
      </trkpt>
      <trkpt lat="46.83898" lon="5.89892">
        <ele>631.4</ele>
        <time>2021-08-12T07:39:15Z</time>
      </trkpt>
      <trkpt lat="46.83896" lon="5.89885">
        <ele>631.4</ele>
        <time>2021-08-12T07:39:22Z</time>
      </trkpt>
      <trkpt lat="46.83892" lon="5.89881">
        <ele>631</ele>
        <time>2021-08-12T07:39:26Z</time>
      </trkpt>
      <trkpt lat="46.83889" lon="5.89874">
        <ele>630.5</ele>
        <time>2021-08-12T07:39:31Z</time>
      </trkpt>
      <trkpt lat="46.83885" lon="5.89869">
        <ele>630.5</ele>
        <time>2021-08-12T07:39:35Z</time>
      </trkpt>
      <trkpt lat="46.83879" lon="5.89862">
        <ele>630.7</ele>
        <time>2021-08-12T07:39:38Z</time>
      </trkpt>
      <trkpt lat="46.83875" lon="5.89855">
        <ele>631</ele>
        <time>2021-08-12T07:39:41Z</time>
      </trkpt>
      <trkpt lat="46.83871" lon="5.89849">
        <ele>631.3</ele>
        <time>2021-08-12T07:39:44Z</time>
      </trkpt>
      <trkpt lat="46.83867" lon="5.89844">
        <ele>631.6</ele>
        <time>2021-08-12T07:39:49Z</time>
      </trkpt>
      <trkpt lat="46.83862" lon="5.89842">
        <ele>631.7</ele>
        <time>2021-08-12T07:39:53Z</time>
      </trkpt>
      <trkpt lat="46.83857" lon="5.89838">
        <ele>632.1</ele>
        <time>2021-08-12T07:39:57Z</time>
      </trkpt>
      <trkpt lat="46.83854" lon="5.89832">
        <ele>633.5</ele>
        <time>2021-08-12T07:40:02Z</time>
      </trkpt>
      <trkpt lat="46.8385" lon="5.89827">
        <ele>635</ele>
        <time>2021-08-12T07:40:06Z</time>
      </trkpt>
      <trkpt lat="46.83847" lon="5.89822">
        <ele>638.9</ele>
        <time>2021-08-12T07:40:16Z</time>
      </trkpt>
      <trkpt lat="46.83843" lon="5.89818">
        <ele>640.7</ele>
        <time>2021-08-12T07:40:23Z</time>
      </trkpt>
      <trkpt lat="46.83838" lon="5.89815">
        <ele>641.1</ele>
        <time>2021-08-12T07:40:27Z</time>
      </trkpt>
      <trkpt lat="46.83834" lon="5.89811">
        <ele>641.6</ele>
        <time>2021-08-12T07:40:31Z</time>
      </trkpt>
      <trkpt lat="46.8383" lon="5.89808">
        <ele>641.9</ele>
        <time>2021-08-12T07:40:35Z</time>
      </trkpt>
      <trkpt lat="46.83826" lon="5.89804">
        <ele>642.3</ele>
        <time>2021-08-12T07:40:40Z</time>
      </trkpt>
      <trkpt lat="46.83822" lon="5.89797">
        <ele>642.9</ele>
        <time>2021-08-12T07:40:46Z</time>
      </trkpt>
      <trkpt lat="46.83817" lon="5.89793">
        <ele>643.4</ele>
        <time>2021-08-12T07:40:49Z</time>
      </trkpt>
      <trkpt lat="46.83813" lon="5.89789">
        <ele>644.2</ele>
        <time>2021-08-12T07:40:53Z</time>
      </trkpt>
      <trkpt lat="46.83809" lon="5.89787">
        <ele>645.6</ele>
        <time>2021-08-12T07:41:01Z</time>
      </trkpt>
      <trkpt lat="46.83804" lon="5.89783">
        <ele>646</ele>
        <time>2021-08-12T07:41:05Z</time>
      </trkpt>
      <trkpt lat="46.83799" lon="5.8978">
        <ele>645.9</ele>
        <time>2021-08-12T07:41:10Z</time>
      </trkpt>
      <trkpt lat="46.83795" lon="5.89777">
        <ele>644.8</ele>
        <time>2021-08-12T07:41:17Z</time>
      </trkpt>
      <trkpt lat="46.83791" lon="5.89773">
        <ele>643.9</ele>
        <time>2021-08-12T07:41:22Z</time>
      </trkpt>
      <trkpt lat="46.83787" lon="5.89768">
        <ele>642.5</ele>
        <time>2021-08-12T07:41:29Z</time>
      </trkpt>
      <trkpt lat="46.83785" lon="5.8976">
        <ele>640.5</ele>
        <time>2021-08-12T07:41:34Z</time>
      </trkpt>
      <trkpt lat="46.83783" lon="5.89753">
        <ele>638.8</ele>
        <time>2021-08-12T07:41:38Z</time>
      </trkpt>
      <trkpt lat="46.83782" lon="5.89747">
        <ele>637.2</ele>
        <time>2021-08-12T07:41:43Z</time>
      </trkpt>
      <trkpt lat="46.83779" lon="5.8974">
        <ele>636</ele>
        <time>2021-08-12T07:41:48Z</time>
      </trkpt>
      <trkpt lat="46.83777" lon="5.89734">
        <ele>635.1</ele>
        <time>2021-08-12T07:41:53Z</time>
      </trkpt>
      <trkpt lat="46.83775" lon="5.89727">
        <ele>633.8</ele>
        <time>2021-08-12T07:42:00Z</time>
      </trkpt>
      <trkpt lat="46.83774" lon="5.8972">
        <ele>633</ele>
        <time>2021-08-12T07:42:04Z</time>
      </trkpt>
      <trkpt lat="46.83771" lon="5.89712">
        <ele>632</ele>
        <time>2021-08-12T07:42:08Z</time>
      </trkpt>
      <trkpt lat="46.8377" lon="5.89706">
        <ele>630.8</ele>
        <time>2021-08-12T07:42:12Z</time>
      </trkpt>
      <trkpt lat="46.83769" lon="5.89699">
        <ele>629</ele>
        <time>2021-08-12T07:42:20Z</time>
      </trkpt>
      <trkpt lat="46.83767" lon="5.89693">
        <ele>627.7</ele>
        <time>2021-08-12T07:42:26Z</time>
      </trkpt>
      <trkpt lat="46.83764" lon="5.89687">
        <ele>626.9</ele>
        <time>2021-08-12T07:42:30Z</time>
      </trkpt>
      <trkpt lat="46.83763" lon="5.8968">
        <ele>626.2</ele>
        <time>2021-08-12T07:42:35Z</time>
      </trkpt>
      <trkpt lat="46.83762" lon="5.89674">
        <ele>625.6</ele>
        <time>2021-08-12T07:42:42Z</time>
      </trkpt>
      <trkpt lat="46.83759" lon="5.89669">
        <ele>626.9</ele>
        <time>2021-08-12T07:42:54Z</time>
      </trkpt>
      <trkpt lat="46.83755" lon="5.89665">
        <ele>626.5</ele>
        <time>2021-08-12T07:43:00Z</time>
      </trkpt>
      <trkpt lat="46.83754" lon="5.89658">
        <ele>626</ele>
        <time>2021-08-12T07:43:05Z</time>
      </trkpt>
      <trkpt lat="46.83751" lon="5.89652">
        <ele>625.2</ele>
        <time>2021-08-12T07:43:10Z</time>
      </trkpt>
      <trkpt lat="46.83749" lon="5.89645">
        <ele>625</ele>
        <time>2021-08-12T07:43:14Z</time>
      </trkpt>
      <trkpt lat="46.83746" lon="5.89638">
        <ele>624.9</ele>
        <time>2021-08-12T07:43:19Z</time>
      </trkpt>
      <trkpt lat="46.83742" lon="5.89632">
        <ele>624.2</ele>
        <time>2021-08-12T07:43:25Z</time>
      </trkpt>
      <trkpt lat="46.8374" lon="5.89625">
        <ele>623.7</ele>
        <time>2021-08-12T07:43:29Z</time>
      </trkpt>
      <trkpt lat="46.83739" lon="5.89618">
        <ele>623.4</ele>
        <time>2021-08-12T07:43:34Z</time>
      </trkpt>
      <trkpt lat="46.83737" lon="5.89612">
        <ele>623.5</ele>
        <time>2021-08-12T07:43:38Z</time>
      </trkpt>
      <trkpt lat="46.83734" lon="5.89604">
        <ele>623.7</ele>
        <time>2021-08-12T07:43:48Z</time>
      </trkpt>
      <trkpt lat="46.83732" lon="5.89598">
        <ele>624.3</ele>
        <time>2021-08-12T07:43:52Z</time>
      </trkpt>
      <trkpt lat="46.8373" lon="5.89591">
        <ele>625</ele>
        <time>2021-08-12T07:43:57Z</time>
      </trkpt>
      <trkpt lat="46.8373" lon="5.89584">
        <ele>625.5</ele>
        <time>2021-08-12T07:44:02Z</time>
      </trkpt>
      <trkpt lat="46.83728" lon="5.89578">
        <ele>626.6</ele>
        <time>2021-08-12T07:44:08Z</time>
      </trkpt>
      <trkpt lat="46.83726" lon="5.89571">
        <ele>627</ele>
        <time>2021-08-12T07:44:13Z</time>
      </trkpt>
      <trkpt lat="46.83724" lon="5.89564">
        <ele>627.9</ele>
        <time>2021-08-12T07:44:18Z</time>
      </trkpt>
      <trkpt lat="46.83721" lon="5.89558">
        <ele>628.5</ele>
        <time>2021-08-12T07:44:23Z</time>
      </trkpt>
      <trkpt lat="46.83718" lon="5.8955">
        <ele>628.1</ele>
        <time>2021-08-12T07:44:28Z</time>
      </trkpt>
      <trkpt lat="46.83716" lon="5.89545">
        <ele>627.7</ele>
        <time>2021-08-12T07:44:32Z</time>
      </trkpt>
      <trkpt lat="46.83713" lon="5.89539">
        <ele>627.1</ele>
        <time>2021-08-12T07:44:38Z</time>
      </trkpt>
      <trkpt lat="46.83712" lon="5.89531">
        <ele>626.6</ele>
        <time>2021-08-12T07:44:42Z</time>
      </trkpt>
      <trkpt lat="46.83712" lon="5.89524">
        <ele>626</ele>
        <time>2021-08-12T07:44:47Z</time>
      </trkpt>
      <trkpt lat="46.83709" lon="5.89518">
        <ele>625.4</ele>
        <time>2021-08-12T07:44:52Z</time>
      </trkpt>
      <trkpt lat="46.83706" lon="5.89512">
        <ele>625.2</ele>
        <time>2021-08-12T07:44:56Z</time>
      </trkpt>
      <trkpt lat="46.83703" lon="5.89506">
        <ele>625.2</ele>
        <time>2021-08-12T07:45:01Z</time>
      </trkpt>
      <trkpt lat="46.837" lon="5.895">
        <ele>625.1</ele>
        <time>2021-08-12T07:45:08Z</time>
      </trkpt>
      <trkpt lat="46.83697" lon="5.89493">
        <ele>624.9</ele>
        <time>2021-08-12T07:45:14Z</time>
      </trkpt>
      <trkpt lat="46.83696" lon="5.89486">
        <ele>624.8</ele>
        <time>2021-08-12T07:45:18Z</time>
      </trkpt>
      <trkpt lat="46.83696" lon="5.89479">
        <ele>624.5</ele>
        <time>2021-08-12T07:45:23Z</time>
      </trkpt>
      <trkpt lat="46.83695" lon="5.89472">
        <ele>624.2</ele>
        <time>2021-08-12T07:45:27Z</time>
      </trkpt>
      <trkpt lat="46.83695" lon="5.89463">
        <ele>623.7</ele>
        <time>2021-08-12T07:45:32Z</time>
      </trkpt>
      <trkpt lat="46.83694" lon="5.89456">
        <ele>623</ele>
        <time>2021-08-12T07:45:36Z</time>
      </trkpt>
      <trkpt lat="46.83697" lon="5.8945">
        <ele>621.4</ele>
        <time>2021-08-12T07:45:43Z</time>
      </trkpt>
      <trkpt lat="46.83698" lon="5.89443">
        <ele>619.8</ele>
        <time>2021-08-12T07:45:47Z</time>
      </trkpt>
      <trkpt lat="46.83697" lon="5.89437">
        <ele>618</ele>
        <time>2021-08-12T07:45:58Z</time>
      </trkpt>
      <trkpt lat="46.83698" lon="5.8943">
        <ele>618.4</ele>
        <time>2021-08-12T07:46:07Z</time>
      </trkpt>
      <trkpt lat="46.83695" lon="5.89423">
        <ele>618.6</ele>
        <time>2021-08-12T07:46:13Z</time>
      </trkpt>
      <trkpt lat="46.83691" lon="5.89416">
        <ele>618.7</ele>
        <time>2021-08-12T07:46:17Z</time>
      </trkpt>
      <trkpt lat="46.83689" lon="5.89407">
        <ele>618.5</ele>
        <time>2021-08-12T07:46:20Z</time>
      </trkpt>
      <trkpt lat="46.83688" lon="5.894">
        <ele>618.4</ele>
        <time>2021-08-12T07:46:23Z</time>
      </trkpt>
      <trkpt lat="46.83688" lon="5.89393">
        <ele>618.3</ele>
        <time>2021-08-12T07:46:26Z</time>
      </trkpt>
      <trkpt lat="46.83688" lon="5.89386">
        <ele>618.3</ele>
        <time>2021-08-12T07:46:29Z</time>
      </trkpt>
      <trkpt lat="46.83688" lon="5.89379">
        <ele>618.5</ele>
        <time>2021-08-12T07:46:33Z</time>
      </trkpt>
      <trkpt lat="46.83686" lon="5.89371">
        <ele>618.6</ele>
        <time>2021-08-12T07:46:38Z</time>
      </trkpt>
      <trkpt lat="46.83684" lon="5.89365">
        <ele>618.7</ele>
        <time>2021-08-12T07:46:43Z</time>
      </trkpt>
      <trkpt lat="46.83683" lon="5.89358">
        <ele>618.1</ele>
        <time>2021-08-12T07:46:52Z</time>
      </trkpt>
      <trkpt lat="46.83681" lon="5.89352">
        <ele>617.7</ele>
        <time>2021-08-12T07:47:02Z</time>
      </trkpt>
      <trkpt lat="46.83682" lon="5.89345">
        <ele>617.8</ele>
        <time>2021-08-12T07:47:05Z</time>
      </trkpt>
      <trkpt lat="46.83682" lon="5.89338">
        <ele>618</ele>
        <time>2021-08-12T07:47:08Z</time>
      </trkpt>
      <trkpt lat="46.83681" lon="5.89331">
        <ele>618.5</ele>
        <time>2021-08-12T07:47:11Z</time>
      </trkpt>
      <trkpt lat="46.83679" lon="5.89324">
        <ele>619</ele>
        <time>2021-08-12T07:47:14Z</time>
      </trkpt>
      <trkpt lat="46.83676" lon="5.89318">
        <ele>619.6</ele>
        <time>2021-08-12T07:47:18Z</time>
      </trkpt>
      <trkpt lat="46.83673" lon="5.89312">
        <ele>620.1</ele>
        <time>2021-08-12T07:47:21Z</time>
      </trkpt>
      <trkpt lat="46.8367" lon="5.89306">
        <ele>621.3</ele>
        <time>2021-08-12T07:47:25Z</time>
      </trkpt>
      <trkpt lat="46.83668" lon="5.893">
        <ele>623.9</ele>
        <time>2021-08-12T07:47:33Z</time>
      </trkpt>
      <trkpt lat="46.83664" lon="5.89291">
        <ele>625.7</ele>
        <time>2021-08-12T07:47:54Z</time>
      </trkpt>
      <trkpt lat="46.83661" lon="5.89286">
        <ele>625.6</ele>
        <time>2021-08-12T07:47:57Z</time>
      </trkpt>
      <trkpt lat="46.83658" lon="5.89279">
        <ele>625.3</ele>
        <time>2021-08-12T07:48:01Z</time>
      </trkpt>
      <trkpt lat="46.83655" lon="5.89271">
        <ele>624.9</ele>
        <time>2021-08-12T07:48:05Z</time>
      </trkpt>
      <trkpt lat="46.83653" lon="5.89266">
        <ele>624.9</ele>
        <time>2021-08-12T07:48:08Z</time>
      </trkpt>
      <trkpt lat="46.83649" lon="5.8926">
        <ele>625</ele>
        <time>2021-08-12T07:48:12Z</time>
      </trkpt>
      <trkpt lat="46.83645" lon="5.89255">
        <ele>625.2</ele>
        <time>2021-08-12T07:48:16Z</time>
      </trkpt>
      <trkpt lat="46.8364" lon="5.89248">
        <ele>625.9</ele>
        <time>2021-08-12T07:48:19Z</time>
      </trkpt>
      <trkpt lat="46.83636" lon="5.89243">
        <ele>626.7</ele>
        <time>2021-08-12T07:48:22Z</time>
      </trkpt>
      <trkpt lat="46.83633" lon="5.89238">
        <ele>627.6</ele>
        <time>2021-08-12T07:48:25Z</time>
      </trkpt>
      <trkpt lat="46.8363" lon="5.89233">
        <ele>628</ele>
        <time>2021-08-12T07:48:30Z</time>
      </trkpt>
      <trkpt lat="46.83626" lon="5.89229">
        <ele>628.2</ele>
        <time>2021-08-12T07:48:34Z</time>
      </trkpt>
      <trkpt lat="46.83621" lon="5.89225">
        <ele>628.3</ele>
        <time>2021-08-12T07:48:39Z</time>
      </trkpt>
      <trkpt lat="46.83617" lon="5.89222">
        <ele>627.8</ele>
        <time>2021-08-12T07:48:47Z</time>
      </trkpt>
      <trkpt lat="46.83613" lon="5.89218">
        <ele>627.4</ele>
        <time>2021-08-12T07:48:51Z</time>
      </trkpt>
      <trkpt lat="46.83609" lon="5.89214">
        <ele>627.2</ele>
        <time>2021-08-12T07:48:55Z</time>
      </trkpt>
      <trkpt lat="46.83604" lon="5.89211">
        <ele>627.3</ele>
        <time>2021-08-12T07:49:01Z</time>
      </trkpt>
      <trkpt lat="46.83599" lon="5.89209">
        <ele>628</ele>
        <time>2021-08-12T07:49:05Z</time>
      </trkpt>
      <trkpt lat="46.83594" lon="5.89204">
        <ele>628.4</ele>
        <time>2021-08-12T07:49:09Z</time>
      </trkpt>
      <trkpt lat="46.83592" lon="5.89197">
        <ele>628.4</ele>
        <time>2021-08-12T07:49:13Z</time>
      </trkpt>
      <trkpt lat="46.83589" lon="5.89191">
        <ele>628.5</ele>
        <time>2021-08-12T07:49:18Z</time>
      </trkpt>
      <trkpt lat="46.83585" lon="5.89185">
        <ele>628.9</ele>
        <time>2021-08-12T07:49:23Z</time>
      </trkpt>
      <trkpt lat="46.83581" lon="5.89181">
        <ele>629.8</ele>
        <time>2021-08-12T07:49:29Z</time>
      </trkpt>
      <trkpt lat="46.83577" lon="5.89176">
        <ele>630.6</ele>
        <time>2021-08-12T07:49:34Z</time>
      </trkpt>
      <trkpt lat="46.83573" lon="5.89172">
        <ele>631.7</ele>
        <time>2021-08-12T07:49:42Z</time>
      </trkpt>
      <trkpt lat="46.83568" lon="5.8917">
        <ele>632.2</ele>
        <time>2021-08-12T07:49:48Z</time>
      </trkpt>
      <trkpt lat="46.83564" lon="5.89168">
        <ele>632.6</ele>
        <time>2021-08-12T07:49:55Z</time>
      </trkpt>
      <trkpt lat="46.83559" lon="5.89164">
        <ele>632.6</ele>
        <time>2021-08-12T07:50:01Z</time>
      </trkpt>
      <trkpt lat="46.83554" lon="5.89161">
        <ele>632.8</ele>
        <time>2021-08-12T07:50:05Z</time>
      </trkpt>
      <trkpt lat="46.83549" lon="5.89158">
        <ele>633</ele>
        <time>2021-08-12T07:50:08Z</time>
      </trkpt>
      <trkpt lat="46.83545" lon="5.89157">
        <ele>633.2</ele>
        <time>2021-08-12T07:50:12Z</time>
      </trkpt>
      <trkpt lat="46.83539" lon="5.89157">
        <ele>633.8</ele>
        <time>2021-08-12T07:50:21Z</time>
      </trkpt>
      <trkpt lat="46.83534" lon="5.89155">
        <ele>633.8</ele>
        <time>2021-08-12T07:50:25Z</time>
      </trkpt>
      <trkpt lat="46.8353" lon="5.89152">
        <ele>633.8</ele>
        <time>2021-08-12T07:50:29Z</time>
      </trkpt>
      <trkpt lat="46.83525" lon="5.89149">
        <ele>633.9</ele>
        <time>2021-08-12T07:50:35Z</time>
      </trkpt>
      <trkpt lat="46.83521" lon="5.89147">
        <ele>633.6</ele>
        <time>2021-08-12T07:50:39Z</time>
      </trkpt>
      <trkpt lat="46.83516" lon="5.89148">
        <ele>632.9</ele>
        <time>2021-08-12T07:50:43Z</time>
      </trkpt>
      <trkpt lat="46.83511" lon="5.89149">
        <ele>631.7</ele>
        <time>2021-08-12T07:50:49Z</time>
      </trkpt>
      <trkpt lat="46.83506" lon="5.89147">
        <ele>630.9</ele>
        <time>2021-08-12T07:50:55Z</time>
      </trkpt>
      <trkpt lat="46.83501" lon="5.89145">
        <ele>630.6</ele>
        <time>2021-08-12T07:50:59Z</time>
      </trkpt>
      <trkpt lat="46.83497" lon="5.89141">
        <ele>630.6</ele>
        <time>2021-08-12T07:51:03Z</time>
      </trkpt>
      <trkpt lat="46.83491" lon="5.89138">
        <ele>630.9</ele>
        <time>2021-08-12T07:51:08Z</time>
      </trkpt>
      <trkpt lat="46.83487" lon="5.89137">
        <ele>631.6</ele>
        <time>2021-08-12T07:51:11Z</time>
      </trkpt>
      <trkpt lat="46.83481" lon="5.89135">
        <ele>632.7</ele>
        <time>2021-08-12T07:51:15Z</time>
      </trkpt>
      <trkpt lat="46.83476" lon="5.89133">
        <ele>633.8</ele>
        <time>2021-08-12T07:51:19Z</time>
      </trkpt>
      <trkpt lat="46.83471" lon="5.89133">
        <ele>634.7</ele>
        <time>2021-08-12T07:51:23Z</time>
      </trkpt>
      <trkpt lat="46.83467" lon="5.89129">
        <ele>635.7</ele>
        <time>2021-08-12T07:51:30Z</time>
      </trkpt>
      <trkpt lat="46.83463" lon="5.89125">
        <ele>637</ele>
        <time>2021-08-12T07:51:36Z</time>
      </trkpt>
      <trkpt lat="46.83459" lon="5.89121">
        <ele>638.1</ele>
        <time>2021-08-12T07:51:44Z</time>
      </trkpt>
      <trkpt lat="46.83454" lon="5.8912">
        <ele>638.2</ele>
        <time>2021-08-12T07:51:48Z</time>
      </trkpt>
      <trkpt lat="46.83449" lon="5.89119">
        <ele>637.8</ele>
        <time>2021-08-12T07:51:52Z</time>
      </trkpt>
      <trkpt lat="46.83445" lon="5.8912">
        <ele>637.5</ele>
        <time>2021-08-12T07:52:01Z</time>
      </trkpt>
      <trkpt lat="46.8344" lon="5.89122">
        <ele>640.9</ele>
        <time>2021-08-12T07:53:42Z</time>
      </trkpt>
      <trkpt lat="46.83436" lon="5.89125">
        <ele>644.4</ele>
        <time>2021-08-12T07:54:05Z</time>
      </trkpt>
      <trkpt lat="46.83435" lon="5.89118">
        <ele>648.8</ele>
        <time>2021-08-12T07:54:26Z</time>
      </trkpt>
      <trkpt lat="46.83432" lon="5.89113">
        <ele>648.1</ele>
        <time>2021-08-12T07:54:37Z</time>
      </trkpt>
      <trkpt lat="46.83429" lon="5.89106">
        <ele>646.7</ele>
        <time>2021-08-12T07:54:49Z</time>
      </trkpt>
      <trkpt lat="46.83427" lon="5.89099">
        <ele>645.1</ele>
        <time>2021-08-12T07:54:53Z</time>
      </trkpt>
      <trkpt lat="46.83424" lon="5.89093">
        <ele>642.8</ele>
        <time>2021-08-12T07:54:59Z</time>
      </trkpt>
      <trkpt lat="46.83421" lon="5.89087">
        <ele>640.9</ele>
        <time>2021-08-12T07:55:04Z</time>
      </trkpt>
      <trkpt lat="46.83417" lon="5.89086">
        <ele>639.7</ele>
        <time>2021-08-12T07:55:09Z</time>
      </trkpt>
      <trkpt lat="46.83411" lon="5.89084">
        <ele>638.9</ele>
        <time>2021-08-12T07:55:15Z</time>
      </trkpt>
      <trkpt lat="46.83407" lon="5.8908">
        <ele>638.6</ele>
        <time>2021-08-12T07:55:20Z</time>
      </trkpt>
      <trkpt lat="46.83403" lon="5.89076">
        <ele>638.5</ele>
        <time>2021-08-12T07:55:25Z</time>
      </trkpt>
      <trkpt lat="46.83402" lon="5.89069">
        <ele>638.2</ele>
        <time>2021-08-12T07:55:30Z</time>
      </trkpt>
      <trkpt lat="46.83398" lon="5.89066">
        <ele>637.8</ele>
        <time>2021-08-12T07:55:35Z</time>
      </trkpt>
      <trkpt lat="46.83396" lon="5.89059">
        <ele>637.4</ele>
        <time>2021-08-12T07:55:42Z</time>
      </trkpt>
      <trkpt lat="46.83392" lon="5.89055">
        <ele>637.5</ele>
        <time>2021-08-12T07:55:48Z</time>
      </trkpt>
      <trkpt lat="46.83388" lon="5.89052">
        <ele>638</ele>
        <time>2021-08-12T07:55:53Z</time>
      </trkpt>
      <trkpt lat="46.83383" lon="5.8905">
        <ele>638.6</ele>
        <time>2021-08-12T07:55:56Z</time>
      </trkpt>
      <trkpt lat="46.83379" lon="5.89045">
        <ele>639.6</ele>
        <time>2021-08-12T07:56:00Z</time>
      </trkpt>
      <trkpt lat="46.83375" lon="5.89041">
        <ele>640.7</ele>
        <time>2021-08-12T07:56:04Z</time>
      </trkpt>
      <trkpt lat="46.83371" lon="5.89035">
        <ele>641.8</ele>
        <time>2021-08-12T07:56:09Z</time>
      </trkpt>
      <trkpt lat="46.83368" lon="5.8903">
        <ele>642.6</ele>
        <time>2021-08-12T07:56:13Z</time>
      </trkpt>
      <trkpt lat="46.83363" lon="5.89025">
        <ele>642.9</ele>
        <time>2021-08-12T07:56:17Z</time>
      </trkpt>
      <trkpt lat="46.8336" lon="5.89019">
        <ele>643</ele>
        <time>2021-08-12T07:56:22Z</time>
      </trkpt>
      <trkpt lat="46.83358" lon="5.89013">
        <ele>643</ele>
        <time>2021-08-12T07:56:25Z</time>
      </trkpt>
      <trkpt lat="46.83354" lon="5.89009">
        <ele>642.9</ele>
        <time>2021-08-12T07:56:28Z</time>
      </trkpt>
      <trkpt lat="46.8335" lon="5.89003">
        <ele>643</ele>
        <time>2021-08-12T07:56:33Z</time>
      </trkpt>
      <trkpt lat="46.83347" lon="5.88998">
        <ele>643.1</ele>
        <time>2021-08-12T07:56:38Z</time>
      </trkpt>
      <trkpt lat="46.83343" lon="5.88993">
        <ele>643.1</ele>
        <time>2021-08-12T07:56:42Z</time>
      </trkpt>
      <trkpt lat="46.83339" lon="5.88988">
        <ele>643.4</ele>
        <time>2021-08-12T07:56:46Z</time>
      </trkpt>
      <trkpt lat="46.83337" lon="5.88983">
        <ele>643.8</ele>
        <time>2021-08-12T07:56:51Z</time>
      </trkpt>
      <trkpt lat="46.83334" lon="5.88977">
        <ele>643.5</ele>
        <time>2021-08-12T07:56:55Z</time>
      </trkpt>
      <trkpt lat="46.83331" lon="5.88971">
        <ele>642.7</ele>
        <time>2021-08-12T07:57:01Z</time>
      </trkpt>
      <trkpt lat="46.83327" lon="5.88965">
        <ele>642.7</ele>
        <time>2021-08-12T07:57:06Z</time>
      </trkpt>
      <trkpt lat="46.83325" lon="5.88959">
        <ele>643.4</ele>
        <time>2021-08-12T07:57:12Z</time>
      </trkpt>
      <trkpt lat="46.83323" lon="5.88952">
        <ele>644.9</ele>
        <time>2021-08-12T07:57:18Z</time>
      </trkpt>
      <trkpt lat="46.8332" lon="5.88947">
        <ele>645.8</ele>
        <time>2021-08-12T07:57:22Z</time>
      </trkpt>
      <trkpt lat="46.83315" lon="5.88942">
        <ele>646.3</ele>
        <time>2021-08-12T07:57:26Z</time>
      </trkpt>
      <trkpt lat="46.83311" lon="5.88938">
        <ele>646.3</ele>
        <time>2021-08-12T07:57:30Z</time>
      </trkpt>
      <trkpt lat="46.83306" lon="5.88934">
        <ele>646</ele>
        <time>2021-08-12T07:57:35Z</time>
      </trkpt>
      <trkpt lat="46.83302" lon="5.8893">
        <ele>646.1</ele>
        <time>2021-08-12T07:57:38Z</time>
      </trkpt>
      <trkpt lat="46.83299" lon="5.88925">
        <ele>646</ele>
        <time>2021-08-12T07:57:42Z</time>
      </trkpt>
      <trkpt lat="46.83294" lon="5.88919">
        <ele>645.9</ele>
        <time>2021-08-12T07:57:46Z</time>
      </trkpt>
      <trkpt lat="46.8329" lon="5.88915">
        <ele>645.7</ele>
        <time>2021-08-12T07:57:50Z</time>
      </trkpt>
      <trkpt lat="46.83287" lon="5.88909">
        <ele>645</ele>
        <time>2021-08-12T07:57:57Z</time>
      </trkpt>
      <trkpt lat="46.83283" lon="5.88904">
        <ele>644.8</ele>
        <time>2021-08-12T07:58:01Z</time>
      </trkpt>
      <trkpt lat="46.8328" lon="5.88899">
        <ele>644.7</ele>
        <time>2021-08-12T07:58:05Z</time>
      </trkpt>
      <trkpt lat="46.83277" lon="5.88894">
        <ele>644.4</ele>
        <time>2021-08-12T07:58:09Z</time>
      </trkpt>
      <trkpt lat="46.83273" lon="5.88889">
        <ele>644</ele>
        <time>2021-08-12T07:58:13Z</time>
      </trkpt>
      <trkpt lat="46.8327" lon="5.88884">
        <ele>643.2</ele>
        <time>2021-08-12T07:58:17Z</time>
      </trkpt>
      <trkpt lat="46.83266" lon="5.88879">
        <ele>641.2</ele>
        <time>2021-08-12T07:58:24Z</time>
      </trkpt>
      <trkpt lat="46.83262" lon="5.88874">
        <ele>640.6</ele>
        <time>2021-08-12T07:58:28Z</time>
      </trkpt>
      <trkpt lat="46.83259" lon="5.88869">
        <ele>640</ele>
        <time>2021-08-12T07:58:32Z</time>
      </trkpt>
      <trkpt lat="46.83255" lon="5.88864">
        <ele>639.5</ele>
        <time>2021-08-12T07:58:37Z</time>
      </trkpt>
      <trkpt lat="46.83252" lon="5.88859">
        <ele>639.4</ele>
        <time>2021-08-12T07:58:43Z</time>
      </trkpt>
      <trkpt lat="46.83248" lon="5.88854">
        <ele>639.3</ele>
        <time>2021-08-12T07:58:48Z</time>
      </trkpt>
      <trkpt lat="46.83244" lon="5.88849">
        <ele>639.5</ele>
        <time>2021-08-12T07:58:52Z</time>
      </trkpt>
      <trkpt lat="46.8324" lon="5.88843">
        <ele>640</ele>
        <time>2021-08-12T07:58:57Z</time>
      </trkpt>
      <trkpt lat="46.83237" lon="5.88839">
        <ele>640.1</ele>
        <time>2021-08-12T07:59:01Z</time>
      </trkpt>
      <trkpt lat="46.83233" lon="5.88835">
        <ele>640</ele>
        <time>2021-08-12T07:59:06Z</time>
      </trkpt>
      <trkpt lat="46.83229" lon="5.88831">
        <ele>639.8</ele>
        <time>2021-08-12T07:59:11Z</time>
      </trkpt>
      <trkpt lat="46.83224" lon="5.88826">
        <ele>639.5</ele>
        <time>2021-08-12T07:59:16Z</time>
      </trkpt>
      <trkpt lat="46.8322" lon="5.88822">
        <ele>639.4</ele>
        <time>2021-08-12T07:59:20Z</time>
      </trkpt>
      <trkpt lat="46.83215" lon="5.88818">
        <ele>639.5</ele>
        <time>2021-08-12T07:59:24Z</time>
      </trkpt>
      <trkpt lat="46.8321" lon="5.88814">
        <ele>639.7</ele>
        <time>2021-08-12T07:59:29Z</time>
      </trkpt>
      <trkpt lat="46.83205" lon="5.88811">
        <ele>639.9</ele>
        <time>2021-08-12T07:59:34Z</time>
      </trkpt>
      <trkpt lat="46.832" lon="5.88809">
        <ele>640.1</ele>
        <time>2021-08-12T07:59:38Z</time>
      </trkpt>
      <trkpt lat="46.83196" lon="5.88806">
        <ele>640.4</ele>
        <time>2021-08-12T07:59:43Z</time>
      </trkpt>
      <trkpt lat="46.83191" lon="5.88803">
        <ele>640.9</ele>
        <time>2021-08-12T07:59:47Z</time>
      </trkpt>
      <trkpt lat="46.83186" lon="5.888">
        <ele>641.3</ele>
        <time>2021-08-12T07:59:50Z</time>
      </trkpt>
      <trkpt lat="46.83182" lon="5.88798">
        <ele>641.8</ele>
        <time>2021-08-12T07:59:54Z</time>
      </trkpt>
      <trkpt lat="46.83177" lon="5.88795">
        <ele>642.2</ele>
        <time>2021-08-12T07:59:58Z</time>
      </trkpt>
      <trkpt lat="46.83173" lon="5.88793">
        <ele>642.4</ele>
        <time>2021-08-12T08:00:02Z</time>
      </trkpt>
      <trkpt lat="46.83169" lon="5.8879">
        <ele>642.3</ele>
        <time>2021-08-12T08:00:06Z</time>
      </trkpt>
      <trkpt lat="46.83164" lon="5.88787">
        <ele>642.1</ele>
        <time>2021-08-12T08:00:11Z</time>
      </trkpt>
      <trkpt lat="46.83159" lon="5.88785">
        <ele>641</ele>
        <time>2021-08-12T08:00:19Z</time>
      </trkpt>
      <trkpt lat="46.83155" lon="5.88783">
        <ele>640.6</ele>
        <time>2021-08-12T08:00:23Z</time>
      </trkpt>
      <trkpt lat="46.83151" lon="5.8878">
        <ele>640.3</ele>
        <time>2021-08-12T08:00:27Z</time>
      </trkpt>
      <trkpt lat="46.83146" lon="5.88777">
        <ele>639.9</ele>
        <time>2021-08-12T08:00:32Z</time>
      </trkpt>
      <trkpt lat="46.83141" lon="5.88774">
        <ele>639.6</ele>
        <time>2021-08-12T08:00:37Z</time>
      </trkpt>
      <trkpt lat="46.83137" lon="5.88771">
        <ele>639</ele>
        <time>2021-08-12T08:00:43Z</time>
      </trkpt>
      <trkpt lat="46.83131" lon="5.8877">
        <ele>638.8</ele>
        <time>2021-08-12T08:00:49Z</time>
      </trkpt>
      <trkpt lat="46.83126" lon="5.88768">
        <ele>639.1</ele>
        <time>2021-08-12T08:00:54Z</time>
      </trkpt>
      <trkpt lat="46.83122" lon="5.88765">
        <ele>639.3</ele>
        <time>2021-08-12T08:00:59Z</time>
      </trkpt>
      <trkpt lat="46.83117" lon="5.88763">
        <ele>639</ele>
        <time>2021-08-12T08:01:06Z</time>
      </trkpt>
      <trkpt lat="46.83113" lon="5.88763">
        <ele>638.9</ele>
        <time>2021-08-12T08:01:11Z</time>
      </trkpt>
      <trkpt lat="46.83108" lon="5.88761">
        <ele>638.9</ele>
        <time>2021-08-12T08:01:16Z</time>
      </trkpt>
      <trkpt lat="46.83103" lon="5.8876">
        <ele>638.7</ele>
        <time>2021-08-12T08:01:22Z</time>
      </trkpt>
      <trkpt lat="46.83098" lon="5.88759">
        <ele>638.2</ele>
        <time>2021-08-12T08:01:28Z</time>
      </trkpt>
      <trkpt lat="46.83092" lon="5.88757">
        <ele>637.9</ele>
        <time>2021-08-12T08:01:32Z</time>
      </trkpt>
      <trkpt lat="46.83087" lon="5.88756">
        <ele>637.5</ele>
        <time>2021-08-12T08:01:36Z</time>
      </trkpt>
      <trkpt lat="46.83082" lon="5.88754">
        <ele>637.2</ele>
        <time>2021-08-12T08:01:41Z</time>
      </trkpt>
      <trkpt lat="46.83077" lon="5.88752">
        <ele>637</ele>
        <time>2021-08-12T08:01:46Z</time>
      </trkpt>
      <trkpt lat="46.83073" lon="5.8875">
        <ele>637</ele>
        <time>2021-08-12T08:01:50Z</time>
      </trkpt>
      <trkpt lat="46.83068" lon="5.88746">
        <ele>637.1</ele>
        <time>2021-08-12T08:01:55Z</time>
      </trkpt>
      <trkpt lat="46.83064" lon="5.88742">
        <ele>637.2</ele>
        <time>2021-08-12T08:02:00Z</time>
      </trkpt>
      <trkpt lat="46.8306" lon="5.88736">
        <ele>637.1</ele>
        <time>2021-08-12T08:02:05Z</time>
      </trkpt>
      <trkpt lat="46.83056" lon="5.88731">
        <ele>636.8</ele>
        <time>2021-08-12T08:02:10Z</time>
      </trkpt>
      <trkpt lat="46.83052" lon="5.88728">
        <ele>636.2</ele>
        <time>2021-08-12T08:02:16Z</time>
      </trkpt>
      <trkpt lat="46.83048" lon="5.88723">
        <ele>635.5</ele>
        <time>2021-08-12T08:02:22Z</time>
      </trkpt>
      <trkpt lat="46.83045" lon="5.88717">
        <ele>634.7</ele>
        <time>2021-08-12T08:02:27Z</time>
      </trkpt>
      <trkpt lat="46.83041" lon="5.88712">
        <ele>633.9</ele>
        <time>2021-08-12T08:02:31Z</time>
      </trkpt>
      <trkpt lat="46.83036" lon="5.88706">
        <ele>633.4</ele>
        <time>2021-08-12T08:02:35Z</time>
      </trkpt>
      <trkpt lat="46.83032" lon="5.88701">
        <ele>633.2</ele>
        <time>2021-08-12T08:02:38Z</time>
      </trkpt>
      <trkpt lat="46.83028" lon="5.88694">
        <ele>633.3</ele>
        <time>2021-08-12T08:02:41Z</time>
      </trkpt>
      <trkpt lat="46.83023" lon="5.88689">
        <ele>633.2</ele>
        <time>2021-08-12T08:02:44Z</time>
      </trkpt>
      <trkpt lat="46.83018" lon="5.88686">
        <ele>633</ele>
        <time>2021-08-12T08:03:00Z</time>
      </trkpt>
      <trkpt lat="46.83013" lon="5.88683">
        <ele>633</ele>
        <time>2021-08-12T08:03:04Z</time>
      </trkpt>
      <trkpt lat="46.83008" lon="5.8868">
        <ele>632.9</ele>
        <time>2021-08-12T08:03:09Z</time>
      </trkpt>
      <trkpt lat="46.83003" lon="5.88677">
        <ele>632.9</ele>
        <time>2021-08-12T08:03:13Z</time>
      </trkpt>
      <trkpt lat="46.82998" lon="5.88675">
        <ele>633.2</ele>
        <time>2021-08-12T08:03:17Z</time>
      </trkpt>
      <trkpt lat="46.82993" lon="5.88672">
        <ele>633.4</ele>
        <time>2021-08-12T08:03:21Z</time>
      </trkpt>
      <trkpt lat="46.82988" lon="5.88669">
        <ele>633.6</ele>
        <time>2021-08-12T08:03:25Z</time>
      </trkpt>
      <trkpt lat="46.82982" lon="5.88668">
        <ele>633.9</ele>
        <time>2021-08-12T08:03:29Z</time>
      </trkpt>
      <trkpt lat="46.82977" lon="5.88666">
        <ele>634.1</ele>
        <time>2021-08-12T08:03:34Z</time>
      </trkpt>
      <trkpt lat="46.82972" lon="5.88664">
        <ele>634.5</ele>
        <time>2021-08-12T08:03:39Z</time>
      </trkpt>
      <trkpt lat="46.82967" lon="5.88661">
        <ele>635.1</ele>
        <time>2021-08-12T08:03:45Z</time>
      </trkpt>
      <trkpt lat="46.82962" lon="5.88658">
        <ele>635.5</ele>
        <time>2021-08-12T08:03:50Z</time>
      </trkpt>
      <trkpt lat="46.82958" lon="5.88653">
        <ele>635.8</ele>
        <time>2021-08-12T08:03:55Z</time>
      </trkpt>
      <trkpt lat="46.82954" lon="5.88647">
        <ele>636</ele>
        <time>2021-08-12T08:03:59Z</time>
      </trkpt>
      <trkpt lat="46.8295" lon="5.88642">
        <ele>636.5</ele>
        <time>2021-08-12T08:04:04Z</time>
      </trkpt>
      <trkpt lat="46.82946" lon="5.88636">
        <ele>637.1</ele>
        <time>2021-08-12T08:04:10Z</time>
      </trkpt>
      <trkpt lat="46.82944" lon="5.88631">
        <ele>637.6</ele>
        <time>2021-08-12T08:04:16Z</time>
      </trkpt>
      <trkpt lat="46.8294" lon="5.88625">
        <ele>637.6</ele>
        <time>2021-08-12T08:04:21Z</time>
      </trkpt>
      <trkpt lat="46.82936" lon="5.88619">
        <ele>637.6</ele>
        <time>2021-08-12T08:04:25Z</time>
      </trkpt>
      <trkpt lat="46.82932" lon="5.88613">
        <ele>637.6</ele>
        <time>2021-08-12T08:04:30Z</time>
      </trkpt>
      <trkpt lat="46.82929" lon="5.88607">
        <ele>637.8</ele>
        <time>2021-08-12T08:04:35Z</time>
      </trkpt>
      <trkpt lat="46.82925" lon="5.88602">
        <ele>637.8</ele>
        <time>2021-08-12T08:04:39Z</time>
      </trkpt>
      <trkpt lat="46.82921" lon="5.88596">
        <ele>637.9</ele>
        <time>2021-08-12T08:04:43Z</time>
      </trkpt>
      <trkpt lat="46.82917" lon="5.8859">
        <ele>637.9</ele>
        <time>2021-08-12T08:04:47Z</time>
      </trkpt>
      <trkpt lat="46.82914" lon="5.88585">
        <ele>637.9</ele>
        <time>2021-08-12T08:04:51Z</time>
      </trkpt>
      <trkpt lat="46.82911" lon="5.88578">
        <ele>638</ele>
        <time>2021-08-12T08:04:56Z</time>
      </trkpt>
      <trkpt lat="46.82908" lon="5.88572">
        <ele>638</ele>
        <time>2021-08-12T08:05:00Z</time>
      </trkpt>
      <trkpt lat="46.82905" lon="5.88567">
        <ele>638</ele>
        <time>2021-08-12T08:05:04Z</time>
      </trkpt>
      <trkpt lat="46.82902" lon="5.88561">
        <ele>638</ele>
        <time>2021-08-12T08:05:08Z</time>
      </trkpt>
      <trkpt lat="46.82899" lon="5.88555">
        <ele>637.9</ele>
        <time>2021-08-12T08:05:14Z</time>
      </trkpt>
      <trkpt lat="46.82897" lon="5.88549">
        <ele>638</ele>
        <time>2021-08-12T08:05:18Z</time>
      </trkpt>
      <trkpt lat="46.82894" lon="5.88543">
        <ele>638.2</ele>
        <time>2021-08-12T08:05:22Z</time>
      </trkpt>
      <trkpt lat="46.82892" lon="5.88536">
        <ele>638.3</ele>
        <time>2021-08-12T08:05:26Z</time>
      </trkpt>
      <trkpt lat="46.8289" lon="5.8853">
        <ele>638.5</ele>
        <time>2021-08-12T08:05:29Z</time>
      </trkpt>
      <trkpt lat="46.82887" lon="5.88523">
        <ele>638.7</ele>
        <time>2021-08-12T08:05:33Z</time>
      </trkpt>
      <trkpt lat="46.82885" lon="5.88517">
        <ele>638.7</ele>
        <time>2021-08-12T08:05:37Z</time>
      </trkpt>
      <trkpt lat="46.82882" lon="5.8851">
        <ele>638.7</ele>
        <time>2021-08-12T08:05:41Z</time>
      </trkpt>
      <trkpt lat="46.82881" lon="5.88503">
        <ele>638.5</ele>
        <time>2021-08-12T08:05:48Z</time>
      </trkpt>
      <trkpt lat="46.8288" lon="5.88496">
        <ele>638.3</ele>
        <time>2021-08-12T08:05:52Z</time>
      </trkpt>
      <trkpt lat="46.82877" lon="5.88488">
        <ele>638.3</ele>
        <time>2021-08-12T08:05:56Z</time>
      </trkpt>
      <trkpt lat="46.82875" lon="5.88481">
        <ele>638.6</ele>
        <time>2021-08-12T08:06:00Z</time>
      </trkpt>
      <trkpt lat="46.82872" lon="5.88474">
        <ele>639.1</ele>
        <time>2021-08-12T08:06:04Z</time>
      </trkpt>
      <trkpt lat="46.8287" lon="5.88468">
        <ele>639.7</ele>
        <time>2021-08-12T08:06:08Z</time>
      </trkpt>
      <trkpt lat="46.82867" lon="5.88461">
        <ele>640.3</ele>
        <time>2021-08-12T08:06:12Z</time>
      </trkpt>
      <trkpt lat="46.82865" lon="5.88455">
        <ele>640.9</ele>
        <time>2021-08-12T08:06:17Z</time>
      </trkpt>
      <trkpt lat="46.82864" lon="5.88447">
        <ele>641.1</ele>
        <time>2021-08-12T08:06:22Z</time>
      </trkpt>
      <trkpt lat="46.82864" lon="5.8844">
        <ele>640.4</ele>
        <time>2021-08-12T08:06:30Z</time>
      </trkpt>
      <trkpt lat="46.82862" lon="5.88434">
        <ele>640</ele>
        <time>2021-08-12T08:06:36Z</time>
      </trkpt>
      <trkpt lat="46.8286" lon="5.88427">
        <ele>639.9</ele>
        <time>2021-08-12T08:06:41Z</time>
      </trkpt>
      <trkpt lat="46.82858" lon="5.8842">
        <ele>639.8</ele>
        <time>2021-08-12T08:06:46Z</time>
      </trkpt>
      <trkpt lat="46.82856" lon="5.88413">
        <ele>639.8</ele>
        <time>2021-08-12T08:06:50Z</time>
      </trkpt>
      <trkpt lat="46.82854" lon="5.88406">
        <ele>639.8</ele>
        <time>2021-08-12T08:06:54Z</time>
      </trkpt>
      <trkpt lat="46.82852" lon="5.88398">
        <ele>639.8</ele>
        <time>2021-08-12T08:06:59Z</time>
      </trkpt>
      <trkpt lat="46.82851" lon="5.88391">
        <ele>639.8</ele>
        <time>2021-08-12T08:07:04Z</time>
      </trkpt>
      <trkpt lat="46.82851" lon="5.88383">
        <ele>639.7</ele>
        <time>2021-08-12T08:07:11Z</time>
      </trkpt>
      <trkpt lat="46.8285" lon="5.88376">
        <ele>639.6</ele>
        <time>2021-08-12T08:07:17Z</time>
      </trkpt>
      <trkpt lat="46.8285" lon="5.88368">
        <ele>639.4</ele>
        <time>2021-08-12T08:07:22Z</time>
      </trkpt>
      <trkpt lat="46.82851" lon="5.88359">
        <ele>639.1</ele>
        <time>2021-08-12T08:07:26Z</time>
      </trkpt>
      <trkpt lat="46.82852" lon="5.88351">
        <ele>638.9</ele>
        <time>2021-08-12T08:07:30Z</time>
      </trkpt>
      <trkpt lat="46.82852" lon="5.88344">
        <ele>638.8</ele>
        <time>2021-08-12T08:07:34Z</time>
      </trkpt>
      <trkpt lat="46.82853" lon="5.88336">
        <ele>638.9</ele>
        <time>2021-08-12T08:07:38Z</time>
      </trkpt>
      <trkpt lat="46.82854" lon="5.88328">
        <ele>639.1</ele>
        <time>2021-08-12T08:07:42Z</time>
      </trkpt>
      <trkpt lat="46.82855" lon="5.88322">
        <ele>639.5</ele>
        <time>2021-08-12T08:07:46Z</time>
      </trkpt>
      <trkpt lat="46.82856" lon="5.88315">
        <ele>639.9</ele>
        <time>2021-08-12T08:07:50Z</time>
      </trkpt>
      <trkpt lat="46.82858" lon="5.88309">
        <ele>640.4</ele>
        <time>2021-08-12T08:07:56Z</time>
      </trkpt>
      <trkpt lat="46.8286" lon="5.88303">
        <ele>640.9</ele>
        <time>2021-08-12T08:08:01Z</time>
      </trkpt>
      <trkpt lat="46.82862" lon="5.88295">
        <ele>641.2</ele>
        <time>2021-08-12T08:08:06Z</time>
      </trkpt>
      <trkpt lat="46.82862" lon="5.88287">
        <ele>641.2</ele>
        <time>2021-08-12T08:08:11Z</time>
      </trkpt>
      <trkpt lat="46.82862" lon="5.88279">
        <ele>641.1</ele>
        <time>2021-08-12T08:08:15Z</time>
      </trkpt>
      <trkpt lat="46.82862" lon="5.88272">
        <ele>640.9</ele>
        <time>2021-08-12T08:08:19Z</time>
      </trkpt>
      <trkpt lat="46.82861" lon="5.88264">
        <ele>640.8</ele>
        <time>2021-08-12T08:08:23Z</time>
      </trkpt>
      <trkpt lat="46.8286" lon="5.88257">
        <ele>640.6</ele>
        <time>2021-08-12T08:08:27Z</time>
      </trkpt>
      <trkpt lat="46.8286" lon="5.8825">
        <ele>640.7</ele>
        <time>2021-08-12T08:08:31Z</time>
      </trkpt>
      <trkpt lat="46.8286" lon="5.88243">
        <ele>641.3</ele>
        <time>2021-08-12T08:08:38Z</time>
      </trkpt>
      <trkpt lat="46.82858" lon="5.88236">
        <ele>641.5</ele>
        <time>2021-08-12T08:08:43Z</time>
      </trkpt>
      <trkpt lat="46.82856" lon="5.88229">
        <ele>641.6</ele>
        <time>2021-08-12T08:08:48Z</time>
      </trkpt>
      <trkpt lat="46.82854" lon="5.88222">
        <ele>642.1</ele>
        <time>2021-08-12T08:08:53Z</time>
      </trkpt>
      <trkpt lat="46.82852" lon="5.88216">
        <ele>642.7</ele>
        <time>2021-08-12T08:08:58Z</time>
      </trkpt>
      <trkpt lat="46.8285" lon="5.8821">
        <ele>642.8</ele>
        <time>2021-08-12T08:09:03Z</time>
      </trkpt>
      <trkpt lat="46.82848" lon="5.88204">
        <ele>642.7</ele>
        <time>2021-08-12T08:09:09Z</time>
      </trkpt>
      <trkpt lat="46.82846" lon="5.88196">
        <ele>642.5</ele>
        <time>2021-08-12T08:09:15Z</time>
      </trkpt>
      <trkpt lat="46.82845" lon="5.8819">
        <ele>642.7</ele>
        <time>2021-08-12T08:09:19Z</time>
      </trkpt>
      <trkpt lat="46.82844" lon="5.88183">
        <ele>643.1</ele>
        <time>2021-08-12T08:09:25Z</time>
      </trkpt>
      <trkpt lat="46.8284" lon="5.88177">
        <ele>643.6</ele>
        <time>2021-08-12T08:09:30Z</time>
      </trkpt>
      <trkpt lat="46.82838" lon="5.8817">
        <ele>644</ele>
        <time>2021-08-12T08:09:34Z</time>
      </trkpt>
      <trkpt lat="46.82835" lon="5.88163">
        <ele>644.2</ele>
        <time>2021-08-12T08:09:38Z</time>
      </trkpt>
      <trkpt lat="46.82833" lon="5.88157">
        <ele>644.4</ele>
        <time>2021-08-12T08:09:43Z</time>
      </trkpt>
      <trkpt lat="46.82831" lon="5.88151">
        <ele>644.2</ele>
        <time>2021-08-12T08:09:49Z</time>
      </trkpt>
      <trkpt lat="46.82829" lon="5.88145">
        <ele>644.1</ele>
        <time>2021-08-12T08:09:53Z</time>
      </trkpt>
      <trkpt lat="46.82827" lon="5.88137">
        <ele>644.1</ele>
        <time>2021-08-12T08:09:58Z</time>
      </trkpt>
      <trkpt lat="46.82824" lon="5.88131">
        <ele>644.1</ele>
        <time>2021-08-12T08:10:03Z</time>
      </trkpt>
      <trkpt lat="46.82822" lon="5.88124">
        <ele>644.6</ele>
        <time>2021-08-12T08:10:08Z</time>
      </trkpt>
      <trkpt lat="46.82821" lon="5.88117">
        <ele>645</ele>
        <time>2021-08-12T08:10:12Z</time>
      </trkpt>
      <trkpt lat="46.8282" lon="5.88111">
        <ele>645.5</ele>
        <time>2021-08-12T08:10:16Z</time>
      </trkpt>
      <trkpt lat="46.82819" lon="5.88103">
        <ele>645.9</ele>
        <time>2021-08-12T08:10:21Z</time>
      </trkpt>
      <trkpt lat="46.82817" lon="5.88097">
        <ele>646.2</ele>
        <time>2021-08-12T08:10:24Z</time>
      </trkpt>
      <trkpt lat="46.82816" lon="5.8809">
        <ele>646.5</ele>
        <time>2021-08-12T08:10:27Z</time>
      </trkpt>
      <trkpt lat="46.82814" lon="5.88082">
        <ele>646.7</ele>
        <time>2021-08-12T08:10:31Z</time>
      </trkpt>
      <trkpt lat="46.82811" lon="5.88074">
        <ele>647.2</ele>
        <time>2021-08-12T08:10:35Z</time>
      </trkpt>
      <trkpt lat="46.8281" lon="5.88068">
        <ele>647.7</ele>
        <time>2021-08-12T08:10:38Z</time>
      </trkpt>
      <trkpt lat="46.82808" lon="5.88061">
        <ele>648</ele>
        <time>2021-08-12T08:10:41Z</time>
      </trkpt>
      <trkpt lat="46.82807" lon="5.88054">
        <ele>648.5</ele>
        <time>2021-08-12T08:10:45Z</time>
      </trkpt>
      <trkpt lat="46.82807" lon="5.88047">
        <ele>649.4</ele>
        <time>2021-08-12T08:10:51Z</time>
      </trkpt>
      <trkpt lat="46.82807" lon="5.8804">
        <ele>649.6</ele>
        <time>2021-08-12T08:10:57Z</time>
      </trkpt>
      <trkpt lat="46.82806" lon="5.88032">
        <ele>649.5</ele>
        <time>2021-08-12T08:11:01Z</time>
      </trkpt>
      <trkpt lat="46.82804" lon="5.88024">
        <ele>649.7</ele>
        <time>2021-08-12T08:11:05Z</time>
      </trkpt>
      <trkpt lat="46.82801" lon="5.88017">
        <ele>649.9</ele>
        <time>2021-08-12T08:11:09Z</time>
      </trkpt>
      <trkpt lat="46.82799" lon="5.88009">
        <ele>650</ele>
        <time>2021-08-12T08:11:13Z</time>
      </trkpt>
      <trkpt lat="46.82798" lon="5.88002">
        <ele>650.1</ele>
        <time>2021-08-12T08:11:18Z</time>
      </trkpt>
      <trkpt lat="46.82797" lon="5.87995">
        <ele>650.1</ele>
        <time>2021-08-12T08:11:23Z</time>
      </trkpt>
      <trkpt lat="46.82795" lon="5.87988">
        <ele>649.7</ele>
        <time>2021-08-12T08:11:28Z</time>
      </trkpt>
      <trkpt lat="46.82794" lon="5.87981">
        <ele>649.4</ele>
        <time>2021-08-12T08:11:32Z</time>
      </trkpt>
      <trkpt lat="46.82794" lon="5.87973">
        <ele>649.3</ele>
        <time>2021-08-12T08:11:37Z</time>
      </trkpt>
      <trkpt lat="46.82793" lon="5.87967">
        <ele>649.4</ele>
        <time>2021-08-12T08:11:42Z</time>
      </trkpt>
      <trkpt lat="46.82792" lon="5.8796">
        <ele>649.4</ele>
        <time>2021-08-12T08:11:47Z</time>
      </trkpt>
      <trkpt lat="46.8279" lon="5.87953">
        <ele>649.5</ele>
        <time>2021-08-12T08:11:52Z</time>
      </trkpt>
      <trkpt lat="46.8279" lon="5.87946">
        <ele>649.8</ele>
        <time>2021-08-12T08:11:57Z</time>
      </trkpt>
      <trkpt lat="46.82788" lon="5.87939">
        <ele>650.1</ele>
        <time>2021-08-12T08:12:01Z</time>
      </trkpt>
      <trkpt lat="46.82787" lon="5.87931">
        <ele>650.4</ele>
        <time>2021-08-12T08:12:05Z</time>
      </trkpt>
      <trkpt lat="46.82786" lon="5.87923">
        <ele>650.4</ele>
        <time>2021-08-12T08:12:09Z</time>
      </trkpt>
      <trkpt lat="46.82786" lon="5.87917">
        <ele>650.4</ele>
        <time>2021-08-12T08:12:15Z</time>
      </trkpt>
      <trkpt lat="46.82786" lon="5.87909">
        <ele>650.3</ele>
        <time>2021-08-12T08:12:20Z</time>
      </trkpt>
      <trkpt lat="46.82785" lon="5.87902">
        <ele>650.4</ele>
        <time>2021-08-12T08:12:24Z</time>
      </trkpt>
      <trkpt lat="46.82783" lon="5.87893">
        <ele>650.5</ele>
        <time>2021-08-12T08:12:28Z</time>
      </trkpt>
      <trkpt lat="46.82782" lon="5.87885">
        <ele>651</ele>
        <time>2021-08-12T08:12:32Z</time>
      </trkpt>
      <trkpt lat="46.82782" lon="5.87877">
        <ele>651.6</ele>
        <time>2021-08-12T08:12:36Z</time>
      </trkpt>
      <trkpt lat="46.82782" lon="5.8787">
        <ele>652.3</ele>
        <time>2021-08-12T08:12:40Z</time>
      </trkpt>
      <trkpt lat="46.82783" lon="5.87863">
        <ele>653.1</ele>
        <time>2021-08-12T08:12:46Z</time>
      </trkpt>
      <trkpt lat="46.82783" lon="5.87856">
        <ele>653.9</ele>
        <time>2021-08-12T08:12:51Z</time>
      </trkpt>
      <trkpt lat="46.82782" lon="5.87848">
        <ele>654.5</ele>
        <time>2021-08-12T08:12:55Z</time>
      </trkpt>
      <trkpt lat="46.82782" lon="5.8784">
        <ele>655</ele>
        <time>2021-08-12T08:12:59Z</time>
      </trkpt>
      <trkpt lat="46.82781" lon="5.87832">
        <ele>655.5</ele>
        <time>2021-08-12T08:13:04Z</time>
      </trkpt>
      <trkpt lat="46.8278" lon="5.87826">
        <ele>655.6</ele>
        <time>2021-08-12T08:13:15Z</time>
      </trkpt>
      <trkpt lat="46.82779" lon="5.87819">
        <ele>655.3</ele>
        <time>2021-08-12T08:13:20Z</time>
      </trkpt>
      <trkpt lat="46.82777" lon="5.87812">
        <ele>655.1</ele>
        <time>2021-08-12T08:13:24Z</time>
      </trkpt>
      <trkpt lat="46.82776" lon="5.87804">
        <ele>654.8</ele>
        <time>2021-08-12T08:13:28Z</time>
      </trkpt>
      <trkpt lat="46.82774" lon="5.87797">
        <ele>654.7</ele>
        <time>2021-08-12T08:13:32Z</time>
      </trkpt>
      <trkpt lat="46.82772" lon="5.87791">
        <ele>654.5</ele>
        <time>2021-08-12T08:13:36Z</time>
      </trkpt>
      <trkpt lat="46.8277" lon="5.87785">
        <ele>654.6</ele>
        <time>2021-08-12T08:13:40Z</time>
      </trkpt>
      <trkpt lat="46.82767" lon="5.87779">
        <ele>654.7</ele>
        <time>2021-08-12T08:13:44Z</time>
      </trkpt>
      <trkpt lat="46.82765" lon="5.87771">
        <ele>654.9</ele>
        <time>2021-08-12T08:13:49Z</time>
      </trkpt>
      <trkpt lat="46.82763" lon="5.87765">
        <ele>655</ele>
        <time>2021-08-12T08:13:55Z</time>
      </trkpt>
      <trkpt lat="46.82761" lon="5.87757">
        <ele>654.9</ele>
        <time>2021-08-12T08:14:01Z</time>
      </trkpt>
      <trkpt lat="46.8276" lon="5.87751">
        <ele>654.8</ele>
        <time>2021-08-12T08:14:05Z</time>
      </trkpt>
      <trkpt lat="46.82758" lon="5.87744">
        <ele>654.5</ele>
        <time>2021-08-12T08:14:10Z</time>
      </trkpt>
      <trkpt lat="46.82757" lon="5.87737">
        <ele>654.3</ele>
        <time>2021-08-12T08:14:14Z</time>
      </trkpt>
      <trkpt lat="46.82755" lon="5.87729">
        <ele>653.7</ele>
        <time>2021-08-12T08:14:19Z</time>
      </trkpt>
      <trkpt lat="46.82751" lon="5.87723">
        <ele>653.1</ele>
        <time>2021-08-12T08:14:24Z</time>
      </trkpt>
      <trkpt lat="46.82749" lon="5.87716">
        <ele>652.4</ele>
        <time>2021-08-12T08:14:29Z</time>
      </trkpt>
      <trkpt lat="46.82749" lon="5.8771">
        <ele>652</ele>
        <time>2021-08-12T08:14:33Z</time>
      </trkpt>
      <trkpt lat="46.82749" lon="5.87703">
        <ele>651.9</ele>
        <time>2021-08-12T08:14:37Z</time>
      </trkpt>
      <trkpt lat="46.82749" lon="5.87696">
        <ele>652.1</ele>
        <time>2021-08-12T08:14:41Z</time>
      </trkpt>
      <trkpt lat="46.82748" lon="5.87688">
        <ele>652.1</ele>
        <time>2021-08-12T08:14:46Z</time>
      </trkpt>
      <trkpt lat="46.82748" lon="5.8768">
        <ele>651.8</ele>
        <time>2021-08-12T08:14:50Z</time>
      </trkpt>
      <trkpt lat="46.82747" lon="5.87672">
        <ele>651.5</ele>
        <time>2021-08-12T08:14:54Z</time>
      </trkpt>
      <trkpt lat="46.82747" lon="5.87664">
        <ele>651</ele>
        <time>2021-08-12T08:14:58Z</time>
      </trkpt>
      <trkpt lat="46.82747" lon="5.87656">
        <ele>650.7</ele>
        <time>2021-08-12T08:15:02Z</time>
      </trkpt>
      <trkpt lat="46.82747" lon="5.87648">
        <ele>650.2</ele>
        <time>2021-08-12T08:15:07Z</time>
      </trkpt>
      <trkpt lat="46.82748" lon="5.87641">
        <ele>650.2</ele>
        <time>2021-08-12T08:15:11Z</time>
      </trkpt>
      <trkpt lat="46.82749" lon="5.87634">
        <ele>650.4</ele>
        <time>2021-08-12T08:15:15Z</time>
      </trkpt>
      <trkpt lat="46.8275" lon="5.87627">
        <ele>650.7</ele>
        <time>2021-08-12T08:15:19Z</time>
      </trkpt>
      <trkpt lat="46.8275" lon="5.87621">
        <ele>651</ele>
        <time>2021-08-12T08:15:22Z</time>
      </trkpt>
      <trkpt lat="46.82751" lon="5.87614">
        <ele>651.5</ele>
        <time>2021-08-12T08:15:25Z</time>
      </trkpt>
      <trkpt lat="46.82752" lon="5.87607">
        <ele>652.1</ele>
        <time>2021-08-12T08:15:29Z</time>
      </trkpt>
      <trkpt lat="46.82753" lon="5.87599">
        <ele>652.7</ele>
        <time>2021-08-12T08:15:33Z</time>
      </trkpt>
      <trkpt lat="46.82754" lon="5.87592">
        <ele>653.4</ele>
        <time>2021-08-12T08:15:37Z</time>
      </trkpt>
      <trkpt lat="46.82755" lon="5.87584">
        <ele>654.2</ele>
        <time>2021-08-12T08:15:41Z</time>
      </trkpt>
      <trkpt lat="46.82756" lon="5.87578">
        <ele>655.1</ele>
        <time>2021-08-12T08:15:46Z</time>
      </trkpt>
      <trkpt lat="46.82756" lon="5.8757">
        <ele>655.7</ele>
        <time>2021-08-12T08:15:50Z</time>
      </trkpt>
      <trkpt lat="46.82756" lon="5.87563">
        <ele>656.2</ele>
        <time>2021-08-12T08:15:54Z</time>
      </trkpt>
      <trkpt lat="46.82756" lon="5.87556">
        <ele>656.6</ele>
        <time>2021-08-12T08:15:58Z</time>
      </trkpt>
      <trkpt lat="46.82757" lon="5.87548">
        <ele>657</ele>
        <time>2021-08-12T08:16:02Z</time>
      </trkpt>
      <trkpt lat="46.82757" lon="5.8754">
        <ele>657.2</ele>
        <time>2021-08-12T08:16:07Z</time>
      </trkpt>
      <trkpt lat="46.82756" lon="5.87534">
        <ele>657</ele>
        <time>2021-08-12T08:16:11Z</time>
      </trkpt>
      <trkpt lat="46.82756" lon="5.87527">
        <ele>657</ele>
        <time>2021-08-12T08:16:15Z</time>
      </trkpt>
      <trkpt lat="46.82756" lon="5.8752">
        <ele>657</ele>
        <time>2021-08-12T08:16:19Z</time>
      </trkpt>
      <trkpt lat="46.82756" lon="5.87513">
        <ele>657</ele>
        <time>2021-08-12T08:16:23Z</time>
      </trkpt>
      <trkpt lat="46.82755" lon="5.87506">
        <ele>657.2</ele>
        <time>2021-08-12T08:16:27Z</time>
      </trkpt>
      <trkpt lat="46.82754" lon="5.87499">
        <ele>657.7</ele>
        <time>2021-08-12T08:16:32Z</time>
      </trkpt>
      <trkpt lat="46.82754" lon="5.87492">
        <ele>658.1</ele>
        <time>2021-08-12T08:16:38Z</time>
      </trkpt>
      <trkpt lat="46.82754" lon="5.87484">
        <ele>658.1</ele>
        <time>2021-08-12T08:16:43Z</time>
      </trkpt>
      <trkpt lat="46.82752" lon="5.87476">
        <ele>658.1</ele>
        <time>2021-08-12T08:16:47Z</time>
      </trkpt>
      <trkpt lat="46.82752" lon="5.87469">
        <ele>658.2</ele>
        <time>2021-08-12T08:16:51Z</time>
      </trkpt>
      <trkpt lat="46.82754" lon="5.87463">
        <ele>658.5</ele>
        <time>2021-08-12T08:16:56Z</time>
      </trkpt>
      <trkpt lat="46.82759" lon="5.87464">
        <ele>658.6</ele>
        <time>2021-08-12T08:17:04Z</time>
      </trkpt>
      <trkpt lat="46.82764" lon="5.87467">
        <ele>658.5</ele>
        <time>2021-08-12T08:17:09Z</time>
      </trkpt>
      <trkpt lat="46.82769" lon="5.87469">
        <ele>658.2</ele>
        <time>2021-08-12T08:17:15Z</time>
      </trkpt>
      <trkpt lat="46.82774" lon="5.87471">
        <ele>657.7</ele>
        <time>2021-08-12T08:17:21Z</time>
      </trkpt>
      <trkpt lat="46.8278" lon="5.87474">
        <ele>657.5</ele>
        <time>2021-08-12T08:17:25Z</time>
      </trkpt>
      <trkpt lat="46.82784" lon="5.87476">
        <ele>657.7</ele>
        <time>2021-08-12T08:17:29Z</time>
      </trkpt>
      <trkpt lat="46.82789" lon="5.87478">
        <ele>657.8</ele>
        <time>2021-08-12T08:17:34Z</time>
      </trkpt>
      <trkpt lat="46.82794" lon="5.87481">
        <ele>658</ele>
        <time>2021-08-12T08:17:39Z</time>
      </trkpt>
      <trkpt lat="46.82799" lon="5.87483">
        <ele>658.3</ele>
        <time>2021-08-12T08:17:43Z</time>
      </trkpt>
      <trkpt lat="46.82803" lon="5.87484">
        <ele>658.7</ele>
        <time>2021-08-12T08:17:47Z</time>
      </trkpt>
      <trkpt lat="46.82808" lon="5.87486">
        <ele>659.1</ele>
        <time>2021-08-12T08:17:52Z</time>
      </trkpt>
      <trkpt lat="46.82813" lon="5.87486">
        <ele>659.4</ele>
        <time>2021-08-12T08:17:56Z</time>
      </trkpt>
      <trkpt lat="46.82818" lon="5.87486">
        <ele>659.8</ele>
        <time>2021-08-12T08:18:00Z</time>
      </trkpt>
      <trkpt lat="46.82823" lon="5.87485">
        <ele>660.1</ele>
        <time>2021-08-12T08:18:05Z</time>
      </trkpt>
      <trkpt lat="46.82828" lon="5.87483">
        <ele>660</ele>
        <time>2021-08-12T08:18:09Z</time>
      </trkpt>
      <trkpt lat="46.82833" lon="5.87485">
        <ele>659.7</ele>
        <time>2021-08-12T08:18:13Z</time>
      </trkpt>
      <trkpt lat="46.82838" lon="5.87485">
        <ele>659.2</ele>
        <time>2021-08-12T08:18:17Z</time>
      </trkpt>
      <trkpt lat="46.82843" lon="5.87483">
        <ele>658.5</ele>
        <time>2021-08-12T08:18:21Z</time>
      </trkpt>
      <trkpt lat="46.82847" lon="5.8748">
        <ele>657.4</ele>
        <time>2021-08-12T08:18:26Z</time>
      </trkpt>
      <trkpt lat="46.82852" lon="5.87477">
        <ele>656.6</ele>
        <time>2021-08-12T08:18:31Z</time>
      </trkpt>
      <trkpt lat="46.82857" lon="5.87474">
        <ele>656.3</ele>
        <time>2021-08-12T08:18:36Z</time>
      </trkpt>
      <trkpt lat="46.82862" lon="5.87471">
        <ele>656.3</ele>
        <time>2021-08-12T08:18:40Z</time>
      </trkpt>
      <trkpt lat="46.82868" lon="5.8747">
        <ele>656.6</ele>
        <time>2021-08-12T08:18:44Z</time>
      </trkpt>
      <trkpt lat="46.82873" lon="5.87467">
        <ele>657</ele>
        <time>2021-08-12T08:18:49Z</time>
      </trkpt>
      <trkpt lat="46.82878" lon="5.87465">
        <ele>657.4</ele>
        <time>2021-08-12T08:18:54Z</time>
      </trkpt>
      <trkpt lat="46.82882" lon="5.87462">
        <ele>657.5</ele>
        <time>2021-08-12T08:18:58Z</time>
      </trkpt>
      <trkpt lat="46.82886" lon="5.87459">
        <ele>657.7</ele>
        <time>2021-08-12T08:19:03Z</time>
      </trkpt>
      <trkpt lat="46.8289" lon="5.87455">
        <ele>657.4</ele>
        <time>2021-08-12T08:19:08Z</time>
      </trkpt>
      <trkpt lat="46.82894" lon="5.87452">
        <ele>657.1</ele>
        <time>2021-08-12T08:19:13Z</time>
      </trkpt>
      <trkpt lat="46.82899" lon="5.87449">
        <ele>656.6</ele>
        <time>2021-08-12T08:19:17Z</time>
      </trkpt>
      <trkpt lat="46.82903" lon="5.87447">
        <ele>656.1</ele>
        <time>2021-08-12T08:19:22Z</time>
      </trkpt>
      <trkpt lat="46.82908" lon="5.87445">
        <ele>655.7</ele>
        <time>2021-08-12T08:19:27Z</time>
      </trkpt>
      <trkpt lat="46.82913" lon="5.87446">
        <ele>655.8</ele>
        <time>2021-08-12T08:19:31Z</time>
      </trkpt>
      <trkpt lat="46.82918" lon="5.87447">
        <ele>656</ele>
        <time>2021-08-12T08:19:35Z</time>
      </trkpt>
      <trkpt lat="46.82923" lon="5.87447">
        <ele>656.3</ele>
        <time>2021-08-12T08:19:39Z</time>
      </trkpt>
      <trkpt lat="46.82927" lon="5.87448">
        <ele>656.6</ele>
        <time>2021-08-12T08:19:43Z</time>
      </trkpt>
      <trkpt lat="46.82932" lon="5.8745">
        <ele>657.2</ele>
        <time>2021-08-12T08:19:47Z</time>
      </trkpt>
      <trkpt lat="46.82935" lon="5.87455">
        <ele>657.9</ele>
        <time>2021-08-12T08:19:54Z</time>
      </trkpt>
      <trkpt lat="46.82939" lon="5.8746">
        <ele>657.9</ele>
        <time>2021-08-12T08:19:59Z</time>
      </trkpt>
      <trkpt lat="46.82944" lon="5.87464">
        <ele>658</ele>
        <time>2021-08-12T08:20:03Z</time>
      </trkpt>
      <trkpt lat="46.82948" lon="5.87468">
        <ele>658.3</ele>
        <time>2021-08-12T08:20:08Z</time>
      </trkpt>
      <trkpt lat="46.82952" lon="5.87472">
        <ele>658.4</ele>
        <time>2021-08-12T08:20:12Z</time>
      </trkpt>
      <trkpt lat="46.82957" lon="5.87475">
        <ele>658.3</ele>
        <time>2021-08-12T08:20:16Z</time>
      </trkpt>
      <trkpt lat="46.82961" lon="5.87478">
        <ele>658</ele>
        <time>2021-08-12T08:20:20Z</time>
      </trkpt>
      <trkpt lat="46.82966" lon="5.8748">
        <ele>657.4</ele>
        <time>2021-08-12T08:20:25Z</time>
      </trkpt>
      <trkpt lat="46.82971" lon="5.87482">
        <ele>656.7</ele>
        <time>2021-08-12T08:20:30Z</time>
      </trkpt>
      <trkpt lat="46.82975" lon="5.87483">
        <ele>654.3</ele>
        <time>2021-08-12T08:20:38Z</time>
      </trkpt>
      <trkpt lat="46.8298" lon="5.87484">
        <ele>652.5</ele>
        <time>2021-08-12T08:20:43Z</time>
      </trkpt>
      <trkpt lat="46.82985" lon="5.87486">
        <ele>650.9</ele>
        <time>2021-08-12T08:20:48Z</time>
      </trkpt>
      <trkpt lat="46.8299" lon="5.87488">
        <ele>650.1</ele>
        <time>2021-08-12T08:20:52Z</time>
      </trkpt>
      <trkpt lat="46.82995" lon="5.87491">
        <ele>649.7</ele>
        <time>2021-08-12T08:20:56Z</time>
      </trkpt>
      <trkpt lat="46.83" lon="5.87494">
        <ele>649.7</ele>
        <time>2021-08-12T08:21:00Z</time>
      </trkpt>
      <trkpt lat="46.83005" lon="5.87496">
        <ele>649.9</ele>
        <time>2021-08-12T08:21:04Z</time>
      </trkpt>
      <trkpt lat="46.8301" lon="5.87498">
        <ele>650.3</ele>
        <time>2021-08-12T08:21:08Z</time>
      </trkpt>
      <trkpt lat="46.83015" lon="5.87502">
        <ele>650.9</ele>
        <time>2021-08-12T08:21:12Z</time>
      </trkpt>
      <trkpt lat="46.8302" lon="5.87506">
        <ele>651.7</ele>
        <time>2021-08-12T08:21:16Z</time>
      </trkpt>
      <trkpt lat="46.83024" lon="5.8751">
        <ele>652.9</ele>
        <time>2021-08-12T08:21:20Z</time>
      </trkpt>
      <trkpt lat="46.83029" lon="5.87514">
        <ele>654.5</ele>
        <time>2021-08-12T08:21:25Z</time>
      </trkpt>
      <trkpt lat="46.83032" lon="5.8752">
        <ele>656</ele>
        <time>2021-08-12T08:21:30Z</time>
      </trkpt>
      <trkpt lat="46.83036" lon="5.87525">
        <ele>657</ele>
        <time>2021-08-12T08:21:34Z</time>
      </trkpt>
      <trkpt lat="46.83041" lon="5.87528">
        <ele>657.7</ele>
        <time>2021-08-12T08:21:38Z</time>
      </trkpt>
      <trkpt lat="46.83045" lon="5.87532">
        <ele>658.3</ele>
        <time>2021-08-12T08:21:42Z</time>
      </trkpt>
      <trkpt lat="46.83049" lon="5.87537">
        <ele>658.6</ele>
        <time>2021-08-12T08:21:46Z</time>
      </trkpt>
      <trkpt lat="46.83052" lon="5.87542">
        <ele>658.9</ele>
        <time>2021-08-12T08:21:50Z</time>
      </trkpt>
      <trkpt lat="46.83056" lon="5.87547">
        <ele>659.2</ele>
        <time>2021-08-12T08:21:55Z</time>
      </trkpt>
      <trkpt lat="46.8306" lon="5.87551">
        <ele>659.5</ele>
        <time>2021-08-12T08:22:00Z</time>
      </trkpt>
      <trkpt lat="46.83064" lon="5.87555">
        <ele>659.6</ele>
        <time>2021-08-12T08:22:05Z</time>
      </trkpt>
      <trkpt lat="46.83067" lon="5.87561">
        <ele>659.6</ele>
        <time>2021-08-12T08:22:09Z</time>
      </trkpt>
      <trkpt lat="46.8307" lon="5.87567">
        <ele>659.4</ele>
        <time>2021-08-12T08:22:13Z</time>
      </trkpt>
      <trkpt lat="46.83072" lon="5.87573">
        <ele>659.3</ele>
        <time>2021-08-12T08:22:17Z</time>
      </trkpt>
      <trkpt lat="46.83076" lon="5.87577">
        <ele>659.3</ele>
        <time>2021-08-12T08:22:22Z</time>
      </trkpt>
      <trkpt lat="46.8308" lon="5.87578">
        <ele>659.2</ele>
        <time>2021-08-12T08:22:28Z</time>
      </trkpt>
      <trkpt lat="46.83085" lon="5.87576">
        <ele>658.6</ele>
        <time>2021-08-12T08:22:33Z</time>
      </trkpt>
      <trkpt lat="46.83089" lon="5.87572">
        <ele>658.1</ele>
        <time>2021-08-12T08:22:37Z</time>
      </trkpt>
      <trkpt lat="46.83092" lon="5.87566">
        <ele>657.8</ele>
        <time>2021-08-12T08:22:41Z</time>
      </trkpt>
      <trkpt lat="46.83097" lon="5.87562">
        <ele>658.2</ele>
        <time>2021-08-12T08:22:46Z</time>
      </trkpt>
      <trkpt lat="46.83101" lon="5.8756">
        <ele>659.3</ele>
        <time>2021-08-12T08:23:12Z</time>
      </trkpt>
      <trkpt lat="46.83106" lon="5.8756">
        <ele>658.5</ele>
        <time>2021-08-12T08:23:19Z</time>
      </trkpt>
      <trkpt lat="46.83107" lon="5.87567">
        <ele>658</ele>
        <time>2021-08-12T08:23:26Z</time>
      </trkpt>
      <trkpt lat="46.83103" lon="5.87572">
        <ele>657.6</ele>
        <time>2021-08-12T08:23:46Z</time>
      </trkpt>
      <trkpt lat="46.83106" lon="5.87567">
        <ele>659.6</ele>
        <time>2021-08-12T08:24:41Z</time>
      </trkpt>
      <trkpt lat="46.83102" lon="5.87566">
        <ele>665.3</ele>
        <time>2021-08-12T08:25:23Z</time>
      </trkpt>
      <trkpt lat="46.83097" lon="5.87563">
        <ele>667.9</ele>
        <time>2021-08-12T08:27:00Z</time>
      </trkpt>
      <trkpt lat="46.83094" lon="5.87559">
        <ele>669.3</ele>
        <time>2021-08-12T08:27:09Z</time>
      </trkpt>
      <trkpt lat="46.83096" lon="5.87565">
        <ele>669.9</ele>
        <time>2021-08-12T08:27:23Z</time>
      </trkpt>
      <trkpt lat="46.831" lon="5.87561">
        <ele>670.6</ele>
        <time>2021-08-12T08:27:39Z</time>
      </trkpt>
      <trkpt lat="46.83095" lon="5.87558">
        <ele>671.6</ele>
        <time>2021-08-12T08:27:47Z</time>
      </trkpt>
      <trkpt lat="46.83105" lon="5.87547">
        <ele>673.7</ele>
        <time>2021-08-12T08:27:57Z</time>
      </trkpt>
      <trkpt lat="46.83104" lon="5.87553">
        <ele>673.7</ele>
        <time>2021-08-12T08:28:00Z</time>
      </trkpt>
      <trkpt lat="46.83102" lon="5.87559">
        <ele>673.6</ele>
        <time>2021-08-12T08:28:05Z</time>
      </trkpt>
      <trkpt lat="46.83102" lon="5.87568">
        <ele>672.9</ele>
        <time>2021-08-12T08:28:11Z</time>
      </trkpt>
      <trkpt lat="46.83103" lon="5.87575">
        <ele>671.9</ele>
        <time>2021-08-12T08:28:16Z</time>
      </trkpt>
      <trkpt lat="46.83103" lon="5.87582">
        <ele>669.7</ele>
        <time>2021-08-12T08:28:23Z</time>
      </trkpt>
      <trkpt lat="46.83099" lon="5.87577">
        <ele>668.4</ele>
        <time>2021-08-12T08:28:36Z</time>
      </trkpt>
      <trkpt lat="46.83095" lon="5.87574">
        <ele>667.6</ele>
        <time>2021-08-12T08:28:53Z</time>
      </trkpt>
      <trkpt lat="46.83099" lon="5.87577">
        <ele>667.3</ele>
        <time>2021-08-12T08:29:02Z</time>
      </trkpt>
      <trkpt lat="46.83101" lon="5.87571">
        <ele>669.4</ele>
        <time>2021-08-12T08:29:28Z</time>
      </trkpt>
      <trkpt lat="46.83102" lon="5.87565">
        <ele>670.2</ele>
        <time>2021-08-12T08:29:32Z</time>
      </trkpt>
      <trkpt lat="46.83105" lon="5.87571">
        <ele>668.9</ele>
        <time>2021-08-12T08:29:38Z</time>
      </trkpt>
      <trkpt lat="46.83107" lon="5.87577">
        <ele>665.1</ele>
        <time>2021-08-12T08:30:02Z</time>
      </trkpt>
      <trkpt lat="46.83104" lon="5.87568">
        <ele>665.5</ele>
        <time>2021-08-12T08:30:28Z</time>
      </trkpt>
      <trkpt lat="46.83101" lon="5.87563">
        <ele>664.2</ele>
        <time>2021-08-12T08:30:54Z</time>
      </trkpt>
      <trkpt lat="46.83096" lon="5.87561">
        <ele>666.7</ele>
        <time>2021-08-12T08:31:17Z</time>
      </trkpt>
      <trkpt lat="46.83094" lon="5.87555">
        <ele>667.6</ele>
        <time>2021-08-12T08:31:24Z</time>
      </trkpt>
      <trkpt lat="46.83094" lon="5.87549">
        <ele>669.1</ele>
        <time>2021-08-12T08:31:31Z</time>
      </trkpt>
      <trkpt lat="46.83096" lon="5.87543">
        <ele>669.5</ele>
        <time>2021-08-12T08:31:36Z</time>
      </trkpt>
      <trkpt lat="46.83098" lon="5.87537">
        <ele>669.6</ele>
        <time>2021-08-12T08:31:43Z</time>
      </trkpt>
      <trkpt lat="46.83099" lon="5.87529">
        <ele>669.9</ele>
        <time>2021-08-12T08:31:49Z</time>
      </trkpt>
      <trkpt lat="46.83101" lon="5.87522">
        <ele>670.5</ele>
        <time>2021-08-12T08:31:55Z</time>
      </trkpt>
      <trkpt lat="46.83102" lon="5.87515">
        <ele>670.9</ele>
        <time>2021-08-12T08:32:00Z</time>
      </trkpt>
      <trkpt lat="46.83105" lon="5.8751">
        <ele>670.6</ele>
        <time>2021-08-12T08:32:07Z</time>
      </trkpt>
      <trkpt lat="46.8311" lon="5.87506">
        <ele>670.3</ele>
        <time>2021-08-12T08:32:14Z</time>
      </trkpt>
      <trkpt lat="46.83115" lon="5.87504">
        <ele>670.8</ele>
        <time>2021-08-12T08:32:20Z</time>
      </trkpt>
      <trkpt lat="46.83121" lon="5.87504">
        <ele>671.3</ele>
        <time>2021-08-12T08:32:25Z</time>
      </trkpt>
      <trkpt lat="46.83125" lon="5.87503">
        <ele>671.4</ele>
        <time>2021-08-12T08:32:30Z</time>
      </trkpt>
      <trkpt lat="46.83128" lon="5.87497">
        <ele>671.9</ele>
        <time>2021-08-12T08:32:35Z</time>
      </trkpt>
      <trkpt lat="46.83132" lon="5.87494">
        <ele>672.4</ele>
        <time>2021-08-12T08:32:40Z</time>
      </trkpt>
      <trkpt lat="46.83136" lon="5.87491">
        <ele>672.8</ele>
        <time>2021-08-12T08:32:46Z</time>
      </trkpt>
      <trkpt lat="46.83141" lon="5.87489">
        <ele>673.1</ele>
        <time>2021-08-12T08:32:51Z</time>
      </trkpt>
      <trkpt lat="46.83146" lon="5.87489">
        <ele>672.9</ele>
        <time>2021-08-12T08:32:56Z</time>
      </trkpt>
      <trkpt lat="46.83152" lon="5.87489">
        <ele>672.5</ele>
        <time>2021-08-12T08:33:00Z</time>
      </trkpt>
      <trkpt lat="46.83155" lon="5.87483">
        <ele>671</ele>
        <time>2021-08-12T08:33:06Z</time>
      </trkpt>
      <trkpt lat="46.83158" lon="5.87477">
        <ele>669.7</ele>
        <time>2021-08-12T08:33:13Z</time>
      </trkpt>
      <trkpt lat="46.83162" lon="5.87471">
        <ele>669.7</ele>
        <time>2021-08-12T08:33:17Z</time>
      </trkpt>
      <trkpt lat="46.83165" lon="5.87467">
        <ele>669.8</ele>
        <time>2021-08-12T08:33:20Z</time>
      </trkpt>
      <trkpt lat="46.83169" lon="5.87463">
        <ele>669.7</ele>
        <time>2021-08-12T08:33:24Z</time>
      </trkpt>
      <trkpt lat="46.83173" lon="5.87458">
        <ele>669.3</ele>
        <time>2021-08-12T08:33:29Z</time>
      </trkpt>
      <trkpt lat="46.83174" lon="5.87451">
        <ele>668.8</ele>
        <time>2021-08-12T08:33:35Z</time>
      </trkpt>
      <trkpt lat="46.83176" lon="5.87445">
        <ele>668.7</ele>
        <time>2021-08-12T08:33:40Z</time>
      </trkpt>
      <trkpt lat="46.83178" lon="5.87437">
        <ele>667.6</ele>
        <time>2021-08-12T08:33:45Z</time>
      </trkpt>
      <trkpt lat="46.83181" lon="5.87431">
        <ele>666.4</ele>
        <time>2021-08-12T08:33:51Z</time>
      </trkpt>
      <trkpt lat="46.83183" lon="5.87425">
        <ele>665.5</ele>
        <time>2021-08-12T08:33:56Z</time>
      </trkpt>
      <trkpt lat="46.83187" lon="5.8742">
        <ele>665.2</ele>
        <time>2021-08-12T08:34:00Z</time>
      </trkpt>
      <trkpt lat="46.83191" lon="5.87416">
        <ele>665</ele>
        <time>2021-08-12T08:34:03Z</time>
      </trkpt>
      <trkpt lat="46.83196" lon="5.87414">
        <ele>664.9</ele>
        <time>2021-08-12T08:34:07Z</time>
      </trkpt>
      <trkpt lat="46.832" lon="5.87411">
        <ele>665.2</ele>
        <time>2021-08-12T08:34:13Z</time>
      </trkpt>
      <trkpt lat="46.83203" lon="5.87405">
        <ele>665.6</ele>
        <time>2021-08-12T08:34:17Z</time>
      </trkpt>
      <trkpt lat="46.83204" lon="5.87398">
        <ele>666.7</ele>
        <time>2021-08-12T08:34:22Z</time>
      </trkpt>
      <trkpt lat="46.83207" lon="5.87392">
        <ele>667.7</ele>
        <time>2021-08-12T08:34:28Z</time>
      </trkpt>
      <trkpt lat="46.83212" lon="5.87387">
        <ele>668</ele>
        <time>2021-08-12T08:34:34Z</time>
      </trkpt>
      <trkpt lat="46.83216" lon="5.87384">
        <ele>668.6</ele>
        <time>2021-08-12T08:34:38Z</time>
      </trkpt>
      <trkpt lat="46.83218" lon="5.87378">
        <ele>669.6</ele>
        <time>2021-08-12T08:34:45Z</time>
      </trkpt>
      <trkpt lat="46.83221" lon="5.87371">
        <ele>669.7</ele>
        <time>2021-08-12T08:34:52Z</time>
      </trkpt>
      <trkpt lat="46.83225" lon="5.87367">
        <ele>669.7</ele>
        <time>2021-08-12T08:34:58Z</time>
      </trkpt>
      <trkpt lat="46.83227" lon="5.8736">
        <ele>669.5</ele>
        <time>2021-08-12T08:35:03Z</time>
      </trkpt>
      <trkpt lat="46.83228" lon="5.87354">
        <ele>669.8</ele>
        <time>2021-08-12T08:35:08Z</time>
      </trkpt>
      <trkpt lat="46.8323" lon="5.87346">
        <ele>670.3</ele>
        <time>2021-08-12T08:35:13Z</time>
      </trkpt>
      <trkpt lat="46.83233" lon="5.8734">
        <ele>671.1</ele>
        <time>2021-08-12T08:35:17Z</time>
      </trkpt>
      <trkpt lat="46.83236" lon="5.87334">
        <ele>671.7</ele>
        <time>2021-08-12T08:35:23Z</time>
      </trkpt>
      <trkpt lat="46.83237" lon="5.87328">
        <ele>672.3</ele>
        <time>2021-08-12T08:35:29Z</time>
      </trkpt>
      <trkpt lat="46.83239" lon="5.87322">
        <ele>672.5</ele>
        <time>2021-08-12T08:35:33Z</time>
      </trkpt>
      <trkpt lat="46.83244" lon="5.87318">
        <ele>671.8</ele>
        <time>2021-08-12T08:35:38Z</time>
      </trkpt>
      <trkpt lat="46.83248" lon="5.87316">
        <ele>670.3</ele>
        <time>2021-08-12T08:35:44Z</time>
      </trkpt>
      <trkpt lat="46.8325" lon="5.87309">
        <ele>668.8</ele>
        <time>2021-08-12T08:35:50Z</time>
      </trkpt>
      <trkpt lat="46.83254" lon="5.87304">
        <ele>667.8</ele>
        <time>2021-08-12T08:35:55Z</time>
      </trkpt>
      <trkpt lat="46.83259" lon="5.873">
        <ele>667.5</ele>
        <time>2021-08-12T08:36:00Z</time>
      </trkpt>
      <trkpt lat="46.83262" lon="5.87297">
        <ele>668</ele>
        <time>2021-08-12T08:36:04Z</time>
      </trkpt>
      <trkpt lat="46.83266" lon="5.87293">
        <ele>669.1</ele>
        <time>2021-08-12T08:36:10Z</time>
      </trkpt>
      <trkpt lat="46.8327" lon="5.87289">
        <ele>669.1</ele>
        <time>2021-08-12T08:36:14Z</time>
      </trkpt>
      <trkpt lat="46.83272" lon="5.87283">
        <ele>668</ele>
        <time>2021-08-12T08:36:20Z</time>
      </trkpt>
      <trkpt lat="46.83276" lon="5.87278">
        <ele>667.5</ele>
        <time>2021-08-12T08:36:26Z</time>
      </trkpt>
      <trkpt lat="46.83281" lon="5.87274">
        <ele>667.7</ele>
        <time>2021-08-12T08:36:30Z</time>
      </trkpt>
      <trkpt lat="46.83285" lon="5.8727">
        <ele>667.5</ele>
        <time>2021-08-12T08:36:34Z</time>
      </trkpt>
      <trkpt lat="46.83289" lon="5.87264">
        <ele>667</ele>
        <time>2021-08-12T08:36:40Z</time>
      </trkpt>
      <trkpt lat="46.83292" lon="5.87259">
        <ele>667.1</ele>
        <time>2021-08-12T08:36:45Z</time>
      </trkpt>
      <trkpt lat="46.83293" lon="5.87251">
        <ele>667.1</ele>
        <time>2021-08-12T08:36:51Z</time>
      </trkpt>
      <trkpt lat="46.83294" lon="5.87245">
        <ele>666.9</ele>
        <time>2021-08-12T08:36:56Z</time>
      </trkpt>
      <trkpt lat="46.83293" lon="5.87238">
        <ele>667</ele>
        <time>2021-08-12T08:37:00Z</time>
      </trkpt>
      <trkpt lat="46.83294" lon="5.87231">
        <ele>667.1</ele>
        <time>2021-08-12T08:37:04Z</time>
      </trkpt>
      <trkpt lat="46.83299" lon="5.87228">
        <ele>665.9</ele>
        <time>2021-08-12T08:37:09Z</time>
      </trkpt>
      <trkpt lat="46.83302" lon="5.87222">
        <ele>667.3</ele>
        <time>2021-08-12T08:37:28Z</time>
      </trkpt>
      <trkpt lat="46.83307" lon="5.87219">
        <ele>668.6</ele>
        <time>2021-08-12T08:37:33Z</time>
      </trkpt>
      <trkpt lat="46.83307" lon="5.87212">
        <ele>668.6</ele>
        <time>2021-08-12T08:37:39Z</time>
      </trkpt>
      <trkpt lat="46.83309" lon="5.87206">
        <ele>667.5</ele>
        <time>2021-08-12T08:37:47Z</time>
      </trkpt>
      <trkpt lat="46.83313" lon="5.87201">
        <ele>666.3</ele>
        <time>2021-08-12T08:37:54Z</time>
      </trkpt>
      <trkpt lat="46.83315" lon="5.87194">
        <ele>666.1</ele>
        <time>2021-08-12T08:37:59Z</time>
      </trkpt>
      <trkpt lat="46.83318" lon="5.87189">
        <ele>665.9</ele>
        <time>2021-08-12T08:38:04Z</time>
      </trkpt>
      <trkpt lat="46.83323" lon="5.87184">
        <ele>665.9</ele>
        <time>2021-08-12T08:38:13Z</time>
      </trkpt>
      <trkpt lat="46.83328" lon="5.87183">
        <ele>665.8</ele>
        <time>2021-08-12T08:38:17Z</time>
      </trkpt>
      <trkpt lat="46.83333" lon="5.87183">
        <ele>665.5</ele>
        <time>2021-08-12T08:38:21Z</time>
      </trkpt>
      <trkpt lat="46.83337" lon="5.87182">
        <ele>664.6</ele>
        <time>2021-08-12T08:38:25Z</time>
      </trkpt>
      <trkpt lat="46.83342" lon="5.87184">
        <ele>664.6</ele>
        <time>2021-08-12T08:38:30Z</time>
      </trkpt>
      <trkpt lat="46.83345" lon="5.87189">
        <ele>666.1</ele>
        <time>2021-08-12T08:38:34Z</time>
      </trkpt>
      <trkpt lat="46.83341" lon="5.87188">
        <ele>671.1</ele>
        <time>2021-08-12T08:38:56Z</time>
      </trkpt>
      <trkpt lat="46.83337" lon="5.87185">
        <ele>672.3</ele>
        <time>2021-08-12T08:38:59Z</time>
      </trkpt>
      <trkpt lat="46.83333" lon="5.87182">
        <ele>673.7</ele>
        <time>2021-08-12T08:39:04Z</time>
      </trkpt>
      <trkpt lat="46.83328" lon="5.87181">
        <ele>673.4</ele>
        <time>2021-08-12T08:39:11Z</time>
      </trkpt>
      <trkpt lat="46.83323" lon="5.87184">
        <ele>672.5</ele>
        <time>2021-08-12T08:39:16Z</time>
      </trkpt>
      <trkpt lat="46.83319" lon="5.8719">
        <ele>669.3</ele>
        <time>2021-08-12T08:39:27Z</time>
      </trkpt>
      <trkpt lat="46.83315" lon="5.87196">
        <ele>668</ele>
        <time>2021-08-12T08:39:30Z</time>
      </trkpt>
      <trkpt lat="46.83311" lon="5.87201">
        <ele>666</ele>
        <time>2021-08-12T08:39:34Z</time>
      </trkpt>
      <trkpt lat="46.83309" lon="5.87207">
        <ele>664.3</ele>
        <time>2021-08-12T08:39:40Z</time>
      </trkpt>
      <trkpt lat="46.83308" lon="5.87214">
        <ele>663.4</ele>
        <time>2021-08-12T08:39:46Z</time>
      </trkpt>
      <trkpt lat="46.83306" lon="5.8722">
        <ele>662.6</ele>
        <time>2021-08-12T08:39:53Z</time>
      </trkpt>
      <trkpt lat="46.83302" lon="5.87224">
        <ele>662</ele>
        <time>2021-08-12T08:39:59Z</time>
      </trkpt>
      <trkpt lat="46.83298" lon="5.87221">
        <ele>662.9</ele>
        <time>2021-08-12T08:40:14Z</time>
      </trkpt>
      <trkpt lat="46.83298" lon="5.87214">
        <ele>664.7</ele>
        <time>2021-08-12T08:40:25Z</time>
      </trkpt>
      <trkpt lat="46.83297" lon="5.87205">
        <ele>665.5</ele>
        <time>2021-08-12T08:40:31Z</time>
      </trkpt>
      <trkpt lat="46.83295" lon="5.87199">
        <ele>666.4</ele>
        <time>2021-08-12T08:40:35Z</time>
      </trkpt>
      <trkpt lat="46.83295" lon="5.87192">
        <ele>667</ele>
        <time>2021-08-12T08:40:39Z</time>
      </trkpt>
      <trkpt lat="46.83292" lon="5.87185">
        <ele>667.5</ele>
        <time>2021-08-12T08:40:44Z</time>
      </trkpt>
      <trkpt lat="46.83288" lon="5.87181">
        <ele>668.1</ele>
        <time>2021-08-12T08:40:48Z</time>
      </trkpt>
      <trkpt lat="46.83285" lon="5.87174">
        <ele>668.4</ele>
        <time>2021-08-12T08:40:53Z</time>
      </trkpt>
      <trkpt lat="46.83281" lon="5.87168">
        <ele>668.3</ele>
        <time>2021-08-12T08:40:58Z</time>
      </trkpt>
      <trkpt lat="46.83278" lon="5.87162">
        <ele>668.6</ele>
        <time>2021-08-12T08:41:03Z</time>
      </trkpt>
      <trkpt lat="46.83275" lon="5.87156">
        <ele>668.6</ele>
        <time>2021-08-12T08:41:07Z</time>
      </trkpt>
      <trkpt lat="46.83273" lon="5.8715">
        <ele>669.3</ele>
        <time>2021-08-12T08:41:14Z</time>
      </trkpt>
      <trkpt lat="46.83271" lon="5.87143">
        <ele>669.7</ele>
        <time>2021-08-12T08:41:19Z</time>
      </trkpt>
      <trkpt lat="46.83268" lon="5.87136">
        <ele>669.7</ele>
        <time>2021-08-12T08:41:24Z</time>
      </trkpt>
      <trkpt lat="46.83266" lon="5.87129">
        <ele>669.8</ele>
        <time>2021-08-12T08:41:29Z</time>
      </trkpt>
      <trkpt lat="46.83262" lon="5.87126">
        <ele>670.2</ele>
        <time>2021-08-12T08:41:34Z</time>
      </trkpt>
      <trkpt lat="46.83257" lon="5.87124">
        <ele>670.6</ele>
        <time>2021-08-12T08:41:38Z</time>
      </trkpt>
      <trkpt lat="46.83254" lon="5.87119">
        <ele>671.1</ele>
        <time>2021-08-12T08:41:42Z</time>
      </trkpt>
      <trkpt lat="46.8325" lon="5.87114">
        <ele>672.6</ele>
        <time>2021-08-12T08:41:47Z</time>
      </trkpt>
      <trkpt lat="46.83246" lon="5.8711">
        <ele>674.9</ele>
        <time>2021-08-12T08:41:53Z</time>
      </trkpt>
      <trkpt lat="46.83241" lon="5.87108">
        <ele>676.4</ele>
        <time>2021-08-12T08:41:58Z</time>
      </trkpt>
      <trkpt lat="46.83238" lon="5.87103">
        <ele>677.3</ele>
        <time>2021-08-12T08:42:03Z</time>
      </trkpt>
      <trkpt lat="46.83234" lon="5.87098">
        <ele>678.5</ele>
        <time>2021-08-12T08:42:08Z</time>
      </trkpt>
      <trkpt lat="46.83229" lon="5.87095">
        <ele>679.4</ele>
        <time>2021-08-12T08:42:13Z</time>
      </trkpt>
      <trkpt lat="46.83224" lon="5.87095">
        <ele>677.7</ele>
        <time>2021-08-12T08:42:23Z</time>
      </trkpt>
      <trkpt lat="46.83219" lon="5.87093">
        <ele>676.5</ele>
        <time>2021-08-12T08:42:30Z</time>
      </trkpt>
      <trkpt lat="46.83215" lon="5.87091">
        <ele>675.7</ele>
        <time>2021-08-12T08:42:36Z</time>
      </trkpt>
      <trkpt lat="46.8321" lon="5.87086">
        <ele>675.2</ele>
        <time>2021-08-12T08:42:40Z</time>
      </trkpt>
      <trkpt lat="46.83206" lon="5.87084">
        <ele>674.8</ele>
        <time>2021-08-12T08:42:43Z</time>
      </trkpt>
      <trkpt lat="46.83202" lon="5.8708">
        <ele>673.2</ele>
        <time>2021-08-12T08:42:51Z</time>
      </trkpt>
      <trkpt lat="46.83202" lon="5.87071">
        <ele>670.7</ele>
        <time>2021-08-12T08:42:57Z</time>
      </trkpt>
      <trkpt lat="46.83204" lon="5.87064">
        <ele>669.1</ele>
        <time>2021-08-12T08:43:02Z</time>
      </trkpt>
      <trkpt lat="46.83204" lon="5.87057">
        <ele>668.5</ele>
        <time>2021-08-12T08:43:06Z</time>
      </trkpt>
      <trkpt lat="46.83204" lon="5.8705">
        <ele>668.3</ele>
        <time>2021-08-12T08:43:10Z</time>
      </trkpt>
      <trkpt lat="46.83202" lon="5.87043">
        <ele>669</ele>
        <time>2021-08-12T08:43:16Z</time>
      </trkpt>
      <trkpt lat="46.83201" lon="5.87037">
        <ele>670.2</ele>
        <time>2021-08-12T08:43:21Z</time>
      </trkpt>
      <trkpt lat="46.83203" lon="5.8703">
        <ele>671.8</ele>
        <time>2021-08-12T08:43:27Z</time>
      </trkpt>
      <trkpt lat="46.83205" lon="5.87024">
        <ele>673</ele>
        <time>2021-08-12T08:43:32Z</time>
      </trkpt>
      <trkpt lat="46.83207" lon="5.87018">
        <ele>674.3</ele>
        <time>2021-08-12T08:43:37Z</time>
      </trkpt>
      <trkpt lat="46.83209" lon="5.87012">
        <ele>675.1</ele>
        <time>2021-08-12T08:43:41Z</time>
      </trkpt>
      <trkpt lat="46.83211" lon="5.87005">
        <ele>676.2</ele>
        <time>2021-08-12T08:43:45Z</time>
      </trkpt>
      <trkpt lat="46.83213" lon="5.86999">
        <ele>677.7</ele>
        <time>2021-08-12T08:43:49Z</time>
      </trkpt>
      <trkpt lat="46.83214" lon="5.86992">
        <ele>679.5</ele>
        <time>2021-08-12T08:43:53Z</time>
      </trkpt>
      <trkpt lat="46.83215" lon="5.86985">
        <ele>680.5</ele>
        <time>2021-08-12T08:43:57Z</time>
      </trkpt>
      <trkpt lat="46.83217" lon="5.8698">
        <ele>681.3</ele>
        <time>2021-08-12T08:44:01Z</time>
      </trkpt>
      <trkpt lat="46.83219" lon="5.86974">
        <ele>682.1</ele>
        <time>2021-08-12T08:44:06Z</time>
      </trkpt>
      <trkpt lat="46.83221" lon="5.86967">
        <ele>682.7</ele>
        <time>2021-08-12T08:44:11Z</time>
      </trkpt>
      <trkpt lat="46.83223" lon="5.86961">
        <ele>683.5</ele>
        <time>2021-08-12T08:44:15Z</time>
      </trkpt>
      <trkpt lat="46.83227" lon="5.86955">
        <ele>684.3</ele>
        <time>2021-08-12T08:44:19Z</time>
      </trkpt>
      <trkpt lat="46.8323" lon="5.86951">
        <ele>685</ele>
        <time>2021-08-12T08:44:24Z</time>
      </trkpt>
      <trkpt lat="46.83234" lon="5.86945">
        <ele>685.2</ele>
        <time>2021-08-12T08:44:29Z</time>
      </trkpt>
      <trkpt lat="46.83237" lon="5.8694">
        <ele>683.4</ele>
        <time>2021-08-12T08:44:35Z</time>
      </trkpt>
      <trkpt lat="46.83242" lon="5.86936">
        <ele>682.3</ele>
        <time>2021-08-12T08:44:40Z</time>
      </trkpt>
      <trkpt lat="46.83246" lon="5.86935">
        <ele>681.8</ele>
        <time>2021-08-12T08:44:44Z</time>
      </trkpt>
      <trkpt lat="46.83252" lon="5.86935">
        <ele>681</ele>
        <time>2021-08-12T08:44:51Z</time>
      </trkpt>
      <trkpt lat="46.83257" lon="5.86935">
        <ele>681</ele>
        <time>2021-08-12T08:44:56Z</time>
      </trkpt>
      <trkpt lat="46.83261" lon="5.86935">
        <ele>680.5</ele>
        <time>2021-08-12T08:44:59Z</time>
      </trkpt>
      <trkpt lat="46.83266" lon="5.86934">
        <ele>679.5</ele>
        <time>2021-08-12T08:45:06Z</time>
      </trkpt>
      <trkpt lat="46.83271" lon="5.86934">
        <ele>679.6</ele>
        <time>2021-08-12T08:45:11Z</time>
      </trkpt>
      <trkpt lat="46.83276" lon="5.86934">
        <ele>679.5</ele>
        <time>2021-08-12T08:45:17Z</time>
      </trkpt>
      <trkpt lat="46.8328" lon="5.86934">
        <ele>678.1</ele>
        <time>2021-08-12T08:45:27Z</time>
      </trkpt>
      <trkpt lat="46.83285" lon="5.86936">
        <ele>677.4</ele>
        <time>2021-08-12T08:45:31Z</time>
      </trkpt>
      <trkpt lat="46.83291" lon="5.86939">
        <ele>676.2</ele>
        <time>2021-08-12T08:45:36Z</time>
      </trkpt>
      <trkpt lat="46.83296" lon="5.86942">
        <ele>675.4</ele>
        <time>2021-08-12T08:45:39Z</time>
      </trkpt>
      <trkpt lat="46.833" lon="5.86943">
        <ele>674.6</ele>
        <time>2021-08-12T08:45:42Z</time>
      </trkpt>
      <trkpt lat="46.83305" lon="5.86943">
        <ele>673.4</ele>
        <time>2021-08-12T08:45:47Z</time>
      </trkpt>
      <trkpt lat="46.8331" lon="5.86945">
        <ele>673.6</ele>
        <time>2021-08-12T08:45:50Z</time>
      </trkpt>
      <trkpt lat="46.83316" lon="5.86947">
        <ele>674.2</ele>
        <time>2021-08-12T08:45:54Z</time>
      </trkpt>
      <trkpt lat="46.83321" lon="5.86947">
        <ele>674.7</ele>
        <time>2021-08-12T08:45:57Z</time>
      </trkpt>
      <trkpt lat="46.83326" lon="5.86949">
        <ele>674.5</ele>
        <time>2021-08-12T08:46:01Z</time>
      </trkpt>
      <trkpt lat="46.83331" lon="5.8695">
        <ele>674.3</ele>
        <time>2021-08-12T08:46:06Z</time>
      </trkpt>
      <trkpt lat="46.83336" lon="5.86951">
        <ele>674.3</ele>
        <time>2021-08-12T08:46:10Z</time>
      </trkpt>
      <trkpt lat="46.83341" lon="5.86949">
        <ele>674.8</ele>
        <time>2021-08-12T08:46:19Z</time>
      </trkpt>
      <trkpt lat="46.83345" lon="5.86949">
        <ele>675</ele>
        <time>2021-08-12T08:46:25Z</time>
      </trkpt>
      <trkpt lat="46.83351" lon="5.86948">
        <ele>674.5</ele>
        <time>2021-08-12T08:46:31Z</time>
      </trkpt>
      <trkpt lat="46.83355" lon="5.86949">
        <ele>673.4</ele>
        <time>2021-08-12T08:46:36Z</time>
      </trkpt>
      <trkpt lat="46.83359" lon="5.86954">
        <ele>672.7</ele>
        <time>2021-08-12T08:46:40Z</time>
      </trkpt>
      <trkpt lat="46.83363" lon="5.86957">
        <ele>672.3</ele>
        <time>2021-08-12T08:46:44Z</time>
      </trkpt>
      <trkpt lat="46.83369" lon="5.86957">
        <ele>671.5</ele>
        <time>2021-08-12T08:46:49Z</time>
      </trkpt>
      <trkpt lat="46.83366" lon="5.86951">
        <ele>670.2</ele>
        <time>2021-08-12T08:47:03Z</time>
      </trkpt>
      <trkpt lat="46.83362" lon="5.86948">
        <ele>670.4</ele>
        <time>2021-08-12T08:47:08Z</time>
      </trkpt>
      <trkpt lat="46.83358" lon="5.86946">
        <ele>670.8</ele>
        <time>2021-08-12T08:47:13Z</time>
      </trkpt>
      <trkpt lat="46.83353" lon="5.86943">
        <ele>671.1</ele>
        <time>2021-08-12T08:47:18Z</time>
      </trkpt>
      <trkpt lat="46.83349" lon="5.86938">
        <ele>671</ele>
        <time>2021-08-12T08:47:22Z</time>
      </trkpt>
      <trkpt lat="46.83345" lon="5.86933">
        <ele>670.5</ele>
        <time>2021-08-12T08:47:26Z</time>
      </trkpt>
      <trkpt lat="46.83341" lon="5.86929">
        <ele>670.4</ele>
        <time>2021-08-12T08:47:30Z</time>
      </trkpt>
      <trkpt lat="46.83337" lon="5.86925">
        <ele>670.3</ele>
        <time>2021-08-12T08:47:35Z</time>
      </trkpt>
      <trkpt lat="46.83333" lon="5.86921">
        <ele>670.5</ele>
        <time>2021-08-12T08:47:40Z</time>
      </trkpt>
      <trkpt lat="46.83328" lon="5.86917">
        <ele>670.5</ele>
        <time>2021-08-12T08:47:45Z</time>
      </trkpt>
      <trkpt lat="46.83324" lon="5.86912">
        <ele>669.6</ele>
        <time>2021-08-12T08:47:50Z</time>
      </trkpt>
      <trkpt lat="46.8332" lon="5.86908">
        <ele>668.5</ele>
        <time>2021-08-12T08:47:56Z</time>
      </trkpt>
      <trkpt lat="46.83316" lon="5.86905">
        <ele>667.8</ele>
        <time>2021-08-12T08:48:01Z</time>
      </trkpt>
      <trkpt lat="46.83311" lon="5.86903">
        <ele>667.4</ele>
        <time>2021-08-12T08:48:06Z</time>
      </trkpt>
      <trkpt lat="46.83307" lon="5.86905">
        <ele>666.7</ele>
        <time>2021-08-12T08:48:12Z</time>
      </trkpt>
      <trkpt lat="46.83303" lon="5.86908">
        <ele>665.6</ele>
        <time>2021-08-12T08:48:19Z</time>
      </trkpt>
      <trkpt lat="46.83298" lon="5.86907">
        <ele>665.2</ele>
        <time>2021-08-12T08:48:24Z</time>
      </trkpt>
      <trkpt lat="46.83293" lon="5.86906">
        <ele>665.7</ele>
        <time>2021-08-12T08:48:29Z</time>
      </trkpt>
      <trkpt lat="46.83287" lon="5.86905">
        <ele>666.9</ele>
        <time>2021-08-12T08:48:34Z</time>
      </trkpt>
      <trkpt lat="46.83283" lon="5.86907">
        <ele>668.9</ele>
        <time>2021-08-12T08:48:39Z</time>
      </trkpt>
      <trkpt lat="46.83279" lon="5.86903">
        <ele>671.2</ele>
        <time>2021-08-12T08:48:46Z</time>
      </trkpt>
      <trkpt lat="46.83277" lon="5.86895">
        <ele>672.4</ele>
        <time>2021-08-12T08:48:50Z</time>
      </trkpt>
      <trkpt lat="46.83277" lon="5.86888">
        <ele>673.2</ele>
        <time>2021-08-12T08:48:54Z</time>
      </trkpt>
      <trkpt lat="46.83275" lon="5.86882">
        <ele>674.7</ele>
        <time>2021-08-12T08:49:00Z</time>
      </trkpt>
      <trkpt lat="46.8327" lon="5.86882">
        <ele>676.1</ele>
        <time>2021-08-12T08:49:07Z</time>
      </trkpt>
      <trkpt lat="46.83265" lon="5.86881">
        <ele>676.2</ele>
        <time>2021-08-12T08:49:12Z</time>
      </trkpt>
      <trkpt lat="46.8326" lon="5.86882">
        <ele>676.1</ele>
        <time>2021-08-12T08:49:16Z</time>
      </trkpt>
      <trkpt lat="46.83258" lon="5.86876">
        <ele>676.3</ele>
        <time>2021-08-12T08:49:22Z</time>
      </trkpt>
      <trkpt lat="46.83257" lon="5.86869">
        <ele>676.9</ele>
        <time>2021-08-12T08:49:28Z</time>
      </trkpt>
      <trkpt lat="46.83253" lon="5.86867">
        <ele>677.3</ele>
        <time>2021-08-12T08:49:35Z</time>
      </trkpt>
      <trkpt lat="46.83248" lon="5.86868">
        <ele>677.5</ele>
        <time>2021-08-12T08:49:39Z</time>
      </trkpt>
      <trkpt lat="46.83244" lon="5.86865">
        <ele>677.8</ele>
        <time>2021-08-12T08:49:45Z</time>
      </trkpt>
      <trkpt lat="46.83241" lon="5.86859">
        <ele>678.1</ele>
        <time>2021-08-12T08:49:48Z</time>
      </trkpt>
      <trkpt lat="46.83237" lon="5.86855">
        <ele>678.2</ele>
        <time>2021-08-12T08:49:53Z</time>
      </trkpt>
      <trkpt lat="46.83232" lon="5.86858">
        <ele>677.2</ele>
        <time>2021-08-12T08:50:00Z</time>
      </trkpt>
      <trkpt lat="46.83227" lon="5.86859">
        <ele>676.2</ele>
        <time>2021-08-12T08:50:23Z</time>
      </trkpt>
      <trkpt lat="46.83222" lon="5.86857">
        <ele>675.6</ele>
        <time>2021-08-12T08:50:29Z</time>
      </trkpt>
      <trkpt lat="46.83217" lon="5.86856">
        <ele>675.5</ele>
        <time>2021-08-12T08:50:32Z</time>
      </trkpt>
      <trkpt lat="46.83212" lon="5.86853">
        <ele>675.6</ele>
        <time>2021-08-12T08:50:36Z</time>
      </trkpt>
      <trkpt lat="46.83207" lon="5.86851">
        <ele>675.6</ele>
        <time>2021-08-12T08:50:40Z</time>
      </trkpt>
      <trkpt lat="46.83202" lon="5.86849">
        <ele>675.7</ele>
        <time>2021-08-12T08:50:44Z</time>
      </trkpt>
      <trkpt lat="46.83198" lon="5.86849">
        <ele>675.9</ele>
        <time>2021-08-12T08:50:50Z</time>
      </trkpt>
      <trkpt lat="46.83198" lon="5.86841">
        <ele>676.4</ele>
        <time>2021-08-12T08:50:59Z</time>
      </trkpt>
      <trkpt lat="46.83196" lon="5.86835">
        <ele>676.9</ele>
        <time>2021-08-12T08:51:05Z</time>
      </trkpt>
      <trkpt lat="46.83192" lon="5.8683">
        <ele>676.4</ele>
        <time>2021-08-12T08:51:13Z</time>
      </trkpt>
      <trkpt lat="46.83192" lon="5.86823">
        <ele>673.5</ele>
        <time>2021-08-12T08:51:22Z</time>
      </trkpt>
      <trkpt lat="46.83188" lon="5.86821">
        <ele>672</ele>
        <time>2021-08-12T08:51:31Z</time>
      </trkpt>
      <trkpt lat="46.83184" lon="5.86818">
        <ele>670.7</ele>
        <time>2021-08-12T08:51:37Z</time>
      </trkpt>
      <trkpt lat="46.83179" lon="5.86816">
        <ele>670.3</ele>
        <time>2021-08-12T08:51:41Z</time>
      </trkpt>
      <trkpt lat="46.83174" lon="5.86815">
        <ele>670.1</ele>
        <time>2021-08-12T08:51:45Z</time>
      </trkpt>
      <trkpt lat="46.83169" lon="5.86814">
        <ele>669.8</ele>
        <time>2021-08-12T08:51:49Z</time>
      </trkpt>
      <trkpt lat="46.83165" lon="5.86812">
        <ele>669.5</ele>
        <time>2021-08-12T08:51:53Z</time>
      </trkpt>
      <trkpt lat="46.83162" lon="5.86807">
        <ele>669.2</ele>
        <time>2021-08-12T08:51:57Z</time>
      </trkpt>
      <trkpt lat="46.83162" lon="5.86799">
        <ele>669.1</ele>
        <time>2021-08-12T08:52:01Z</time>
      </trkpt>
      <trkpt lat="46.83162" lon="5.86791">
        <ele>669.6</ele>
        <time>2021-08-12T08:52:05Z</time>
      </trkpt>
      <trkpt lat="46.83166" lon="5.86787">
        <ele>670.2</ele>
        <time>2021-08-12T08:52:17Z</time>
      </trkpt>
      <trkpt lat="46.83166" lon="5.8678">
        <ele>669.9</ele>
        <time>2021-08-12T08:52:22Z</time>
      </trkpt>
      <trkpt lat="46.83164" lon="5.86773">
        <ele>670</ele>
        <time>2021-08-12T08:52:28Z</time>
      </trkpt>
      <trkpt lat="46.83162" lon="5.86768">
        <ele>670.6</ele>
        <time>2021-08-12T08:52:33Z</time>
      </trkpt>
      <trkpt lat="46.83158" lon="5.86763">
        <ele>671.4</ele>
        <time>2021-08-12T08:52:37Z</time>
      </trkpt>
      <trkpt lat="46.83153" lon="5.8676">
        <ele>672.1</ele>
        <time>2021-08-12T08:52:42Z</time>
      </trkpt>
      <trkpt lat="46.83148" lon="5.86758">
        <ele>673.1</ele>
        <time>2021-08-12T08:52:48Z</time>
      </trkpt>
      <trkpt lat="46.83145" lon="5.86754">
        <ele>673.9</ele>
        <time>2021-08-12T08:52:56Z</time>
      </trkpt>
      <trkpt lat="46.8314" lon="5.86752">
        <ele>674.4</ele>
        <time>2021-08-12T08:53:01Z</time>
      </trkpt>
      <trkpt lat="46.83136" lon="5.86748">
        <ele>674.9</ele>
        <time>2021-08-12T08:53:06Z</time>
      </trkpt>
      <trkpt lat="46.83133" lon="5.86744">
        <ele>674.9</ele>
        <time>2021-08-12T08:53:10Z</time>
      </trkpt>
      <trkpt lat="46.83129" lon="5.8674">
        <ele>674.7</ele>
        <time>2021-08-12T08:53:14Z</time>
      </trkpt>
      <trkpt lat="46.83124" lon="5.86736">
        <ele>674.5</ele>
        <time>2021-08-12T08:53:20Z</time>
      </trkpt>
      <trkpt lat="46.83119" lon="5.86735">
        <ele>674.6</ele>
        <time>2021-08-12T08:53:26Z</time>
      </trkpt>
      <trkpt lat="46.83115" lon="5.86732">
        <ele>674.4</ele>
        <time>2021-08-12T08:53:31Z</time>
      </trkpt>
      <trkpt lat="46.83111" lon="5.86727">
        <ele>673.9</ele>
        <time>2021-08-12T08:53:37Z</time>
      </trkpt>
      <trkpt lat="46.83107" lon="5.86723">
        <ele>674.3</ele>
        <time>2021-08-12T08:53:43Z</time>
      </trkpt>
      <trkpt lat="46.83102" lon="5.8672">
        <ele>674.3</ele>
        <time>2021-08-12T08:53:48Z</time>
      </trkpt>
      <trkpt lat="46.83098" lon="5.86717">
        <ele>674.2</ele>
        <time>2021-08-12T08:53:54Z</time>
      </trkpt>
      <trkpt lat="46.83093" lon="5.86715">
        <ele>673.7</ele>
        <time>2021-08-12T08:54:00Z</time>
      </trkpt>
      <trkpt lat="46.83088" lon="5.86713">
        <ele>673.6</ele>
        <time>2021-08-12T08:54:05Z</time>
      </trkpt>
      <trkpt lat="46.83084" lon="5.86711">
        <ele>673.8</ele>
        <time>2021-08-12T08:54:13Z</time>
      </trkpt>
      <trkpt lat="46.83079" lon="5.8671">
        <ele>671.8</ele>
        <time>2021-08-12T08:54:22Z</time>
      </trkpt>
      <trkpt lat="46.83076" lon="5.86706">
        <ele>670.3</ele>
        <time>2021-08-12T08:54:27Z</time>
      </trkpt>
      <trkpt lat="46.83072" lon="5.86702">
        <ele>668.6</ele>
        <time>2021-08-12T08:54:36Z</time>
      </trkpt>
      <trkpt lat="46.83069" lon="5.86697">
        <ele>666.2</ele>
        <time>2021-08-12T08:54:54Z</time>
      </trkpt>
      <trkpt lat="46.83065" lon="5.86691">
        <ele>665.3</ele>
        <time>2021-08-12T08:55:16Z</time>
      </trkpt>
      <trkpt lat="46.8306" lon="5.86689">
        <ele>665.2</ele>
        <time>2021-08-12T08:55:21Z</time>
      </trkpt>
      <trkpt lat="46.83056" lon="5.86686">
        <ele>665.8</ele>
        <time>2021-08-12T08:55:27Z</time>
      </trkpt>
      <trkpt lat="46.83052" lon="5.86681">
        <ele>666</ele>
        <time>2021-08-12T08:55:33Z</time>
      </trkpt>
      <trkpt lat="46.83048" lon="5.86677">
        <ele>666.7</ele>
        <time>2021-08-12T08:55:41Z</time>
      </trkpt>
      <trkpt lat="46.83046" lon="5.86671">
        <ele>667.7</ele>
        <time>2021-08-12T08:55:54Z</time>
      </trkpt>
      <trkpt lat="46.83042" lon="5.86667">
        <ele>667.6</ele>
        <time>2021-08-12T08:55:59Z</time>
      </trkpt>
      <trkpt lat="46.83037" lon="5.86664">
        <ele>668</ele>
        <time>2021-08-12T08:56:04Z</time>
      </trkpt>
      <trkpt lat="46.83033" lon="5.86659">
        <ele>669.2</ele>
        <time>2021-08-12T08:56:09Z</time>
      </trkpt>
      <trkpt lat="46.83029" lon="5.86653">
        <ele>670.4</ele>
        <time>2021-08-12T08:56:14Z</time>
      </trkpt>
      <trkpt lat="46.83024" lon="5.86647">
        <ele>671.1</ele>
        <time>2021-08-12T08:56:18Z</time>
      </trkpt>
      <trkpt lat="46.83021" lon="5.86643">
        <ele>671.7</ele>
        <time>2021-08-12T08:56:21Z</time>
      </trkpt>
      <trkpt lat="46.83017" lon="5.86637">
        <ele>672.1</ele>
        <time>2021-08-12T08:56:26Z</time>
      </trkpt>
      <trkpt lat="46.83013" lon="5.86632">
        <ele>672.1</ele>
        <time>2021-08-12T08:56:31Z</time>
      </trkpt>
      <trkpt lat="46.83008" lon="5.8663">
        <ele>671.9</ele>
        <time>2021-08-12T08:56:36Z</time>
      </trkpt>
      <trkpt lat="46.83004" lon="5.86629">
        <ele>671.5</ele>
        <time>2021-08-12T08:56:41Z</time>
      </trkpt>
      <trkpt lat="46.82999" lon="5.86626">
        <ele>670.4</ele>
        <time>2021-08-12T08:56:48Z</time>
      </trkpt>
      <trkpt lat="46.82994" lon="5.86624">
        <ele>670.3</ele>
        <time>2021-08-12T08:56:53Z</time>
      </trkpt>
      <trkpt lat="46.82989" lon="5.86622">
        <ele>670.6</ele>
        <time>2021-08-12T08:57:00Z</time>
      </trkpt>
      <trkpt lat="46.82983" lon="5.86617">
        <ele>670.4</ele>
        <time>2021-08-12T08:57:10Z</time>
      </trkpt>
      <trkpt lat="46.82978" lon="5.86615">
        <ele>669.7</ele>
        <time>2021-08-12T08:57:15Z</time>
      </trkpt>
      <trkpt lat="46.82973" lon="5.86617">
        <ele>665.1</ele>
        <time>2021-08-12T08:57:54Z</time>
      </trkpt>
      <trkpt lat="46.82969" lon="5.86615">
        <ele>665.1</ele>
        <time>2021-08-12T08:57:58Z</time>
      </trkpt>
      <trkpt lat="46.82964" lon="5.86612">
        <ele>665.5</ele>
        <time>2021-08-12T08:58:02Z</time>
      </trkpt>
      <trkpt lat="46.8296" lon="5.86609">
        <ele>666.2</ele>
        <time>2021-08-12T08:58:06Z</time>
      </trkpt>
      <trkpt lat="46.82957" lon="5.86604">
        <ele>667</ele>
        <time>2021-08-12T08:58:11Z</time>
      </trkpt>
      <trkpt lat="46.82953" lon="5.866">
        <ele>667.9</ele>
        <time>2021-08-12T08:58:16Z</time>
      </trkpt>
      <trkpt lat="46.82948" lon="5.86596">
        <ele>668.9</ele>
        <time>2021-08-12T08:58:21Z</time>
      </trkpt>
      <trkpt lat="46.82944" lon="5.86592">
        <ele>669.5</ele>
        <time>2021-08-12T08:58:27Z</time>
      </trkpt>
      <trkpt lat="46.82939" lon="5.86588">
        <ele>669.7</ele>
        <time>2021-08-12T08:58:34Z</time>
      </trkpt>
      <trkpt lat="46.82934" lon="5.86586">
        <ele>669.7</ele>
        <time>2021-08-12T08:58:39Z</time>
      </trkpt>
      <trkpt lat="46.82929" lon="5.86584">
        <ele>669.8</ele>
        <time>2021-08-12T08:58:43Z</time>
      </trkpt>
      <trkpt lat="46.82924" lon="5.86583">
        <ele>669.9</ele>
        <time>2021-08-12T08:58:48Z</time>
      </trkpt>
      <trkpt lat="46.82919" lon="5.86582">
        <ele>670.1</ele>
        <time>2021-08-12T08:58:53Z</time>
      </trkpt>
      <trkpt lat="46.82914" lon="5.86579">
        <ele>670.2</ele>
        <time>2021-08-12T08:58:57Z</time>
      </trkpt>
      <trkpt lat="46.82909" lon="5.86576">
        <ele>670.4</ele>
        <time>2021-08-12T08:59:01Z</time>
      </trkpt>
      <trkpt lat="46.82905" lon="5.86572">
        <ele>670.9</ele>
        <time>2021-08-12T08:59:05Z</time>
      </trkpt>
      <trkpt lat="46.82901" lon="5.86566">
        <ele>671.2</ele>
        <time>2021-08-12T08:59:10Z</time>
      </trkpt>
      <trkpt lat="46.82896" lon="5.86563">
        <ele>670.7</ele>
        <time>2021-08-12T08:59:16Z</time>
      </trkpt>
      <trkpt lat="46.82893" lon="5.86557">
        <ele>669.4</ele>
        <time>2021-08-12T08:59:22Z</time>
      </trkpt>
      <trkpt lat="46.82888" lon="5.86553">
        <ele>668.1</ele>
        <time>2021-08-12T08:59:28Z</time>
      </trkpt>
      <trkpt lat="46.82885" lon="5.86549">
        <ele>667.4</ele>
        <time>2021-08-12T08:59:33Z</time>
      </trkpt>
      <trkpt lat="46.8288" lon="5.86545">
        <ele>667.4</ele>
        <time>2021-08-12T08:59:38Z</time>
      </trkpt>
      <trkpt lat="46.82876" lon="5.86541">
        <ele>667.3</ele>
        <time>2021-08-12T08:59:43Z</time>
      </trkpt>
      <trkpt lat="46.82871" lon="5.86541">
        <ele>666.9</ele>
        <time>2021-08-12T08:59:50Z</time>
      </trkpt>
      <trkpt lat="46.82866" lon="5.86541">
        <ele>666.2</ele>
        <time>2021-08-12T08:59:56Z</time>
      </trkpt>
      <trkpt lat="46.82861" lon="5.86539">
        <ele>665.3</ele>
        <time>2021-08-12T09:00:01Z</time>
      </trkpt>
      <trkpt lat="46.82856" lon="5.86539">
        <ele>665</ele>
        <time>2021-08-12T09:00:07Z</time>
      </trkpt>
      <trkpt lat="46.82852" lon="5.86537">
        <ele>664.2</ele>
        <time>2021-08-12T09:00:12Z</time>
      </trkpt>
      <trkpt lat="46.82847" lon="5.86536">
        <ele>663.1</ele>
        <time>2021-08-12T09:00:17Z</time>
      </trkpt>
      <trkpt lat="46.82842" lon="5.86533">
        <ele>662.8</ele>
        <time>2021-08-12T09:00:22Z</time>
      </trkpt>
      <trkpt lat="46.82838" lon="5.86529">
        <ele>662.5</ele>
        <time>2021-08-12T09:00:28Z</time>
      </trkpt>
      <trkpt lat="46.82833" lon="5.86526">
        <ele>662</ele>
        <time>2021-08-12T09:00:34Z</time>
      </trkpt>
      <trkpt lat="46.82829" lon="5.86523">
        <ele>661.3</ele>
        <time>2021-08-12T09:00:39Z</time>
      </trkpt>
      <trkpt lat="46.82824" lon="5.86519">
        <ele>660.3</ele>
        <time>2021-08-12T09:00:45Z</time>
      </trkpt>
      <trkpt lat="46.8282" lon="5.86513">
        <ele>659</ele>
        <time>2021-08-12T09:00:51Z</time>
      </trkpt>
      <trkpt lat="46.82817" lon="5.86507">
        <ele>658.4</ele>
        <time>2021-08-12T09:00:56Z</time>
      </trkpt>
      <trkpt lat="46.82814" lon="5.86501">
        <ele>658.8</ele>
        <time>2021-08-12T09:01:00Z</time>
      </trkpt>
      <trkpt lat="46.8281" lon="5.86497">
        <ele>659.4</ele>
        <time>2021-08-12T09:01:04Z</time>
      </trkpt>
      <trkpt lat="46.82807" lon="5.86492">
        <ele>659.9</ele>
        <time>2021-08-12T09:01:10Z</time>
      </trkpt>
      <trkpt lat="46.82807" lon="5.86485">
        <ele>658.4</ele>
        <time>2021-08-12T09:01:18Z</time>
      </trkpt>
      <trkpt lat="46.82811" lon="5.86482">
        <ele>656.8</ele>
        <time>2021-08-12T09:01:23Z</time>
      </trkpt>
      <trkpt lat="46.82815" lon="5.86477">
        <ele>654.8</ele>
        <time>2021-08-12T09:01:29Z</time>
      </trkpt>
      <trkpt lat="46.82817" lon="5.8647">
        <ele>653.6</ele>
        <time>2021-08-12T09:01:36Z</time>
      </trkpt>
      <trkpt lat="46.82818" lon="5.86463">
        <ele>652.7</ele>
        <time>2021-08-12T09:01:41Z</time>
      </trkpt>
      <trkpt lat="46.82821" lon="5.86457">
        <ele>652.2</ele>
        <time>2021-08-12T09:01:45Z</time>
      </trkpt>
      <trkpt lat="46.82824" lon="5.86452">
        <ele>652.1</ele>
        <time>2021-08-12T09:01:49Z</time>
      </trkpt>
      <trkpt lat="46.82826" lon="5.86445">
        <ele>652.3</ele>
        <time>2021-08-12T09:01:53Z</time>
      </trkpt>
      <trkpt lat="46.82827" lon="5.86439">
        <ele>652.1</ele>
        <time>2021-08-12T09:01:59Z</time>
      </trkpt>
      <trkpt lat="46.82831" lon="5.86434">
        <ele>652.2</ele>
        <time>2021-08-12T09:02:05Z</time>
      </trkpt>
      <trkpt lat="46.82836" lon="5.86433">
        <ele>651.9</ele>
        <time>2021-08-12T09:02:11Z</time>
      </trkpt>
      <trkpt lat="46.82841" lon="5.8643">
        <ele>651.3</ele>
        <time>2021-08-12T09:02:16Z</time>
      </trkpt>
      <trkpt lat="46.82845" lon="5.86426">
        <ele>650.7</ele>
        <time>2021-08-12T09:02:22Z</time>
      </trkpt>
      <trkpt lat="46.82849" lon="5.86422">
        <ele>650</ele>
        <time>2021-08-12T09:02:29Z</time>
      </trkpt>
      <trkpt lat="46.82854" lon="5.86419">
        <ele>649.1</ele>
        <time>2021-08-12T09:02:36Z</time>
      </trkpt>
      <trkpt lat="46.82858" lon="5.86415">
        <ele>648.6</ele>
        <time>2021-08-12T09:02:41Z</time>
      </trkpt>
      <trkpt lat="46.82863" lon="5.86411">
        <ele>648.1</ele>
        <time>2021-08-12T09:02:46Z</time>
      </trkpt>
      <trkpt lat="46.82867" lon="5.86409">
        <ele>647.7</ele>
        <time>2021-08-12T09:02:51Z</time>
      </trkpt>
      <trkpt lat="46.82872" lon="5.86407">
        <ele>648</ele>
        <time>2021-08-12T09:02:56Z</time>
      </trkpt>
      <trkpt lat="46.82877" lon="5.86403">
        <ele>648.3</ele>
        <time>2021-08-12T09:03:00Z</time>
      </trkpt>
      <trkpt lat="46.82882" lon="5.86401">
        <ele>648.4</ele>
        <time>2021-08-12T09:03:04Z</time>
      </trkpt>
      <trkpt lat="46.82887" lon="5.86399">
        <ele>648.1</ele>
        <time>2021-08-12T09:03:09Z</time>
      </trkpt>
      <trkpt lat="46.82891" lon="5.86397">
        <ele>647.6</ele>
        <time>2021-08-12T09:03:15Z</time>
      </trkpt>
      <trkpt lat="46.82896" lon="5.86394">
        <ele>647.2</ele>
        <time>2021-08-12T09:03:20Z</time>
      </trkpt>
      <trkpt lat="46.82901" lon="5.86393">
        <ele>646.1</ele>
        <time>2021-08-12T09:03:26Z</time>
      </trkpt>
      <trkpt lat="46.82906" lon="5.86391">
        <ele>645</ele>
        <time>2021-08-12T09:03:32Z</time>
      </trkpt>
      <trkpt lat="46.82911" lon="5.86388">
        <ele>644.6</ele>
        <time>2021-08-12T09:03:36Z</time>
      </trkpt>
      <trkpt lat="46.82915" lon="5.86385">
        <ele>644.3</ele>
        <time>2021-08-12T09:03:40Z</time>
      </trkpt>
      <trkpt lat="46.8292" lon="5.86384">
        <ele>644.3</ele>
        <time>2021-08-12T09:03:45Z</time>
      </trkpt>
      <trkpt lat="46.82924" lon="5.86381">
        <ele>644.7</ele>
        <time>2021-08-12T09:03:50Z</time>
      </trkpt>
      <trkpt lat="46.82929" lon="5.86378">
        <ele>644.7</ele>
        <time>2021-08-12T09:03:55Z</time>
      </trkpt>
      <trkpt lat="46.82933" lon="5.86375">
        <ele>644.7</ele>
        <time>2021-08-12T09:04:00Z</time>
      </trkpt>
      <trkpt lat="46.82939" lon="5.86375">
        <ele>644.6</ele>
        <time>2021-08-12T09:04:06Z</time>
      </trkpt>
      <trkpt lat="46.82943" lon="5.86374">
        <ele>644.1</ele>
        <time>2021-08-12T09:04:12Z</time>
      </trkpt>
      <trkpt lat="46.82946" lon="5.86368">
        <ele>643.2</ele>
        <time>2021-08-12T09:04:18Z</time>
      </trkpt>
      <trkpt lat="46.82944" lon="5.86362">
        <ele>641.7</ele>
        <time>2021-08-12T09:04:24Z</time>
      </trkpt>
      <trkpt lat="46.82939" lon="5.8636">
        <ele>640.3</ele>
        <time>2021-08-12T09:04:31Z</time>
      </trkpt>
      <trkpt lat="46.82935" lon="5.8636">
        <ele>640.6</ele>
        <time>2021-08-12T09:04:36Z</time>
      </trkpt>
      <trkpt lat="46.82929" lon="5.8636">
        <ele>641.6</ele>
        <time>2021-08-12T09:04:41Z</time>
      </trkpt>
      <trkpt lat="46.82924" lon="5.8636">
        <ele>642.7</ele>
        <time>2021-08-12T09:04:47Z</time>
      </trkpt>
      <trkpt lat="46.82919" lon="5.86361">
        <ele>643.2</ele>
        <time>2021-08-12T09:04:53Z</time>
      </trkpt>
      <trkpt lat="46.82914" lon="5.86361">
        <ele>642.9</ele>
        <time>2021-08-12T09:05:01Z</time>
      </trkpt>
      <trkpt lat="46.82909" lon="5.8636">
        <ele>642.8</ele>
        <time>2021-08-12T09:05:06Z</time>
      </trkpt>
      <trkpt lat="46.82904" lon="5.8636">
        <ele>643.7</ele>
        <time>2021-08-12T09:05:11Z</time>
      </trkpt>
      <trkpt lat="46.82898" lon="5.86361">
        <ele>644.7</ele>
        <time>2021-08-12T09:05:15Z</time>
      </trkpt>
      <trkpt lat="46.82894" lon="5.86362">
        <ele>645</ele>
        <time>2021-08-12T09:05:19Z</time>
      </trkpt>
      <trkpt lat="46.82889" lon="5.86361">
        <ele>644.8</ele>
        <time>2021-08-12T09:05:23Z</time>
      </trkpt>
      <trkpt lat="46.82885" lon="5.86357">
        <ele>644.9</ele>
        <time>2021-08-12T09:05:29Z</time>
      </trkpt>
      <trkpt lat="46.82888" lon="5.86351">
        <ele>645.3</ele>
        <time>2021-08-12T09:05:35Z</time>
      </trkpt>
      <trkpt lat="46.82892" lon="5.86347">
        <ele>645.5</ele>
        <time>2021-08-12T09:05:40Z</time>
      </trkpt>
      <trkpt lat="46.82897" lon="5.86345">
        <ele>645.4</ele>
        <time>2021-08-12T09:05:46Z</time>
      </trkpt>
      <trkpt lat="46.82902" lon="5.86346">
        <ele>644.6</ele>
        <time>2021-08-12T09:05:51Z</time>
      </trkpt>
      <trkpt lat="46.82906" lon="5.86345">
        <ele>643.9</ele>
        <time>2021-08-12T09:05:56Z</time>
      </trkpt>
      <trkpt lat="46.82911" lon="5.86345">
        <ele>643.1</ele>
        <time>2021-08-12T09:06:03Z</time>
      </trkpt>
      <trkpt lat="46.82908" lon="5.86341">
        <ele>641.2</ele>
        <time>2021-08-12T09:06:57Z</time>
      </trkpt>
      <trkpt lat="46.82903" lon="5.86337">
        <ele>641</ele>
        <time>2021-08-12T09:07:10Z</time>
      </trkpt>
      <trkpt lat="46.82902" lon="5.8633">
        <ele>641.6</ele>
        <time>2021-08-12T09:07:15Z</time>
      </trkpt>
      <trkpt lat="46.82901" lon="5.86324">
        <ele>642.5</ele>
        <time>2021-08-12T09:07:21Z</time>
      </trkpt>
      <trkpt lat="46.82902" lon="5.86316">
        <ele>643.3</ele>
        <time>2021-08-12T09:07:28Z</time>
      </trkpt>
      <trkpt lat="46.82904" lon="5.8631">
        <ele>643.1</ele>
        <time>2021-08-12T09:07:41Z</time>
      </trkpt>
      <trkpt lat="46.82904" lon="5.86302">
        <ele>642.8</ele>
        <time>2021-08-12T09:07:46Z</time>
      </trkpt>
      <trkpt lat="46.82905" lon="5.86295">
        <ele>639.9</ele>
        <time>2021-08-12T09:08:09Z</time>
      </trkpt>
      <trkpt lat="46.82905" lon="5.86287">
        <ele>639.1</ele>
        <time>2021-08-12T09:08:13Z</time>
      </trkpt>
      <trkpt lat="46.82904" lon="5.8628">
        <ele>638.6</ele>
        <time>2021-08-12T09:08:17Z</time>
      </trkpt>
      <trkpt lat="46.82904" lon="5.86272">
        <ele>638.4</ele>
        <time>2021-08-12T09:08:21Z</time>
      </trkpt>
      <trkpt lat="46.82903" lon="5.86266">
        <ele>638.5</ele>
        <time>2021-08-12T09:08:26Z</time>
      </trkpt>
      <trkpt lat="46.82904" lon="5.86258">
        <ele>638.6</ele>
        <time>2021-08-12T09:08:33Z</time>
      </trkpt>
      <trkpt lat="46.82905" lon="5.86252">
        <ele>639</ele>
        <time>2021-08-12T09:08:38Z</time>
      </trkpt>
      <trkpt lat="46.82907" lon="5.86245">
        <ele>639.5</ele>
        <time>2021-08-12T09:08:45Z</time>
      </trkpt>
      <trkpt lat="46.8291" lon="5.86239">
        <ele>640</ele>
        <time>2021-08-12T09:08:50Z</time>
      </trkpt>
      <trkpt lat="46.82912" lon="5.86233">
        <ele>640.5</ele>
        <time>2021-08-12T09:08:55Z</time>
      </trkpt>
      <trkpt lat="46.82914" lon="5.86227">
        <ele>641.1</ele>
        <time>2021-08-12T09:09:01Z</time>
      </trkpt>
      <trkpt lat="46.82917" lon="5.86221">
        <ele>641.7</ele>
        <time>2021-08-12T09:09:07Z</time>
      </trkpt>
      <trkpt lat="46.82919" lon="5.86215">
        <ele>642.2</ele>
        <time>2021-08-12T09:09:16Z</time>
      </trkpt>
      <trkpt lat="46.82918" lon="5.86208">
        <ele>642.5</ele>
        <time>2021-08-12T09:09:22Z</time>
      </trkpt>
      <trkpt lat="46.82915" lon="5.86203">
        <ele>642.7</ele>
        <time>2021-08-12T09:09:27Z</time>
      </trkpt>
      <trkpt lat="46.82911" lon="5.86199">
        <ele>643.3</ele>
        <time>2021-08-12T09:09:35Z</time>
      </trkpt>
      <trkpt lat="46.82909" lon="5.86193">
        <ele>644.2</ele>
        <time>2021-08-12T09:09:43Z</time>
      </trkpt>
      <trkpt lat="46.82905" lon="5.86189">
        <ele>645.4</ele>
        <time>2021-08-12T09:09:48Z</time>
      </trkpt>
      <trkpt lat="46.82901" lon="5.86185">
        <ele>647.3</ele>
        <time>2021-08-12T09:09:54Z</time>
      </trkpt>
      <trkpt lat="46.82897" lon="5.8618">
        <ele>648.7</ele>
        <time>2021-08-12T09:10:03Z</time>
      </trkpt>
      <trkpt lat="46.82895" lon="5.86173">
        <ele>649.3</ele>
        <time>2021-08-12T09:10:11Z</time>
      </trkpt>
      <trkpt lat="46.82892" lon="5.86167">
        <ele>649.6</ele>
        <time>2021-08-12T09:10:16Z</time>
      </trkpt>
      <trkpt lat="46.82888" lon="5.86161">
        <ele>650</ele>
        <time>2021-08-12T09:10:20Z</time>
      </trkpt>
      <trkpt lat="46.82883" lon="5.86155">
        <ele>651</ele>
        <time>2021-08-12T09:10:24Z</time>
      </trkpt>
      <trkpt lat="46.82879" lon="5.86151">
        <ele>652.5</ele>
        <time>2021-08-12T09:10:30Z</time>
      </trkpt>
      <trkpt lat="46.82877" lon="5.86144">
        <ele>653.6</ele>
        <time>2021-08-12T09:10:39Z</time>
      </trkpt>
      <trkpt lat="46.82874" lon="5.86138">
        <ele>653.6</ele>
        <time>2021-08-12T09:10:43Z</time>
      </trkpt>
      <trkpt lat="46.82872" lon="5.86131">
        <ele>653.8</ele>
        <time>2021-08-12T09:10:50Z</time>
      </trkpt>
      <trkpt lat="46.82871" lon="5.86124">
        <ele>653.9</ele>
        <time>2021-08-12T09:10:56Z</time>
      </trkpt>
      <trkpt lat="46.82866" lon="5.8612">
        <ele>654.6</ele>
        <time>2021-08-12T09:11:03Z</time>
      </trkpt>
      <trkpt lat="46.82863" lon="5.86112">
        <ele>655.1</ele>
        <time>2021-08-12T09:11:09Z</time>
      </trkpt>
      <trkpt lat="46.82862" lon="5.86106">
        <ele>655.2</ele>
        <time>2021-08-12T09:11:12Z</time>
      </trkpt>
      <trkpt lat="46.82859" lon="5.861">
        <ele>655</ele>
        <time>2021-08-12T09:11:17Z</time>
      </trkpt>
      <trkpt lat="46.82855" lon="5.86099">
        <ele>654.9</ele>
        <time>2021-08-12T09:11:46Z</time>
      </trkpt>
      <trkpt lat="46.82853" lon="5.86092">
        <ele>655.4</ele>
        <time>2021-08-12T09:11:53Z</time>
      </trkpt>
      <trkpt lat="46.82852" lon="5.86085">
        <ele>656.1</ele>
        <time>2021-08-12T09:11:57Z</time>
      </trkpt>
      <trkpt lat="46.8285" lon="5.86076">
        <ele>656.7</ele>
        <time>2021-08-12T09:12:00Z</time>
      </trkpt>
      <trkpt lat="46.82849" lon="5.86067">
        <ele>657.4</ele>
        <time>2021-08-12T09:12:04Z</time>
      </trkpt>
      <trkpt lat="46.82847" lon="5.86061">
        <ele>658.1</ele>
        <time>2021-08-12T09:12:07Z</time>
      </trkpt>
      <trkpt lat="46.82845" lon="5.86067">
        <ele>659.2</ele>
        <time>2021-08-12T09:12:22Z</time>
      </trkpt>
      <trkpt lat="46.82843" lon="5.8606">
        <ele>660.8</ele>
        <time>2021-08-12T09:13:03Z</time>
      </trkpt>
      <trkpt lat="46.82847" lon="5.86061">
        <ele>661.1</ele>
        <time>2021-08-12T09:13:08Z</time>
      </trkpt>
      <trkpt lat="46.82853" lon="5.86062">
        <ele>661.4</ele>
        <time>2021-08-12T09:13:14Z</time>
      </trkpt>
      <trkpt lat="46.82859" lon="5.86065">
        <ele>661.1</ele>
        <time>2021-08-12T09:13:17Z</time>
      </trkpt>
      <trkpt lat="46.82864" lon="5.86065">
        <ele>660.9</ele>
        <time>2021-08-12T09:13:21Z</time>
      </trkpt>
      <trkpt lat="46.82869" lon="5.86065">
        <ele>660</ele>
        <time>2021-08-12T09:13:30Z</time>
      </trkpt>
      <trkpt lat="46.82874" lon="5.86062">
        <ele>659.2</ele>
        <time>2021-08-12T09:13:37Z</time>
      </trkpt>
      <trkpt lat="46.82874" lon="5.86055">
        <ele>659.1</ele>
        <time>2021-08-12T09:13:43Z</time>
      </trkpt>
      <trkpt lat="46.82878" lon="5.86051">
        <ele>659.3</ele>
        <time>2021-08-12T09:13:49Z</time>
      </trkpt>
      <trkpt lat="46.82883" lon="5.86048">
        <ele>659.5</ele>
        <time>2021-08-12T09:13:53Z</time>
      </trkpt>
      <trkpt lat="46.82886" lon="5.86042">
        <ele>659.8</ele>
        <time>2021-08-12T09:13:57Z</time>
      </trkpt>
      <trkpt lat="46.82891" lon="5.86042">
        <ele>659.8</ele>
        <time>2021-08-12T09:14:05Z</time>
      </trkpt>
      <trkpt lat="46.82896" lon="5.86038">
        <ele>660.6</ele>
        <time>2021-08-12T09:14:11Z</time>
      </trkpt>
      <trkpt lat="46.82902" lon="5.86038">
        <ele>661.3</ele>
        <time>2021-08-12T09:14:14Z</time>
      </trkpt>
      <trkpt lat="46.82906" lon="5.86036">
        <ele>662.6</ele>
        <time>2021-08-12T09:14:20Z</time>
      </trkpt>
      <trkpt lat="46.82904" lon="5.8603">
        <ele>663.5</ele>
        <time>2021-08-12T09:14:24Z</time>
      </trkpt>
      <trkpt lat="46.82901" lon="5.86022">
        <ele>664.5</ele>
        <time>2021-08-12T09:14:28Z</time>
      </trkpt>
      <trkpt lat="46.82904" lon="5.86017">
        <ele>665.7</ele>
        <time>2021-08-12T09:14:34Z</time>
      </trkpt>
      <trkpt lat="46.82906" lon="5.8601">
        <ele>665</ele>
        <time>2021-08-12T09:14:43Z</time>
      </trkpt>
      <trkpt lat="46.82908" lon="5.86004">
        <ele>665</ele>
        <time>2021-08-12T09:14:48Z</time>
      </trkpt>
      <trkpt lat="46.82911" lon="5.85999">
        <ele>665</ele>
        <time>2021-08-12T09:14:53Z</time>
      </trkpt>
      <trkpt lat="46.82914" lon="5.85992">
        <ele>664.8</ele>
        <time>2021-08-12T09:14:58Z</time>
      </trkpt>
      <trkpt lat="46.82916" lon="5.85986">
        <ele>664.9</ele>
        <time>2021-08-12T09:15:02Z</time>
      </trkpt>
      <trkpt lat="46.82917" lon="5.85979">
        <ele>664.7</ele>
        <time>2021-08-12T09:15:07Z</time>
      </trkpt>
      <trkpt lat="46.82917" lon="5.85973">
        <ele>663.6</ele>
        <time>2021-08-12T09:15:15Z</time>
      </trkpt>
      <trkpt lat="46.82913" lon="5.85968">
        <ele>663.1</ele>
        <time>2021-08-12T09:15:21Z</time>
      </trkpt>
      <trkpt lat="46.82909" lon="5.85971">
        <ele>663.2</ele>
        <time>2021-08-12T09:15:30Z</time>
      </trkpt>
      <trkpt lat="46.82906" lon="5.85977">
        <ele>664.3</ele>
        <time>2021-08-12T09:15:38Z</time>
      </trkpt>
      <trkpt lat="46.82907" lon="5.85984">
        <ele>666.7</ele>
        <time>2021-08-12T09:15:53Z</time>
      </trkpt>
      <trkpt lat="46.82907" lon="5.85991">
        <ele>668</ele>
        <time>2021-08-12T09:15:59Z</time>
      </trkpt>
      <trkpt lat="46.82904" lon="5.85997">
        <ele>669</ele>
        <time>2021-08-12T09:16:07Z</time>
      </trkpt>
      <trkpt lat="46.829" lon="5.86001">
        <ele>669.8</ele>
        <time>2021-08-12T09:16:13Z</time>
      </trkpt>
      <trkpt lat="46.82896" lon="5.85999">
        <ele>670.7</ele>
        <time>2021-08-12T09:16:18Z</time>
      </trkpt>
      <trkpt lat="46.82892" lon="5.85995">
        <ele>673.6</ele>
        <time>2021-08-12T09:16:28Z</time>
      </trkpt>
      <trkpt lat="46.82888" lon="5.85991">
        <ele>674.5</ele>
        <time>2021-08-12T09:16:33Z</time>
      </trkpt>
      <trkpt lat="46.82884" lon="5.85987">
        <ele>675.1</ele>
        <time>2021-08-12T09:16:37Z</time>
      </trkpt>
      <trkpt lat="46.8288" lon="5.85984">
        <ele>675.5</ele>
        <time>2021-08-12T09:16:41Z</time>
      </trkpt>
      <trkpt lat="46.82876" lon="5.8598">
        <ele>675.5</ele>
        <time>2021-08-12T09:16:49Z</time>
      </trkpt>
      <trkpt lat="46.82871" lon="5.8598">
        <ele>675.3</ele>
        <time>2021-08-12T09:16:53Z</time>
      </trkpt>
      <trkpt lat="46.82866" lon="5.85977">
        <ele>674.8</ele>
        <time>2021-08-12T09:17:00Z</time>
      </trkpt>
      <trkpt lat="46.82867" lon="5.85984">
        <ele>675.3</ele>
        <time>2021-08-12T09:17:21Z</time>
      </trkpt>
      <trkpt lat="46.82868" lon="5.85991">
        <ele>676.5</ele>
        <time>2021-08-12T09:17:25Z</time>
      </trkpt>
      <trkpt lat="46.82866" lon="5.85985">
        <ele>678.1</ele>
        <time>2021-08-12T09:17:41Z</time>
      </trkpt>
      <trkpt lat="46.82862" lon="5.8598">
        <ele>677.7</ele>
        <time>2021-08-12T09:17:45Z</time>
      </trkpt>
      <trkpt lat="46.82858" lon="5.85974">
        <ele>677.2</ele>
        <time>2021-08-12T09:17:49Z</time>
      </trkpt>
      <trkpt lat="46.82853" lon="5.85971">
        <ele>677.4</ele>
        <time>2021-08-12T09:17:53Z</time>
      </trkpt>
      <trkpt lat="46.82849" lon="5.85968">
        <ele>678.1</ele>
        <time>2021-08-12T09:17:59Z</time>
      </trkpt>
      <trkpt lat="46.82844" lon="5.85965">
        <ele>679.1</ele>
        <time>2021-08-12T09:18:04Z</time>
      </trkpt>
      <trkpt lat="46.82839" lon="5.85964">
        <ele>679.9</ele>
        <time>2021-08-12T09:18:10Z</time>
      </trkpt>
      <trkpt lat="46.82834" lon="5.85962">
        <ele>681</ele>
        <time>2021-08-12T09:18:14Z</time>
      </trkpt>
      <trkpt lat="46.8283" lon="5.8596">
        <ele>682.4</ele>
        <time>2021-08-12T09:18:18Z</time>
      </trkpt>
      <trkpt lat="46.82825" lon="5.85963">
        <ele>684.6</ele>
        <time>2021-08-12T09:18:25Z</time>
      </trkpt>
      <trkpt lat="46.82823" lon="5.85969">
        <ele>686.4</ele>
        <time>2021-08-12T09:18:30Z</time>
      </trkpt>
      <trkpt lat="46.82823" lon="5.85976">
        <ele>688.1</ele>
        <time>2021-08-12T09:18:35Z</time>
      </trkpt>
      <trkpt lat="46.82824" lon="5.85983">
        <ele>690.3</ele>
        <time>2021-08-12T09:18:47Z</time>
      </trkpt>
      <trkpt lat="46.82827" lon="5.85988">
        <ele>690.8</ele>
        <time>2021-08-12T09:18:53Z</time>
      </trkpt>
      <trkpt lat="46.82827" lon="5.85995">
        <ele>691.3</ele>
        <time>2021-08-12T09:18:58Z</time>
      </trkpt>
      <trkpt lat="46.82823" lon="5.86002">
        <ele>691.7</ele>
        <time>2021-08-12T09:19:08Z</time>
      </trkpt>
      <trkpt lat="46.82821" lon="5.86008">
        <ele>692.3</ele>
        <time>2021-08-12T09:19:14Z</time>
      </trkpt>
      <trkpt lat="46.82825" lon="5.8601">
        <ele>693.4</ele>
        <time>2021-08-12T09:19:33Z</time>
      </trkpt>
      <trkpt lat="46.82827" lon="5.86003">
        <ele>690.9</ele>
        <time>2021-08-12T09:20:15Z</time>
      </trkpt>
      <trkpt lat="46.82831" lon="5.86009">
        <ele>689.4</ele>
        <time>2021-08-12T09:21:56Z</time>
      </trkpt>
      <trkpt lat="46.82836" lon="5.86008">
        <ele>688.9</ele>
        <time>2021-08-12T09:22:02Z</time>
      </trkpt>
      <trkpt lat="46.8284" lon="5.86005">
        <ele>687.8</ele>
        <time>2021-08-12T09:22:12Z</time>
      </trkpt>
      <trkpt lat="46.82842" lon="5.86011">
        <ele>688.8</ele>
        <time>2021-08-12T09:22:41Z</time>
      </trkpt>
      <trkpt lat="46.8284" lon="5.86017">
        <ele>693.1</ele>
        <time>2021-08-12T09:24:21Z</time>
      </trkpt>
      <trkpt lat="46.82837" lon="5.86011">
        <ele>693.7</ele>
        <time>2021-08-12T09:24:52Z</time>
      </trkpt>
      <trkpt lat="46.82836" lon="5.86004">
        <ele>694</ele>
        <time>2021-08-12T09:24:56Z</time>
      </trkpt>
      <trkpt lat="46.82835" lon="5.85996">
        <ele>693.7</ele>
        <time>2021-08-12T09:25:00Z</time>
      </trkpt>
      <trkpt lat="46.82835" lon="5.8599">
        <ele>691.6</ele>
        <time>2021-08-12T09:25:08Z</time>
      </trkpt>
      <trkpt lat="46.82839" lon="5.85998">
        <ele>690.8</ele>
        <time>2021-08-12T09:25:26Z</time>
      </trkpt>
      <trkpt lat="46.82842" lon="5.86003">
        <ele>691.2</ele>
        <time>2021-08-12T09:25:29Z</time>
      </trkpt>
      <trkpt lat="46.82839" lon="5.85997">
        <ele>689.2</ele>
        <time>2021-08-12T09:25:56Z</time>
      </trkpt>
      <trkpt lat="46.82836" lon="5.85992">
        <ele>688.1</ele>
        <time>2021-08-12T09:26:12Z</time>
      </trkpt>
      <trkpt lat="46.82831" lon="5.85995">
        <ele>691.2</ele>
        <time>2021-08-12T09:26:32Z</time>
      </trkpt>
      <trkpt lat="46.82827" lon="5.85988">
        <ele>695.6</ele>
        <time>2021-08-12T09:29:08Z</time>
      </trkpt>
      <trkpt lat="46.82831" lon="5.85993">
        <ele>695.9</ele>
        <time>2021-08-12T09:29:47Z</time>
      </trkpt>
      <trkpt lat="46.82826" lon="5.8599">
        <ele>695.6</ele>
        <time>2021-08-12T09:30:08Z</time>
      </trkpt>
      <trkpt lat="46.82831" lon="5.8599">
        <ele>696.1</ele>
        <time>2021-08-12T09:32:23Z</time>
      </trkpt>
      <trkpt lat="46.82836" lon="5.85992">
        <ele>693.9</ele>
        <time>2021-08-12T09:32:38Z</time>
      </trkpt>
      <trkpt lat="46.82831" lon="5.8599">
        <ele>694.7</ele>
        <time>2021-08-12T09:32:59Z</time>
      </trkpt>
      <trkpt lat="46.82827" lon="5.85988">
        <ele>695.2</ele>
        <time>2021-08-12T09:33:02Z</time>
      </trkpt>
      <trkpt lat="46.8283" lon="5.85993">
        <ele>701.8</ele>
        <time>2021-08-12T09:58:27Z</time>
      </trkpt>
      <trkpt lat="46.82835" lon="5.86003">
        <ele>701.3</ele>
        <time>2021-08-12T09:58:29Z</time>
      </trkpt>
      <trkpt lat="46.82831" lon="5.85998">
        <ele>697.3</ele>
        <time>2021-08-12T09:58:31Z</time>
      </trkpt>
      <trkpt lat="46.82821" lon="5.85972">
        <ele>696.5</ele>
        <time>2021-08-12T10:02:46Z</time>
      </trkpt>
      <trkpt lat="46.82831" lon="5.85981">
        <ele>696.8</ele>
        <time>2021-08-12T10:02:48Z</time>
      </trkpt>
      <trkpt lat="46.82837" lon="5.85998">
        <ele>696.9</ele>
        <time>2021-08-12T10:02:50Z</time>
      </trkpt>
      <trkpt lat="46.82841" lon="5.86008">
        <ele>697</ele>
        <time>2021-08-12T10:02:52Z</time>
      </trkpt>
      <trkpt lat="46.82839" lon="5.86017">
        <ele>697.1</ele>
        <time>2021-08-12T10:02:55Z</time>
      </trkpt>
      <trkpt lat="46.82835" lon="5.8602">
        <ele>697.1</ele>
        <time>2021-08-12T10:02:57Z</time>
      </trkpt>
      <trkpt lat="46.8283" lon="5.86021">
        <ele>697.2</ele>
        <time>2021-08-12T10:03:02Z</time>
      </trkpt>
      <trkpt lat="46.82829" lon="5.86013">
        <ele>697.2</ele>
        <time>2021-08-12T10:03:07Z</time>
      </trkpt>
      <trkpt lat="46.8283" lon="5.86006">
        <ele>697.2</ele>
        <time>2021-08-12T10:03:19Z</time>
      </trkpt>
      <trkpt lat="46.82831" lon="5.85997">
        <ele>696.7</ele>
        <time>2021-08-12T10:03:23Z</time>
      </trkpt>
      <trkpt lat="46.82828" lon="5.85991">
        <ele>695.6</ele>
        <time>2021-08-12T10:03:28Z</time>
      </trkpt>
      <trkpt lat="46.82824" lon="5.85987">
        <ele>693</ele>
        <time>2021-08-12T10:03:46Z</time>
      </trkpt>
      <trkpt lat="46.8282" lon="5.85989">
        <ele>685.4</ele>
        <time>2021-08-12T10:04:40Z</time>
      </trkpt>
      <trkpt lat="46.82816" lon="5.85994">
        <ele>684.9</ele>
        <time>2021-08-12T10:04:46Z</time>
      </trkpt>
      <trkpt lat="46.82816" lon="5.86001">
        <ele>685.9</ele>
        <time>2021-08-12T10:05:01Z</time>
      </trkpt>
      <trkpt lat="46.82819" lon="5.86005">
        <ele>686.2</ele>
        <time>2021-08-12T10:05:07Z</time>
      </trkpt>
      <trkpt lat="46.8282" lon="5.85998">
        <ele>687.2</ele>
        <time>2021-08-12T10:06:27Z</time>
      </trkpt>
      <trkpt lat="46.82819" lon="5.85991">
        <ele>687.4</ele>
        <time>2021-08-12T10:06:37Z</time>
      </trkpt>
      <trkpt lat="46.82818" lon="5.85983">
        <ele>691.1</ele>
        <time>2021-08-12T10:07:49Z</time>
      </trkpt>
      <trkpt lat="46.8282" lon="5.85977">
        <ele>691.2</ele>
        <time>2021-08-12T10:07:53Z</time>
      </trkpt>
      <trkpt lat="46.82823" lon="5.85971">
        <ele>691</ele>
        <time>2021-08-12T10:07:59Z</time>
      </trkpt>
      <trkpt lat="46.82826" lon="5.85964">
        <ele>690.5</ele>
        <time>2021-08-12T10:08:06Z</time>
      </trkpt>
      <trkpt lat="46.82829" lon="5.8596">
        <ele>689.4</ele>
        <time>2021-08-12T10:08:17Z</time>
      </trkpt>
      <trkpt lat="46.82835" lon="5.85959">
        <ele>688.3</ele>
        <time>2021-08-12T10:08:23Z</time>
      </trkpt>
      <trkpt lat="46.8284" lon="5.85959">
        <ele>688</ele>
        <time>2021-08-12T10:08:26Z</time>
      </trkpt>
      <trkpt lat="46.82846" lon="5.85961">
        <ele>687.6</ele>
        <time>2021-08-12T10:08:29Z</time>
      </trkpt>
      <trkpt lat="46.82851" lon="5.85963">
        <ele>687.6</ele>
        <time>2021-08-12T10:08:32Z</time>
      </trkpt>
      <trkpt lat="46.82858" lon="5.85965">
        <ele>687.4</ele>
        <time>2021-08-12T10:08:35Z</time>
      </trkpt>
      <trkpt lat="46.82863" lon="5.85967">
        <ele>687.3</ele>
        <time>2021-08-12T10:08:38Z</time>
      </trkpt>
      <trkpt lat="46.82868" lon="5.85969">
        <ele>687.4</ele>
        <time>2021-08-12T10:08:42Z</time>
      </trkpt>
      <trkpt lat="46.82872" lon="5.85971">
        <ele>687.1</ele>
        <time>2021-08-12T10:08:48Z</time>
      </trkpt>
      <trkpt lat="46.82876" lon="5.85976">
        <ele>687.2</ele>
        <time>2021-08-12T10:08:54Z</time>
      </trkpt>
      <trkpt lat="46.82878" lon="5.85982">
        <ele>687.8</ele>
        <time>2021-08-12T10:09:01Z</time>
      </trkpt>
      <trkpt lat="46.82883" lon="5.85983">
        <ele>688.8</ele>
        <time>2021-08-12T10:09:14Z</time>
      </trkpt>
      <trkpt lat="46.82889" lon="5.85985">
        <ele>689.1</ele>
        <time>2021-08-12T10:09:20Z</time>
      </trkpt>
      <trkpt lat="46.8289" lon="5.85991">
        <ele>687.9</ele>
        <time>2021-08-12T10:09:28Z</time>
      </trkpt>
      <trkpt lat="46.82895" lon="5.85994">
        <ele>686.9</ele>
        <time>2021-08-12T10:09:33Z</time>
      </trkpt>
      <trkpt lat="46.829" lon="5.85991">
        <ele>686.4</ele>
        <time>2021-08-12T10:09:37Z</time>
      </trkpt>
      <trkpt lat="46.82905" lon="5.85989">
        <ele>685.9</ele>
        <time>2021-08-12T10:09:41Z</time>
      </trkpt>
      <trkpt lat="46.8291" lon="5.85989">
        <ele>685.9</ele>
        <time>2021-08-12T10:09:47Z</time>
      </trkpt>
      <trkpt lat="46.82915" lon="5.85991">
        <ele>687.8</ele>
        <time>2021-08-12T10:10:07Z</time>
      </trkpt>
      <trkpt lat="46.82913" lon="5.85983">
        <ele>687.6</ele>
        <time>2021-08-12T10:10:36Z</time>
      </trkpt>
      <trkpt lat="46.82912" lon="5.85977">
        <ele>686.4</ele>
        <time>2021-08-12T10:10:40Z</time>
      </trkpt>
      <trkpt lat="46.82912" lon="5.8597">
        <ele>684.1</ele>
        <time>2021-08-12T10:10:48Z</time>
      </trkpt>
      <trkpt lat="46.82913" lon="5.85963">
        <ele>681.1</ele>
        <time>2021-08-12T10:10:56Z</time>
      </trkpt>
      <trkpt lat="46.82916" lon="5.85958">
        <ele>676.2</ele>
        <time>2021-08-12T10:11:10Z</time>
      </trkpt>
      <trkpt lat="46.82921" lon="5.85962">
        <ele>673.8</ele>
        <time>2021-08-12T10:11:15Z</time>
      </trkpt>
      <trkpt lat="46.82927" lon="5.85969">
        <ele>671.6</ele>
        <time>2021-08-12T10:11:35Z</time>
      </trkpt>
      <trkpt lat="46.82932" lon="5.85972">
        <ele>672.1</ele>
        <time>2021-08-12T10:11:38Z</time>
      </trkpt>
      <trkpt lat="46.82932" lon="5.85965">
        <ele>672.1</ele>
        <time>2021-08-12T10:11:46Z</time>
      </trkpt>
      <trkpt lat="46.82931" lon="5.85957">
        <ele>671.7</ele>
        <time>2021-08-12T10:11:52Z</time>
      </trkpt>
      <trkpt lat="46.82929" lon="5.85951">
        <ele>670.7</ele>
        <time>2021-08-12T10:11:57Z</time>
      </trkpt>
      <trkpt lat="46.82927" lon="5.85945">
        <ele>669.1</ele>
        <time>2021-08-12T10:12:03Z</time>
      </trkpt>
      <trkpt lat="46.82925" lon="5.85938">
        <ele>667.3</ele>
        <time>2021-08-12T10:12:09Z</time>
      </trkpt>
      <trkpt lat="46.82922" lon="5.85932">
        <ele>665.6</ele>
        <time>2021-08-12T10:12:14Z</time>
      </trkpt>
      <trkpt lat="46.82919" lon="5.85926">
        <ele>664.9</ele>
        <time>2021-08-12T10:12:19Z</time>
      </trkpt>
      <trkpt lat="46.82917" lon="5.8592">
        <ele>664.6</ele>
        <time>2021-08-12T10:12:23Z</time>
      </trkpt>
      <trkpt lat="46.82916" lon="5.85912">
        <ele>664.1</ele>
        <time>2021-08-12T10:12:28Z</time>
      </trkpt>
      <trkpt lat="46.82914" lon="5.85906">
        <ele>663.5</ele>
        <time>2021-08-12T10:12:36Z</time>
      </trkpt>
      <trkpt lat="46.82912" lon="5.859">
        <ele>662.1</ele>
        <time>2021-08-12T10:12:42Z</time>
      </trkpt>
      <trkpt lat="46.82909" lon="5.85893">
        <ele>661.1</ele>
        <time>2021-08-12T10:12:47Z</time>
      </trkpt>
      <trkpt lat="46.82907" lon="5.85886">
        <ele>660.8</ele>
        <time>2021-08-12T10:12:52Z</time>
      </trkpt>
      <trkpt lat="46.82905" lon="5.85879">
        <ele>660.7</ele>
        <time>2021-08-12T10:12:57Z</time>
      </trkpt>
      <trkpt lat="46.82904" lon="5.85872">
        <ele>660.8</ele>
        <time>2021-08-12T10:13:01Z</time>
      </trkpt>
      <trkpt lat="46.82903" lon="5.85864">
        <ele>661</ele>
        <time>2021-08-12T10:13:06Z</time>
      </trkpt>
      <trkpt lat="46.82904" lon="5.85856">
        <ele>661</ele>
        <time>2021-08-12T10:13:11Z</time>
      </trkpt>
      <trkpt lat="46.82906" lon="5.85849">
        <ele>661.1</ele>
        <time>2021-08-12T10:13:16Z</time>
      </trkpt>
      <trkpt lat="46.82907" lon="5.85842">
        <ele>661.1</ele>
        <time>2021-08-12T10:13:21Z</time>
      </trkpt>
      <trkpt lat="46.82908" lon="5.85835">
        <ele>661.7</ele>
        <time>2021-08-12T10:13:25Z</time>
      </trkpt>
      <trkpt lat="46.8291" lon="5.85827">
        <ele>662.1</ele>
        <time>2021-08-12T10:13:30Z</time>
      </trkpt>
      <trkpt lat="46.82912" lon="5.85821">
        <ele>662.1</ele>
        <time>2021-08-12T10:13:35Z</time>
      </trkpt>
      <trkpt lat="46.82913" lon="5.85814">
        <ele>661.7</ele>
        <time>2021-08-12T10:13:40Z</time>
      </trkpt>
      <trkpt lat="46.82915" lon="5.85808">
        <ele>661.5</ele>
        <time>2021-08-12T10:13:45Z</time>
      </trkpt>
      <trkpt lat="46.82916" lon="5.85801">
        <ele>661</ele>
        <time>2021-08-12T10:13:50Z</time>
      </trkpt>
      <trkpt lat="46.82917" lon="5.85793">
        <ele>660.6</ele>
        <time>2021-08-12T10:13:55Z</time>
      </trkpt>
      <trkpt lat="46.82917" lon="5.85787">
        <ele>660.2</ele>
        <time>2021-08-12T10:13:59Z</time>
      </trkpt>
      <trkpt lat="46.82918" lon="5.85779">
        <ele>659.8</ele>
        <time>2021-08-12T10:14:03Z</time>
      </trkpt>
      <trkpt lat="46.82919" lon="5.85772">
        <ele>659.4</ele>
        <time>2021-08-12T10:14:07Z</time>
      </trkpt>
      <trkpt lat="46.8292" lon="5.85764">
        <ele>659</ele>
        <time>2021-08-12T10:14:11Z</time>
      </trkpt>
      <trkpt lat="46.82921" lon="5.85756">
        <ele>658.9</ele>
        <time>2021-08-12T10:14:16Z</time>
      </trkpt>
      <trkpt lat="46.82924" lon="5.8575">
        <ele>659.7</ele>
        <time>2021-08-12T10:14:23Z</time>
      </trkpt>
      <trkpt lat="46.82925" lon="5.85743">
        <ele>660.4</ele>
        <time>2021-08-12T10:14:29Z</time>
      </trkpt>
      <trkpt lat="46.82926" lon="5.85735">
        <ele>660.4</ele>
        <time>2021-08-12T10:14:34Z</time>
      </trkpt>
      <trkpt lat="46.82927" lon="5.85728">
        <ele>660</ele>
        <time>2021-08-12T10:14:40Z</time>
      </trkpt>
      <trkpt lat="46.82927" lon="5.85721">
        <ele>659.8</ele>
        <time>2021-08-12T10:14:45Z</time>
      </trkpt>
      <trkpt lat="46.82928" lon="5.85713">
        <ele>659.6</ele>
        <time>2021-08-12T10:14:51Z</time>
      </trkpt>
      <trkpt lat="46.82929" lon="5.85707">
        <ele>659.4</ele>
        <time>2021-08-12T10:14:55Z</time>
      </trkpt>
      <trkpt lat="46.8293" lon="5.85698">
        <ele>659.5</ele>
        <time>2021-08-12T10:14:59Z</time>
      </trkpt>
      <trkpt lat="46.82931" lon="5.85692">
        <ele>659.7</ele>
        <time>2021-08-12T10:15:03Z</time>
      </trkpt>
      <trkpt lat="46.82932" lon="5.85685">
        <ele>659.9</ele>
        <time>2021-08-12T10:15:07Z</time>
      </trkpt>
      <trkpt lat="46.82932" lon="5.85678">
        <ele>660</ele>
        <time>2021-08-12T10:15:11Z</time>
      </trkpt>
      <trkpt lat="46.82932" lon="5.85671">
        <ele>660.4</ele>
        <time>2021-08-12T10:15:15Z</time>
      </trkpt>
      <trkpt lat="46.82933" lon="5.85664">
        <ele>660.8</ele>
        <time>2021-08-12T10:15:19Z</time>
      </trkpt>
      <trkpt lat="46.82934" lon="5.85657">
        <ele>661</ele>
        <time>2021-08-12T10:15:23Z</time>
      </trkpt>
      <trkpt lat="46.82936" lon="5.85651">
        <ele>661.2</ele>
        <time>2021-08-12T10:15:28Z</time>
      </trkpt>
      <trkpt lat="46.82938" lon="5.85644">
        <ele>660.6</ele>
        <time>2021-08-12T10:15:33Z</time>
      </trkpt>
      <trkpt lat="46.82939" lon="5.85637">
        <ele>659.7</ele>
        <time>2021-08-12T10:15:39Z</time>
      </trkpt>
      <trkpt lat="46.8294" lon="5.8563">
        <ele>658.6</ele>
        <time>2021-08-12T10:15:45Z</time>
      </trkpt>
      <trkpt lat="46.82942" lon="5.85622">
        <ele>657.4</ele>
        <time>2021-08-12T10:15:52Z</time>
      </trkpt>
      <trkpt lat="46.82942" lon="5.85614">
        <ele>657.7</ele>
        <time>2021-08-12T10:15:57Z</time>
      </trkpt>
      <trkpt lat="46.82943" lon="5.85607">
        <ele>658.3</ele>
        <time>2021-08-12T10:16:01Z</time>
      </trkpt>
      <trkpt lat="46.82946" lon="5.856">
        <ele>658.5</ele>
        <time>2021-08-12T10:16:06Z</time>
      </trkpt>
      <trkpt lat="46.82948" lon="5.85593">
        <ele>658.5</ele>
        <time>2021-08-12T10:16:10Z</time>
      </trkpt>
      <trkpt lat="46.82951" lon="5.85587">
        <ele>658.1</ele>
        <time>2021-08-12T10:16:15Z</time>
      </trkpt>
      <trkpt lat="46.82954" lon="5.85582">
        <ele>657.2</ele>
        <time>2021-08-12T10:16:20Z</time>
      </trkpt>
      <trkpt lat="46.82957" lon="5.85576">
        <ele>656.3</ele>
        <time>2021-08-12T10:16:25Z</time>
      </trkpt>
      <trkpt lat="46.8296" lon="5.8557">
        <ele>655.8</ele>
        <time>2021-08-12T10:16:31Z</time>
      </trkpt>
      <trkpt lat="46.82963" lon="5.85564">
        <ele>655.3</ele>
        <time>2021-08-12T10:16:38Z</time>
      </trkpt>
      <trkpt lat="46.82965" lon="5.85558">
        <ele>655.1</ele>
        <time>2021-08-12T10:16:42Z</time>
      </trkpt>
      <trkpt lat="46.82966" lon="5.85551">
        <ele>655.1</ele>
        <time>2021-08-12T10:16:45Z</time>
      </trkpt>
      <trkpt lat="46.82967" lon="5.85544">
        <ele>655.1</ele>
        <time>2021-08-12T10:16:49Z</time>
      </trkpt>
      <trkpt lat="46.82969" lon="5.85538">
        <ele>655.7</ele>
        <time>2021-08-12T10:16:53Z</time>
      </trkpt>
      <trkpt lat="46.82971" lon="5.8553">
        <ele>656.8</ele>
        <time>2021-08-12T10:16:58Z</time>
      </trkpt>
      <trkpt lat="46.82973" lon="5.85523">
        <ele>657.1</ele>
        <time>2021-08-12T10:17:03Z</time>
      </trkpt>
      <trkpt lat="46.82975" lon="5.85516">
        <ele>656.2</ele>
        <time>2021-08-12T10:17:10Z</time>
      </trkpt>
      <trkpt lat="46.82977" lon="5.85509">
        <ele>655.2</ele>
        <time>2021-08-12T10:17:15Z</time>
      </trkpt>
      <trkpt lat="46.82979" lon="5.85502">
        <ele>654.9</ele>
        <time>2021-08-12T10:17:20Z</time>
      </trkpt>
      <trkpt lat="46.82981" lon="5.85496">
        <ele>654.4</ele>
        <time>2021-08-12T10:17:26Z</time>
      </trkpt>
      <trkpt lat="46.82982" lon="5.85488">
        <ele>653.9</ele>
        <time>2021-08-12T10:17:31Z</time>
      </trkpt>
      <trkpt lat="46.82983" lon="5.85481">
        <ele>653.6</ele>
        <time>2021-08-12T10:17:35Z</time>
      </trkpt>
      <trkpt lat="46.82985" lon="5.85475">
        <ele>653.2</ele>
        <time>2021-08-12T10:17:39Z</time>
      </trkpt>
      <trkpt lat="46.82986" lon="5.85467">
        <ele>652.3</ele>
        <time>2021-08-12T10:17:44Z</time>
      </trkpt>
      <trkpt lat="46.82988" lon="5.85461">
        <ele>651.5</ele>
        <time>2021-08-12T10:17:49Z</time>
      </trkpt>
      <trkpt lat="46.82991" lon="5.85456">
        <ele>650.7</ele>
        <time>2021-08-12T10:17:54Z</time>
      </trkpt>
      <trkpt lat="46.82994" lon="5.85449">
        <ele>650.2</ele>
        <time>2021-08-12T10:17:59Z</time>
      </trkpt>
      <trkpt lat="46.82997" lon="5.85443">
        <ele>650.2</ele>
        <time>2021-08-12T10:18:04Z</time>
      </trkpt>
      <trkpt lat="46.83001" lon="5.85439">
        <ele>649.4</ele>
        <time>2021-08-12T10:18:11Z</time>
      </trkpt>
      <trkpt lat="46.83005" lon="5.85433">
        <ele>648.9</ele>
        <time>2021-08-12T10:18:16Z</time>
      </trkpt>
      <trkpt lat="46.83007" lon="5.85427">
        <ele>648.7</ele>
        <time>2021-08-12T10:18:20Z</time>
      </trkpt>
      <trkpt lat="46.83009" lon="5.85421">
        <ele>648.7</ele>
        <time>2021-08-12T10:18:24Z</time>
      </trkpt>
      <trkpt lat="46.83011" lon="5.85415">
        <ele>648.6</ele>
        <time>2021-08-12T10:18:28Z</time>
      </trkpt>
      <trkpt lat="46.83013" lon="5.85407">
        <ele>648</ele>
        <time>2021-08-12T10:18:33Z</time>
      </trkpt>
      <trkpt lat="46.83015" lon="5.85401">
        <ele>647.8</ele>
        <time>2021-08-12T10:18:37Z</time>
      </trkpt>
      <trkpt lat="46.83018" lon="5.85395">
        <ele>647.7</ele>
        <time>2021-08-12T10:18:42Z</time>
      </trkpt>
      <trkpt lat="46.8302" lon="5.85388">
        <ele>648</ele>
        <time>2021-08-12T10:18:48Z</time>
      </trkpt>
      <trkpt lat="46.83023" lon="5.85382">
        <ele>648.6</ele>
        <time>2021-08-12T10:18:55Z</time>
      </trkpt>
      <trkpt lat="46.83024" lon="5.85375">
        <ele>648.6</ele>
        <time>2021-08-12T10:19:00Z</time>
      </trkpt>
      <trkpt lat="46.83025" lon="5.85367">
        <ele>648.7</ele>
        <time>2021-08-12T10:19:05Z</time>
      </trkpt>
      <trkpt lat="46.83026" lon="5.8536">
        <ele>649.2</ele>
        <time>2021-08-12T10:19:10Z</time>
      </trkpt>
      <trkpt lat="46.83027" lon="5.85354">
        <ele>649.3</ele>
        <time>2021-08-12T10:19:14Z</time>
      </trkpt>
      <trkpt lat="46.83029" lon="5.85347">
        <ele>649.7</ele>
        <time>2021-08-12T10:19:18Z</time>
      </trkpt>
      <trkpt lat="46.8303" lon="5.85339">
        <ele>650.3</ele>
        <time>2021-08-12T10:19:22Z</time>
      </trkpt>
      <trkpt lat="46.8303" lon="5.85332">
        <ele>650.6</ele>
        <time>2021-08-12T10:19:26Z</time>
      </trkpt>
      <trkpt lat="46.83029" lon="5.85325">
        <ele>650.8</ele>
        <time>2021-08-12T10:19:30Z</time>
      </trkpt>
      <trkpt lat="46.83028" lon="5.85318">
        <ele>650.7</ele>
        <time>2021-08-12T10:19:35Z</time>
      </trkpt>
      <trkpt lat="46.8303" lon="5.8531">
        <ele>649.7</ele>
        <time>2021-08-12T10:19:41Z</time>
      </trkpt>
      <trkpt lat="46.83031" lon="5.85304">
        <ele>649.7</ele>
        <time>2021-08-12T10:19:46Z</time>
      </trkpt>
      <trkpt lat="46.83033" lon="5.85297">
        <ele>650.1</ele>
        <time>2021-08-12T10:19:51Z</time>
      </trkpt>
      <trkpt lat="46.83035" lon="5.85291">
        <ele>650.3</ele>
        <time>2021-08-12T10:19:56Z</time>
      </trkpt>
      <trkpt lat="46.83034" lon="5.85283">
        <ele>650.3</ele>
        <time>2021-08-12T10:20:00Z</time>
      </trkpt>
      <trkpt lat="46.83034" lon="5.85276">
        <ele>650.3</ele>
        <time>2021-08-12T10:20:04Z</time>
      </trkpt>
      <trkpt lat="46.83034" lon="5.85268">
        <ele>650.7</ele>
        <time>2021-08-12T10:20:09Z</time>
      </trkpt>
      <trkpt lat="46.83035" lon="5.85261">
        <ele>651.2</ele>
        <time>2021-08-12T10:20:15Z</time>
      </trkpt>
      <trkpt lat="46.83035" lon="5.85255">
        <ele>651.7</ele>
        <time>2021-08-12T10:20:20Z</time>
      </trkpt>
      <trkpt lat="46.83037" lon="5.85248">
        <ele>651.6</ele>
        <time>2021-08-12T10:20:25Z</time>
      </trkpt>
      <trkpt lat="46.83038" lon="5.85241">
        <ele>651.1</ele>
        <time>2021-08-12T10:20:30Z</time>
      </trkpt>
      <trkpt lat="46.83041" lon="5.85235">
        <ele>649.8</ele>
        <time>2021-08-12T10:20:36Z</time>
      </trkpt>
      <trkpt lat="46.83041" lon="5.85228">
        <ele>648.6</ele>
        <time>2021-08-12T10:20:40Z</time>
      </trkpt>
      <trkpt lat="46.83043" lon="5.8522">
        <ele>646.8</ele>
        <time>2021-08-12T10:20:45Z</time>
      </trkpt>
      <trkpt lat="46.83044" lon="5.85214">
        <ele>645.4</ele>
        <time>2021-08-12T10:20:50Z</time>
      </trkpt>
      <trkpt lat="46.83046" lon="5.85208">
        <ele>643.8</ele>
        <time>2021-08-12T10:20:56Z</time>
      </trkpt>
      <trkpt lat="46.83046" lon="5.852">
        <ele>643</ele>
        <time>2021-08-12T10:21:00Z</time>
      </trkpt>
      <trkpt lat="46.83046" lon="5.85194">
        <ele>642.9</ele>
        <time>2021-08-12T10:21:03Z</time>
      </trkpt>
      <trkpt lat="46.83045" lon="5.85187">
        <ele>642.7</ele>
        <time>2021-08-12T10:21:07Z</time>
      </trkpt>
      <trkpt lat="46.83044" lon="5.85179">
        <ele>642.7</ele>
        <time>2021-08-12T10:21:12Z</time>
      </trkpt>
      <trkpt lat="46.83045" lon="5.85172">
        <ele>642.8</ele>
        <time>2021-08-12T10:21:16Z</time>
      </trkpt>
      <trkpt lat="46.83044" lon="5.85164">
        <ele>643</ele>
        <time>2021-08-12T10:21:21Z</time>
      </trkpt>
      <trkpt lat="46.83045" lon="5.85157">
        <ele>642.9</ele>
        <time>2021-08-12T10:21:26Z</time>
      </trkpt>
      <trkpt lat="46.83048" lon="5.85151">
        <ele>642.3</ele>
        <time>2021-08-12T10:21:32Z</time>
      </trkpt>
      <trkpt lat="46.8305" lon="5.85144">
        <ele>641.2</ele>
        <time>2021-08-12T10:21:37Z</time>
      </trkpt>
      <trkpt lat="46.83051" lon="5.85137">
        <ele>640.4</ele>
        <time>2021-08-12T10:21:41Z</time>
      </trkpt>
      <trkpt lat="46.83052" lon="5.8513">
        <ele>639.9</ele>
        <time>2021-08-12T10:21:45Z</time>
      </trkpt>
      <trkpt lat="46.83053" lon="5.85123">
        <ele>639.6</ele>
        <time>2021-08-12T10:21:49Z</time>
      </trkpt>
      <trkpt lat="46.83054" lon="5.85116">
        <ele>639.8</ele>
        <time>2021-08-12T10:21:53Z</time>
      </trkpt>
      <trkpt lat="46.83056" lon="5.85111">
        <ele>639.4</ele>
        <time>2021-08-12T10:21:58Z</time>
      </trkpt>
      <trkpt lat="46.8306" lon="5.85107">
        <ele>638.5</ele>
        <time>2021-08-12T10:22:04Z</time>
      </trkpt>
      <trkpt lat="46.83064" lon="5.85103">
        <ele>637.1</ele>
        <time>2021-08-12T10:22:09Z</time>
      </trkpt>
      <trkpt lat="46.83067" lon="5.85096">
        <ele>636</ele>
        <time>2021-08-12T10:22:14Z</time>
      </trkpt>
      <trkpt lat="46.8307" lon="5.8509">
        <ele>635.1</ele>
        <time>2021-08-12T10:22:18Z</time>
      </trkpt>
      <trkpt lat="46.83074" lon="5.85085">
        <ele>634.6</ele>
        <time>2021-08-12T10:22:22Z</time>
      </trkpt>
      <trkpt lat="46.83076" lon="5.85079">
        <ele>634.4</ele>
        <time>2021-08-12T10:22:26Z</time>
      </trkpt>
      <trkpt lat="46.83079" lon="5.85074">
        <ele>634.4</ele>
        <time>2021-08-12T10:22:31Z</time>
      </trkpt>
      <trkpt lat="46.83084" lon="5.8507">
        <ele>633.9</ele>
        <time>2021-08-12T10:22:36Z</time>
      </trkpt>
      <trkpt lat="46.83088" lon="5.85067">
        <ele>633.5</ele>
        <time>2021-08-12T10:22:41Z</time>
      </trkpt>
      <trkpt lat="46.83093" lon="5.85067">
        <ele>633.1</ele>
        <time>2021-08-12T10:22:47Z</time>
      </trkpt>
      <trkpt lat="46.83098" lon="5.85065">
        <ele>632.6</ele>
        <time>2021-08-12T10:22:52Z</time>
      </trkpt>
      <trkpt lat="46.83103" lon="5.85064">
        <ele>632.3</ele>
        <time>2021-08-12T10:22:56Z</time>
      </trkpt>
      <trkpt lat="46.83108" lon="5.85061">
        <ele>632</ele>
        <time>2021-08-12T10:23:01Z</time>
      </trkpt>
      <trkpt lat="46.83112" lon="5.85057">
        <ele>631.5</ele>
        <time>2021-08-12T10:23:06Z</time>
      </trkpt>
      <trkpt lat="46.83117" lon="5.85053">
        <ele>631.3</ele>
        <time>2021-08-12T10:23:11Z</time>
      </trkpt>
      <trkpt lat="46.83122" lon="5.85052">
        <ele>631.3</ele>
        <time>2021-08-12T10:23:16Z</time>
      </trkpt>
      <trkpt lat="46.83127" lon="5.8505">
        <ele>631.2</ele>
        <time>2021-08-12T10:23:20Z</time>
      </trkpt>
      <trkpt lat="46.83132" lon="5.85046">
        <ele>631.1</ele>
        <time>2021-08-12T10:23:24Z</time>
      </trkpt>
      <trkpt lat="46.83136" lon="5.85042">
        <ele>631</ele>
        <time>2021-08-12T10:23:28Z</time>
      </trkpt>
      <trkpt lat="46.83141" lon="5.85037">
        <ele>630.8</ele>
        <time>2021-08-12T10:23:34Z</time>
      </trkpt>
      <trkpt lat="46.83145" lon="5.85033">
        <ele>629.9</ele>
        <time>2021-08-12T10:23:40Z</time>
      </trkpt>
      <trkpt lat="46.83146" lon="5.85025">
        <ele>629.8</ele>
        <time>2021-08-12T10:23:46Z</time>
      </trkpt>
      <trkpt lat="46.83148" lon="5.85018">
        <ele>629.9</ele>
        <time>2021-08-12T10:23:51Z</time>
      </trkpt>
      <trkpt lat="46.83148" lon="5.8501">
        <ele>630.3</ele>
        <time>2021-08-12T10:23:55Z</time>
      </trkpt>
      <trkpt lat="46.83148" lon="5.85003">
        <ele>631.1</ele>
        <time>2021-08-12T10:23:58Z</time>
      </trkpt>
      <trkpt lat="46.83148" lon="5.84995">
        <ele>632.3</ele>
        <time>2021-08-12T10:24:02Z</time>
      </trkpt>
      <trkpt lat="46.83149" lon="5.84988">
        <ele>633.8</ele>
        <time>2021-08-12T10:24:06Z</time>
      </trkpt>
      <trkpt lat="46.83149" lon="5.84982">
        <ele>635.1</ele>
        <time>2021-08-12T10:24:10Z</time>
      </trkpt>
      <trkpt lat="46.83148" lon="5.84974">
        <ele>636.5</ele>
        <time>2021-08-12T10:24:15Z</time>
      </trkpt>
      <trkpt lat="46.83149" lon="5.84967">
        <ele>637.4</ele>
        <time>2021-08-12T10:24:20Z</time>
      </trkpt>
      <trkpt lat="46.83151" lon="5.84959">
        <ele>636.9</ele>
        <time>2021-08-12T10:24:26Z</time>
      </trkpt>
      <trkpt lat="46.83151" lon="5.84953">
        <ele>636.4</ele>
        <time>2021-08-12T10:24:30Z</time>
      </trkpt>
      <trkpt lat="46.83152" lon="5.84946">
        <ele>635.7</ele>
        <time>2021-08-12T10:24:34Z</time>
      </trkpt>
      <trkpt lat="46.83153" lon="5.84939">
        <ele>634.7</ele>
        <time>2021-08-12T10:24:39Z</time>
      </trkpt>
      <trkpt lat="46.83155" lon="5.84932">
        <ele>633.7</ele>
        <time>2021-08-12T10:24:44Z</time>
      </trkpt>
      <trkpt lat="46.83156" lon="5.84925">
        <ele>632.9</ele>
        <time>2021-08-12T10:24:50Z</time>
      </trkpt>
      <trkpt lat="46.83158" lon="5.84918">
        <ele>632</ele>
        <time>2021-08-12T10:24:56Z</time>
      </trkpt>
      <trkpt lat="46.8316" lon="5.84911">
        <ele>631</ele>
        <time>2021-08-12T10:25:01Z</time>
      </trkpt>
      <trkpt lat="46.83161" lon="5.84904">
        <ele>630.2</ele>
        <time>2021-08-12T10:25:05Z</time>
      </trkpt>
      <trkpt lat="46.83163" lon="5.84898">
        <ele>629.2</ele>
        <time>2021-08-12T10:25:10Z</time>
      </trkpt>
      <trkpt lat="46.83165" lon="5.8489">
        <ele>628.3</ele>
        <time>2021-08-12T10:25:14Z</time>
      </trkpt>
      <trkpt lat="46.83167" lon="5.84883">
        <ele>627.4</ele>
        <time>2021-08-12T10:25:18Z</time>
      </trkpt>
      <trkpt lat="46.83169" lon="5.84877">
        <ele>626.6</ele>
        <time>2021-08-12T10:25:22Z</time>
      </trkpt>
      <trkpt lat="46.83172" lon="5.84872">
        <ele>626</ele>
        <time>2021-08-12T10:25:26Z</time>
      </trkpt>
      <trkpt lat="46.83176" lon="5.84867">
        <ele>625.2</ele>
        <time>2021-08-12T10:25:31Z</time>
      </trkpt>
      <trkpt lat="46.8318" lon="5.84863">
        <ele>624.6</ele>
        <time>2021-08-12T10:25:36Z</time>
      </trkpt>
      <trkpt lat="46.83184" lon="5.84859">
        <ele>624.2</ele>
        <time>2021-08-12T10:25:42Z</time>
      </trkpt>
      <trkpt lat="46.83188" lon="5.84856">
        <ele>624.3</ele>
        <time>2021-08-12T10:25:48Z</time>
      </trkpt>
      <trkpt lat="46.83193" lon="5.84853">
        <ele>623.7</ele>
        <time>2021-08-12T10:25:55Z</time>
      </trkpt>
      <trkpt lat="46.83198" lon="5.84849">
        <ele>622.8</ele>
        <time>2021-08-12T10:26:00Z</time>
      </trkpt>
      <trkpt lat="46.83202" lon="5.84843">
        <ele>621.6</ele>
        <time>2021-08-12T10:26:05Z</time>
      </trkpt>
      <trkpt lat="46.83204" lon="5.84837">
        <ele>620.8</ele>
        <time>2021-08-12T10:26:09Z</time>
      </trkpt>
      <trkpt lat="46.83206" lon="5.8483">
        <ele>620</ele>
        <time>2021-08-12T10:26:14Z</time>
      </trkpt>
      <trkpt lat="46.83207" lon="5.84823">
        <ele>619.1</ele>
        <time>2021-08-12T10:26:19Z</time>
      </trkpt>
      <trkpt lat="46.83207" lon="5.84816">
        <ele>618.4</ele>
        <time>2021-08-12T10:26:23Z</time>
      </trkpt>
      <trkpt lat="46.83207" lon="5.84808">
        <ele>617.4</ele>
        <time>2021-08-12T10:26:29Z</time>
      </trkpt>
      <trkpt lat="46.83208" lon="5.84801">
        <ele>617</ele>
        <time>2021-08-12T10:26:34Z</time>
      </trkpt>
      <trkpt lat="46.83208" lon="5.84792">
        <ele>616.9</ele>
        <time>2021-08-12T10:26:38Z</time>
      </trkpt>
      <trkpt lat="46.83208" lon="5.84783">
        <ele>616.8</ele>
        <time>2021-08-12T10:26:42Z</time>
      </trkpt>
      <trkpt lat="46.83207" lon="5.84776">
        <ele>616.9</ele>
        <time>2021-08-12T10:26:46Z</time>
      </trkpt>
      <trkpt lat="46.83208" lon="5.84769">
        <ele>616.7</ele>
        <time>2021-08-12T10:26:50Z</time>
      </trkpt>
      <trkpt lat="46.8321" lon="5.84762">
        <ele>616.6</ele>
        <time>2021-08-12T10:26:54Z</time>
      </trkpt>
      <trkpt lat="46.83212" lon="5.84756">
        <ele>615.9</ele>
        <time>2021-08-12T10:27:01Z</time>
      </trkpt>
      <trkpt lat="46.83215" lon="5.8475">
        <ele>615.3</ele>
        <time>2021-08-12T10:27:07Z</time>
      </trkpt>
      <trkpt lat="46.83219" lon="5.84745">
        <ele>615.3</ele>
        <time>2021-08-12T10:27:13Z</time>
      </trkpt>
      <trkpt lat="46.83223" lon="5.84742">
        <ele>615.4</ele>
        <time>2021-08-12T10:27:18Z</time>
      </trkpt>
      <trkpt lat="46.83228" lon="5.84739">
        <ele>615.9</ele>
        <time>2021-08-12T10:27:24Z</time>
      </trkpt>
      <trkpt lat="46.83234" lon="5.8474">
        <ele>616.1</ele>
        <time>2021-08-12T10:27:30Z</time>
      </trkpt>
      <trkpt lat="46.83238" lon="5.84741">
        <ele>616.4</ele>
        <time>2021-08-12T10:27:34Z</time>
      </trkpt>
      <trkpt lat="46.83243" lon="5.84742">
        <ele>616.5</ele>
        <time>2021-08-12T10:27:38Z</time>
      </trkpt>
      <trkpt lat="46.83248" lon="5.84744">
        <ele>616.7</ele>
        <time>2021-08-12T10:27:43Z</time>
      </trkpt>
      <trkpt lat="46.83253" lon="5.84746">
        <ele>616.9</ele>
        <time>2021-08-12T10:27:48Z</time>
      </trkpt>
      <trkpt lat="46.83257" lon="5.84747">
        <ele>617.3</ele>
        <time>2021-08-12T10:27:53Z</time>
      </trkpt>
      <trkpt lat="46.83262" lon="5.84749">
        <ele>617.5</ele>
        <time>2021-08-12T10:27:58Z</time>
      </trkpt>
      <trkpt lat="46.83268" lon="5.84749">
        <ele>617.8</ele>
        <time>2021-08-12T10:28:04Z</time>
      </trkpt>
      <trkpt lat="46.83273" lon="5.84747">
        <ele>617.7</ele>
        <time>2021-08-12T10:28:09Z</time>
      </trkpt>
      <trkpt lat="46.83277" lon="5.84744">
        <ele>617.1</ele>
        <time>2021-08-12T10:28:14Z</time>
      </trkpt>
      <trkpt lat="46.83281" lon="5.84741">
        <ele>616.9</ele>
        <time>2021-08-12T10:28:19Z</time>
      </trkpt>
      <trkpt lat="46.83286" lon="5.84739">
        <ele>617.3</ele>
        <time>2021-08-12T10:28:23Z</time>
      </trkpt>
      <trkpt lat="46.83291" lon="5.84739">
        <ele>617.9</ele>
        <time>2021-08-12T10:28:28Z</time>
      </trkpt>
      <trkpt lat="46.83296" lon="5.84738">
        <ele>618.2</ele>
        <time>2021-08-12T10:28:32Z</time>
      </trkpt>
      <trkpt lat="46.833" lon="5.84736">
        <ele>618.7</ele>
        <time>2021-08-12T10:28:36Z</time>
      </trkpt>
      <trkpt lat="46.83305" lon="5.84736">
        <ele>619.7</ele>
        <time>2021-08-12T10:28:40Z</time>
      </trkpt>
      <trkpt lat="46.8331" lon="5.84736">
        <ele>621.2</ele>
        <time>2021-08-12T10:28:48Z</time>
      </trkpt>
      <trkpt lat="46.83315" lon="5.84734">
        <ele>622.1</ele>
        <time>2021-08-12T10:28:57Z</time>
      </trkpt>
      <trkpt lat="46.83319" lon="5.8473">
        <ele>622.7</ele>
        <time>2021-08-12T10:29:03Z</time>
      </trkpt>
      <trkpt lat="46.83322" lon="5.84723">
        <ele>623.4</ele>
        <time>2021-08-12T10:29:09Z</time>
      </trkpt>
      <trkpt lat="46.83325" lon="5.84716">
        <ele>624.2</ele>
        <time>2021-08-12T10:29:14Z</time>
      </trkpt>
      <trkpt lat="46.83329" lon="5.84714">
        <ele>625.1</ele>
        <time>2021-08-12T10:29:19Z</time>
      </trkpt>
      <trkpt lat="46.83334" lon="5.84711">
        <ele>626</ele>
        <time>2021-08-12T10:29:25Z</time>
      </trkpt>
      <trkpt lat="46.83338" lon="5.84708">
        <ele>626.3</ele>
        <time>2021-08-12T10:29:31Z</time>
      </trkpt>
      <trkpt lat="46.83342" lon="5.84706">
        <ele>626.1</ele>
        <time>2021-08-12T10:29:36Z</time>
      </trkpt>
      <trkpt lat="46.83348" lon="5.84705">
        <ele>625.9</ele>
        <time>2021-08-12T10:29:41Z</time>
      </trkpt>
      <trkpt lat="46.83352" lon="5.84703">
        <ele>625.8</ele>
        <time>2021-08-12T10:29:46Z</time>
      </trkpt>
      <trkpt lat="46.83349" lon="5.84696">
        <ele>625.8</ele>
        <time>2021-08-12T10:30:24Z</time>
      </trkpt>
      <trkpt lat="46.83348" lon="5.84688">
        <ele>632.2</ele>
        <time>2021-08-12T10:30:55Z</time>
      </trkpt>
      <trkpt lat="46.83348" lon="5.84681">
        <ele>632.5</ele>
        <time>2021-08-12T10:31:01Z</time>
      </trkpt>
      <trkpt lat="46.83352" lon="5.84676">
        <ele>632.3</ele>
        <time>2021-08-12T10:31:08Z</time>
      </trkpt>
      <trkpt lat="46.83356" lon="5.84673">
        <ele>631.9</ele>
        <time>2021-08-12T10:31:14Z</time>
      </trkpt>
      <trkpt lat="46.83362" lon="5.84674">
        <ele>631.6</ele>
        <time>2021-08-12T10:31:18Z</time>
      </trkpt>
      <trkpt lat="46.83366" lon="5.84675">
        <ele>631</ele>
        <time>2021-08-12T10:31:24Z</time>
      </trkpt>
      <trkpt lat="46.83371" lon="5.84673">
        <ele>631</ele>
        <time>2021-08-12T10:31:30Z</time>
      </trkpt>
      <trkpt lat="46.83375" lon="5.8467">
        <ele>631.4</ele>
        <time>2021-08-12T10:31:37Z</time>
      </trkpt>
      <trkpt lat="46.83381" lon="5.84665">
        <ele>631.7</ele>
        <time>2021-08-12T10:31:44Z</time>
      </trkpt>
      <trkpt lat="46.83385" lon="5.84659">
        <ele>631.5</ele>
        <time>2021-08-12T10:31:50Z</time>
      </trkpt>
      <trkpt lat="46.8338" lon="5.84649">
        <ele>631.9</ele>
        <time>2021-08-12T10:32:08Z</time>
      </trkpt>
      <trkpt lat="46.83378" lon="5.84644">
        <ele>632.6</ele>
        <time>2021-08-12T10:32:13Z</time>
      </trkpt>
      <trkpt lat="46.83382" lon="5.84649">
        <ele>637.6</ele>
        <time>2021-08-12T10:32:47Z</time>
      </trkpt>
      <trkpt lat="46.83387" lon="5.84651">
        <ele>637.9</ele>
        <time>2021-08-12T10:32:50Z</time>
      </trkpt>
      <trkpt lat="46.83392" lon="5.84653">
        <ele>638.4</ele>
        <time>2021-08-12T10:32:54Z</time>
      </trkpt>
      <trkpt lat="46.83393" lon="5.8466">
        <ele>640.9</ele>
        <time>2021-08-12T10:33:13Z</time>
      </trkpt>
      <trkpt lat="46.8339" lon="5.84666">
        <ele>639.6</ele>
        <time>2021-08-12T10:33:31Z</time>
      </trkpt>
      <trkpt lat="46.8339" lon="5.84659">
        <ele>629.1</ele>
        <time>2021-08-12T10:34:01Z</time>
      </trkpt>
      <trkpt lat="46.83398" lon="5.84661">
        <ele>628</ele>
        <time>2021-08-12T10:35:20Z</time>
      </trkpt>
      <trkpt lat="46.83401" lon="5.84666">
        <ele>625.3</ele>
        <time>2021-08-12T10:35:33Z</time>
      </trkpt>
      <trkpt lat="46.83403" lon="5.8466">
        <ele>623.9</ele>
        <time>2021-08-12T10:35:42Z</time>
      </trkpt>
      <trkpt lat="46.83401" lon="5.84653">
        <ele>624.2</ele>
        <time>2021-08-12T10:35:51Z</time>
      </trkpt>
      <trkpt lat="46.83405" lon="5.84657">
        <ele>623.7</ele>
        <time>2021-08-12T10:36:10Z</time>
      </trkpt>
      <trkpt lat="46.83414" lon="5.84652">
        <ele>622.8</ele>
        <time>2021-08-12T10:36:26Z</time>
      </trkpt>
      <trkpt lat="46.83419" lon="5.8465">
        <ele>622.4</ele>
        <time>2021-08-12T10:36:29Z</time>
      </trkpt>
      <trkpt lat="46.83424" lon="5.84646">
        <ele>621.7</ele>
        <time>2021-08-12T10:36:34Z</time>
      </trkpt>
      <trkpt lat="46.83428" lon="5.84643">
        <ele>620.9</ele>
        <time>2021-08-12T10:36:39Z</time>
      </trkpt>
      <trkpt lat="46.83435" lon="5.84643">
        <ele>620.3</ele>
        <time>2021-08-12T10:36:50Z</time>
      </trkpt>
      <trkpt lat="46.8344" lon="5.84646">
        <ele>620.1</ele>
        <time>2021-08-12T10:36:54Z</time>
      </trkpt>
      <trkpt lat="46.8344" lon="5.84653">
        <ele>619.8</ele>
        <time>2021-08-12T10:37:00Z</time>
      </trkpt>
      <trkpt lat="46.8344" lon="5.84659">
        <ele>620.6</ele>
        <time>2021-08-12T10:37:15Z</time>
      </trkpt>
      <trkpt lat="46.83442" lon="5.84665">
        <ele>619.2</ele>
        <time>2021-08-12T10:37:25Z</time>
      </trkpt>
      <trkpt lat="46.83445" lon="5.84671">
        <ele>619.1</ele>
        <time>2021-08-12T10:37:29Z</time>
      </trkpt>
      <trkpt lat="46.83448" lon="5.84676">
        <ele>619.2</ele>
        <time>2021-08-12T10:37:34Z</time>
      </trkpt>
      <trkpt lat="46.8345" lon="5.84682">
        <ele>619.6</ele>
        <time>2021-08-12T10:37:38Z</time>
      </trkpt>
      <trkpt lat="46.83448" lon="5.84689">
        <ele>619.5</ele>
        <time>2021-08-12T10:37:42Z</time>
      </trkpt>
      <trkpt lat="46.83445" lon="5.84695">
        <ele>618.1</ele>
        <time>2021-08-12T10:37:47Z</time>
      </trkpt>
      <trkpt lat="46.83449" lon="5.847">
        <ele>616.3</ele>
        <time>2021-08-12T10:37:56Z</time>
      </trkpt>
      <trkpt lat="46.83454" lon="5.84703">
        <ele>616.4</ele>
        <time>2021-08-12T10:37:59Z</time>
      </trkpt>
      <trkpt lat="46.83458" lon="5.84707">
        <ele>616.6</ele>
        <time>2021-08-12T10:38:03Z</time>
      </trkpt>
      <trkpt lat="46.8346" lon="5.84713">
        <ele>617</ele>
        <time>2021-08-12T10:38:09Z</time>
      </trkpt>
      <trkpt lat="46.83464" lon="5.84719">
        <ele>617</ele>
        <time>2021-08-12T10:38:14Z</time>
      </trkpt>
      <trkpt lat="46.83468" lon="5.84722">
        <ele>616.7</ele>
        <time>2021-08-12T10:38:18Z</time>
      </trkpt>
      <trkpt lat="46.83471" lon="5.84728">
        <ele>616.4</ele>
        <time>2021-08-12T10:38:23Z</time>
      </trkpt>
      <trkpt lat="46.83471" lon="5.84736">
        <ele>615.1</ele>
        <time>2021-08-12T10:38:31Z</time>
      </trkpt>
      <trkpt lat="46.83475" lon="5.84741">
        <ele>615.8</ele>
        <time>2021-08-12T10:38:37Z</time>
      </trkpt>
      <trkpt lat="46.8348" lon="5.84742">
        <ele>617.9</ele>
        <time>2021-08-12T10:38:43Z</time>
      </trkpt>
      <trkpt lat="46.83485" lon="5.84742">
        <ele>619.3</ele>
        <time>2021-08-12T10:38:47Z</time>
      </trkpt>
      <trkpt lat="46.8349" lon="5.8474">
        <ele>621.5</ele>
        <time>2021-08-12T10:38:53Z</time>
      </trkpt>
      <trkpt lat="46.83495" lon="5.84739">
        <ele>622.9</ele>
        <time>2021-08-12T10:38:59Z</time>
      </trkpt>
      <trkpt lat="46.83499" lon="5.84737">
        <ele>623.8</ele>
        <time>2021-08-12T10:39:04Z</time>
      </trkpt>
      <trkpt lat="46.83503" lon="5.84733">
        <ele>624</ele>
        <time>2021-08-12T10:39:10Z</time>
      </trkpt>
      <trkpt lat="46.83508" lon="5.84729">
        <ele>623.9</ele>
        <time>2021-08-12T10:39:14Z</time>
      </trkpt>
      <trkpt lat="46.83513" lon="5.84725">
        <ele>623.9</ele>
        <time>2021-08-12T10:39:18Z</time>
      </trkpt>
      <trkpt lat="46.83517" lon="5.84721">
        <ele>624.2</ele>
        <time>2021-08-12T10:39:22Z</time>
      </trkpt>
      <trkpt lat="46.8352" lon="5.84715">
        <ele>624.5</ele>
        <time>2021-08-12T10:39:26Z</time>
      </trkpt>
      <trkpt lat="46.83523" lon="5.8471">
        <ele>624.7</ele>
        <time>2021-08-12T10:39:33Z</time>
      </trkpt>
      <trkpt lat="46.83528" lon="5.84706">
        <ele>624.7</ele>
        <time>2021-08-12T10:39:39Z</time>
      </trkpt>
      <trkpt lat="46.83533" lon="5.84703">
        <ele>624.6</ele>
        <time>2021-08-12T10:39:43Z</time>
      </trkpt>
      <trkpt lat="46.83538" lon="5.84699">
        <ele>624.3</ele>
        <time>2021-08-12T10:39:47Z</time>
      </trkpt>
      <trkpt lat="46.83543" lon="5.84696">
        <ele>624.3</ele>
        <time>2021-08-12T10:39:52Z</time>
      </trkpt>
      <trkpt lat="46.83548" lon="5.84694">
        <ele>624.4</ele>
        <time>2021-08-12T10:39:57Z</time>
      </trkpt>
      <trkpt lat="46.83552" lon="5.84691">
        <ele>624.7</ele>
        <time>2021-08-12T10:40:02Z</time>
      </trkpt>
      <trkpt lat="46.83557" lon="5.84686">
        <ele>624.9</ele>
        <time>2021-08-12T10:40:08Z</time>
      </trkpt>
      <trkpt lat="46.83561" lon="5.84681">
        <ele>624.9</ele>
        <time>2021-08-12T10:40:13Z</time>
      </trkpt>
      <trkpt lat="46.83564" lon="5.84676">
        <ele>624.6</ele>
        <time>2021-08-12T10:40:19Z</time>
      </trkpt>
      <trkpt lat="46.83569" lon="5.84672">
        <ele>624.5</ele>
        <time>2021-08-12T10:40:23Z</time>
      </trkpt>
      <trkpt lat="46.83574" lon="5.84669">
        <ele>624</ele>
        <time>2021-08-12T10:40:26Z</time>
      </trkpt>
      <trkpt lat="46.83579" lon="5.84667">
        <ele>623.6</ele>
        <time>2021-08-12T10:40:30Z</time>
      </trkpt>
      <trkpt lat="46.83584" lon="5.84665">
        <ele>623.6</ele>
        <time>2021-08-12T10:40:35Z</time>
      </trkpt>
      <trkpt lat="46.83588" lon="5.84661">
        <ele>623.9</ele>
        <time>2021-08-12T10:40:41Z</time>
      </trkpt>
      <trkpt lat="46.83592" lon="5.8466">
        <ele>624.4</ele>
        <time>2021-08-12T10:40:46Z</time>
      </trkpt>
      <trkpt lat="46.83597" lon="5.84659">
        <ele>624.8</ele>
        <time>2021-08-12T10:40:51Z</time>
      </trkpt>
      <trkpt lat="46.83602" lon="5.84658">
        <ele>624.8</ele>
        <time>2021-08-12T10:40:57Z</time>
      </trkpt>
      <trkpt lat="46.83607" lon="5.84654">
        <ele>624</ele>
        <time>2021-08-12T10:41:03Z</time>
      </trkpt>
      <trkpt lat="46.8361" lon="5.84649">
        <ele>623.4</ele>
        <time>2021-08-12T10:41:08Z</time>
      </trkpt>
      <trkpt lat="46.83613" lon="5.84644">
        <ele>623.3</ele>
        <time>2021-08-12T10:41:12Z</time>
      </trkpt>
      <trkpt lat="46.83618" lon="5.84641">
        <ele>623.1</ele>
        <time>2021-08-12T10:41:16Z</time>
      </trkpt>
      <trkpt lat="46.83622" lon="5.84638">
        <ele>622.7</ele>
        <time>2021-08-12T10:41:21Z</time>
      </trkpt>
      <trkpt lat="46.83627" lon="5.84634">
        <ele>622.1</ele>
        <time>2021-08-12T10:41:26Z</time>
      </trkpt>
      <trkpt lat="46.83632" lon="5.84629">
        <ele>621.9</ele>
        <time>2021-08-12T10:41:30Z</time>
      </trkpt>
      <trkpt lat="46.83635" lon="5.84624">
        <ele>622</ele>
        <time>2021-08-12T10:41:33Z</time>
      </trkpt>
      <trkpt lat="46.83639" lon="5.8462">
        <ele>622.4</ele>
        <time>2021-08-12T10:41:36Z</time>
      </trkpt>
      <trkpt lat="46.83642" lon="5.84615">
        <ele>623.1</ele>
        <time>2021-08-12T10:41:41Z</time>
      </trkpt>
      <trkpt lat="46.83646" lon="5.8461">
        <ele>623.7</ele>
        <time>2021-08-12T10:41:46Z</time>
      </trkpt>
      <trkpt lat="46.8365" lon="5.84607">
        <ele>623.9</ele>
        <time>2021-08-12T10:41:50Z</time>
      </trkpt>
      <trkpt lat="46.83653" lon="5.84601">
        <ele>623.9</ele>
        <time>2021-08-12T10:41:56Z</time>
      </trkpt>
      <trkpt lat="46.83657" lon="5.84595">
        <ele>624.4</ele>
        <time>2021-08-12T10:42:01Z</time>
      </trkpt>
      <trkpt lat="46.8366" lon="5.84591">
        <ele>624.7</ele>
        <time>2021-08-12T10:42:05Z</time>
      </trkpt>
      <trkpt lat="46.83664" lon="5.84587">
        <ele>625.1</ele>
        <time>2021-08-12T10:42:09Z</time>
      </trkpt>
      <trkpt lat="46.83669" lon="5.84584">
        <ele>625.5</ele>
        <time>2021-08-12T10:42:13Z</time>
      </trkpt>
      <trkpt lat="46.83673" lon="5.8458">
        <ele>626.2</ele>
        <time>2021-08-12T10:42:18Z</time>
      </trkpt>
      <trkpt lat="46.83677" lon="5.84577">
        <ele>626.4</ele>
        <time>2021-08-12T10:42:24Z</time>
      </trkpt>
      <trkpt lat="46.83678" lon="5.84585">
        <ele>625.7</ele>
        <time>2021-08-12T10:43:02Z</time>
      </trkpt>
      <trkpt lat="46.83679" lon="5.84592">
        <ele>624.1</ele>
        <time>2021-08-12T10:43:11Z</time>
      </trkpt>
      <trkpt lat="46.83683" lon="5.84595">
        <ele>624</ele>
        <time>2021-08-12T10:43:17Z</time>
      </trkpt>
      <trkpt lat="46.83686" lon="5.846">
        <ele>623.2</ele>
        <time>2021-08-12T10:43:21Z</time>
      </trkpt>
      <trkpt lat="46.8369" lon="5.84605">
        <ele>621.6</ele>
        <time>2021-08-12T10:43:26Z</time>
      </trkpt>
      <trkpt lat="46.83693" lon="5.8461">
        <ele>619.3</ele>
        <time>2021-08-12T10:43:32Z</time>
      </trkpt>
      <trkpt lat="46.83695" lon="5.84617">
        <ele>617.8</ele>
        <time>2021-08-12T10:43:41Z</time>
      </trkpt>
      <trkpt lat="46.83689" lon="5.8462">
        <ele>620.5</ele>
        <time>2021-08-12T10:43:59Z</time>
      </trkpt>
      <trkpt lat="46.83685" lon="5.84618">
        <ele>621.1</ele>
        <time>2021-08-12T10:44:08Z</time>
      </trkpt>
      <trkpt lat="46.83687" lon="5.84611">
        <ele>620.9</ele>
        <time>2021-08-12T10:44:16Z</time>
      </trkpt>
      <trkpt lat="46.83691" lon="5.84611">
        <ele>621.9</ele>
        <time>2021-08-12T10:44:25Z</time>
      </trkpt>
      <trkpt lat="46.83691" lon="5.84618">
        <ele>622.2</ele>
        <time>2021-08-12T10:44:35Z</time>
      </trkpt>
      <trkpt lat="46.83695" lon="5.8462">
        <ele>626.1</ele>
        <time>2021-08-12T10:46:12Z</time>
      </trkpt>
      <trkpt lat="46.83691" lon="5.84623">
        <ele>629.2</ele>
        <time>2021-08-12T10:46:37Z</time>
      </trkpt>
      <trkpt lat="46.83688" lon="5.84616">
        <ele>628.6</ele>
        <time>2021-08-12T10:47:14Z</time>
      </trkpt>
      <trkpt lat="46.83686" lon="5.84609">
        <ele>629.5</ele>
        <time>2021-08-12T10:47:24Z</time>
      </trkpt>
      <trkpt lat="46.83682" lon="5.84607">
        <ele>629.9</ele>
        <time>2021-08-12T10:47:33Z</time>
      </trkpt>
      <trkpt lat="46.83687" lon="5.84605">
        <ele>631.1</ele>
        <time>2021-08-12T10:47:49Z</time>
      </trkpt>
      <trkpt lat="46.83692" lon="5.84605">
        <ele>631.8</ele>
        <time>2021-08-12T10:47:53Z</time>
      </trkpt>
      <trkpt lat="46.83689" lon="5.8461">
        <ele>636.3</ele>
        <time>2021-08-12T10:48:15Z</time>
      </trkpt>
      <trkpt lat="46.83694" lon="5.84612">
        <ele>633.1</ele>
        <time>2021-08-12T10:48:48Z</time>
      </trkpt>
      <trkpt lat="46.83694" lon="5.84604">
        <ele>632.1</ele>
        <time>2021-08-12T10:49:01Z</time>
      </trkpt>
      <trkpt lat="46.83691" lon="5.84598">
        <ele>631.8</ele>
        <time>2021-08-12T10:49:07Z</time>
      </trkpt>
      <trkpt lat="46.83687" lon="5.84595">
        <ele>630.7</ele>
        <time>2021-08-12T10:49:14Z</time>
      </trkpt>
      <trkpt lat="46.83683" lon="5.8459">
        <ele>630</ele>
        <time>2021-08-12T10:49:19Z</time>
      </trkpt>
      <trkpt lat="46.8368" lon="5.84586">
        <ele>629.4</ele>
        <time>2021-08-12T10:49:27Z</time>
      </trkpt>
      <trkpt lat="46.83676" lon="5.84582">
        <ele>628</ele>
        <time>2021-08-12T10:49:39Z</time>
      </trkpt>
      <trkpt lat="46.83675" lon="5.84573">
        <ele>628.3</ele>
        <time>2021-08-12T10:50:12Z</time>
      </trkpt>
      <trkpt lat="46.83673" lon="5.84566">
        <ele>628.8</ele>
        <time>2021-08-12T10:50:15Z</time>
      </trkpt>
      <trkpt lat="46.83678" lon="5.8457">
        <ele>628.2</ele>
        <time>2021-08-12T10:51:17Z</time>
      </trkpt>
      <trkpt lat="46.83676" lon="5.84577">
        <ele>624</ele>
        <time>2021-08-12T10:51:48Z</time>
      </trkpt>
      <trkpt lat="46.83675" lon="5.8457">
        <ele>625.9</ele>
        <time>2021-08-12T10:52:14Z</time>
      </trkpt>
      <trkpt lat="46.83678" lon="5.84564">
        <ele>627.3</ele>
        <time>2021-08-12T10:52:19Z</time>
      </trkpt>
      <trkpt lat="46.83682" lon="5.84558">
        <ele>628.6</ele>
        <time>2021-08-12T10:52:25Z</time>
      </trkpt>
      <trkpt lat="46.83686" lon="5.84552">
        <ele>629.2</ele>
        <time>2021-08-12T10:52:29Z</time>
      </trkpt>
      <trkpt lat="46.8369" lon="5.84549">
        <ele>629.5</ele>
        <time>2021-08-12T10:52:33Z</time>
      </trkpt>
      <trkpt lat="46.83695" lon="5.84546">
        <ele>629.6</ele>
        <time>2021-08-12T10:52:37Z</time>
      </trkpt>
      <trkpt lat="46.837" lon="5.84543">
        <ele>629.7</ele>
        <time>2021-08-12T10:52:42Z</time>
      </trkpt>
      <trkpt lat="46.83703" lon="5.84537">
        <ele>629.9</ele>
        <time>2021-08-12T10:52:47Z</time>
      </trkpt>
      <trkpt lat="46.83707" lon="5.84532">
        <ele>630.4</ele>
        <time>2021-08-12T10:52:52Z</time>
      </trkpt>
      <trkpt lat="46.83712" lon="5.84529">
        <ele>630.7</ele>
        <time>2021-08-12T10:52:57Z</time>
      </trkpt>
      <trkpt lat="46.83716" lon="5.84528">
        <ele>630.4</ele>
        <time>2021-08-12T10:53:02Z</time>
      </trkpt>
      <trkpt lat="46.83721" lon="5.84528">
        <ele>629.9</ele>
        <time>2021-08-12T10:53:07Z</time>
      </trkpt>
      <trkpt lat="46.83725" lon="5.84524">
        <ele>629.3</ele>
        <time>2021-08-12T10:53:12Z</time>
      </trkpt>
      <trkpt lat="46.8373" lon="5.84522">
        <ele>628.5</ele>
        <time>2021-08-12T10:53:17Z</time>
      </trkpt>
      <trkpt lat="46.83733" lon="5.84518">
        <ele>627.7</ele>
        <time>2021-08-12T10:53:23Z</time>
      </trkpt>
      <trkpt lat="46.83738" lon="5.84515">
        <ele>626.8</ele>
        <time>2021-08-12T10:53:31Z</time>
      </trkpt>
      <trkpt lat="46.83743" lon="5.84514">
        <ele>626.7</ele>
        <time>2021-08-12T10:53:38Z</time>
      </trkpt>
      <trkpt lat="46.83748" lon="5.84513">
        <ele>626.8</ele>
        <time>2021-08-12T10:53:44Z</time>
      </trkpt>
      <trkpt lat="46.83752" lon="5.84513">
        <ele>626.6</ele>
        <time>2021-08-12T10:53:50Z</time>
      </trkpt>
      <trkpt lat="46.83758" lon="5.84513">
        <ele>626.3</ele>
        <time>2021-08-12T10:53:56Z</time>
      </trkpt>
      <trkpt lat="46.83763" lon="5.84513">
        <ele>626.1</ele>
        <time>2021-08-12T10:54:01Z</time>
      </trkpt>
      <trkpt lat="46.83769" lon="5.84513">
        <ele>625.9</ele>
        <time>2021-08-12T10:54:09Z</time>
      </trkpt>
      <trkpt lat="46.83774" lon="5.84514">
        <ele>625.8</ele>
        <time>2021-08-12T10:54:12Z</time>
      </trkpt>
      <trkpt lat="46.8378" lon="5.84515">
        <ele>625.9</ele>
        <time>2021-08-12T10:54:15Z</time>
      </trkpt>
      <trkpt lat="46.83785" lon="5.84515">
        <ele>625.9</ele>
        <time>2021-08-12T10:54:18Z</time>
      </trkpt>
      <trkpt lat="46.8379" lon="5.84514">
        <ele>626</ele>
        <time>2021-08-12T10:54:22Z</time>
      </trkpt>
      <trkpt lat="46.83795" lon="5.84512">
        <ele>625.8</ele>
        <time>2021-08-12T10:54:28Z</time>
      </trkpt>
      <trkpt lat="46.838" lon="5.8451">
        <ele>624.9</ele>
        <time>2021-08-12T10:54:34Z</time>
      </trkpt>
      <trkpt lat="46.83805" lon="5.84509">
        <ele>624</ele>
        <time>2021-08-12T10:54:39Z</time>
      </trkpt>
      <trkpt lat="46.8381" lon="5.8451">
        <ele>622.6</ele>
        <time>2021-08-12T10:54:44Z</time>
      </trkpt>
      <trkpt lat="46.83815" lon="5.8451">
        <ele>621.5</ele>
        <time>2021-08-12T10:54:51Z</time>
      </trkpt>
      <trkpt lat="46.83819" lon="5.84506">
        <ele>621.9</ele>
        <time>2021-08-12T10:54:59Z</time>
      </trkpt>
      <trkpt lat="46.83823" lon="5.84504">
        <ele>621.8</ele>
        <time>2021-08-12T10:55:06Z</time>
      </trkpt>
      <trkpt lat="46.83826" lon="5.84498">
        <ele>621.4</ele>
        <time>2021-08-12T10:55:11Z</time>
      </trkpt>
      <trkpt lat="46.8383" lon="5.84492">
        <ele>620.8</ele>
        <time>2021-08-12T10:55:16Z</time>
      </trkpt>
      <trkpt lat="46.83833" lon="5.84486">
        <ele>620.3</ele>
        <time>2021-08-12T10:55:21Z</time>
      </trkpt>
      <trkpt lat="46.83835" lon="5.8448">
        <ele>619.6</ele>
        <time>2021-08-12T10:55:26Z</time>
      </trkpt>
      <trkpt lat="46.83839" lon="5.84474">
        <ele>619</ele>
        <time>2021-08-12T10:55:31Z</time>
      </trkpt>
      <trkpt lat="46.83841" lon="5.84467">
        <ele>618.6</ele>
        <time>2021-08-12T10:55:36Z</time>
      </trkpt>
      <trkpt lat="46.83842" lon="5.8446">
        <ele>618.6</ele>
        <time>2021-08-12T10:55:39Z</time>
      </trkpt>
      <trkpt lat="46.83843" lon="5.84453">
        <ele>618.8</ele>
        <time>2021-08-12T10:55:43Z</time>
      </trkpt>
      <trkpt lat="46.83844" lon="5.84446">
        <ele>618.9</ele>
        <time>2021-08-12T10:55:48Z</time>
      </trkpt>
      <trkpt lat="46.83849" lon="5.84443">
        <ele>619.5</ele>
        <time>2021-08-12T10:55:58Z</time>
      </trkpt>
      <trkpt lat="46.83854" lon="5.84445">
        <ele>620.1</ele>
        <time>2021-08-12T10:56:03Z</time>
      </trkpt>
      <trkpt lat="46.8386" lon="5.84445">
        <ele>620.4</ele>
        <time>2021-08-12T10:56:07Z</time>
      </trkpt>
      <trkpt lat="46.83864" lon="5.84445">
        <ele>620.6</ele>
        <time>2021-08-12T10:56:10Z</time>
      </trkpt>
      <trkpt lat="46.8387" lon="5.84447">
        <ele>620.7</ele>
        <time>2021-08-12T10:56:14Z</time>
      </trkpt>
      <trkpt lat="46.83874" lon="5.84449">
        <ele>620.4</ele>
        <time>2021-08-12T10:56:19Z</time>
      </trkpt>
      <trkpt lat="46.83878" lon="5.84452">
        <ele>619.9</ele>
        <time>2021-08-12T10:56:24Z</time>
      </trkpt>
      <trkpt lat="46.83882" lon="5.84455">
        <ele>619.7</ele>
        <time>2021-08-12T10:56:28Z</time>
      </trkpt>
      <trkpt lat="46.83887" lon="5.84458">
        <ele>619.4</ele>
        <time>2021-08-12T10:56:32Z</time>
      </trkpt>
      <trkpt lat="46.83892" lon="5.84458">
        <ele>619.2</ele>
        <time>2021-08-12T10:56:38Z</time>
      </trkpt>
      <trkpt lat="46.83897" lon="5.84458">
        <ele>618.6</ele>
        <time>2021-08-12T10:56:45Z</time>
      </trkpt>
      <trkpt lat="46.83902" lon="5.84459">
        <ele>617.1</ele>
        <time>2021-08-12T10:56:52Z</time>
      </trkpt>
      <trkpt lat="46.83905" lon="5.84464">
        <ele>614.9</ele>
        <time>2021-08-12T10:56:58Z</time>
      </trkpt>
      <trkpt lat="46.8391" lon="5.84465">
        <ele>612</ele>
        <time>2021-08-12T10:57:05Z</time>
      </trkpt>
      <trkpt lat="46.83915" lon="5.84468">
        <ele>608.8</ele>
        <time>2021-08-12T10:57:13Z</time>
      </trkpt>
      <trkpt lat="46.83919" lon="5.84473">
        <ele>607.3</ele>
        <time>2021-08-12T10:57:18Z</time>
      </trkpt>
      <trkpt lat="46.83922" lon="5.84479">
        <ele>606.4</ele>
        <time>2021-08-12T10:57:22Z</time>
      </trkpt>
      <trkpt lat="46.83924" lon="5.84485">
        <ele>605.3</ele>
        <time>2021-08-12T10:57:28Z</time>
      </trkpt>
      <trkpt lat="46.83929" lon="5.84486">
        <ele>605.2</ele>
        <time>2021-08-12T10:57:32Z</time>
      </trkpt>
      <trkpt lat="46.83934" lon="5.84487">
        <ele>605.9</ele>
        <time>2021-08-12T10:57:38Z</time>
      </trkpt>
      <trkpt lat="46.83939" lon="5.84488">
        <ele>606.8</ele>
        <time>2021-08-12T10:57:45Z</time>
      </trkpt>
      <trkpt lat="46.83942" lon="5.84492">
        <ele>607.8</ele>
        <time>2021-08-12T10:57:52Z</time>
      </trkpt>
      <trkpt lat="46.83943" lon="5.84499">
        <ele>607.8</ele>
        <time>2021-08-12T10:58:00Z</time>
      </trkpt>
      <trkpt lat="46.83946" lon="5.84506">
        <ele>607.7</ele>
        <time>2021-08-12T10:58:04Z</time>
      </trkpt>
      <trkpt lat="46.83949" lon="5.84511">
        <ele>607.9</ele>
        <time>2021-08-12T10:58:08Z</time>
      </trkpt>
      <trkpt lat="46.83953" lon="5.84517">
        <ele>608.3</ele>
        <time>2021-08-12T10:58:13Z</time>
      </trkpt>
      <trkpt lat="46.83955" lon="5.84523">
        <ele>609.2</ele>
        <time>2021-08-12T10:58:19Z</time>
      </trkpt>
      <trkpt lat="46.83957" lon="5.8453">
        <ele>611.5</ele>
        <time>2021-08-12T10:58:27Z</time>
      </trkpt>
      <trkpt lat="46.8396" lon="5.84535">
        <ele>613.6</ele>
        <time>2021-08-12T10:58:36Z</time>
      </trkpt>
      <trkpt lat="46.83963" lon="5.8454">
        <ele>614.7</ele>
        <time>2021-08-12T10:58:40Z</time>
      </trkpt>
      <trkpt lat="46.83965" lon="5.84547">
        <ele>615.7</ele>
        <time>2021-08-12T10:58:45Z</time>
      </trkpt>
      <trkpt lat="46.83968" lon="5.84553">
        <ele>616.1</ele>
        <time>2021-08-12T10:58:54Z</time>
      </trkpt>
      <trkpt lat="46.83969" lon="5.8456">
        <ele>615.1</ele>
        <time>2021-08-12T10:58:59Z</time>
      </trkpt>
      <trkpt lat="46.83971" lon="5.84567">
        <ele>614.1</ele>
        <time>2021-08-12T10:59:03Z</time>
      </trkpt>
      <trkpt lat="46.83973" lon="5.84572">
        <ele>613.3</ele>
        <time>2021-08-12T10:59:07Z</time>
      </trkpt>
      <trkpt lat="46.83975" lon="5.8458">
        <ele>612.8</ele>
        <time>2021-08-12T10:59:12Z</time>
      </trkpt>
      <trkpt lat="46.83977" lon="5.84586">
        <ele>612</ele>
        <time>2021-08-12T10:59:17Z</time>
      </trkpt>
      <trkpt lat="46.8398" lon="5.84592">
        <ele>612.4</ele>
        <time>2021-08-12T10:59:24Z</time>
      </trkpt>
      <trkpt lat="46.8398" lon="5.84599">
        <ele>613</ele>
        <time>2021-08-12T10:59:31Z</time>
      </trkpt>
      <trkpt lat="46.83982" lon="5.84606">
        <ele>613.5</ele>
        <time>2021-08-12T10:59:35Z</time>
      </trkpt>
      <trkpt lat="46.83984" lon="5.84611">
        <ele>613.7</ele>
        <time>2021-08-12T10:59:42Z</time>
      </trkpt>
      <trkpt lat="46.83987" lon="5.84619">
        <ele>613.9</ele>
        <time>2021-08-12T10:59:48Z</time>
      </trkpt>
      <trkpt lat="46.8399" lon="5.84626">
        <ele>614.4</ele>
        <time>2021-08-12T10:59:56Z</time>
      </trkpt>
      <trkpt lat="46.83993" lon="5.84631">
        <ele>614.6</ele>
        <time>2021-08-12T10:59:59Z</time>
      </trkpt>
      <trkpt lat="46.83997" lon="5.84635">
        <ele>614.9</ele>
        <time>2021-08-12T11:00:03Z</time>
      </trkpt>
      <trkpt lat="46.84" lon="5.84641">
        <ele>615.5</ele>
        <time>2021-08-12T11:00:08Z</time>
      </trkpt>
      <trkpt lat="46.84003" lon="5.84647">
        <ele>616.2</ele>
        <time>2021-08-12T11:00:12Z</time>
      </trkpt>
      <trkpt lat="46.84005" lon="5.84653">
        <ele>617.2</ele>
        <time>2021-08-12T11:00:17Z</time>
      </trkpt>
      <trkpt lat="46.84007" lon="5.8466">
        <ele>618.7</ele>
        <time>2021-08-12T11:00:22Z</time>
      </trkpt>
      <trkpt lat="46.84007" lon="5.84667">
        <ele>620.9</ele>
        <time>2021-08-12T11:00:29Z</time>
      </trkpt>
      <trkpt lat="46.84007" lon="5.84674">
        <ele>622.5</ele>
        <time>2021-08-12T11:00:35Z</time>
      </trkpt>
      <trkpt lat="46.84009" lon="5.84682">
        <ele>623.8</ele>
        <time>2021-08-12T11:00:40Z</time>
      </trkpt>
      <trkpt lat="46.84013" lon="5.84687">
        <ele>625.5</ele>
        <time>2021-08-12T11:00:48Z</time>
      </trkpt>
      <trkpt lat="46.84018" lon="5.84688">
        <ele>626</ele>
        <time>2021-08-12T11:00:55Z</time>
      </trkpt>
      <trkpt lat="46.84018" lon="5.84696">
        <ele>627.1</ele>
        <time>2021-08-12T11:01:05Z</time>
      </trkpt>
      <trkpt lat="46.8402" lon="5.84702">
        <ele>628.3</ele>
        <time>2021-08-12T11:01:11Z</time>
      </trkpt>
      <trkpt lat="46.8402" lon="5.84709">
        <ele>628.5</ele>
        <time>2021-08-12T11:01:20Z</time>
      </trkpt>
      <trkpt lat="46.84022" lon="5.84716">
        <ele>628.2</ele>
        <time>2021-08-12T11:01:26Z</time>
      </trkpt>
      <trkpt lat="46.84023" lon="5.84724">
        <ele>628.1</ele>
        <time>2021-08-12T11:01:31Z</time>
      </trkpt>
      <trkpt lat="46.84022" lon="5.84731">
        <ele>627.5</ele>
        <time>2021-08-12T11:01:35Z</time>
      </trkpt>
      <trkpt lat="46.84024" lon="5.84738">
        <ele>625.8</ele>
        <time>2021-08-12T11:01:40Z</time>
      </trkpt>
      <trkpt lat="46.84027" lon="5.84744">
        <ele>623.6</ele>
        <time>2021-08-12T11:01:45Z</time>
      </trkpt>
      <trkpt lat="46.8403" lon="5.84749">
        <ele>620.5</ele>
        <time>2021-08-12T11:01:56Z</time>
      </trkpt>
      <trkpt lat="46.84035" lon="5.84751">
        <ele>619.3</ele>
        <time>2021-08-12T11:02:02Z</time>
      </trkpt>
      <trkpt lat="46.84039" lon="5.84754">
        <ele>618</ele>
        <time>2021-08-12T11:02:09Z</time>
      </trkpt>
      <trkpt lat="46.84042" lon="5.8476">
        <ele>617.9</ele>
        <time>2021-08-12T11:02:13Z</time>
      </trkpt>
      <trkpt lat="46.84046" lon="5.84765">
        <ele>618.8</ele>
        <time>2021-08-12T11:02:19Z</time>
      </trkpt>
      <trkpt lat="46.84049" lon="5.84771">
        <ele>619.6</ele>
        <time>2021-08-12T11:02:24Z</time>
      </trkpt>
      <trkpt lat="46.84053" lon="5.84776">
        <ele>620.2</ele>
        <time>2021-08-12T11:02:30Z</time>
      </trkpt>
      <trkpt lat="46.84057" lon="5.8478">
        <ele>620.1</ele>
        <time>2021-08-12T11:02:35Z</time>
      </trkpt>
      <trkpt lat="46.84059" lon="5.84786">
        <ele>619.5</ele>
        <time>2021-08-12T11:02:41Z</time>
      </trkpt>
      <trkpt lat="46.84059" lon="5.84794">
        <ele>619.1</ele>
        <time>2021-08-12T11:02:47Z</time>
      </trkpt>
      <trkpt lat="46.84061" lon="5.848">
        <ele>619</ele>
        <time>2021-08-12T11:02:52Z</time>
      </trkpt>
      <trkpt lat="46.8406" lon="5.84807">
        <ele>621.1</ele>
        <time>2021-08-12T11:03:06Z</time>
      </trkpt>
      <trkpt lat="46.84064" lon="5.8481">
        <ele>623.9</ele>
        <time>2021-08-12T11:03:20Z</time>
      </trkpt>
      <trkpt lat="46.84069" lon="5.84815">
        <ele>624.8</ele>
        <time>2021-08-12T11:03:24Z</time>
      </trkpt>
      <trkpt lat="46.84073" lon="5.8482">
        <ele>625</ele>
        <time>2021-08-12T11:03:28Z</time>
      </trkpt>
      <trkpt lat="46.84076" lon="5.84826">
        <ele>625.2</ele>
        <time>2021-08-12T11:03:32Z</time>
      </trkpt>
      <trkpt lat="46.8408" lon="5.84831">
        <ele>625.9</ele>
        <time>2021-08-12T11:03:38Z</time>
      </trkpt>
      <trkpt lat="46.84084" lon="5.84837">
        <ele>626.8</ele>
        <time>2021-08-12T11:03:44Z</time>
      </trkpt>
      <trkpt lat="46.84087" lon="5.84843">
        <ele>628.7</ele>
        <time>2021-08-12T11:03:49Z</time>
      </trkpt>
      <trkpt lat="46.8409" lon="5.8485">
        <ele>631.2</ele>
        <time>2021-08-12T11:03:54Z</time>
      </trkpt>
      <trkpt lat="46.84092" lon="5.84857">
        <ele>633.1</ele>
        <time>2021-08-12T11:03:59Z</time>
      </trkpt>
      <trkpt lat="46.84093" lon="5.84865">
        <ele>634.1</ele>
        <time>2021-08-12T11:04:04Z</time>
      </trkpt>
      <trkpt lat="46.84095" lon="5.84872">
        <ele>634.7</ele>
        <time>2021-08-12T11:04:08Z</time>
      </trkpt>
      <trkpt lat="46.841" lon="5.84875">
        <ele>635.6</ele>
        <time>2021-08-12T11:04:12Z</time>
      </trkpt>
      <trkpt lat="46.84105" lon="5.84877">
        <ele>636.3</ele>
        <time>2021-08-12T11:04:16Z</time>
      </trkpt>
      <trkpt lat="46.84108" lon="5.84881">
        <ele>636.8</ele>
        <time>2021-08-12T11:04:20Z</time>
      </trkpt>
      <trkpt lat="46.8411" lon="5.84888">
        <ele>637.4</ele>
        <time>2021-08-12T11:04:25Z</time>
      </trkpt>
      <trkpt lat="46.84111" lon="5.84896">
        <ele>638</ele>
        <time>2021-08-12T11:04:29Z</time>
      </trkpt>
      <trkpt lat="46.84111" lon="5.84904">
        <ele>638.5</ele>
        <time>2021-08-12T11:04:33Z</time>
      </trkpt>
      <trkpt lat="46.84111" lon="5.8491">
        <ele>638.6</ele>
        <time>2021-08-12T11:04:37Z</time>
      </trkpt>
      <trkpt lat="46.84113" lon="5.84917">
        <ele>637.9</ele>
        <time>2021-08-12T11:04:42Z</time>
      </trkpt>
      <trkpt lat="46.84116" lon="5.84922">
        <ele>636.9</ele>
        <time>2021-08-12T11:04:48Z</time>
      </trkpt>
      <trkpt lat="46.84117" lon="5.84929">
        <ele>636.3</ele>
        <time>2021-08-12T11:04:52Z</time>
      </trkpt>
      <trkpt lat="46.84117" lon="5.84937">
        <ele>635.7</ele>
        <time>2021-08-12T11:04:56Z</time>
      </trkpt>
      <trkpt lat="46.84119" lon="5.84944">
        <ele>635.2</ele>
        <time>2021-08-12T11:05:00Z</time>
      </trkpt>
      <trkpt lat="46.84121" lon="5.84951">
        <ele>634.7</ele>
        <time>2021-08-12T11:05:04Z</time>
      </trkpt>
      <trkpt lat="46.84125" lon="5.84957">
        <ele>634.3</ele>
        <time>2021-08-12T11:05:08Z</time>
      </trkpt>
      <trkpt lat="46.84127" lon="5.84963">
        <ele>634.2</ele>
        <time>2021-08-12T11:05:13Z</time>
      </trkpt>
      <trkpt lat="46.8413" lon="5.84969">
        <ele>633.1</ele>
        <time>2021-08-12T11:05:19Z</time>
      </trkpt>
      <trkpt lat="46.84134" lon="5.84973">
        <ele>631.9</ele>
        <time>2021-08-12T11:05:27Z</time>
      </trkpt>
      <trkpt lat="46.84134" lon="5.84981">
        <ele>633.7</ele>
        <time>2021-08-12T11:05:59Z</time>
      </trkpt>
      <trkpt lat="46.8413" lon="5.84985">
        <ele>633.8</ele>
        <time>2021-08-12T11:06:03Z</time>
      </trkpt>
      <trkpt lat="46.84124" lon="5.84986">
        <ele>633.8</ele>
        <time>2021-08-12T11:06:07Z</time>
      </trkpt>
      <trkpt lat="46.84119" lon="5.84987">
        <ele>633.7</ele>
        <time>2021-08-12T11:06:10Z</time>
      </trkpt>
      <trkpt lat="46.84114" lon="5.84988">
        <ele>633.8</ele>
        <time>2021-08-12T11:06:13Z</time>
      </trkpt>
      <trkpt lat="46.84109" lon="5.8499">
        <ele>633.8</ele>
        <time>2021-08-12T11:06:16Z</time>
      </trkpt>
      <trkpt lat="46.84105" lon="5.84989">
        <ele>634</ele>
        <time>2021-08-12T11:06:21Z</time>
      </trkpt>
      <trkpt lat="46.84099" lon="5.84987">
        <ele>634.3</ele>
        <time>2021-08-12T11:06:26Z</time>
      </trkpt>
      <trkpt lat="46.84095" lon="5.84984">
        <ele>634.6</ele>
        <time>2021-08-12T11:06:33Z</time>
      </trkpt>
      <trkpt lat="46.8409" lon="5.84983">
        <ele>634.4</ele>
        <time>2021-08-12T11:06:39Z</time>
      </trkpt>
      <trkpt lat="46.84085" lon="5.84984">
        <ele>634.4</ele>
        <time>2021-08-12T11:06:46Z</time>
      </trkpt>
      <trkpt lat="46.84082" lon="5.84989">
        <ele>634.3</ele>
        <time>2021-08-12T11:06:52Z</time>
      </trkpt>
      <trkpt lat="46.84078" lon="5.84993">
        <ele>634.5</ele>
        <time>2021-08-12T11:06:59Z</time>
      </trkpt>
      <trkpt lat="46.84073" lon="5.84996">
        <ele>634.6</ele>
        <time>2021-08-12T11:07:05Z</time>
      </trkpt>
      <trkpt lat="46.84069" lon="5.84998">
        <ele>634.2</ele>
        <time>2021-08-12T11:07:11Z</time>
      </trkpt>
      <trkpt lat="46.84064" lon="5.85">
        <ele>634</ele>
        <time>2021-08-12T11:07:16Z</time>
      </trkpt>
      <trkpt lat="46.8406" lon="5.85003">
        <ele>634</ele>
        <time>2021-08-12T11:07:20Z</time>
      </trkpt>
      <trkpt lat="46.84057" lon="5.85009">
        <ele>633.7</ele>
        <time>2021-08-12T11:07:24Z</time>
      </trkpt>
      <trkpt lat="46.84057" lon="5.85016">
        <ele>633.3</ele>
        <time>2021-08-12T11:07:30Z</time>
      </trkpt>
      <trkpt lat="46.84056" lon="5.85024">
        <ele>633.2</ele>
        <time>2021-08-12T11:07:38Z</time>
      </trkpt>
      <trkpt lat="46.84056" lon="5.8503">
        <ele>633.2</ele>
        <time>2021-08-12T11:07:41Z</time>
      </trkpt>
      <trkpt lat="46.84056" lon="5.85037">
        <ele>633.2</ele>
        <time>2021-08-12T11:07:46Z</time>
      </trkpt>
      <trkpt lat="46.84059" lon="5.85042">
        <ele>633.2</ele>
        <time>2021-08-12T11:07:51Z</time>
      </trkpt>
      <trkpt lat="46.84063" lon="5.85048">
        <ele>633.1</ele>
        <time>2021-08-12T11:07:55Z</time>
      </trkpt>
      <trkpt lat="46.84064" lon="5.85055">
        <ele>633.1</ele>
        <time>2021-08-12T11:08:00Z</time>
      </trkpt>
      <trkpt lat="46.84066" lon="5.85061">
        <ele>633.2</ele>
        <time>2021-08-12T11:08:04Z</time>
      </trkpt>
      <trkpt lat="46.84069" lon="5.85067">
        <ele>633.4</ele>
        <time>2021-08-12T11:08:09Z</time>
      </trkpt>
      <trkpt lat="46.84073" lon="5.85072">
        <ele>633.8</ele>
        <time>2021-08-12T11:08:13Z</time>
      </trkpt>
      <trkpt lat="46.84078" lon="5.85074">
        <ele>634.2</ele>
        <time>2021-08-12T11:08:19Z</time>
      </trkpt>
      <trkpt lat="46.84082" lon="5.85078">
        <ele>634.4</ele>
        <time>2021-08-12T11:08:23Z</time>
      </trkpt>
      <trkpt lat="46.84086" lon="5.85082">
        <ele>635.1</ele>
        <time>2021-08-12T11:08:28Z</time>
      </trkpt>
      <trkpt lat="46.84087" lon="5.85089">
        <ele>636</ele>
        <time>2021-08-12T11:08:34Z</time>
      </trkpt>
      <trkpt lat="46.84089" lon="5.85095">
        <ele>636.3</ele>
        <time>2021-08-12T11:08:38Z</time>
      </trkpt>
      <trkpt lat="46.84091" lon="5.85102">
        <ele>636.3</ele>
        <time>2021-08-12T11:08:42Z</time>
      </trkpt>
      <trkpt lat="46.84094" lon="5.85108">
        <ele>636</ele>
        <time>2021-08-12T11:08:46Z</time>
      </trkpt>
      <trkpt lat="46.84094" lon="5.85115">
        <ele>635.1</ele>
        <time>2021-08-12T11:08:52Z</time>
      </trkpt>
      <trkpt lat="46.84096" lon="5.85122">
        <ele>634</ele>
        <time>2021-08-12T11:08:57Z</time>
      </trkpt>
      <trkpt lat="46.84097" lon="5.85128">
        <ele>632.9</ele>
        <time>2021-08-12T11:09:01Z</time>
      </trkpt>
      <trkpt lat="46.84098" lon="5.85136">
        <ele>631.8</ele>
        <time>2021-08-12T11:09:06Z</time>
      </trkpt>
      <trkpt lat="46.841" lon="5.85143">
        <ele>631.8</ele>
        <time>2021-08-12T11:09:13Z</time>
      </trkpt>
      <trkpt lat="46.84101" lon="5.8515">
        <ele>633.2</ele>
        <time>2021-08-12T11:09:20Z</time>
      </trkpt>
      <trkpt lat="46.84102" lon="5.85157">
        <ele>634.4</ele>
        <time>2021-08-12T11:09:25Z</time>
      </trkpt>
      <trkpt lat="46.84105" lon="5.85164">
        <ele>635</ele>
        <time>2021-08-12T11:09:29Z</time>
      </trkpt>
      <trkpt lat="46.84105" lon="5.85172">
        <ele>635.3</ele>
        <time>2021-08-12T11:09:34Z</time>
      </trkpt>
      <trkpt lat="46.84104" lon="5.85179">
        <ele>635.1</ele>
        <time>2021-08-12T11:09:38Z</time>
      </trkpt>
      <trkpt lat="46.84103" lon="5.85186">
        <ele>635</ele>
        <time>2021-08-12T11:09:42Z</time>
      </trkpt>
      <trkpt lat="46.84101" lon="5.85192">
        <ele>635.3</ele>
        <time>2021-08-12T11:09:47Z</time>
      </trkpt>
      <trkpt lat="46.841" lon="5.85199">
        <ele>636.1</ele>
        <time>2021-08-12T11:09:53Z</time>
      </trkpt>
      <trkpt lat="46.841" lon="5.85206">
        <ele>637</ele>
        <time>2021-08-12T11:09:58Z</time>
      </trkpt>
      <trkpt lat="46.84099" lon="5.85213">
        <ele>638.2</ele>
        <time>2021-08-12T11:10:04Z</time>
      </trkpt>
      <trkpt lat="46.84098" lon="5.85221">
        <ele>638.9</ele>
        <time>2021-08-12T11:10:09Z</time>
      </trkpt>
      <trkpt lat="46.84099" lon="5.85227">
        <ele>639.3</ele>
        <time>2021-08-12T11:10:14Z</time>
      </trkpt>
      <trkpt lat="46.841" lon="5.85234">
        <ele>638.9</ele>
        <time>2021-08-12T11:10:19Z</time>
      </trkpt>
      <trkpt lat="46.84101" lon="5.85242">
        <ele>638.5</ele>
        <time>2021-08-12T11:10:24Z</time>
      </trkpt>
      <trkpt lat="46.84101" lon="5.8525">
        <ele>638.4</ele>
        <time>2021-08-12T11:10:28Z</time>
      </trkpt>
      <trkpt lat="46.84102" lon="5.85256">
        <ele>638.3</ele>
        <time>2021-08-12T11:10:32Z</time>
      </trkpt>
      <trkpt lat="46.84102" lon="5.85263">
        <ele>638.2</ele>
        <time>2021-08-12T11:10:36Z</time>
      </trkpt>
      <trkpt lat="46.84102" lon="5.85271">
        <ele>637.8</ele>
        <time>2021-08-12T11:10:41Z</time>
      </trkpt>
      <trkpt lat="46.84099" lon="5.85277">
        <ele>637.3</ele>
        <time>2021-08-12T11:10:47Z</time>
      </trkpt>
      <trkpt lat="46.84097" lon="5.85283">
        <ele>637.3</ele>
        <time>2021-08-12T11:10:54Z</time>
      </trkpt>
      <trkpt lat="46.84094" lon="5.8529">
        <ele>637.6</ele>
        <time>2021-08-12T11:10:59Z</time>
      </trkpt>
      <trkpt lat="46.84091" lon="5.85297">
        <ele>637.9</ele>
        <time>2021-08-12T11:11:04Z</time>
      </trkpt>
      <trkpt lat="46.84087" lon="5.85302">
        <ele>638.1</ele>
        <time>2021-08-12T11:11:08Z</time>
      </trkpt>
      <trkpt lat="46.84083" lon="5.85305">
        <ele>638.4</ele>
        <time>2021-08-12T11:11:11Z</time>
      </trkpt>
      <trkpt lat="46.8408" lon="5.85311">
        <ele>637.4</ele>
        <time>2021-08-12T11:11:21Z</time>
      </trkpt>
      <trkpt lat="46.84081" lon="5.85317">
        <ele>635.9</ele>
        <time>2021-08-12T11:11:26Z</time>
      </trkpt>
      <trkpt lat="46.84082" lon="5.85324">
        <ele>634.1</ele>
        <time>2021-08-12T11:11:31Z</time>
      </trkpt>
      <trkpt lat="46.84082" lon="5.85331">
        <ele>632.3</ele>
        <time>2021-08-12T11:11:39Z</time>
      </trkpt>
      <trkpt lat="46.84083" lon="5.85338">
        <ele>630.6</ele>
        <time>2021-08-12T11:11:46Z</time>
      </trkpt>
      <trkpt lat="46.84083" lon="5.85345">
        <ele>629</ele>
        <time>2021-08-12T11:11:53Z</time>
      </trkpt>
      <trkpt lat="46.84083" lon="5.85351">
        <ele>628.1</ele>
        <time>2021-08-12T11:11:58Z</time>
      </trkpt>
      <trkpt lat="46.84083" lon="5.85359">
        <ele>627.3</ele>
        <time>2021-08-12T11:12:02Z</time>
      </trkpt>
      <trkpt lat="46.84084" lon="5.85366">
        <ele>626.6</ele>
        <time>2021-08-12T11:12:05Z</time>
      </trkpt>
      <trkpt lat="46.84089" lon="5.85369">
        <ele>625.4</ele>
        <time>2021-08-12T11:12:14Z</time>
      </trkpt>
      <trkpt lat="46.84093" lon="5.85367">
        <ele>624.6</ele>
        <time>2021-08-12T11:12:18Z</time>
      </trkpt>
      <trkpt lat="46.84098" lon="5.85369">
        <ele>623.5</ele>
        <time>2021-08-12T11:12:23Z</time>
      </trkpt>
      <trkpt lat="46.84101" lon="5.85374">
        <ele>622.5</ele>
        <time>2021-08-12T11:12:27Z</time>
      </trkpt>
      <trkpt lat="46.84103" lon="5.85381">
        <ele>621.2</ele>
        <time>2021-08-12T11:12:32Z</time>
      </trkpt>
      <trkpt lat="46.84106" lon="5.85388">
        <ele>620.4</ele>
        <time>2021-08-12T11:12:36Z</time>
      </trkpt>
      <trkpt lat="46.84107" lon="5.85394">
        <ele>620</ele>
        <time>2021-08-12T11:12:41Z</time>
      </trkpt>
      <trkpt lat="46.84108" lon="5.85401">
        <ele>619.5</ele>
        <time>2021-08-12T11:12:47Z</time>
      </trkpt>
      <trkpt lat="46.8411" lon="5.85406">
        <ele>619</ele>
        <time>2021-08-12T11:12:51Z</time>
      </trkpt>
      <trkpt lat="46.84112" lon="5.85413">
        <ele>618.9</ele>
        <time>2021-08-12T11:12:56Z</time>
      </trkpt>
      <trkpt lat="46.84114" lon="5.85419">
        <ele>619.5</ele>
        <time>2021-08-12T11:13:03Z</time>
      </trkpt>
      <trkpt lat="46.84117" lon="5.85425">
        <ele>620.9</ele>
        <time>2021-08-12T11:13:10Z</time>
      </trkpt>
      <trkpt lat="46.84119" lon="5.85431">
        <ele>622.4</ele>
        <time>2021-08-12T11:13:15Z</time>
      </trkpt>
      <trkpt lat="46.84123" lon="5.85434">
        <ele>632.5</ele>
        <time>2021-08-12T11:16:01Z</time>
      </trkpt>
      <trkpt lat="46.84123" lon="5.85441">
        <ele>630.6</ele>
        <time>2021-08-12T11:16:06Z</time>
      </trkpt>
      <trkpt lat="46.84121" lon="5.85449">
        <ele>629.4</ele>
        <time>2021-08-12T11:16:11Z</time>
      </trkpt>
      <trkpt lat="46.84118" lon="5.85454">
        <ele>628.2</ele>
        <time>2021-08-12T11:16:17Z</time>
      </trkpt>
      <trkpt lat="46.84115" lon="5.85461">
        <ele>628.2</ele>
        <time>2021-08-12T11:16:22Z</time>
      </trkpt>
      <trkpt lat="46.84114" lon="5.85468">
        <ele>628.2</ele>
        <time>2021-08-12T11:16:28Z</time>
      </trkpt>
      <trkpt lat="46.84114" lon="5.85476">
        <ele>628.5</ele>
        <time>2021-08-12T11:16:34Z</time>
      </trkpt>
      <trkpt lat="46.84114" lon="5.85484">
        <ele>628.5</ele>
        <time>2021-08-12T11:16:39Z</time>
      </trkpt>
      <trkpt lat="46.84112" lon="5.8549">
        <ele>628.6</ele>
        <time>2021-08-12T11:16:44Z</time>
      </trkpt>
      <trkpt lat="46.84111" lon="5.85497">
        <ele>628.8</ele>
        <time>2021-08-12T11:16:48Z</time>
      </trkpt>
      <trkpt lat="46.84111" lon="5.85504">
        <ele>628.9</ele>
        <time>2021-08-12T11:16:53Z</time>
      </trkpt>
      <trkpt lat="46.84111" lon="5.85511">
        <ele>628.5</ele>
        <time>2021-08-12T11:16:58Z</time>
      </trkpt>
      <trkpt lat="46.8411" lon="5.85518">
        <ele>628.1</ele>
        <time>2021-08-12T11:17:03Z</time>
      </trkpt>
      <trkpt lat="46.84107" lon="5.85526">
        <ele>627.8</ele>
        <time>2021-08-12T11:17:07Z</time>
      </trkpt>
      <trkpt lat="46.84104" lon="5.85532">
        <ele>627.9</ele>
        <time>2021-08-12T11:17:11Z</time>
      </trkpt>
      <trkpt lat="46.84103" lon="5.85539">
        <ele>628.1</ele>
        <time>2021-08-12T11:17:16Z</time>
      </trkpt>
      <trkpt lat="46.84102" lon="5.85546">
        <ele>628.5</ele>
        <time>2021-08-12T11:17:21Z</time>
      </trkpt>
      <trkpt lat="46.84103" lon="5.85553">
        <ele>628.5</ele>
        <time>2021-08-12T11:17:26Z</time>
      </trkpt>
      <trkpt lat="46.84105" lon="5.8556">
        <ele>628.5</ele>
        <time>2021-08-12T11:17:33Z</time>
      </trkpt>
      <trkpt lat="46.84109" lon="5.85565">
        <ele>629.3</ele>
        <time>2021-08-12T11:17:37Z</time>
      </trkpt>
      <trkpt lat="46.84113" lon="5.85569">
        <ele>630.3</ele>
        <time>2021-08-12T11:17:41Z</time>
      </trkpt>
      <trkpt lat="46.84118" lon="5.85572">
        <ele>631.7</ele>
        <time>2021-08-12T11:17:47Z</time>
      </trkpt>
      <trkpt lat="46.84123" lon="5.85575">
        <ele>632.7</ele>
        <time>2021-08-12T11:17:52Z</time>
      </trkpt>
      <trkpt lat="46.84125" lon="5.85582">
        <ele>633.3</ele>
        <time>2021-08-12T11:17:59Z</time>
      </trkpt>
      <trkpt lat="46.84126" lon="5.85589">
        <ele>633.2</ele>
        <time>2021-08-12T11:18:04Z</time>
      </trkpt>
      <trkpt lat="46.84126" lon="5.85597">
        <ele>633.1</ele>
        <time>2021-08-12T11:18:09Z</time>
      </trkpt>
      <trkpt lat="46.84126" lon="5.85604">
        <ele>632.8</ele>
        <time>2021-08-12T11:18:14Z</time>
      </trkpt>
      <trkpt lat="46.84125" lon="5.85611">
        <ele>632.3</ele>
        <time>2021-08-12T11:18:19Z</time>
      </trkpt>
      <trkpt lat="46.84123" lon="5.85618">
        <ele>631.8</ele>
        <time>2021-08-12T11:18:24Z</time>
      </trkpt>
      <trkpt lat="46.84122" lon="5.85625">
        <ele>631.3</ele>
        <time>2021-08-12T11:18:28Z</time>
      </trkpt>
      <trkpt lat="46.84122" lon="5.85633">
        <ele>630.7</ele>
        <time>2021-08-12T11:18:33Z</time>
      </trkpt>
      <trkpt lat="46.84124" lon="5.85639">
        <ele>630.3</ele>
        <time>2021-08-12T11:18:39Z</time>
      </trkpt>
      <trkpt lat="46.84129" lon="5.85642">
        <ele>630.5</ele>
        <time>2021-08-12T11:18:46Z</time>
      </trkpt>
      <trkpt lat="46.84135" lon="5.85643">
        <ele>631.6</ele>
        <time>2021-08-12T11:18:52Z</time>
      </trkpt>
      <trkpt lat="46.8414" lon="5.85642">
        <ele>633.4</ele>
        <time>2021-08-12T11:18:57Z</time>
      </trkpt>
      <trkpt lat="46.84144" lon="5.85641">
        <ele>635.1</ele>
        <time>2021-08-12T11:19:02Z</time>
      </trkpt>
      <trkpt lat="46.84149" lon="5.85641">
        <ele>636.3</ele>
        <time>2021-08-12T11:19:06Z</time>
      </trkpt>
      <trkpt lat="46.84154" lon="5.85643">
        <ele>636.9</ele>
        <time>2021-08-12T11:19:09Z</time>
      </trkpt>
      <trkpt lat="46.84158" lon="5.85645">
        <ele>637.1</ele>
        <time>2021-08-12T11:19:12Z</time>
      </trkpt>
      <trkpt lat="46.84162" lon="5.8565">
        <ele>637.5</ele>
        <time>2021-08-12T11:19:16Z</time>
      </trkpt>
      <trkpt lat="46.84166" lon="5.85655">
        <ele>638</ele>
        <time>2021-08-12T11:19:21Z</time>
      </trkpt>
      <trkpt lat="46.84168" lon="5.85662">
        <ele>638.3</ele>
        <time>2021-08-12T11:19:26Z</time>
      </trkpt>
      <trkpt lat="46.84171" lon="5.85668">
        <ele>638.4</ele>
        <time>2021-08-12T11:19:31Z</time>
      </trkpt>
      <trkpt lat="46.84174" lon="5.85674">
        <ele>638.9</ele>
        <time>2021-08-12T11:19:36Z</time>
      </trkpt>
      <trkpt lat="46.84177" lon="5.8568">
        <ele>639.5</ele>
        <time>2021-08-12T11:19:41Z</time>
      </trkpt>
      <trkpt lat="46.84179" lon="5.85686">
        <ele>639.6</ele>
        <time>2021-08-12T11:19:46Z</time>
      </trkpt>
      <trkpt lat="46.84178" lon="5.85694">
        <ele>639.5</ele>
        <time>2021-08-12T11:19:52Z</time>
      </trkpt>
      <trkpt lat="46.84179" lon="5.85701">
        <ele>639</ele>
        <time>2021-08-12T11:19:58Z</time>
      </trkpt>
      <trkpt lat="46.8418" lon="5.85709">
        <ele>638.2</ele>
        <time>2021-08-12T11:20:03Z</time>
      </trkpt>
      <trkpt lat="46.84178" lon="5.85716">
        <ele>636.2</ele>
        <time>2021-08-12T11:20:09Z</time>
      </trkpt>
      <trkpt lat="46.84179" lon="5.85723">
        <ele>634.3</ele>
        <time>2021-08-12T11:20:16Z</time>
      </trkpt>
      <trkpt lat="46.8418" lon="5.85729">
        <ele>632.2</ele>
        <time>2021-08-12T11:20:26Z</time>
      </trkpt>
      <trkpt lat="46.84183" lon="5.85736">
        <ele>631.2</ele>
        <time>2021-08-12T11:20:31Z</time>
      </trkpt>
      <trkpt lat="46.84187" lon="5.8574">
        <ele>630.5</ele>
        <time>2021-08-12T11:20:35Z</time>
      </trkpt>
      <trkpt lat="46.84191" lon="5.85745">
        <ele>629.9</ele>
        <time>2021-08-12T11:20:39Z</time>
      </trkpt>
      <trkpt lat="46.84194" lon="5.85749">
        <ele>629.3</ele>
        <time>2021-08-12T11:20:43Z</time>
      </trkpt>
      <trkpt lat="46.84197" lon="5.85755">
        <ele>628</ele>
        <time>2021-08-12T11:20:52Z</time>
      </trkpt>
      <trkpt lat="46.84201" lon="5.8576">
        <ele>628.3</ele>
        <time>2021-08-12T11:20:58Z</time>
      </trkpt>
      <trkpt lat="46.84207" lon="5.85762">
        <ele>628.9</ele>
        <time>2021-08-12T11:21:01Z</time>
      </trkpt>
      <trkpt lat="46.84212" lon="5.85763">
        <ele>629.5</ele>
        <time>2021-08-12T11:21:04Z</time>
      </trkpt>
      <trkpt lat="46.84217" lon="5.85763">
        <ele>630.3</ele>
        <time>2021-08-12T11:21:08Z</time>
      </trkpt>
      <trkpt lat="46.84222" lon="5.85762">
        <ele>631.7</ele>
        <time>2021-08-12T11:21:14Z</time>
      </trkpt>
      <trkpt lat="46.84227" lon="5.8576">
        <ele>633</ele>
        <time>2021-08-12T11:21:21Z</time>
      </trkpt>
      <trkpt lat="46.84232" lon="5.85759">
        <ele>633.6</ele>
        <time>2021-08-12T11:21:25Z</time>
      </trkpt>
      <trkpt lat="46.84237" lon="5.85756">
        <ele>634.4</ele>
        <time>2021-08-12T11:21:30Z</time>
      </trkpt>
      <trkpt lat="46.84241" lon="5.85754">
        <ele>635.8</ele>
        <time>2021-08-12T11:21:35Z</time>
      </trkpt>
      <trkpt lat="46.84245" lon="5.85749">
        <ele>638.4</ele>
        <time>2021-08-12T11:21:43Z</time>
      </trkpt>
      <trkpt lat="46.84249" lon="5.85744">
        <ele>640.2</ele>
        <time>2021-08-12T11:21:49Z</time>
      </trkpt>
      <trkpt lat="46.84253" lon="5.8574">
        <ele>641.6</ele>
        <time>2021-08-12T11:21:54Z</time>
      </trkpt>
      <trkpt lat="46.84256" lon="5.85734">
        <ele>642.6</ele>
        <time>2021-08-12T11:21:58Z</time>
      </trkpt>
      <trkpt lat="46.8426" lon="5.85729">
        <ele>643.2</ele>
        <time>2021-08-12T11:22:02Z</time>
      </trkpt>
      <trkpt lat="46.84262" lon="5.85724">
        <ele>643.6</ele>
        <time>2021-08-12T11:22:06Z</time>
      </trkpt>
      <trkpt lat="46.84266" lon="5.85718">
        <ele>644.1</ele>
        <time>2021-08-12T11:22:13Z</time>
      </trkpt>
      <trkpt lat="46.8427" lon="5.85716">
        <ele>644</ele>
        <time>2021-08-12T11:22:19Z</time>
      </trkpt>
      <trkpt lat="46.84275" lon="5.85713">
        <ele>643.1</ele>
        <time>2021-08-12T11:22:24Z</time>
      </trkpt>
      <trkpt lat="46.8428" lon="5.8571">
        <ele>642.3</ele>
        <time>2021-08-12T11:22:28Z</time>
      </trkpt>
      <trkpt lat="46.84286" lon="5.85711">
        <ele>641.3</ele>
        <time>2021-08-12T11:22:32Z</time>
      </trkpt>
      <trkpt lat="46.84291" lon="5.85711">
        <ele>640.3</ele>
        <time>2021-08-12T11:22:37Z</time>
      </trkpt>
      <trkpt lat="46.84296" lon="5.85709">
        <ele>639.6</ele>
        <time>2021-08-12T11:22:42Z</time>
      </trkpt>
      <trkpt lat="46.84301" lon="5.85708">
        <ele>639</ele>
        <time>2021-08-12T11:22:46Z</time>
      </trkpt>
      <trkpt lat="46.84306" lon="5.85708">
        <ele>638.3</ele>
        <time>2021-08-12T11:22:50Z</time>
      </trkpt>
      <trkpt lat="46.84311" lon="5.85704">
        <ele>638.2</ele>
        <time>2021-08-12T11:22:54Z</time>
      </trkpt>
      <trkpt lat="46.84315" lon="5.857">
        <ele>638.2</ele>
        <time>2021-08-12T11:22:58Z</time>
      </trkpt>
      <trkpt lat="46.8432" lon="5.85698">
        <ele>638.1</ele>
        <time>2021-08-12T11:23:04Z</time>
      </trkpt>
      <trkpt lat="46.84324" lon="5.85694">
        <ele>638.3</ele>
        <time>2021-08-12T11:23:09Z</time>
      </trkpt>
      <trkpt lat="46.84326" lon="5.85688">
        <ele>638.7</ele>
        <time>2021-08-12T11:23:13Z</time>
      </trkpt>
      <trkpt lat="46.8433" lon="5.85682">
        <ele>638.4</ele>
        <time>2021-08-12T11:23:18Z</time>
      </trkpt>
      <trkpt lat="46.84334" lon="5.8568">
        <ele>637.7</ele>
        <time>2021-08-12T11:23:22Z</time>
      </trkpt>
      <trkpt lat="46.84339" lon="5.85677">
        <ele>636.5</ele>
        <time>2021-08-12T11:23:27Z</time>
      </trkpt>
      <trkpt lat="46.84343" lon="5.85673">
        <ele>635.2</ele>
        <time>2021-08-12T11:23:31Z</time>
      </trkpt>
      <trkpt lat="46.84347" lon="5.8567">
        <ele>634.2</ele>
        <time>2021-08-12T11:23:34Z</time>
      </trkpt>
      <trkpt lat="46.84351" lon="5.85666">
        <ele>632.9</ele>
        <time>2021-08-12T11:23:38Z</time>
      </trkpt>
      <trkpt lat="46.84354" lon="5.85661">
        <ele>631.5</ele>
        <time>2021-08-12T11:23:43Z</time>
      </trkpt>
      <trkpt lat="46.84359" lon="5.85657">
        <ele>630.3</ele>
        <time>2021-08-12T11:23:50Z</time>
      </trkpt>
      <trkpt lat="46.84363" lon="5.85659">
        <ele>630</ele>
        <time>2021-08-12T11:23:55Z</time>
      </trkpt>
      <trkpt lat="46.84368" lon="5.85663">
        <ele>630.3</ele>
        <time>2021-08-12T11:24:02Z</time>
      </trkpt>
      <trkpt lat="46.84372" lon="5.85667">
        <ele>630.8</ele>
        <time>2021-08-12T11:24:08Z</time>
      </trkpt>
      <trkpt lat="46.84377" lon="5.85668">
        <ele>631.7</ele>
        <time>2021-08-12T11:24:20Z</time>
      </trkpt>
      <trkpt lat="46.84381" lon="5.85671">
        <ele>631.6</ele>
        <time>2021-08-12T11:24:25Z</time>
      </trkpt>
      <trkpt lat="46.84384" lon="5.85675">
        <ele>631.5</ele>
        <time>2021-08-12T11:24:33Z</time>
      </trkpt>
      <trkpt lat="46.8439" lon="5.85683">
        <ele>632.7</ele>
        <time>2021-08-12T11:24:46Z</time>
      </trkpt>
      <trkpt lat="46.84395" lon="5.85688">
        <ele>633.2</ele>
        <time>2021-08-12T11:24:49Z</time>
      </trkpt>
      <trkpt lat="46.84399" lon="5.85693">
        <ele>633.9</ele>
        <time>2021-08-12T11:24:53Z</time>
      </trkpt>
      <trkpt lat="46.84403" lon="5.85698">
        <ele>634</ele>
        <time>2021-08-12T11:24:57Z</time>
      </trkpt>
      <trkpt lat="46.84405" lon="5.85704">
        <ele>633.7</ele>
        <time>2021-08-12T11:25:00Z</time>
      </trkpt>
      <trkpt lat="46.84403" lon="5.85711">
        <ele>633.4</ele>
        <time>2021-08-12T11:25:09Z</time>
      </trkpt>
      <trkpt lat="46.84407" lon="5.85715">
        <ele>633</ele>
        <time>2021-08-12T11:25:15Z</time>
      </trkpt>
      <trkpt lat="46.84412" lon="5.8572">
        <ele>632.9</ele>
        <time>2021-08-12T11:25:18Z</time>
      </trkpt>
      <trkpt lat="46.84415" lon="5.85724">
        <ele>633.2</ele>
        <time>2021-08-12T11:25:21Z</time>
      </trkpt>
      <trkpt lat="46.84418" lon="5.85731">
        <ele>634.2</ele>
        <time>2021-08-12T11:25:25Z</time>
      </trkpt>
      <trkpt lat="46.84421" lon="5.85737">
        <ele>635.4</ele>
        <time>2021-08-12T11:25:29Z</time>
      </trkpt>
      <trkpt lat="46.84421" lon="5.85744">
        <ele>636.5</ele>
        <time>2021-08-12T11:25:34Z</time>
      </trkpt>
      <trkpt lat="46.84419" lon="5.85751">
        <ele>637.1</ele>
        <time>2021-08-12T11:25:39Z</time>
      </trkpt>
      <trkpt lat="46.84416" lon="5.85757">
        <ele>637.9</ele>
        <time>2021-08-12T11:25:45Z</time>
      </trkpt>
      <trkpt lat="46.84414" lon="5.85763">
        <ele>638.4</ele>
        <time>2021-08-12T11:25:50Z</time>
      </trkpt>
      <trkpt lat="46.84414" lon="5.85771">
        <ele>638.3</ele>
        <time>2021-08-12T11:25:55Z</time>
      </trkpt>
      <trkpt lat="46.84413" lon="5.85779">
        <ele>637.7</ele>
        <time>2021-08-12T11:26:00Z</time>
      </trkpt>
      <trkpt lat="46.84413" lon="5.85785">
        <ele>637.3</ele>
        <time>2021-08-12T11:26:04Z</time>
      </trkpt>
      <trkpt lat="46.84412" lon="5.85792">
        <ele>636.8</ele>
        <time>2021-08-12T11:26:08Z</time>
      </trkpt>
      <trkpt lat="46.84409" lon="5.85799">
        <ele>636.2</ele>
        <time>2021-08-12T11:26:13Z</time>
      </trkpt>
      <trkpt lat="46.84407" lon="5.85806">
        <ele>636.6</ele>
        <time>2021-08-12T11:26:21Z</time>
      </trkpt>
      <trkpt lat="46.84406" lon="5.85813">
        <ele>636.9</ele>
        <time>2021-08-12T11:26:26Z</time>
      </trkpt>
      <trkpt lat="46.84404" lon="5.85819">
        <ele>636.3</ele>
        <time>2021-08-12T11:26:32Z</time>
      </trkpt>
      <trkpt lat="46.84403" lon="5.85826">
        <ele>635.2</ele>
        <time>2021-08-12T11:26:38Z</time>
      </trkpt>
      <trkpt lat="46.84401" lon="5.85835">
        <ele>635.9</ele>
        <time>2021-08-12T11:26:57Z</time>
      </trkpt>
      <trkpt lat="46.84401" lon="5.85842">
        <ele>636.3</ele>
        <time>2021-08-12T11:27:01Z</time>
      </trkpt>
      <trkpt lat="46.84399" lon="5.8585">
        <ele>636.3</ele>
        <time>2021-08-12T11:27:05Z</time>
      </trkpt>
      <trkpt lat="46.84398" lon="5.85857">
        <ele>636.3</ele>
        <time>2021-08-12T11:27:09Z</time>
      </trkpt>
      <trkpt lat="46.84396" lon="5.85863">
        <ele>635.3</ele>
        <time>2021-08-12T11:27:14Z</time>
      </trkpt>
      <trkpt lat="46.84399" lon="5.8587">
        <ele>633.6</ele>
        <time>2021-08-12T11:27:20Z</time>
      </trkpt>
      <trkpt lat="46.84402" lon="5.85875">
        <ele>631.6</ele>
        <time>2021-08-12T11:27:26Z</time>
      </trkpt>
      <trkpt lat="46.84405" lon="5.85881">
        <ele>630.3</ele>
        <time>2021-08-12T11:27:30Z</time>
      </trkpt>
      <trkpt lat="46.84408" lon="5.85887">
        <ele>628.9</ele>
        <time>2021-08-12T11:27:35Z</time>
      </trkpt>
      <trkpt lat="46.84411" lon="5.85892">
        <ele>627.9</ele>
        <time>2021-08-12T11:27:41Z</time>
      </trkpt>
      <trkpt lat="46.84414" lon="5.85898">
        <ele>627.1</ele>
        <time>2021-08-12T11:27:49Z</time>
      </trkpt>
      <trkpt lat="46.84418" lon="5.85902">
        <ele>627.4</ele>
        <time>2021-08-12T11:27:56Z</time>
      </trkpt>
      <trkpt lat="46.84423" lon="5.85908">
        <ele>627.7</ele>
        <time>2021-08-12T11:27:59Z</time>
      </trkpt>
      <trkpt lat="46.84426" lon="5.85913">
        <ele>628.3</ele>
        <time>2021-08-12T11:28:02Z</time>
      </trkpt>
      <trkpt lat="46.8443" lon="5.85918">
        <ele>629.2</ele>
        <time>2021-08-12T11:28:06Z</time>
      </trkpt>
      <trkpt lat="46.84433" lon="5.85924">
        <ele>631</ele>
        <time>2021-08-12T11:28:12Z</time>
      </trkpt>
      <trkpt lat="46.84437" lon="5.85927">
        <ele>632.3</ele>
        <time>2021-08-12T11:28:17Z</time>
      </trkpt>
      <trkpt lat="46.8444" lon="5.85933">
        <ele>633.3</ele>
        <time>2021-08-12T11:28:26Z</time>
      </trkpt>
      <trkpt lat="46.84445" lon="5.85934">
        <ele>633.3</ele>
        <time>2021-08-12T11:28:34Z</time>
      </trkpt>
      <trkpt lat="46.8445" lon="5.85934">
        <ele>633.6</ele>
        <time>2021-08-12T11:28:37Z</time>
      </trkpt>
      <trkpt lat="46.84456" lon="5.85935">
        <ele>634.2</ele>
        <time>2021-08-12T11:28:41Z</time>
      </trkpt>
      <trkpt lat="46.8446" lon="5.85937">
        <ele>634.5</ele>
        <time>2021-08-12T11:28:45Z</time>
      </trkpt>
      <trkpt lat="46.84465" lon="5.85939">
        <ele>634.5</ele>
        <time>2021-08-12T11:28:50Z</time>
      </trkpt>
      <trkpt lat="46.8447" lon="5.85942">
        <ele>634.1</ele>
        <time>2021-08-12T11:28:56Z</time>
      </trkpt>
      <trkpt lat="46.84474" lon="5.85945">
        <ele>634.4</ele>
        <time>2021-08-12T11:29:00Z</time>
      </trkpt>
      <trkpt lat="46.84476" lon="5.85951">
        <ele>635.2</ele>
        <time>2021-08-12T11:29:07Z</time>
      </trkpt>
      <trkpt lat="46.84479" lon="5.85957">
        <ele>634.7</ele>
        <time>2021-08-12T11:29:15Z</time>
      </trkpt>
      <trkpt lat="46.84481" lon="5.85964">
        <ele>634</ele>
        <time>2021-08-12T11:29:20Z</time>
      </trkpt>
      <trkpt lat="46.84485" lon="5.85969">
        <ele>633.4</ele>
        <time>2021-08-12T11:29:24Z</time>
      </trkpt>
      <trkpt lat="46.84489" lon="5.85974">
        <ele>632.7</ele>
        <time>2021-08-12T11:29:29Z</time>
      </trkpt>
      <trkpt lat="46.84492" lon="5.85979">
        <ele>631.6</ele>
        <time>2021-08-12T11:29:36Z</time>
      </trkpt>
      <trkpt lat="46.84493" lon="5.85987">
        <ele>631.1</ele>
        <time>2021-08-12T11:29:44Z</time>
      </trkpt>
      <trkpt lat="46.84494" lon="5.85995">
        <ele>631.1</ele>
        <time>2021-08-12T11:29:49Z</time>
      </trkpt>
      <trkpt lat="46.84492" lon="5.86002">
        <ele>630.6</ele>
        <time>2021-08-12T11:29:53Z</time>
      </trkpt>
      <trkpt lat="46.84491" lon="5.86009">
        <ele>630.1</ele>
        <time>2021-08-12T11:29:58Z</time>
      </trkpt>
      <trkpt lat="46.84489" lon="5.86015">
        <ele>630</ele>
        <time>2021-08-12T11:30:05Z</time>
      </trkpt>
      <trkpt lat="46.84485" lon="5.86019">
        <ele>630.2</ele>
        <time>2021-08-12T11:30:09Z</time>
      </trkpt>
      <trkpt lat="46.84484" lon="5.86026">
        <ele>630.5</ele>
        <time>2021-08-12T11:30:14Z</time>
      </trkpt>
      <trkpt lat="46.84481" lon="5.86032">
        <ele>631.8</ele>
        <time>2021-08-12T11:30:20Z</time>
      </trkpt>
      <trkpt lat="46.84477" lon="5.86036">
        <ele>632.9</ele>
        <time>2021-08-12T11:30:26Z</time>
      </trkpt>
      <trkpt lat="46.84473" lon="5.8604">
        <ele>633.6</ele>
        <time>2021-08-12T11:30:31Z</time>
      </trkpt>
      <trkpt lat="46.84473" lon="5.86048">
        <ele>634.5</ele>
        <time>2021-08-12T11:30:38Z</time>
      </trkpt>
      <trkpt lat="46.84472" lon="5.86055">
        <ele>634.4</ele>
        <time>2021-08-12T11:30:44Z</time>
      </trkpt>
      <trkpt lat="46.84471" lon="5.86062">
        <ele>634.1</ele>
        <time>2021-08-12T11:30:49Z</time>
      </trkpt>
      <trkpt lat="46.8447" lon="5.86069">
        <ele>633.7</ele>
        <time>2021-08-12T11:30:54Z</time>
      </trkpt>
      <trkpt lat="46.8447" lon="5.86076">
        <ele>633.8</ele>
        <time>2021-08-12T11:31:01Z</time>
      </trkpt>
      <trkpt lat="46.84472" lon="5.86083">
        <ele>634.5</ele>
        <time>2021-08-12T11:31:07Z</time>
      </trkpt>
      <trkpt lat="46.84472" lon="5.86091">
        <ele>634.6</ele>
        <time>2021-08-12T11:31:12Z</time>
      </trkpt>
      <trkpt lat="46.84472" lon="5.86098">
        <ele>635.1</ele>
        <time>2021-08-12T11:31:17Z</time>
      </trkpt>
      <trkpt lat="46.84471" lon="5.86106">
        <ele>636</ele>
        <time>2021-08-12T11:31:22Z</time>
      </trkpt>
      <trkpt lat="46.84469" lon="5.86112">
        <ele>637.1</ele>
        <time>2021-08-12T11:31:27Z</time>
      </trkpt>
      <trkpt lat="46.8447" lon="5.8612">
        <ele>638.2</ele>
        <time>2021-08-12T11:31:32Z</time>
      </trkpt>
      <trkpt lat="46.8447" lon="5.86126">
        <ele>639</ele>
        <time>2021-08-12T11:31:39Z</time>
      </trkpt>
      <trkpt lat="46.8447" lon="5.86133">
        <ele>639.8</ele>
        <time>2021-08-12T11:31:45Z</time>
      </trkpt>
      <trkpt lat="46.84472" lon="5.8614">
        <ele>640.7</ele>
        <time>2021-08-12T11:31:50Z</time>
      </trkpt>
      <trkpt lat="46.84473" lon="5.86147">
        <ele>641.9</ele>
        <time>2021-08-12T11:31:55Z</time>
      </trkpt>
      <trkpt lat="46.84472" lon="5.86154">
        <ele>642.8</ele>
        <time>2021-08-12T11:31:59Z</time>
      </trkpt>
      <trkpt lat="46.84472" lon="5.86162">
        <ele>643.6</ele>
        <time>2021-08-12T11:32:04Z</time>
      </trkpt>
      <trkpt lat="46.84472" lon="5.86169">
        <ele>644.1</ele>
        <time>2021-08-12T11:32:11Z</time>
      </trkpt>
      <trkpt lat="46.84472" lon="5.86176">
        <ele>643.9</ele>
        <time>2021-08-12T11:32:16Z</time>
      </trkpt>
      <trkpt lat="46.84472" lon="5.86184">
        <ele>643.1</ele>
        <time>2021-08-12T11:32:21Z</time>
      </trkpt>
      <trkpt lat="46.84471" lon="5.86192">
        <ele>642.6</ele>
        <time>2021-08-12T11:32:25Z</time>
      </trkpt>
      <trkpt lat="46.8447" lon="5.86198">
        <ele>642.4</ele>
        <time>2021-08-12T11:32:30Z</time>
      </trkpt>
      <trkpt lat="46.84471" lon="5.86205">
        <ele>643.3</ele>
        <time>2021-08-12T11:32:39Z</time>
      </trkpt>
      <trkpt lat="46.84473" lon="5.86211">
        <ele>644</ele>
        <time>2021-08-12T11:32:44Z</time>
      </trkpt>
      <trkpt lat="46.84472" lon="5.86218">
        <ele>644.3</ele>
        <time>2021-08-12T11:32:48Z</time>
      </trkpt>
      <trkpt lat="46.84471" lon="5.86225">
        <ele>644.8</ele>
        <time>2021-08-12T11:32:55Z</time>
      </trkpt>
      <trkpt lat="46.84471" lon="5.86232">
        <ele>644.8</ele>
        <time>2021-08-12T11:33:02Z</time>
      </trkpt>
      <trkpt lat="46.84471" lon="5.86239">
        <ele>644.6</ele>
        <time>2021-08-12T11:33:06Z</time>
      </trkpt>
      <trkpt lat="46.84472" lon="5.86246">
        <ele>644.3</ele>
        <time>2021-08-12T11:33:10Z</time>
      </trkpt>
      <trkpt lat="46.84475" lon="5.86252">
        <ele>643.6</ele>
        <time>2021-08-12T11:33:16Z</time>
      </trkpt>
      <trkpt lat="46.84478" lon="5.86257">
        <ele>643</ele>
        <time>2021-08-12T11:33:27Z</time>
      </trkpt>
      <trkpt lat="46.84478" lon="5.86265">
        <ele>644</ele>
        <time>2021-08-12T11:33:33Z</time>
      </trkpt>
      <trkpt lat="46.84477" lon="5.86273">
        <ele>645</ele>
        <time>2021-08-12T11:33:37Z</time>
      </trkpt>
      <trkpt lat="46.84475" lon="5.8628">
        <ele>646.1</ele>
        <time>2021-08-12T11:33:42Z</time>
      </trkpt>
      <trkpt lat="46.84475" lon="5.86287">
        <ele>647.6</ele>
        <time>2021-08-12T11:33:48Z</time>
      </trkpt>
      <trkpt lat="46.84478" lon="5.86293">
        <ele>649.2</ele>
        <time>2021-08-12T11:33:55Z</time>
      </trkpt>
      <trkpt lat="46.84477" lon="5.863">
        <ele>649.7</ele>
        <time>2021-08-12T11:34:00Z</time>
      </trkpt>
      <trkpt lat="46.84475" lon="5.86306">
        <ele>649.3</ele>
        <time>2021-08-12T11:34:12Z</time>
      </trkpt>
      <trkpt lat="46.84475" lon="5.86312">
        <ele>649.5</ele>
        <time>2021-08-12T11:34:18Z</time>
      </trkpt>
      <trkpt lat="46.84474" lon="5.86319">
        <ele>649.6</ele>
        <time>2021-08-12T11:34:21Z</time>
      </trkpt>
      <trkpt lat="46.84472" lon="5.86327">
        <ele>650</ele>
        <time>2021-08-12T11:34:25Z</time>
      </trkpt>
      <trkpt lat="46.84472" lon="5.86334">
        <ele>650.7</ele>
        <time>2021-08-12T11:34:31Z</time>
      </trkpt>
      <trkpt lat="46.84472" lon="5.8634">
        <ele>651.3</ele>
        <time>2021-08-12T11:34:38Z</time>
      </trkpt>
      <trkpt lat="46.8447" lon="5.86347">
        <ele>658.2</ele>
        <time>2021-08-12T11:37:14Z</time>
      </trkpt>
      <trkpt lat="46.84465" lon="5.86353">
        <ele>663.2</ele>
        <time>2021-08-12T11:39:09Z</time>
      </trkpt>
      <trkpt lat="46.84461" lon="5.86352">
        <ele>663</ele>
        <time>2021-08-12T11:39:16Z</time>
      </trkpt>
      <trkpt lat="46.84464" lon="5.86356">
        <ele>662.3</ele>
        <time>2021-08-12T11:39:29Z</time>
      </trkpt>
      <trkpt lat="46.84468" lon="5.86361">
        <ele>661.1</ele>
        <time>2021-08-12T11:39:34Z</time>
      </trkpt>
      <trkpt lat="46.84471" lon="5.86367">
        <ele>659.9</ele>
        <time>2021-08-12T11:39:39Z</time>
      </trkpt>
      <trkpt lat="46.84474" lon="5.86372">
        <ele>658.7</ele>
        <time>2021-08-12T11:39:47Z</time>
      </trkpt>
      <trkpt lat="46.84476" lon="5.86378">
        <ele>657.4</ele>
        <time>2021-08-12T11:39:53Z</time>
      </trkpt>
      <trkpt lat="46.84477" lon="5.86386">
        <ele>656.4</ele>
        <time>2021-08-12T11:39:59Z</time>
      </trkpt>
      <trkpt lat="46.84478" lon="5.86393">
        <ele>656</ele>
        <time>2021-08-12T11:40:05Z</time>
      </trkpt>
      <trkpt lat="46.84478" lon="5.864">
        <ele>656.1</ele>
        <time>2021-08-12T11:40:09Z</time>
      </trkpt>
      <trkpt lat="46.84478" lon="5.86406">
        <ele>656.3</ele>
        <time>2021-08-12T11:40:13Z</time>
      </trkpt>
      <trkpt lat="46.84477" lon="5.86413">
        <ele>656.8</ele>
        <time>2021-08-12T11:40:18Z</time>
      </trkpt>
      <trkpt lat="46.84479" lon="5.86421">
        <ele>657.6</ele>
        <time>2021-08-12T11:40:25Z</time>
      </trkpt>
      <trkpt lat="46.8448" lon="5.86428">
        <ele>657.8</ele>
        <time>2021-08-12T11:40:31Z</time>
      </trkpt>
      <trkpt lat="46.84481" lon="5.86435">
        <ele>657.3</ele>
        <time>2021-08-12T11:40:38Z</time>
      </trkpt>
      <trkpt lat="46.8448" lon="5.86441">
        <ele>657</ele>
        <time>2021-08-12T11:40:45Z</time>
      </trkpt>
      <trkpt lat="46.84481" lon="5.86448">
        <ele>657.2</ele>
        <time>2021-08-12T11:40:49Z</time>
      </trkpt>
      <trkpt lat="46.8448" lon="5.86455">
        <ele>657.8</ele>
        <time>2021-08-12T11:40:52Z</time>
      </trkpt>
      <trkpt lat="46.8448" lon="5.86462">
        <ele>658.5</ele>
        <time>2021-08-12T11:40:55Z</time>
      </trkpt>
      <trkpt lat="46.84479" lon="5.86469">
        <ele>659.6</ele>
        <time>2021-08-12T11:40:58Z</time>
      </trkpt>
      <trkpt lat="46.8448" lon="5.86476">
        <ele>661.5</ele>
        <time>2021-08-12T11:41:03Z</time>
      </trkpt>
      <trkpt lat="46.8448" lon="5.86484">
        <ele>663.2</ele>
        <time>2021-08-12T11:41:10Z</time>
      </trkpt>
      <trkpt lat="46.84478" lon="5.86492">
        <ele>664.2</ele>
        <time>2021-08-12T11:41:14Z</time>
      </trkpt>
      <trkpt lat="46.84476" lon="5.86499">
        <ele>665.7</ele>
        <time>2021-08-12T11:41:18Z</time>
      </trkpt>
      <trkpt lat="46.84473" lon="5.86505">
        <ele>667.9</ele>
        <time>2021-08-12T11:41:24Z</time>
      </trkpt>
      <trkpt lat="46.8447" lon="5.86511">
        <ele>669.8</ele>
        <time>2021-08-12T11:41:34Z</time>
      </trkpt>
      <trkpt lat="46.84464" lon="5.86512">
        <ele>669.3</ele>
        <time>2021-08-12T11:41:44Z</time>
      </trkpt>
      <trkpt lat="46.8446" lon="5.86511">
        <ele>669</ele>
        <time>2021-08-12T11:41:49Z</time>
      </trkpt>
      <trkpt lat="46.84454" lon="5.8651">
        <ele>668.4</ele>
        <time>2021-08-12T11:41:56Z</time>
      </trkpt>
      <trkpt lat="46.8445" lon="5.8651">
        <ele>667.8</ele>
        <time>2021-08-12T11:42:01Z</time>
      </trkpt>
      <trkpt lat="46.84445" lon="5.86509">
        <ele>667.3</ele>
        <time>2021-08-12T11:42:06Z</time>
      </trkpt>
      <trkpt lat="46.8444" lon="5.86509">
        <ele>666.9</ele>
        <time>2021-08-12T11:42:11Z</time>
      </trkpt>
      <trkpt lat="46.84435" lon="5.8651">
        <ele>666.6</ele>
        <time>2021-08-12T11:42:16Z</time>
      </trkpt>
      <trkpt lat="46.8443" lon="5.86511">
        <ele>666.1</ele>
        <time>2021-08-12T11:42:21Z</time>
      </trkpt>
      <trkpt lat="46.84425" lon="5.86513">
        <ele>666.3</ele>
        <time>2021-08-12T11:42:26Z</time>
      </trkpt>
      <trkpt lat="46.84421" lon="5.86515">
        <ele>666.5</ele>
        <time>2021-08-12T11:42:30Z</time>
      </trkpt>
      <trkpt lat="46.84416" lon="5.86518">
        <ele>666.6</ele>
        <time>2021-08-12T11:42:34Z</time>
      </trkpt>
      <trkpt lat="46.84412" lon="5.86521">
        <ele>666.9</ele>
        <time>2021-08-12T11:42:38Z</time>
      </trkpt>
      <trkpt lat="46.84407" lon="5.86522">
        <ele>667.3</ele>
        <time>2021-08-12T11:42:46Z</time>
      </trkpt>
      <trkpt lat="46.84404" lon="5.86528">
        <ele>668</ele>
        <time>2021-08-12T11:42:53Z</time>
      </trkpt>
      <trkpt lat="46.84402" lon="5.86534">
        <ele>668.4</ele>
        <time>2021-08-12T11:42:57Z</time>
      </trkpt>
      <trkpt lat="46.84397" lon="5.86537">
        <ele>669</ele>
        <time>2021-08-12T11:43:02Z</time>
      </trkpt>
      <trkpt lat="46.84392" lon="5.86535">
        <ele>669.5</ele>
        <time>2021-08-12T11:43:06Z</time>
      </trkpt>
      <trkpt lat="46.84387" lon="5.86531">
        <ele>670.4</ele>
        <time>2021-08-12T11:43:11Z</time>
      </trkpt>
      <trkpt lat="46.84393" lon="5.86533">
        <ele>671.2</ele>
        <time>2021-08-12T11:44:15Z</time>
      </trkpt>
      <trkpt lat="46.84393" lon="5.86526">
        <ele>673.1</ele>
        <time>2021-08-12T11:44:36Z</time>
      </trkpt>
      <trkpt lat="46.84393" lon="5.86533">
        <ele>675.2</ele>
        <time>2021-08-12T11:44:48Z</time>
      </trkpt>
      <trkpt lat="46.84387" lon="5.86535">
        <ele>677.3</ele>
        <time>2021-08-12T11:45:25Z</time>
      </trkpt>
      <trkpt lat="46.84384" lon="5.86541">
        <ele>682.3</ele>
        <time>2021-08-12T11:45:44Z</time>
      </trkpt>
      <trkpt lat="46.84381" lon="5.86547">
        <ele>683.1</ele>
        <time>2021-08-12T11:45:49Z</time>
      </trkpt>
      <trkpt lat="46.8438" lon="5.86554">
        <ele>683.1</ele>
        <time>2021-08-12T11:45:58Z</time>
      </trkpt>
      <trkpt lat="46.8438" lon="5.86546">
        <ele>683</ele>
        <time>2021-08-12T11:46:12Z</time>
      </trkpt>
      <trkpt lat="46.84383" lon="5.86538">
        <ele>681.7</ele>
        <time>2021-08-12T11:46:15Z</time>
      </trkpt>
      <trkpt lat="46.84386" lon="5.86532">
        <ele>680.6</ele>
        <time>2021-08-12T11:46:19Z</time>
      </trkpt>
      <trkpt lat="46.84391" lon="5.86528">
        <ele>680.6</ele>
        <time>2021-08-12T11:46:23Z</time>
      </trkpt>
      <trkpt lat="46.84396" lon="5.86529">
        <ele>680.4</ele>
        <time>2021-08-12T11:46:29Z</time>
      </trkpt>
      <trkpt lat="46.84401" lon="5.86531">
        <ele>680.3</ele>
        <time>2021-08-12T11:46:35Z</time>
      </trkpt>
      <trkpt lat="46.84406" lon="5.8653">
        <ele>680.3</ele>
        <time>2021-08-12T11:46:40Z</time>
      </trkpt>
      <trkpt lat="46.84411" lon="5.86533">
        <ele>680.1</ele>
        <time>2021-08-12T11:46:44Z</time>
      </trkpt>
      <trkpt lat="46.84413" lon="5.8654">
        <ele>679.4</ele>
        <time>2021-08-12T11:46:50Z</time>
      </trkpt>
      <trkpt lat="46.84414" lon="5.86547">
        <ele>678.1</ele>
        <time>2021-08-12T11:46:57Z</time>
      </trkpt>
      <trkpt lat="46.84417" lon="5.86551">
        <ele>676.8</ele>
        <time>2021-08-12T11:47:02Z</time>
      </trkpt>
      <trkpt lat="46.84421" lon="5.86556">
        <ele>675.7</ele>
        <time>2021-08-12T11:47:07Z</time>
      </trkpt>
      <trkpt lat="46.84424" lon="5.86561">
        <ele>675</ele>
        <time>2021-08-12T11:47:11Z</time>
      </trkpt>
      <trkpt lat="46.84427" lon="5.86566">
        <ele>674.9</ele>
        <time>2021-08-12T11:47:14Z</time>
      </trkpt>
      <trkpt lat="46.84429" lon="5.86573">
        <ele>675.1</ele>
        <time>2021-08-12T11:47:18Z</time>
      </trkpt>
      <trkpt lat="46.84428" lon="5.86579">
        <ele>675.1</ele>
        <time>2021-08-12T11:47:23Z</time>
      </trkpt>
      <trkpt lat="46.84423" lon="5.86582">
        <ele>674.7</ele>
        <time>2021-08-12T11:47:29Z</time>
      </trkpt>
      <trkpt lat="46.84419" lon="5.86584">
        <ele>673.8</ele>
        <time>2021-08-12T11:47:34Z</time>
      </trkpt>
      <trkpt lat="46.84415" lon="5.86587">
        <ele>672.9</ele>
        <time>2021-08-12T11:47:38Z</time>
      </trkpt>
      <trkpt lat="46.8441" lon="5.8659">
        <ele>671.8</ele>
        <time>2021-08-12T11:47:43Z</time>
      </trkpt>
      <trkpt lat="46.84407" lon="5.86595">
        <ele>670.9</ele>
        <time>2021-08-12T11:47:47Z</time>
      </trkpt>
      <trkpt lat="46.84406" lon="5.86602">
        <ele>669.7</ele>
        <time>2021-08-12T11:47:53Z</time>
      </trkpt>
      <trkpt lat="46.84404" lon="5.86608">
        <ele>669.7</ele>
        <time>2021-08-12T11:47:58Z</time>
      </trkpt>
      <trkpt lat="46.84408" lon="5.86606">
        <ele>673.1</ele>
        <time>2021-08-12T11:48:51Z</time>
      </trkpt>
      <trkpt lat="46.84405" lon="5.86611">
        <ele>672.8</ele>
        <time>2021-08-12T11:49:14Z</time>
      </trkpt>
      <trkpt lat="46.8441" lon="5.86611">
        <ele>672.2</ele>
        <time>2021-08-12T11:49:21Z</time>
      </trkpt>
      <trkpt lat="46.84407" lon="5.8662">
        <ele>675.2</ele>
        <time>2021-08-12T11:49:46Z</time>
      </trkpt>
      <trkpt lat="46.84409" lon="5.86613">
        <ele>677.2</ele>
        <time>2021-08-12T11:50:16Z</time>
      </trkpt>
      <trkpt lat="46.84404" lon="5.86611">
        <ele>679.6</ele>
        <time>2021-08-12T11:50:34Z</time>
      </trkpt>
      <trkpt lat="46.84404" lon="5.86618">
        <ele>677.8</ele>
        <time>2021-08-12T11:51:02Z</time>
      </trkpt>
      <trkpt lat="46.844" lon="5.86619">
        <ele>679.6</ele>
        <time>2021-08-12T11:51:20Z</time>
      </trkpt>
      <trkpt lat="46.84402" lon="5.86613">
        <ele>680</ele>
        <time>2021-08-12T11:51:34Z</time>
      </trkpt>
      <trkpt lat="46.84407" lon="5.86614">
        <ele>681.4</ele>
        <time>2021-08-12T11:51:44Z</time>
      </trkpt>
      <trkpt lat="46.84412" lon="5.86616">
        <ele>681.5</ele>
        <time>2021-08-12T11:51:58Z</time>
      </trkpt>
      <trkpt lat="46.84406" lon="5.8662">
        <ele>682.1</ele>
        <time>2021-08-12T11:52:11Z</time>
      </trkpt>
      <trkpt lat="46.84402" lon="5.86624">
        <ele>681.8</ele>
        <time>2021-08-12T11:52:14Z</time>
      </trkpt>
      <trkpt lat="46.84397" lon="5.86627">
        <ele>678.8</ele>
        <time>2021-08-12T11:52:25Z</time>
      </trkpt>
      <trkpt lat="46.84394" lon="5.86632">
        <ele>674.8</ele>
        <time>2021-08-12T11:52:33Z</time>
      </trkpt>
      <trkpt lat="46.84394" lon="5.86638">
        <ele>672.5</ele>
        <time>2021-08-12T11:52:41Z</time>
      </trkpt>
      <trkpt lat="46.84391" lon="5.86644">
        <ele>671.4</ele>
        <time>2021-08-12T11:52:49Z</time>
      </trkpt>
      <trkpt lat="46.84387" lon="5.86649">
        <ele>671.5</ele>
        <time>2021-08-12T11:52:54Z</time>
      </trkpt>
      <trkpt lat="46.84384" lon="5.86654">
        <ele>671.6</ele>
        <time>2021-08-12T11:53:01Z</time>
      </trkpt>
      <trkpt lat="46.8438" lon="5.8666">
        <ele>672.7</ele>
        <time>2021-08-12T11:53:08Z</time>
      </trkpt>
      <trkpt lat="46.84376" lon="5.86665">
        <ele>673.7</ele>
        <time>2021-08-12T11:53:12Z</time>
      </trkpt>
      <trkpt lat="46.84372" lon="5.86668">
        <ele>674.6</ele>
        <time>2021-08-12T11:53:15Z</time>
      </trkpt>
      <trkpt lat="46.84368" lon="5.86671">
        <ele>675.8</ele>
        <time>2021-08-12T11:53:19Z</time>
      </trkpt>
      <trkpt lat="46.84364" lon="5.86673">
        <ele>677.7</ele>
        <time>2021-08-12T11:53:27Z</time>
      </trkpt>
      <trkpt lat="46.8436" lon="5.86677">
        <ele>679.6</ele>
        <time>2021-08-12T11:53:34Z</time>
      </trkpt>
      <trkpt lat="46.84356" lon="5.86684">
        <ele>680.6</ele>
        <time>2021-08-12T11:53:38Z</time>
      </trkpt>
      <trkpt lat="46.84353" lon="5.86689">
        <ele>681.1</ele>
        <time>2021-08-12T11:53:41Z</time>
      </trkpt>
      <trkpt lat="46.84349" lon="5.86695">
        <ele>681.3</ele>
        <time>2021-08-12T11:53:46Z</time>
      </trkpt>
      <trkpt lat="46.84349" lon="5.86702">
        <ele>681.2</ele>
        <time>2021-08-12T11:53:52Z</time>
      </trkpt>
      <trkpt lat="46.84349" lon="5.86709">
        <ele>681.3</ele>
        <time>2021-08-12T11:53:56Z</time>
      </trkpt>
      <trkpt lat="46.84352" lon="5.86715">
        <ele>681.5</ele>
        <time>2021-08-12T11:54:00Z</time>
      </trkpt>
      <trkpt lat="46.84356" lon="5.86719">
        <ele>681.8</ele>
        <time>2021-08-12T11:54:05Z</time>
      </trkpt>
      <trkpt lat="46.84359" lon="5.86724">
        <ele>682.2</ele>
        <time>2021-08-12T11:54:10Z</time>
      </trkpt>
      <trkpt lat="46.84359" lon="5.86732">
        <ele>682.9</ele>
        <time>2021-08-12T11:54:17Z</time>
      </trkpt>
      <trkpt lat="46.84357" lon="5.8674">
        <ele>683.5</ele>
        <time>2021-08-12T11:54:22Z</time>
      </trkpt>
      <trkpt lat="46.84355" lon="5.86748">
        <ele>684</ele>
        <time>2021-08-12T11:54:26Z</time>
      </trkpt>
      <trkpt lat="46.84353" lon="5.86755">
        <ele>684.4</ele>
        <time>2021-08-12T11:54:30Z</time>
      </trkpt>
      <trkpt lat="46.84352" lon="5.86761">
        <ele>684.6</ele>
        <time>2021-08-12T11:54:35Z</time>
      </trkpt>
      <trkpt lat="46.84352" lon="5.86769">
        <ele>684.5</ele>
        <time>2021-08-12T11:54:41Z</time>
      </trkpt>
      <trkpt lat="46.84349" lon="5.86776">
        <ele>684.2</ele>
        <time>2021-08-12T11:54:47Z</time>
      </trkpt>
      <trkpt lat="46.84344" lon="5.86777">
        <ele>684.2</ele>
        <time>2021-08-12T11:54:53Z</time>
      </trkpt>
      <trkpt lat="46.84339" lon="5.86779">
        <ele>684.5</ele>
        <time>2021-08-12T11:54:58Z</time>
      </trkpt>
      <trkpt lat="46.84336" lon="5.86784">
        <ele>684.7</ele>
        <time>2021-08-12T11:55:04Z</time>
      </trkpt>
      <trkpt lat="46.84332" lon="5.86788">
        <ele>683.8</ele>
        <time>2021-08-12T11:55:10Z</time>
      </trkpt>
      <trkpt lat="46.84327" lon="5.8679">
        <ele>682.6</ele>
        <time>2021-08-12T11:55:16Z</time>
      </trkpt>
      <trkpt lat="46.84326" lon="5.86783">
        <ele>683.5</ele>
        <time>2021-08-12T11:55:33Z</time>
      </trkpt>
      <trkpt lat="46.84321" lon="5.86782">
        <ele>684.3</ele>
        <time>2021-08-12T11:55:39Z</time>
      </trkpt>
      <trkpt lat="46.84316" lon="5.86779">
        <ele>685.2</ele>
        <time>2021-08-12T11:55:44Z</time>
      </trkpt>
      <trkpt lat="46.84317" lon="5.86786">
        <ele>685.6</ele>
        <time>2021-08-12T11:55:50Z</time>
      </trkpt>
      <trkpt lat="46.84318" lon="5.86793">
        <ele>685.6</ele>
        <time>2021-08-12T11:55:54Z</time>
      </trkpt>
      <trkpt lat="46.84315" lon="5.86799">
        <ele>685.7</ele>
        <time>2021-08-12T11:55:57Z</time>
      </trkpt>
      <trkpt lat="46.84312" lon="5.86805">
        <ele>685.2</ele>
        <time>2021-08-12T11:56:01Z</time>
      </trkpt>
      <trkpt lat="46.84308" lon="5.86809">
        <ele>683.5</ele>
        <time>2021-08-12T11:56:08Z</time>
      </trkpt>
      <trkpt lat="46.84303" lon="5.8681">
        <ele>682.8</ele>
        <time>2021-08-12T11:56:13Z</time>
      </trkpt>
      <trkpt lat="46.84299" lon="5.86814">
        <ele>682</ele>
        <time>2021-08-12T11:56:18Z</time>
      </trkpt>
      <trkpt lat="46.84296" lon="5.86808">
        <ele>680.8</ele>
        <time>2021-08-12T11:56:30Z</time>
      </trkpt>
      <trkpt lat="46.84293" lon="5.86801">
        <ele>680.8</ele>
        <time>2021-08-12T11:56:34Z</time>
      </trkpt>
      <trkpt lat="46.84292" lon="5.86795">
        <ele>681.2</ele>
        <time>2021-08-12T11:56:38Z</time>
      </trkpt>
      <trkpt lat="46.84293" lon="5.86788">
        <ele>681.1</ele>
        <time>2021-08-12T11:56:43Z</time>
      </trkpt>
      <trkpt lat="46.84291" lon="5.86781">
        <ele>682.4</ele>
        <time>2021-08-12T11:57:15Z</time>
      </trkpt>
      <trkpt lat="46.84292" lon="5.86788">
        <ele>687.5</ele>
        <time>2021-08-12T11:58:05Z</time>
      </trkpt>
      <trkpt lat="46.84293" lon="5.86795">
        <ele>687.5</ele>
        <time>2021-08-12T11:58:08Z</time>
      </trkpt>
      <trkpt lat="46.84291" lon="5.86802">
        <ele>687.4</ele>
        <time>2021-08-12T11:58:13Z</time>
      </trkpt>
      <trkpt lat="46.84291" lon="5.8681">
        <ele>686.9</ele>
        <time>2021-08-12T11:58:18Z</time>
      </trkpt>
      <trkpt lat="46.84291" lon="5.86817">
        <ele>686.4</ele>
        <time>2021-08-12T11:58:24Z</time>
      </trkpt>
      <trkpt lat="46.8429" lon="5.86825">
        <ele>686.1</ele>
        <time>2021-08-12T11:58:30Z</time>
      </trkpt>
      <trkpt lat="46.84291" lon="5.86833">
        <ele>685.7</ele>
        <time>2021-08-12T11:58:35Z</time>
      </trkpt>
      <trkpt lat="46.8429" lon="5.8684">
        <ele>685.7</ele>
        <time>2021-08-12T11:58:40Z</time>
      </trkpt>
      <trkpt lat="46.8429" lon="5.86847">
        <ele>685.6</ele>
        <time>2021-08-12T11:58:44Z</time>
      </trkpt>
      <trkpt lat="46.84291" lon="5.86855">
        <ele>685.8</ele>
        <time>2021-08-12T11:58:48Z</time>
      </trkpt>
      <trkpt lat="46.8429" lon="5.86862">
        <ele>686.2</ele>
        <time>2021-08-12T11:58:53Z</time>
      </trkpt>
      <trkpt lat="46.84289" lon="5.86868">
        <ele>686.1</ele>
        <time>2021-08-12T11:58:59Z</time>
      </trkpt>
      <trkpt lat="46.84288" lon="5.86875">
        <ele>685.5</ele>
        <time>2021-08-12T11:59:06Z</time>
      </trkpt>
      <trkpt lat="46.84286" lon="5.86882">
        <ele>686</ele>
        <time>2021-08-12T11:59:10Z</time>
      </trkpt>
      <trkpt lat="46.84285" lon="5.8689">
        <ele>687</ele>
        <time>2021-08-12T11:59:15Z</time>
      </trkpt>
      <trkpt lat="46.84283" lon="5.86896">
        <ele>687.7</ele>
        <time>2021-08-12T11:59:18Z</time>
      </trkpt>
      <trkpt lat="46.84281" lon="5.86903">
        <ele>688.4</ele>
        <time>2021-08-12T11:59:22Z</time>
      </trkpt>
      <trkpt lat="46.84278" lon="5.86909">
        <ele>688.7</ele>
        <time>2021-08-12T11:59:26Z</time>
      </trkpt>
      <trkpt lat="46.84275" lon="5.86915">
        <ele>689.3</ele>
        <time>2021-08-12T11:59:29Z</time>
      </trkpt>
      <trkpt lat="46.84276" lon="5.86922">
        <ele>689.5</ele>
        <time>2021-08-12T11:59:33Z</time>
      </trkpt>
      <trkpt lat="46.84276" lon="5.8693">
        <ele>689.6</ele>
        <time>2021-08-12T11:59:39Z</time>
      </trkpt>
      <trkpt lat="46.84275" lon="5.86937">
        <ele>690.6</ele>
        <time>2021-08-12T11:59:44Z</time>
      </trkpt>
      <trkpt lat="46.84275" lon="5.86944">
        <ele>691.6</ele>
        <time>2021-08-12T11:59:48Z</time>
      </trkpt>
      <trkpt lat="46.84273" lon="5.8695">
        <ele>692.5</ele>
        <time>2021-08-12T11:59:52Z</time>
      </trkpt>
      <trkpt lat="46.8427" lon="5.86955">
        <ele>694.6</ele>
        <time>2021-08-12T12:00:05Z</time>
      </trkpt>
      <trkpt lat="46.84265" lon="5.86959">
        <ele>694.9</ele>
        <time>2021-08-12T12:00:11Z</time>
      </trkpt>
      <trkpt lat="46.84262" lon="5.86964">
        <ele>694.8</ele>
        <time>2021-08-12T12:00:16Z</time>
      </trkpt>
      <trkpt lat="46.84259" lon="5.86969">
        <ele>693.9</ele>
        <time>2021-08-12T12:00:21Z</time>
      </trkpt>
      <trkpt lat="46.84256" lon="5.86975">
        <ele>693.3</ele>
        <time>2021-08-12T12:00:24Z</time>
      </trkpt>
      <trkpt lat="46.84254" lon="5.86981">
        <ele>692.8</ele>
        <time>2021-08-12T12:00:27Z</time>
      </trkpt>
      <trkpt lat="46.84251" lon="5.86988">
        <ele>692.4</ele>
        <time>2021-08-12T12:00:31Z</time>
      </trkpt>
      <trkpt lat="46.8425" lon="5.86995">
        <ele>691.8</ele>
        <time>2021-08-12T12:00:35Z</time>
      </trkpt>
      <trkpt lat="46.84248" lon="5.87002">
        <ele>691.4</ele>
        <time>2021-08-12T12:00:40Z</time>
      </trkpt>
      <trkpt lat="46.84243" lon="5.87005">
        <ele>690.9</ele>
        <time>2021-08-12T12:00:45Z</time>
      </trkpt>
      <trkpt lat="46.84238" lon="5.87009">
        <ele>690.5</ele>
        <time>2021-08-12T12:00:50Z</time>
      </trkpt>
      <trkpt lat="46.84236" lon="5.87016">
        <ele>690.3</ele>
        <time>2021-08-12T12:00:54Z</time>
      </trkpt>
      <trkpt lat="46.84233" lon="5.87022">
        <ele>690.3</ele>
        <time>2021-08-12T12:00:58Z</time>
      </trkpt>
      <trkpt lat="46.84229" lon="5.87027">
        <ele>690.5</ele>
        <time>2021-08-12T12:01:03Z</time>
      </trkpt>
      <trkpt lat="46.84226" lon="5.87034">
        <ele>690.8</ele>
        <time>2021-08-12T12:01:09Z</time>
      </trkpt>
      <trkpt lat="46.84224" lon="5.87039">
        <ele>690.4</ele>
        <time>2021-08-12T12:01:13Z</time>
      </trkpt>
      <trkpt lat="46.84222" lon="5.87047">
        <ele>690.2</ele>
        <time>2021-08-12T12:01:18Z</time>
      </trkpt>
      <trkpt lat="46.84219" lon="5.87053">
        <ele>690.1</ele>
        <time>2021-08-12T12:01:23Z</time>
      </trkpt>
      <trkpt lat="46.84215" lon="5.87059">
        <ele>690</ele>
        <time>2021-08-12T12:01:27Z</time>
      </trkpt>
      <trkpt lat="46.8421" lon="5.87064">
        <ele>690</ele>
        <time>2021-08-12T12:01:31Z</time>
      </trkpt>
      <trkpt lat="46.84206" lon="5.87068">
        <ele>690.3</ele>
        <time>2021-08-12T12:01:36Z</time>
      </trkpt>
      <trkpt lat="46.84202" lon="5.87071">
        <ele>690.8</ele>
        <time>2021-08-12T12:01:42Z</time>
      </trkpt>
      <trkpt lat="46.84202" lon="5.87078">
        <ele>691.5</ele>
        <time>2021-08-12T12:01:49Z</time>
      </trkpt>
      <trkpt lat="46.84199" lon="5.87084">
        <ele>691.8</ele>
        <time>2021-08-12T12:01:56Z</time>
      </trkpt>
      <trkpt lat="46.84196" lon="5.8709">
        <ele>691.7</ele>
        <time>2021-08-12T12:02:03Z</time>
      </trkpt>
      <trkpt lat="46.84192" lon="5.87095">
        <ele>691</ele>
        <time>2021-08-12T12:02:10Z</time>
      </trkpt>
      <trkpt lat="46.84189" lon="5.87101">
        <ele>690.4</ele>
        <time>2021-08-12T12:02:15Z</time>
      </trkpt>
      <trkpt lat="46.84187" lon="5.87107">
        <ele>689.5</ele>
        <time>2021-08-12T12:02:20Z</time>
      </trkpt>
      <trkpt lat="46.84185" lon="5.87114">
        <ele>688.6</ele>
        <time>2021-08-12T12:02:24Z</time>
      </trkpt>
      <trkpt lat="46.84185" lon="5.87122">
        <ele>687.3</ele>
        <time>2021-08-12T12:02:28Z</time>
      </trkpt>
      <trkpt lat="46.84186" lon="5.87129">
        <ele>685.7</ele>
        <time>2021-08-12T12:02:32Z</time>
      </trkpt>
      <trkpt lat="46.84186" lon="5.87136">
        <ele>684.7</ele>
        <time>2021-08-12T12:02:35Z</time>
      </trkpt>
      <trkpt lat="46.84188" lon="5.87144">
        <ele>683.8</ele>
        <time>2021-08-12T12:02:38Z</time>
      </trkpt>
      <trkpt lat="46.84189" lon="5.87152">
        <ele>683.3</ele>
        <time>2021-08-12T12:02:41Z</time>
      </trkpt>
      <trkpt lat="46.8419" lon="5.87159">
        <ele>682.3</ele>
        <time>2021-08-12T12:02:45Z</time>
      </trkpt>
      <trkpt lat="46.84188" lon="5.87166">
        <ele>682.1</ele>
        <time>2021-08-12T12:02:49Z</time>
      </trkpt>
      <trkpt lat="46.84188" lon="5.87175">
        <ele>682.1</ele>
        <time>2021-08-12T12:02:53Z</time>
      </trkpt>
      <trkpt lat="46.84186" lon="5.87181">
        <ele>682.3</ele>
        <time>2021-08-12T12:02:57Z</time>
      </trkpt>
      <trkpt lat="46.84184" lon="5.87188">
        <ele>681.8</ele>
        <time>2021-08-12T12:03:05Z</time>
      </trkpt>
      <trkpt lat="46.84181" lon="5.87194">
        <ele>680.3</ele>
        <time>2021-08-12T12:03:12Z</time>
      </trkpt>
      <trkpt lat="46.84179" lon="5.872">
        <ele>679.3</ele>
        <time>2021-08-12T12:03:17Z</time>
      </trkpt>
      <trkpt lat="46.84177" lon="5.87207">
        <ele>678.5</ele>
        <time>2021-08-12T12:03:22Z</time>
      </trkpt>
      <trkpt lat="46.84178" lon="5.87213">
        <ele>677.7</ele>
        <time>2021-08-12T12:03:29Z</time>
      </trkpt>
      <trkpt lat="46.84177" lon="5.8722">
        <ele>677.7</ele>
        <time>2021-08-12T12:03:34Z</time>
      </trkpt>
      <trkpt lat="46.84174" lon="5.87227">
        <ele>678.6</ele>
        <time>2021-08-12T12:03:38Z</time>
      </trkpt>
      <trkpt lat="46.84171" lon="5.87234">
        <ele>679.8</ele>
        <time>2021-08-12T12:03:42Z</time>
      </trkpt>
      <trkpt lat="46.84168" lon="5.8724">
        <ele>680.6</ele>
        <time>2021-08-12T12:03:45Z</time>
      </trkpt>
      <trkpt lat="46.84167" lon="5.87247">
        <ele>681.5</ele>
        <time>2021-08-12T12:03:48Z</time>
      </trkpt>
      <trkpt lat="46.84164" lon="5.87253">
        <ele>683.1</ele>
        <time>2021-08-12T12:03:53Z</time>
      </trkpt>
      <trkpt lat="46.8416" lon="5.87258">
        <ele>684.4</ele>
        <time>2021-08-12T12:03:57Z</time>
      </trkpt>
      <trkpt lat="46.84156" lon="5.87263">
        <ele>685.6</ele>
        <time>2021-08-12T12:04:01Z</time>
      </trkpt>
      <trkpt lat="46.84152" lon="5.87268">
        <ele>686.7</ele>
        <time>2021-08-12T12:04:05Z</time>
      </trkpt>
      <trkpt lat="46.84147" lon="5.87266">
        <ele>689.4</ele>
        <time>2021-08-12T12:04:17Z</time>
      </trkpt>
      <trkpt lat="46.84143" lon="5.87262">
        <ele>689.6</ele>
        <time>2021-08-12T12:04:22Z</time>
      </trkpt>
      <trkpt lat="46.84139" lon="5.87264">
        <ele>689.5</ele>
        <time>2021-08-12T12:04:28Z</time>
      </trkpt>
      <trkpt lat="46.84141" lon="5.8727">
        <ele>688.5</ele>
        <time>2021-08-12T12:04:38Z</time>
      </trkpt>
      <trkpt lat="46.84141" lon="5.87278">
        <ele>687.8</ele>
        <time>2021-08-12T12:04:43Z</time>
      </trkpt>
      <trkpt lat="46.8414" lon="5.87284">
        <ele>687.1</ele>
        <time>2021-08-12T12:04:47Z</time>
      </trkpt>
      <trkpt lat="46.84138" lon="5.87291">
        <ele>686.4</ele>
        <time>2021-08-12T12:04:52Z</time>
      </trkpt>
      <trkpt lat="46.84136" lon="5.87298">
        <ele>685.8</ele>
        <time>2021-08-12T12:04:57Z</time>
      </trkpt>
      <trkpt lat="46.84134" lon="5.87306">
        <ele>686.3</ele>
        <time>2021-08-12T12:05:04Z</time>
      </trkpt>
      <trkpt lat="46.84129" lon="5.87307">
        <ele>686.7</ele>
        <time>2021-08-12T12:05:12Z</time>
      </trkpt>
      <trkpt lat="46.84127" lon="5.87314">
        <ele>685.3</ele>
        <time>2021-08-12T12:05:25Z</time>
      </trkpt>
      <trkpt lat="46.84125" lon="5.87322">
        <ele>684.6</ele>
        <time>2021-08-12T12:05:29Z</time>
      </trkpt>
      <trkpt lat="46.84121" lon="5.87326">
        <ele>683.5</ele>
        <time>2021-08-12T12:05:35Z</time>
      </trkpt>
      <trkpt lat="46.84116" lon="5.87324">
        <ele>683.1</ele>
        <time>2021-08-12T12:05:41Z</time>
      </trkpt>
      <trkpt lat="46.84111" lon="5.87324">
        <ele>683.3</ele>
        <time>2021-08-12T12:05:46Z</time>
      </trkpt>
      <trkpt lat="46.84107" lon="5.87327">
        <ele>683.9</ele>
        <time>2021-08-12T12:05:52Z</time>
      </trkpt>
      <trkpt lat="46.84101" lon="5.87327">
        <ele>684.4</ele>
        <time>2021-08-12T12:05:58Z</time>
      </trkpt>
      <trkpt lat="46.84096" lon="5.87327">
        <ele>684.6</ele>
        <time>2021-08-12T12:06:02Z</time>
      </trkpt>
      <trkpt lat="46.84091" lon="5.87326">
        <ele>684.3</ele>
        <time>2021-08-12T12:06:06Z</time>
      </trkpt>
      <trkpt lat="46.84086" lon="5.87328">
        <ele>684</ele>
        <time>2021-08-12T12:06:10Z</time>
      </trkpt>
      <trkpt lat="46.84081" lon="5.87331">
        <ele>683.7</ele>
        <time>2021-08-12T12:06:14Z</time>
      </trkpt>
      <trkpt lat="46.84077" lon="5.87333">
        <ele>683.6</ele>
        <time>2021-08-12T12:06:18Z</time>
      </trkpt>
      <trkpt lat="46.84072" lon="5.87336">
        <ele>684</ele>
        <time>2021-08-12T12:06:23Z</time>
      </trkpt>
      <trkpt lat="46.84067" lon="5.87339">
        <ele>685</ele>
        <time>2021-08-12T12:06:28Z</time>
      </trkpt>
      <trkpt lat="46.84063" lon="5.87344">
        <ele>685.8</ele>
        <time>2021-08-12T12:06:34Z</time>
      </trkpt>
      <trkpt lat="46.84061" lon="5.8735">
        <ele>685.9</ele>
        <time>2021-08-12T12:06:38Z</time>
      </trkpt>
      <trkpt lat="46.84069" lon="5.87346">
        <ele>678.1</ele>
        <time>2021-08-12T12:06:59Z</time>
      </trkpt>
      <trkpt lat="46.84074" lon="5.87346">
        <ele>676.3</ele>
        <time>2021-08-12T12:07:02Z</time>
      </trkpt>
      <trkpt lat="46.84079" lon="5.87347">
        <ele>673.4</ele>
        <time>2021-08-12T12:07:07Z</time>
      </trkpt>
      <trkpt lat="46.84085" lon="5.87348">
        <ele>670</ele>
        <time>2021-08-12T12:07:13Z</time>
      </trkpt>
      <trkpt lat="46.8409" lon="5.87349">
        <ele>667.9</ele>
        <time>2021-08-12T12:07:18Z</time>
      </trkpt>
      <trkpt lat="46.84095" lon="5.87349">
        <ele>667.2</ele>
        <time>2021-08-12T12:07:21Z</time>
      </trkpt>
      <trkpt lat="46.841" lon="5.8735">
        <ele>666.9</ele>
        <time>2021-08-12T12:07:25Z</time>
      </trkpt>
      <trkpt lat="46.84105" lon="5.8735">
        <ele>666.9</ele>
        <time>2021-08-12T12:07:30Z</time>
      </trkpt>
      <trkpt lat="46.8411" lon="5.8735">
        <ele>667.2</ele>
        <time>2021-08-12T12:07:35Z</time>
      </trkpt>
      <trkpt lat="46.84114" lon="5.87351">
        <ele>667.3</ele>
        <time>2021-08-12T12:07:40Z</time>
      </trkpt>
      <trkpt lat="46.84119" lon="5.8735">
        <ele>667.5</ele>
        <time>2021-08-12T12:07:43Z</time>
      </trkpt>
      <trkpt lat="46.84124" lon="5.8735">
        <ele>667.8</ele>
        <time>2021-08-12T12:07:46Z</time>
      </trkpt>
      <trkpt lat="46.84129" lon="5.87348">
        <ele>668.5</ele>
        <time>2021-08-12T12:07:51Z</time>
      </trkpt>
      <trkpt lat="46.84134" lon="5.87347">
        <ele>669.2</ele>
        <time>2021-08-12T12:08:00Z</time>
      </trkpt>
      <trkpt lat="46.8414" lon="5.87346">
        <ele>669.7</ele>
        <time>2021-08-12T12:08:03Z</time>
      </trkpt>
      <trkpt lat="46.84146" lon="5.87346">
        <ele>670.7</ele>
        <time>2021-08-12T12:08:06Z</time>
      </trkpt>
      <trkpt lat="46.84151" lon="5.87347">
        <ele>672</ele>
        <time>2021-08-12T12:08:09Z</time>
      </trkpt>
      <trkpt lat="46.84155" lon="5.87348">
        <ele>673.8</ele>
        <time>2021-08-12T12:08:14Z</time>
      </trkpt>
      <trkpt lat="46.8416" lon="5.87348">
        <ele>675.7</ele>
        <time>2021-08-12T12:08:24Z</time>
      </trkpt>
      <trkpt lat="46.84165" lon="5.87348">
        <ele>676.4</ele>
        <time>2021-08-12T12:08:29Z</time>
      </trkpt>
      <trkpt lat="46.84169" lon="5.87349">
        <ele>676.8</ele>
        <time>2021-08-12T12:08:33Z</time>
      </trkpt>
      <trkpt lat="46.84174" lon="5.87352">
        <ele>677.1</ele>
        <time>2021-08-12T12:08:37Z</time>
      </trkpt>
      <trkpt lat="46.84178" lon="5.87356">
        <ele>677.5</ele>
        <time>2021-08-12T12:08:42Z</time>
      </trkpt>
      <trkpt lat="46.84183" lon="5.87359">
        <ele>677</ele>
        <time>2021-08-12T12:08:47Z</time>
      </trkpt>
      <trkpt lat="46.84189" lon="5.87361">
        <ele>676.6</ele>
        <time>2021-08-12T12:08:51Z</time>
      </trkpt>
      <trkpt lat="46.84195" lon="5.87361">
        <ele>676.4</ele>
        <time>2021-08-12T12:08:54Z</time>
      </trkpt>
      <trkpt lat="46.842" lon="5.87363">
        <ele>676.2</ele>
        <time>2021-08-12T12:08:57Z</time>
      </trkpt>
      <trkpt lat="46.84202" lon="5.87369">
        <ele>675.3</ele>
        <time>2021-08-12T12:09:01Z</time>
      </trkpt>
      <trkpt lat="46.84204" lon="5.87375">
        <ele>675</ele>
        <time>2021-08-12T12:09:05Z</time>
      </trkpt>
      <trkpt lat="46.84205" lon="5.87383">
        <ele>675.2</ele>
        <time>2021-08-12T12:09:10Z</time>
      </trkpt>
      <trkpt lat="46.84202" lon="5.8739">
        <ele>675.6</ele>
        <time>2021-08-12T12:09:15Z</time>
      </trkpt>
      <trkpt lat="46.84199" lon="5.87396">
        <ele>676.3</ele>
        <time>2021-08-12T12:09:21Z</time>
      </trkpt>
      <trkpt lat="46.84195" lon="5.874">
        <ele>675.6</ele>
        <time>2021-08-12T12:09:29Z</time>
      </trkpt>
      <trkpt lat="46.84191" lon="5.87405">
        <ele>675.2</ele>
        <time>2021-08-12T12:09:34Z</time>
      </trkpt>
      <trkpt lat="46.84189" lon="5.87412">
        <ele>674.1</ele>
        <time>2021-08-12T12:09:40Z</time>
      </trkpt>
      <trkpt lat="46.84187" lon="5.8742">
        <ele>673.2</ele>
        <time>2021-08-12T12:09:44Z</time>
      </trkpt>
      <trkpt lat="46.84185" lon="5.87426">
        <ele>672.8</ele>
        <time>2021-08-12T12:09:47Z</time>
      </trkpt>
      <trkpt lat="46.84183" lon="5.87433">
        <ele>672.7</ele>
        <time>2021-08-12T12:09:51Z</time>
      </trkpt>
      <trkpt lat="46.84179" lon="5.87438">
        <ele>672.8</ele>
        <time>2021-08-12T12:09:56Z</time>
      </trkpt>
      <trkpt lat="46.84177" lon="5.87445">
        <ele>673.1</ele>
        <time>2021-08-12T12:10:01Z</time>
      </trkpt>
      <trkpt lat="46.84174" lon="5.87449">
        <ele>673.5</ele>
        <time>2021-08-12T12:10:05Z</time>
      </trkpt>
      <trkpt lat="46.84169" lon="5.87452">
        <ele>674.5</ele>
        <time>2021-08-12T12:10:09Z</time>
      </trkpt>
      <trkpt lat="46.84164" lon="5.87455">
        <ele>675.5</ele>
        <time>2021-08-12T12:10:13Z</time>
      </trkpt>
      <trkpt lat="46.8416" lon="5.87459">
        <ele>675.9</ele>
        <time>2021-08-12T12:10:17Z</time>
      </trkpt>
      <trkpt lat="46.84157" lon="5.87465">
        <ele>675.9</ele>
        <time>2021-08-12T12:10:22Z</time>
      </trkpt>
      <trkpt lat="46.84155" lon="5.87473">
        <ele>675.9</ele>
        <time>2021-08-12T12:10:27Z</time>
      </trkpt>
      <trkpt lat="46.84152" lon="5.87479">
        <ele>676.2</ele>
        <time>2021-08-12T12:10:33Z</time>
      </trkpt>
      <trkpt lat="46.84151" lon="5.87486">
        <ele>676.8</ele>
        <time>2021-08-12T12:10:38Z</time>
      </trkpt>
      <trkpt lat="46.84151" lon="5.87494">
        <ele>676.3</ele>
        <time>2021-08-12T12:10:42Z</time>
      </trkpt>
      <trkpt lat="46.84152" lon="5.875">
        <ele>674.9</ele>
        <time>2021-08-12T12:10:48Z</time>
      </trkpt>
      <trkpt lat="46.84153" lon="5.87508">
        <ele>672.9</ele>
        <time>2021-08-12T12:10:57Z</time>
      </trkpt>
      <trkpt lat="46.84152" lon="5.87515">
        <ele>672.3</ele>
        <time>2021-08-12T12:11:02Z</time>
      </trkpt>
      <trkpt lat="46.84151" lon="5.87522">
        <ele>671.5</ele>
        <time>2021-08-12T12:11:06Z</time>
      </trkpt>
      <trkpt lat="46.84152" lon="5.87529">
        <ele>670.1</ele>
        <time>2021-08-12T12:11:13Z</time>
      </trkpt>
      <trkpt lat="46.84155" lon="5.87535">
        <ele>669.1</ele>
        <time>2021-08-12T12:11:18Z</time>
      </trkpt>
      <trkpt lat="46.84157" lon="5.87542">
        <ele>668.4</ele>
        <time>2021-08-12T12:11:23Z</time>
      </trkpt>
      <trkpt lat="46.84159" lon="5.87548">
        <ele>668.1</ele>
        <time>2021-08-12T12:11:28Z</time>
      </trkpt>
      <trkpt lat="46.84162" lon="5.87554">
        <ele>668</ele>
        <time>2021-08-12T12:11:32Z</time>
      </trkpt>
      <trkpt lat="46.84164" lon="5.87561">
        <ele>667.8</ele>
        <time>2021-08-12T12:11:36Z</time>
      </trkpt>
      <trkpt lat="46.84163" lon="5.8757">
        <ele>667.5</ele>
        <time>2021-08-12T12:11:40Z</time>
      </trkpt>
      <trkpt lat="46.84164" lon="5.87576">
        <ele>665.6</ele>
        <time>2021-08-12T12:11:50Z</time>
      </trkpt>
      <trkpt lat="46.84168" lon="5.87582">
        <ele>664.6</ele>
        <time>2021-08-12T12:11:55Z</time>
      </trkpt>
      <trkpt lat="46.84171" lon="5.87587">
        <ele>663.9</ele>
        <time>2021-08-12T12:12:00Z</time>
      </trkpt>
      <trkpt lat="46.84174" lon="5.87593">
        <ele>663.8</ele>
        <time>2021-08-12T12:12:04Z</time>
      </trkpt>
      <trkpt lat="46.84176" lon="5.876">
        <ele>664.1</ele>
        <time>2021-08-12T12:12:10Z</time>
      </trkpt>
      <trkpt lat="46.84178" lon="5.87607">
        <ele>664.1</ele>
        <time>2021-08-12T12:12:14Z</time>
      </trkpt>
      <trkpt lat="46.8418" lon="5.87613">
        <ele>664.6</ele>
        <time>2021-08-12T12:12:20Z</time>
      </trkpt>
      <trkpt lat="46.84183" lon="5.8762">
        <ele>664.3</ele>
        <time>2021-08-12T12:12:25Z</time>
      </trkpt>
      <trkpt lat="46.84185" lon="5.87626">
        <ele>663.4</ele>
        <time>2021-08-12T12:12:30Z</time>
      </trkpt>
      <trkpt lat="46.84185" lon="5.87634">
        <ele>662.6</ele>
        <time>2021-08-12T12:12:36Z</time>
      </trkpt>
      <trkpt lat="46.84185" lon="5.87641">
        <ele>662</ele>
        <time>2021-08-12T12:12:40Z</time>
      </trkpt>
      <trkpt lat="46.84187" lon="5.87648">
        <ele>660.6</ele>
        <time>2021-08-12T12:12:47Z</time>
      </trkpt>
      <trkpt lat="46.84187" lon="5.87654">
        <ele>659.4</ele>
        <time>2021-08-12T12:12:52Z</time>
      </trkpt>
      <trkpt lat="46.84188" lon="5.87661">
        <ele>658.5</ele>
        <time>2021-08-12T12:12:56Z</time>
      </trkpt>
      <trkpt lat="46.84191" lon="5.87665">
        <ele>656.5</ele>
        <time>2021-08-12T12:13:03Z</time>
      </trkpt>
      <trkpt lat="46.84197" lon="5.87668">
        <ele>655.9</ele>
        <time>2021-08-12T12:13:11Z</time>
      </trkpt>
      <trkpt lat="46.84202" lon="5.8767">
        <ele>656.1</ele>
        <time>2021-08-12T12:13:15Z</time>
      </trkpt>
      <trkpt lat="46.84207" lon="5.87673">
        <ele>656.1</ele>
        <time>2021-08-12T12:13:18Z</time>
      </trkpt>
      <trkpt lat="46.84211" lon="5.87678">
        <ele>656.3</ele>
        <time>2021-08-12T12:13:22Z</time>
      </trkpt>
      <trkpt lat="46.84212" lon="5.87687">
        <ele>656.6</ele>
        <time>2021-08-12T12:13:26Z</time>
      </trkpt>
      <trkpt lat="46.84211" lon="5.87693">
        <ele>657.1</ele>
        <time>2021-08-12T12:13:30Z</time>
      </trkpt>
      <trkpt lat="46.84211" lon="5.877">
        <ele>657.9</ele>
        <time>2021-08-12T12:13:35Z</time>
      </trkpt>
      <trkpt lat="46.84216" lon="5.87704">
        <ele>659.2</ele>
        <time>2021-08-12T12:13:41Z</time>
      </trkpt>
      <trkpt lat="46.8422" lon="5.87708">
        <ele>659.9</ele>
        <time>2021-08-12T12:13:47Z</time>
      </trkpt>
      <trkpt lat="46.84224" lon="5.87713">
        <ele>660.3</ele>
        <time>2021-08-12T12:13:52Z</time>
      </trkpt>
      <trkpt lat="46.84228" lon="5.87719">
        <ele>661</ele>
        <time>2021-08-12T12:13:57Z</time>
      </trkpt>
      <trkpt lat="46.84231" lon="5.87724">
        <ele>661.9</ele>
        <time>2021-08-12T12:14:02Z</time>
      </trkpt>
      <trkpt lat="46.84235" lon="5.87729">
        <ele>664.2</ele>
        <time>2021-08-12T12:14:12Z</time>
      </trkpt>
      <trkpt lat="46.84239" lon="5.87733">
        <ele>665.1</ele>
        <time>2021-08-12T12:14:16Z</time>
      </trkpt>
      <trkpt lat="46.84241" lon="5.87742">
        <ele>665.7</ele>
        <time>2021-08-12T12:14:20Z</time>
      </trkpt>
      <trkpt lat="46.8424" lon="5.87749">
        <ele>666.1</ele>
        <time>2021-08-12T12:14:23Z</time>
      </trkpt>
      <trkpt lat="46.84237" lon="5.87758">
        <ele>666.5</ele>
        <time>2021-08-12T12:14:26Z</time>
      </trkpt>
      <trkpt lat="46.84234" lon="5.87764">
        <ele>666.8</ele>
        <time>2021-08-12T12:14:29Z</time>
      </trkpt>
      <trkpt lat="46.84234" lon="5.87771">
        <ele>667.3</ele>
        <time>2021-08-12T12:14:33Z</time>
      </trkpt>
      <trkpt lat="46.84237" lon="5.87776">
        <ele>668.2</ele>
        <time>2021-08-12T12:14:39Z</time>
      </trkpt>
      <trkpt lat="46.84239" lon="5.87783">
        <ele>669.6</ele>
        <time>2021-08-12T12:14:45Z</time>
      </trkpt>
      <trkpt lat="46.84235" lon="5.87788">
        <ele>670</ele>
        <time>2021-08-12T12:14:50Z</time>
      </trkpt>
      <trkpt lat="46.84232" lon="5.87794">
        <ele>669.7</ele>
        <time>2021-08-12T12:14:54Z</time>
      </trkpt>
      <trkpt lat="46.84232" lon="5.87801">
        <ele>669.9</ele>
        <time>2021-08-12T12:14:58Z</time>
      </trkpt>
      <trkpt lat="46.8423" lon="5.87807">
        <ele>669.8</ele>
        <time>2021-08-12T12:15:08Z</time>
      </trkpt>
      <trkpt lat="46.84231" lon="5.87815">
        <ele>668.6</ele>
        <time>2021-08-12T12:15:16Z</time>
      </trkpt>
      <trkpt lat="46.8423" lon="5.87823">
        <ele>668.3</ele>
        <time>2021-08-12T12:15:20Z</time>
      </trkpt>
      <trkpt lat="46.84229" lon="5.8783">
        <ele>668.3</ele>
        <time>2021-08-12T12:15:23Z</time>
      </trkpt>
      <trkpt lat="46.84234" lon="5.87834">
        <ele>666.9</ele>
        <time>2021-08-12T12:15:32Z</time>
      </trkpt>
      <trkpt lat="46.84238" lon="5.87836">
        <ele>665.7</ele>
        <time>2021-08-12T12:15:37Z</time>
      </trkpt>
      <trkpt lat="46.8424" lon="5.87843">
        <ele>663.6</ele>
        <time>2021-08-12T12:15:46Z</time>
      </trkpt>
      <trkpt lat="46.84241" lon="5.8785">
        <ele>662.5</ele>
        <time>2021-08-12T12:15:51Z</time>
      </trkpt>
      <trkpt lat="46.84245" lon="5.87851">
        <ele>661.9</ele>
        <time>2021-08-12T12:15:57Z</time>
      </trkpt>
      <trkpt lat="46.8425" lon="5.87851">
        <ele>661.8</ele>
        <time>2021-08-12T12:16:00Z</time>
      </trkpt>
      <trkpt lat="46.84254" lon="5.87854">
        <ele>661.7</ele>
        <time>2021-08-12T12:16:03Z</time>
      </trkpt>
      <trkpt lat="46.8426" lon="5.87857">
        <ele>661.8</ele>
        <time>2021-08-12T12:16:07Z</time>
      </trkpt>
      <trkpt lat="46.84263" lon="5.87864">
        <ele>662.1</ele>
        <time>2021-08-12T12:16:12Z</time>
      </trkpt>
      <trkpt lat="46.84268" lon="5.87865">
        <ele>662.5</ele>
        <time>2021-08-12T12:16:18Z</time>
      </trkpt>
      <trkpt lat="46.84272" lon="5.87867">
        <ele>662.2</ele>
        <time>2021-08-12T12:16:22Z</time>
      </trkpt>
      <trkpt lat="46.84277" lon="5.87869">
        <ele>662.3</ele>
        <time>2021-08-12T12:16:26Z</time>
      </trkpt>
      <trkpt lat="46.8428" lon="5.87874">
        <ele>662.1</ele>
        <time>2021-08-12T12:16:34Z</time>
      </trkpt>
      <trkpt lat="46.84285" lon="5.87874">
        <ele>661.8</ele>
        <time>2021-08-12T12:16:38Z</time>
      </trkpt>
      <trkpt lat="46.84291" lon="5.87875">
        <ele>661.9</ele>
        <time>2021-08-12T12:16:42Z</time>
      </trkpt>
      <trkpt lat="46.84295" lon="5.87876">
        <ele>662.8</ele>
        <time>2021-08-12T12:16:47Z</time>
      </trkpt>
      <trkpt lat="46.84301" lon="5.87875">
        <ele>663.4</ele>
        <time>2021-08-12T12:16:51Z</time>
      </trkpt>
      <trkpt lat="46.84305" lon="5.87873">
        <ele>664.1</ele>
        <time>2021-08-12T12:16:54Z</time>
      </trkpt>
      <trkpt lat="46.8431" lon="5.87874">
        <ele>664.7</ele>
        <time>2021-08-12T12:16:58Z</time>
      </trkpt>
      <trkpt lat="46.84315" lon="5.87877">
        <ele>665.1</ele>
        <time>2021-08-12T12:17:01Z</time>
      </trkpt>
      <trkpt lat="46.84319" lon="5.87882">
        <ele>665.5</ele>
        <time>2021-08-12T12:17:05Z</time>
      </trkpt>
      <trkpt lat="46.84323" lon="5.87884">
        <ele>664.9</ele>
        <time>2021-08-12T12:17:10Z</time>
      </trkpt>
      <trkpt lat="46.84326" lon="5.8789">
        <ele>663.4</ele>
        <time>2021-08-12T12:17:18Z</time>
      </trkpt>
      <trkpt lat="46.84329" lon="5.87895">
        <ele>662.5</ele>
        <time>2021-08-12T12:17:24Z</time>
      </trkpt>
      <trkpt lat="46.84333" lon="5.879">
        <ele>662.3</ele>
        <time>2021-08-12T12:17:28Z</time>
      </trkpt>
      <trkpt lat="46.84336" lon="5.87905">
        <ele>662.3</ele>
        <time>2021-08-12T12:17:32Z</time>
      </trkpt>
      <trkpt lat="46.84341" lon="5.87909">
        <ele>663</ele>
        <time>2021-08-12T12:17:37Z</time>
      </trkpt>
      <trkpt lat="46.84344" lon="5.87914">
        <ele>664</ele>
        <time>2021-08-12T12:17:42Z</time>
      </trkpt>
      <trkpt lat="46.84346" lon="5.87921">
        <ele>664.6</ele>
        <time>2021-08-12T12:17:46Z</time>
      </trkpt>
      <trkpt lat="46.84349" lon="5.87927">
        <ele>665.4</ele>
        <time>2021-08-12T12:17:50Z</time>
      </trkpt>
      <trkpt lat="46.84353" lon="5.87933">
        <ele>666.5</ele>
        <time>2021-08-12T12:17:55Z</time>
      </trkpt>
      <trkpt lat="46.84357" lon="5.87937">
        <ele>667.6</ele>
        <time>2021-08-12T12:17:59Z</time>
      </trkpt>
      <trkpt lat="46.84361" lon="5.87941">
        <ele>668.9</ele>
        <time>2021-08-12T12:18:03Z</time>
      </trkpt>
      <trkpt lat="46.84364" lon="5.87946">
        <ele>670</ele>
        <time>2021-08-12T12:18:07Z</time>
      </trkpt>
      <trkpt lat="46.84368" lon="5.87948">
        <ele>671.1</ele>
        <time>2021-08-12T12:18:11Z</time>
      </trkpt>
      <trkpt lat="46.84372" lon="5.87953">
        <ele>670.3</ele>
        <time>2021-08-12T12:18:35Z</time>
      </trkpt>
      <trkpt lat="46.84377" lon="5.87956">
        <ele>669.9</ele>
        <time>2021-08-12T12:18:40Z</time>
      </trkpt>
      <trkpt lat="46.84381" lon="5.8796">
        <ele>669.9</ele>
        <time>2021-08-12T12:18:45Z</time>
      </trkpt>
      <trkpt lat="46.84386" lon="5.8796">
        <ele>670.4</ele>
        <time>2021-08-12T12:18:49Z</time>
      </trkpt>
      <trkpt lat="46.84391" lon="5.87959">
        <ele>670.5</ele>
        <time>2021-08-12T12:18:54Z</time>
      </trkpt>
      <trkpt lat="46.84396" lon="5.8796">
        <ele>670.6</ele>
        <time>2021-08-12T12:18:59Z</time>
      </trkpt>
      <trkpt lat="46.84399" lon="5.87967">
        <ele>671.6</ele>
        <time>2021-08-12T12:19:06Z</time>
      </trkpt>
      <trkpt lat="46.84403" lon="5.87972">
        <ele>672.6</ele>
        <time>2021-08-12T12:19:11Z</time>
      </trkpt>
      <trkpt lat="46.84404" lon="5.87979">
        <ele>673.8</ele>
        <time>2021-08-12T12:19:15Z</time>
      </trkpt>
      <trkpt lat="46.84406" lon="5.87985">
        <ele>675.2</ele>
        <time>2021-08-12T12:19:20Z</time>
      </trkpt>
      <trkpt lat="46.84409" lon="5.87991">
        <ele>677.8</ele>
        <time>2021-08-12T12:19:26Z</time>
      </trkpt>
      <trkpt lat="46.84411" lon="5.87998">
        <ele>679.6</ele>
        <time>2021-08-12T12:19:31Z</time>
      </trkpt>
      <trkpt lat="46.84413" lon="5.88004">
        <ele>680.9</ele>
        <time>2021-08-12T12:19:35Z</time>
      </trkpt>
      <trkpt lat="46.84414" lon="5.88011">
        <ele>681.9</ele>
        <time>2021-08-12T12:19:39Z</time>
      </trkpt>
      <trkpt lat="46.84415" lon="5.88019">
        <ele>683</ele>
        <time>2021-08-12T12:19:43Z</time>
      </trkpt>
      <trkpt lat="46.84416" lon="5.88026">
        <ele>684.2</ele>
        <time>2021-08-12T12:19:47Z</time>
      </trkpt>
      <trkpt lat="46.84417" lon="5.88034">
        <ele>685.3</ele>
        <time>2021-08-12T12:19:52Z</time>
      </trkpt>
      <trkpt lat="46.84418" lon="5.88041">
        <ele>686.2</ele>
        <time>2021-08-12T12:19:55Z</time>
      </trkpt>
      <trkpt lat="46.84421" lon="5.88047">
        <ele>687.5</ele>
        <time>2021-08-12T12:20:00Z</time>
      </trkpt>
      <trkpt lat="46.84424" lon="5.88052">
        <ele>688.3</ele>
        <time>2021-08-12T12:20:06Z</time>
      </trkpt>
      <trkpt lat="46.84427" lon="5.88057">
        <ele>687.6</ele>
        <time>2021-08-12T12:20:13Z</time>
      </trkpt>
      <trkpt lat="46.84431" lon="5.88062">
        <ele>687.4</ele>
        <time>2021-08-12T12:20:18Z</time>
      </trkpt>
      <trkpt lat="46.84435" lon="5.88068">
        <ele>687.3</ele>
        <time>2021-08-12T12:20:22Z</time>
      </trkpt>
      <trkpt lat="46.84436" lon="5.88074">
        <ele>687</ele>
        <time>2021-08-12T12:20:27Z</time>
      </trkpt>
      <trkpt lat="46.84437" lon="5.88081">
        <ele>686.3</ele>
        <time>2021-08-12T12:20:33Z</time>
      </trkpt>
      <trkpt lat="46.84442" lon="5.88083">
        <ele>685.7</ele>
        <time>2021-08-12T12:20:39Z</time>
      </trkpt>
      <trkpt lat="46.84447" lon="5.88085">
        <ele>685.7</ele>
        <time>2021-08-12T12:20:43Z</time>
      </trkpt>
      <trkpt lat="46.84451" lon="5.88088">
        <ele>686.1</ele>
        <time>2021-08-12T12:20:46Z</time>
      </trkpt>
      <trkpt lat="46.84456" lon="5.88093">
        <ele>686.9</ele>
        <time>2021-08-12T12:20:50Z</time>
      </trkpt>
      <trkpt lat="46.8446" lon="5.88096">
        <ele>688</ele>
        <time>2021-08-12T12:20:54Z</time>
      </trkpt>
      <trkpt lat="46.84461" lon="5.88103">
        <ele>689.7</ele>
        <time>2021-08-12T12:21:01Z</time>
      </trkpt>
      <trkpt lat="46.84467" lon="5.88105">
        <ele>690.3</ele>
        <time>2021-08-12T12:21:06Z</time>
      </trkpt>
      <trkpt lat="46.84472" lon="5.88106">
        <ele>690.7</ele>
        <time>2021-08-12T12:21:09Z</time>
      </trkpt>
      <trkpt lat="46.84478" lon="5.88109">
        <ele>691.2</ele>
        <time>2021-08-12T12:21:13Z</time>
      </trkpt>
      <trkpt lat="46.84483" lon="5.88114">
        <ele>691.7</ele>
        <time>2021-08-12T12:21:17Z</time>
      </trkpt>
      <trkpt lat="46.84487" lon="5.88114">
        <ele>692</ele>
        <time>2021-08-12T12:21:20Z</time>
      </trkpt>
      <trkpt lat="46.84491" lon="5.88118">
        <ele>692</ele>
        <time>2021-08-12T12:21:24Z</time>
      </trkpt>
      <trkpt lat="46.84494" lon="5.88125">
        <ele>692.5</ele>
        <time>2021-08-12T12:21:29Z</time>
      </trkpt>
      <trkpt lat="46.84493" lon="5.88133">
        <ele>692.6</ele>
        <time>2021-08-12T12:21:33Z</time>
      </trkpt>
      <trkpt lat="46.84492" lon="5.88139">
        <ele>692.5</ele>
        <time>2021-08-12T12:21:36Z</time>
      </trkpt>
      <trkpt lat="46.84491" lon="5.88146">
        <ele>691.9</ele>
        <time>2021-08-12T12:21:41Z</time>
      </trkpt>
      <trkpt lat="46.84494" lon="5.88152">
        <ele>691.3</ele>
        <time>2021-08-12T12:21:48Z</time>
      </trkpt>
      <trkpt lat="46.84499" lon="5.88155">
        <ele>691.4</ele>
        <time>2021-08-12T12:21:53Z</time>
      </trkpt>
      <trkpt lat="46.84502" lon="5.8816">
        <ele>691.8</ele>
        <time>2021-08-12T12:21:57Z</time>
      </trkpt>
      <trkpt lat="46.84501" lon="5.88168">
        <ele>691.5</ele>
        <time>2021-08-12T12:22:01Z</time>
      </trkpt>
      <trkpt lat="46.845" lon="5.88174">
        <ele>690.8</ele>
        <time>2021-08-12T12:22:05Z</time>
      </trkpt>
      <trkpt lat="46.845" lon="5.88181">
        <ele>689.8</ele>
        <time>2021-08-12T12:22:10Z</time>
      </trkpt>
      <trkpt lat="46.84499" lon="5.88188">
        <ele>688.7</ele>
        <time>2021-08-12T12:22:14Z</time>
      </trkpt>
      <trkpt lat="46.84504" lon="5.8819">
        <ele>687.3</ele>
        <time>2021-08-12T12:22:19Z</time>
      </trkpt>
      <trkpt lat="46.84508" lon="5.88193">
        <ele>686.1</ele>
        <time>2021-08-12T12:22:23Z</time>
      </trkpt>
      <trkpt lat="46.84513" lon="5.88193">
        <ele>685.4</ele>
        <time>2021-08-12T12:22:27Z</time>
      </trkpt>
      <trkpt lat="46.84518" lon="5.88193">
        <ele>684.9</ele>
        <time>2021-08-12T12:22:33Z</time>
      </trkpt>
      <trkpt lat="46.84523" lon="5.88192">
        <ele>685.1</ele>
        <time>2021-08-12T12:22:38Z</time>
      </trkpt>
      <trkpt lat="46.84526" lon="5.88197">
        <ele>685.1</ele>
        <time>2021-08-12T12:22:43Z</time>
      </trkpt>
      <trkpt lat="46.84526" lon="5.88204">
        <ele>684.7</ele>
        <time>2021-08-12T12:22:46Z</time>
      </trkpt>
      <trkpt lat="46.84529" lon="5.88211">
        <ele>684</ele>
        <time>2021-08-12T12:22:50Z</time>
      </trkpt>
      <trkpt lat="46.8453" lon="5.88218">
        <ele>683.9</ele>
        <time>2021-08-12T12:22:55Z</time>
      </trkpt>
      <trkpt lat="46.84533" lon="5.88224">
        <ele>683.9</ele>
        <time>2021-08-12T12:23:01Z</time>
      </trkpt>
      <trkpt lat="46.84537" lon="5.88228">
        <ele>684.2</ele>
        <time>2021-08-12T12:23:07Z</time>
      </trkpt>
      <trkpt lat="46.84539" lon="5.88236">
        <ele>684.7</ele>
        <time>2021-08-12T12:23:12Z</time>
      </trkpt>
      <trkpt lat="46.84542" lon="5.88242">
        <ele>685.6</ele>
        <time>2021-08-12T12:23:17Z</time>
      </trkpt>
      <trkpt lat="46.84544" lon="5.88248">
        <ele>686.3</ele>
        <time>2021-08-12T12:23:21Z</time>
      </trkpt>
      <trkpt lat="46.84548" lon="5.88253">
        <ele>687.4</ele>
        <time>2021-08-12T12:23:26Z</time>
      </trkpt>
      <trkpt lat="46.84551" lon="5.8826">
        <ele>688.2</ele>
        <time>2021-08-12T12:23:31Z</time>
      </trkpt>
      <trkpt lat="46.84554" lon="5.88266">
        <ele>688.8</ele>
        <time>2021-08-12T12:23:35Z</time>
      </trkpt>
      <trkpt lat="46.84556" lon="5.88273">
        <ele>690.2</ele>
        <time>2021-08-12T12:23:40Z</time>
      </trkpt>
      <trkpt lat="46.84556" lon="5.88281">
        <ele>691.1</ele>
        <time>2021-08-12T12:23:45Z</time>
      </trkpt>
      <trkpt lat="46.84556" lon="5.88288">
        <ele>691.8</ele>
        <time>2021-08-12T12:23:49Z</time>
      </trkpt>
      <trkpt lat="46.84556" lon="5.88296">
        <ele>692</ele>
        <time>2021-08-12T12:23:53Z</time>
      </trkpt>
      <trkpt lat="46.8456" lon="5.88301">
        <ele>692.2</ele>
        <time>2021-08-12T12:23:57Z</time>
      </trkpt>
      <trkpt lat="46.84564" lon="5.88305">
        <ele>692.8</ele>
        <time>2021-08-12T12:24:01Z</time>
      </trkpt>
      <trkpt lat="46.84567" lon="5.8831">
        <ele>693.7</ele>
        <time>2021-08-12T12:24:08Z</time>
      </trkpt>
      <trkpt lat="46.84568" lon="5.88317">
        <ele>694.4</ele>
        <time>2021-08-12T12:24:13Z</time>
      </trkpt>
      <trkpt lat="46.84572" lon="5.88322">
        <ele>695.3</ele>
        <time>2021-08-12T12:24:18Z</time>
      </trkpt>
      <trkpt lat="46.84575" lon="5.88327">
        <ele>696</ele>
        <time>2021-08-12T12:24:22Z</time>
      </trkpt>
      <trkpt lat="46.84577" lon="5.88333">
        <ele>696.5</ele>
        <time>2021-08-12T12:24:26Z</time>
      </trkpt>
      <trkpt lat="46.84578" lon="5.8834">
        <ele>696.8</ele>
        <time>2021-08-12T12:24:29Z</time>
      </trkpt>
      <trkpt lat="46.8458" lon="5.88348">
        <ele>697</ele>
        <time>2021-08-12T12:24:34Z</time>
      </trkpt>
      <trkpt lat="46.84582" lon="5.88354">
        <ele>697.1</ele>
        <time>2021-08-12T12:24:39Z</time>
      </trkpt>
      <trkpt lat="46.84586" lon="5.88359">
        <ele>697.3</ele>
        <time>2021-08-12T12:24:43Z</time>
      </trkpt>
      <trkpt lat="46.84591" lon="5.88363">
        <ele>697.5</ele>
        <time>2021-08-12T12:24:47Z</time>
      </trkpt>
      <trkpt lat="46.84594" lon="5.88368">
        <ele>697.6</ele>
        <time>2021-08-12T12:24:51Z</time>
      </trkpt>
      <trkpt lat="46.84596" lon="5.88374">
        <ele>697.8</ele>
        <time>2021-08-12T12:24:56Z</time>
      </trkpt>
      <trkpt lat="46.84598" lon="5.88381">
        <ele>697.9</ele>
        <time>2021-08-12T12:25:01Z</time>
      </trkpt>
      <trkpt lat="46.84601" lon="5.88388">
        <ele>698</ele>
        <time>2021-08-12T12:25:05Z</time>
      </trkpt>
      <trkpt lat="46.84605" lon="5.88394">
        <ele>698.1</ele>
        <time>2021-08-12T12:25:11Z</time>
      </trkpt>
      <trkpt lat="46.84608" lon="5.88399">
        <ele>698</ele>
        <time>2021-08-12T12:25:15Z</time>
      </trkpt>
      <trkpt lat="46.84613" lon="5.88401">
        <ele>697.9</ele>
        <time>2021-08-12T12:25:19Z</time>
      </trkpt>
      <trkpt lat="46.84617" lon="5.88406">
        <ele>698.1</ele>
        <time>2021-08-12T12:25:24Z</time>
      </trkpt>
      <trkpt lat="46.8462" lon="5.88413">
        <ele>698.3</ele>
        <time>2021-08-12T12:25:28Z</time>
      </trkpt>
      <trkpt lat="46.84622" lon="5.88418">
        <ele>698.5</ele>
        <time>2021-08-12T12:25:33Z</time>
      </trkpt>
      <trkpt lat="46.84624" lon="5.88425">
        <ele>699</ele>
        <time>2021-08-12T12:25:37Z</time>
      </trkpt>
      <trkpt lat="46.84627" lon="5.8843">
        <ele>699.2</ele>
        <time>2021-08-12T12:25:42Z</time>
      </trkpt>
      <trkpt lat="46.84631" lon="5.88434">
        <ele>698.8</ele>
        <time>2021-08-12T12:25:50Z</time>
      </trkpt>
      <trkpt lat="46.84632" lon="5.88441">
        <ele>697</ele>
        <time>2021-08-12T12:25:56Z</time>
      </trkpt>
      <trkpt lat="46.84632" lon="5.88449">
        <ele>696.2</ele>
        <time>2021-08-12T12:26:00Z</time>
      </trkpt>
      <trkpt lat="46.84634" lon="5.88455">
        <ele>695.8</ele>
        <time>2021-08-12T12:26:04Z</time>
      </trkpt>
      <trkpt lat="46.84638" lon="5.88457">
        <ele>695.5</ele>
        <time>2021-08-12T12:26:08Z</time>
      </trkpt>
      <trkpt lat="46.84642" lon="5.8846">
        <ele>695.1</ele>
        <time>2021-08-12T12:26:12Z</time>
      </trkpt>
      <trkpt lat="46.84647" lon="5.88463">
        <ele>694.6</ele>
        <time>2021-08-12T12:26:17Z</time>
      </trkpt>
      <trkpt lat="46.84651" lon="5.88466">
        <ele>694</ele>
        <time>2021-08-12T12:26:21Z</time>
      </trkpt>
      <trkpt lat="46.84656" lon="5.8847">
        <ele>693.8</ele>
        <time>2021-08-12T12:26:25Z</time>
      </trkpt>
      <trkpt lat="46.8466" lon="5.88476">
        <ele>693.5</ele>
        <time>2021-08-12T12:26:30Z</time>
      </trkpt>
      <trkpt lat="46.84665" lon="5.88479">
        <ele>693.6</ele>
        <time>2021-08-12T12:26:35Z</time>
      </trkpt>
      <trkpt lat="46.8467" lon="5.88477">
        <ele>693.6</ele>
        <time>2021-08-12T12:26:38Z</time>
      </trkpt>
      <trkpt lat="46.84674" lon="5.88482">
        <ele>693.7</ele>
        <time>2021-08-12T12:26:44Z</time>
      </trkpt>
      <trkpt lat="46.84679" lon="5.88485">
        <ele>694</ele>
        <time>2021-08-12T12:26:47Z</time>
      </trkpt>
      <trkpt lat="46.84683" lon="5.88489">
        <ele>694.5</ele>
        <time>2021-08-12T12:26:51Z</time>
      </trkpt>
      <trkpt lat="46.84687" lon="5.88492">
        <ele>694.7</ele>
        <time>2021-08-12T12:26:54Z</time>
      </trkpt>
      <trkpt lat="46.84691" lon="5.88497">
        <ele>694.8</ele>
        <time>2021-08-12T12:26:58Z</time>
      </trkpt>
      <trkpt lat="46.84694" lon="5.88504">
        <ele>695.1</ele>
        <time>2021-08-12T12:27:03Z</time>
      </trkpt>
      <trkpt lat="46.84699" lon="5.88508">
        <ele>694.9</ele>
        <time>2021-08-12T12:27:07Z</time>
      </trkpt>
      <trkpt lat="46.84703" lon="5.88511">
        <ele>694.6</ele>
        <time>2021-08-12T12:27:12Z</time>
      </trkpt>
      <trkpt lat="46.84707" lon="5.88515">
        <ele>694.9</ele>
        <time>2021-08-12T12:27:18Z</time>
      </trkpt>
      <trkpt lat="46.84711" lon="5.8852">
        <ele>695.2</ele>
        <time>2021-08-12T12:27:23Z</time>
      </trkpt>
      <trkpt lat="46.84712" lon="5.88528">
        <ele>694.8</ele>
        <time>2021-08-12T12:27:29Z</time>
      </trkpt>
      <trkpt lat="46.84712" lon="5.88535">
        <ele>694.1</ele>
        <time>2021-08-12T12:27:34Z</time>
      </trkpt>
      <trkpt lat="46.84714" lon="5.88541">
        <ele>693</ele>
        <time>2021-08-12T12:27:40Z</time>
      </trkpt>
      <trkpt lat="46.84719" lon="5.88545">
        <ele>691.6</ele>
        <time>2021-08-12T12:27:47Z</time>
      </trkpt>
      <trkpt lat="46.84724" lon="5.88547">
        <ele>691.5</ele>
        <time>2021-08-12T12:27:51Z</time>
      </trkpt>
      <trkpt lat="46.84728" lon="5.8855">
        <ele>691.4</ele>
        <time>2021-08-12T12:27:54Z</time>
      </trkpt>
      <trkpt lat="46.84733" lon="5.88552">
        <ele>691.5</ele>
        <time>2021-08-12T12:27:58Z</time>
      </trkpt>
      <trkpt lat="46.84735" lon="5.88559">
        <ele>692.3</ele>
        <time>2021-08-12T12:28:03Z</time>
      </trkpt>
      <trkpt lat="46.84738" lon="5.88565">
        <ele>693.2</ele>
        <time>2021-08-12T12:28:08Z</time>
      </trkpt>
      <trkpt lat="46.8474" lon="5.88571">
        <ele>693.9</ele>
        <time>2021-08-12T12:28:13Z</time>
      </trkpt>
      <trkpt lat="46.84743" lon="5.88578">
        <ele>694.6</ele>
        <time>2021-08-12T12:28:18Z</time>
      </trkpt>
      <trkpt lat="46.84747" lon="5.88581">
        <ele>695.1</ele>
        <time>2021-08-12T12:28:22Z</time>
      </trkpt>
      <trkpt lat="46.84751" lon="5.88586">
        <ele>695.3</ele>
        <time>2021-08-12T12:28:27Z</time>
      </trkpt>
      <trkpt lat="46.84755" lon="5.8859">
        <ele>695.3</ele>
        <time>2021-08-12T12:28:33Z</time>
      </trkpt>
      <trkpt lat="46.8476" lon="5.88593">
        <ele>694.6</ele>
        <time>2021-08-12T12:28:37Z</time>
      </trkpt>
      <trkpt lat="46.84761" lon="5.88601">
        <ele>693.4</ele>
        <time>2021-08-12T12:28:41Z</time>
      </trkpt>
      <trkpt lat="46.84762" lon="5.88609">
        <ele>693.7</ele>
        <time>2021-08-12T12:28:45Z</time>
      </trkpt>
      <trkpt lat="46.84764" lon="5.88616">
        <ele>694.5</ele>
        <time>2021-08-12T12:28:48Z</time>
      </trkpt>
      <trkpt lat="46.84764" lon="5.88624">
        <ele>695.3</ele>
        <time>2021-08-12T12:28:52Z</time>
      </trkpt>
      <trkpt lat="46.84766" lon="5.88632">
        <ele>696.5</ele>
        <time>2021-08-12T12:28:57Z</time>
      </trkpt>
      <trkpt lat="46.84768" lon="5.88639">
        <ele>697.6</ele>
        <time>2021-08-12T12:29:01Z</time>
      </trkpt>
      <trkpt lat="46.84772" lon="5.88644">
        <ele>698.3</ele>
        <time>2021-08-12T12:29:04Z</time>
      </trkpt>
      <trkpt lat="46.84777" lon="5.88646">
        <ele>699.3</ele>
        <time>2021-08-12T12:29:08Z</time>
      </trkpt>
      <trkpt lat="46.84781" lon="5.88649">
        <ele>699.8</ele>
        <time>2021-08-12T12:29:13Z</time>
      </trkpt>
      <trkpt lat="46.84786" lon="5.88648">
        <ele>699.7</ele>
        <time>2021-08-12T12:29:17Z</time>
      </trkpt>
      <trkpt lat="46.8479" lon="5.88654">
        <ele>699.8</ele>
        <time>2021-08-12T12:29:21Z</time>
      </trkpt>
      <trkpt lat="46.84792" lon="5.88662">
        <ele>699.8</ele>
        <time>2021-08-12T12:29:25Z</time>
      </trkpt>
      <trkpt lat="46.84794" lon="5.88668">
        <ele>699.8</ele>
        <time>2021-08-12T12:29:28Z</time>
      </trkpt>
      <trkpt lat="46.84796" lon="5.88676">
        <ele>700.2</ele>
        <time>2021-08-12T12:29:32Z</time>
      </trkpt>
      <trkpt lat="46.84799" lon="5.88682">
        <ele>701.2</ele>
        <time>2021-08-12T12:29:37Z</time>
      </trkpt>
      <trkpt lat="46.84802" lon="5.88688">
        <ele>701.9</ele>
        <time>2021-08-12T12:29:42Z</time>
      </trkpt>
      <trkpt lat="46.84805" lon="5.88693">
        <ele>702.8</ele>
        <time>2021-08-12T12:29:47Z</time>
      </trkpt>
      <trkpt lat="46.84809" lon="5.88697">
        <ele>703.8</ele>
        <time>2021-08-12T12:29:51Z</time>
      </trkpt>
      <trkpt lat="46.84814" lon="5.88699">
        <ele>704.5</ele>
        <time>2021-08-12T12:29:54Z</time>
      </trkpt>
      <trkpt lat="46.84819" lon="5.88703">
        <ele>705.3</ele>
        <time>2021-08-12T12:29:58Z</time>
      </trkpt>
      <trkpt lat="46.84821" lon="5.88709">
        <ele>706</ele>
        <time>2021-08-12T12:30:02Z</time>
      </trkpt>
      <trkpt lat="46.84825" lon="5.88715">
        <ele>706.3</ele>
        <time>2021-08-12T12:30:07Z</time>
      </trkpt>
      <trkpt lat="46.84826" lon="5.88722">
        <ele>706.6</ele>
        <time>2021-08-12T12:30:12Z</time>
      </trkpt>
      <trkpt lat="46.8483" lon="5.88727">
        <ele>706.8</ele>
        <time>2021-08-12T12:30:17Z</time>
      </trkpt>
      <trkpt lat="46.84835" lon="5.8873">
        <ele>706.5</ele>
        <time>2021-08-12T12:30:23Z</time>
      </trkpt>
      <trkpt lat="46.84837" lon="5.88736">
        <ele>706</ele>
        <time>2021-08-12T12:30:28Z</time>
      </trkpt>
      <trkpt lat="46.84842" lon="5.8874">
        <ele>705.9</ele>
        <time>2021-08-12T12:30:33Z</time>
      </trkpt>
      <trkpt lat="46.84841" lon="5.88748">
        <ele>706.2</ele>
        <time>2021-08-12T12:30:37Z</time>
      </trkpt>
      <trkpt lat="46.84841" lon="5.88755">
        <ele>706.6</ele>
        <time>2021-08-12T12:30:42Z</time>
      </trkpt>
      <trkpt lat="46.8484" lon="5.88763">
        <ele>707</ele>
        <time>2021-08-12T12:30:47Z</time>
      </trkpt>
      <trkpt lat="46.84842" lon="5.8877">
        <ele>707.8</ele>
        <time>2021-08-12T12:30:54Z</time>
      </trkpt>
      <trkpt lat="46.84846" lon="5.88776">
        <ele>707.8</ele>
        <time>2021-08-12T12:30:59Z</time>
      </trkpt>
      <trkpt lat="46.84849" lon="5.88782">
        <ele>707.4</ele>
        <time>2021-08-12T12:31:04Z</time>
      </trkpt>
      <trkpt lat="46.84852" lon="5.88786">
        <ele>706.7</ele>
        <time>2021-08-12T12:31:08Z</time>
      </trkpt>
      <trkpt lat="46.84856" lon="5.88791">
        <ele>706.4</ele>
        <time>2021-08-12T12:31:11Z</time>
      </trkpt>
      <trkpt lat="46.8486" lon="5.88797">
        <ele>706.1</ele>
        <time>2021-08-12T12:31:14Z</time>
      </trkpt>
      <trkpt lat="46.8486" lon="5.88804">
        <ele>705.7</ele>
        <time>2021-08-12T12:31:18Z</time>
      </trkpt>
      <trkpt lat="46.84861" lon="5.88811">
        <ele>705.1</ele>
        <time>2021-08-12T12:31:22Z</time>
      </trkpt>
      <trkpt lat="46.84863" lon="5.88817">
        <ele>704.9</ele>
        <time>2021-08-12T12:31:25Z</time>
      </trkpt>
      <trkpt lat="46.84866" lon="5.88823">
        <ele>704.7</ele>
        <time>2021-08-12T12:31:29Z</time>
      </trkpt>
      <trkpt lat="46.84872" lon="5.88826">
        <ele>704.5</ele>
        <time>2021-08-12T12:31:33Z</time>
      </trkpt>
      <trkpt lat="46.84877" lon="5.88829">
        <ele>704.3</ele>
        <time>2021-08-12T12:31:37Z</time>
      </trkpt>
      <trkpt lat="46.84881" lon="5.88833">
        <ele>703.8</ele>
        <time>2021-08-12T12:31:43Z</time>
      </trkpt>
      <trkpt lat="46.84884" lon="5.88839">
        <ele>703.9</ele>
        <time>2021-08-12T12:31:48Z</time>
      </trkpt>
      <trkpt lat="46.84886" lon="5.88846">
        <ele>703.9</ele>
        <time>2021-08-12T12:31:53Z</time>
      </trkpt>
      <trkpt lat="46.84889" lon="5.88852">
        <ele>702.8</ele>
        <time>2021-08-12T12:31:59Z</time>
      </trkpt>
      <trkpt lat="46.84893" lon="5.88858">
        <ele>701.9</ele>
        <time>2021-08-12T12:32:05Z</time>
      </trkpt>
      <trkpt lat="46.84898" lon="5.8886">
        <ele>701.7</ele>
        <time>2021-08-12T12:32:08Z</time>
      </trkpt>
      <trkpt lat="46.84901" lon="5.88864">
        <ele>701.8</ele>
        <time>2021-08-12T12:32:13Z</time>
      </trkpt>
      <trkpt lat="46.84904" lon="5.88871">
        <ele>702.1</ele>
        <time>2021-08-12T12:32:18Z</time>
      </trkpt>
      <trkpt lat="46.84904" lon="5.88878">
        <ele>702.7</ele>
        <time>2021-08-12T12:32:23Z</time>
      </trkpt>
      <trkpt lat="46.84903" lon="5.88887">
        <ele>704</ele>
        <time>2021-08-12T12:32:28Z</time>
      </trkpt>
      <trkpt lat="46.84905" lon="5.88894">
        <ele>705.3</ele>
        <time>2021-08-12T12:32:33Z</time>
      </trkpt>
      <trkpt lat="46.84908" lon="5.88902">
        <ele>705.9</ele>
        <time>2021-08-12T12:32:37Z</time>
      </trkpt>
      <trkpt lat="46.84915" lon="5.88901">
        <ele>706.1</ele>
        <time>2021-08-12T12:32:40Z</time>
      </trkpt>
      <trkpt lat="46.84921" lon="5.88902">
        <ele>706.4</ele>
        <time>2021-08-12T12:32:43Z</time>
      </trkpt>
      <trkpt lat="46.84924" lon="5.88909">
        <ele>706.6</ele>
        <time>2021-08-12T12:32:47Z</time>
      </trkpt>
      <trkpt lat="46.84924" lon="5.88917">
        <ele>706.7</ele>
        <time>2021-08-12T12:32:51Z</time>
      </trkpt>
      <trkpt lat="46.84925" lon="5.88923">
        <ele>706.5</ele>
        <time>2021-08-12T12:32:55Z</time>
      </trkpt>
      <trkpt lat="46.84928" lon="5.88929">
        <ele>705.4</ele>
        <time>2021-08-12T12:33:00Z</time>
      </trkpt>
      <trkpt lat="46.8493" lon="5.88935">
        <ele>704.8</ele>
        <time>2021-08-12T12:33:04Z</time>
      </trkpt>
      <trkpt lat="46.8493" lon="5.88942">
        <ele>704.4</ele>
        <time>2021-08-12T12:33:07Z</time>
      </trkpt>
      <trkpt lat="46.84934" lon="5.88947">
        <ele>704.3</ele>
        <time>2021-08-12T12:33:12Z</time>
      </trkpt>
      <trkpt lat="46.84935" lon="5.88954">
        <ele>703.9</ele>
        <time>2021-08-12T12:33:17Z</time>
      </trkpt>
      <trkpt lat="46.84936" lon="5.88961">
        <ele>703.6</ele>
        <time>2021-08-12T12:33:22Z</time>
      </trkpt>
      <trkpt lat="46.84935" lon="5.88969">
        <ele>703.2</ele>
        <time>2021-08-12T12:33:26Z</time>
      </trkpt>
      <trkpt lat="46.84936" lon="5.88975">
        <ele>701.9</ele>
        <time>2021-08-12T12:33:31Z</time>
      </trkpt>
      <trkpt lat="46.84937" lon="5.88983">
        <ele>700</ele>
        <time>2021-08-12T12:33:37Z</time>
      </trkpt>
      <trkpt lat="46.84941" lon="5.88986">
        <ele>699.4</ele>
        <time>2021-08-12T12:33:41Z</time>
      </trkpt>
      <trkpt lat="46.84945" lon="5.8899">
        <ele>699.5</ele>
        <time>2021-08-12T12:33:45Z</time>
      </trkpt>
      <trkpt lat="46.84949" lon="5.88994">
        <ele>699.5</ele>
        <time>2021-08-12T12:33:49Z</time>
      </trkpt>
      <trkpt lat="46.84952" lon="5.88999">
        <ele>699.5</ele>
        <time>2021-08-12T12:33:53Z</time>
      </trkpt>
      <trkpt lat="46.84953" lon="5.89006">
        <ele>699.2</ele>
        <time>2021-08-12T12:33:57Z</time>
      </trkpt>
      <trkpt lat="46.84955" lon="5.89012">
        <ele>699.3</ele>
        <time>2021-08-12T12:34:01Z</time>
      </trkpt>
      <trkpt lat="46.84958" lon="5.89019">
        <ele>699.6</ele>
        <time>2021-08-12T12:34:05Z</time>
      </trkpt>
      <trkpt lat="46.84962" lon="5.89022">
        <ele>700</ele>
        <time>2021-08-12T12:34:08Z</time>
      </trkpt>
      <trkpt lat="46.84967" lon="5.89024">
        <ele>700.3</ele>
        <time>2021-08-12T12:34:11Z</time>
      </trkpt>
      <trkpt lat="46.84972" lon="5.89027">
        <ele>700.8</ele>
        <time>2021-08-12T12:34:15Z</time>
      </trkpt>
      <trkpt lat="46.84976" lon="5.89031">
        <ele>701.5</ele>
        <time>2021-08-12T12:34:19Z</time>
      </trkpt>
      <trkpt lat="46.84978" lon="5.89038">
        <ele>701.8</ele>
        <time>2021-08-12T12:34:23Z</time>
      </trkpt>
      <trkpt lat="46.84978" lon="5.89046">
        <ele>701.8</ele>
        <time>2021-08-12T12:34:27Z</time>
      </trkpt>
      <trkpt lat="46.84982" lon="5.8905">
        <ele>701.5</ele>
        <time>2021-08-12T12:34:32Z</time>
      </trkpt>
      <trkpt lat="46.84985" lon="5.89056">
        <ele>701.3</ele>
        <time>2021-08-12T12:34:40Z</time>
      </trkpt>
      <trkpt lat="46.84989" lon="5.8906">
        <ele>701</ele>
        <time>2021-08-12T12:34:44Z</time>
      </trkpt>
      <trkpt lat="46.84993" lon="5.89067">
        <ele>700.6</ele>
        <time>2021-08-12T12:34:48Z</time>
      </trkpt>
      <trkpt lat="46.84994" lon="5.89073">
        <ele>700</ele>
        <time>2021-08-12T12:34:52Z</time>
      </trkpt>
      <trkpt lat="46.84999" lon="5.89077">
        <ele>699.6</ele>
        <time>2021-08-12T12:34:57Z</time>
      </trkpt>
      <trkpt lat="46.85003" lon="5.89082">
        <ele>699.6</ele>
        <time>2021-08-12T12:35:03Z</time>
      </trkpt>
      <trkpt lat="46.85006" lon="5.89087">
        <ele>699.7</ele>
        <time>2021-08-12T12:35:07Z</time>
      </trkpt>
      <trkpt lat="46.8501" lon="5.89091">
        <ele>699.7</ele>
        <time>2021-08-12T12:35:10Z</time>
      </trkpt>
      <trkpt lat="46.85014" lon="5.89095">
        <ele>699.3</ele>
        <time>2021-08-12T12:35:13Z</time>
      </trkpt>
      <trkpt lat="46.85017" lon="5.89101">
        <ele>699</ele>
        <time>2021-08-12T12:35:18Z</time>
      </trkpt>
      <trkpt lat="46.85018" lon="5.89109">
        <ele>699.4</ele>
        <time>2021-08-12T12:35:23Z</time>
      </trkpt>
      <trkpt lat="46.8502" lon="5.89117">
        <ele>700.3</ele>
        <time>2021-08-12T12:35:27Z</time>
      </trkpt>
      <trkpt lat="46.85023" lon="5.89124">
        <ele>700.8</ele>
        <time>2021-08-12T12:35:31Z</time>
      </trkpt>
      <trkpt lat="46.85027" lon="5.8913">
        <ele>701.4</ele>
        <time>2021-08-12T12:35:36Z</time>
      </trkpt>
      <trkpt lat="46.85031" lon="5.89134">
        <ele>701.9</ele>
        <time>2021-08-12T12:35:40Z</time>
      </trkpt>
      <trkpt lat="46.85033" lon="5.89141">
        <ele>702</ele>
        <time>2021-08-12T12:35:45Z</time>
      </trkpt>
      <trkpt lat="46.85036" lon="5.89146">
        <ele>701.8</ele>
        <time>2021-08-12T12:35:50Z</time>
      </trkpt>
      <trkpt lat="46.85039" lon="5.89151">
        <ele>701.6</ele>
        <time>2021-08-12T12:35:55Z</time>
      </trkpt>
      <trkpt lat="46.85042" lon="5.89157">
        <ele>701.3</ele>
        <time>2021-08-12T12:36:00Z</time>
      </trkpt>
      <trkpt lat="46.85046" lon="5.89161">
        <ele>701.6</ele>
        <time>2021-08-12T12:36:07Z</time>
      </trkpt>
      <trkpt lat="46.85051" lon="5.89164">
        <ele>701.8</ele>
        <time>2021-08-12T12:36:11Z</time>
      </trkpt>
      <trkpt lat="46.85055" lon="5.89167">
        <ele>701.9</ele>
        <time>2021-08-12T12:36:14Z</time>
      </trkpt>
      <trkpt lat="46.8506" lon="5.89169">
        <ele>702.1</ele>
        <time>2021-08-12T12:36:18Z</time>
      </trkpt>
      <trkpt lat="46.85064" lon="5.89174">
        <ele>702.5</ele>
        <time>2021-08-12T12:36:22Z</time>
      </trkpt>
      <trkpt lat="46.85068" lon="5.89179">
        <ele>702.2</ele>
        <time>2021-08-12T12:36:26Z</time>
      </trkpt>
      <trkpt lat="46.85071" lon="5.89184">
        <ele>702</ele>
        <time>2021-08-12T12:36:31Z</time>
      </trkpt>
      <trkpt lat="46.85076" lon="5.89186">
        <ele>701.9</ele>
        <time>2021-08-12T12:36:36Z</time>
      </trkpt>
      <trkpt lat="46.85081" lon="5.89185">
        <ele>701.7</ele>
        <time>2021-08-12T12:36:39Z</time>
      </trkpt>
      <trkpt lat="46.85088" lon="5.89185">
        <ele>701.7</ele>
        <time>2021-08-12T12:36:42Z</time>
      </trkpt>
      <trkpt lat="46.85094" lon="5.89185">
        <ele>701.8</ele>
        <time>2021-08-12T12:36:45Z</time>
      </trkpt>
      <trkpt lat="46.851" lon="5.89188">
        <ele>701.9</ele>
        <time>2021-08-12T12:36:48Z</time>
      </trkpt>
      <trkpt lat="46.85106" lon="5.89192">
        <ele>702</ele>
        <time>2021-08-12T12:36:51Z</time>
      </trkpt>
      <trkpt lat="46.85107" lon="5.892">
        <ele>702.1</ele>
        <time>2021-08-12T12:36:54Z</time>
      </trkpt>
      <trkpt lat="46.85107" lon="5.89206">
        <ele>701.8</ele>
        <time>2021-08-12T12:36:57Z</time>
      </trkpt>
      <trkpt lat="46.85109" lon="5.89213">
        <ele>701.7</ele>
        <time>2021-08-12T12:37:03Z</time>
      </trkpt>
      <trkpt lat="46.85115" lon="5.89214">
        <ele>701.8</ele>
        <time>2021-08-12T12:37:08Z</time>
      </trkpt>
      <trkpt lat="46.85117" lon="5.8922">
        <ele>702.6</ele>
        <time>2021-08-12T12:37:18Z</time>
      </trkpt>
      <trkpt lat="46.85115" lon="5.89231">
        <ele>702.6</ele>
        <time>2021-08-12T12:37:21Z</time>
      </trkpt>
      <trkpt lat="46.85115" lon="5.89238">
        <ele>702.8</ele>
        <time>2021-08-12T12:37:24Z</time>
      </trkpt>
      <trkpt lat="46.85116" lon="5.89245">
        <ele>703.5</ele>
        <time>2021-08-12T12:37:28Z</time>
      </trkpt>
      <trkpt lat="46.85114" lon="5.89252">
        <ele>703.9</ele>
        <time>2021-08-12T12:37:31Z</time>
      </trkpt>
      <trkpt lat="46.85115" lon="5.89259">
        <ele>704.2</ele>
        <time>2021-08-12T12:37:35Z</time>
      </trkpt>
      <trkpt lat="46.85114" lon="5.89266">
        <ele>704.2</ele>
        <time>2021-08-12T12:37:40Z</time>
      </trkpt>
      <trkpt lat="46.85124" lon="5.89276">
        <ele>703.1</ele>
        <time>2021-08-12T12:37:49Z</time>
      </trkpt>
      <trkpt lat="46.85132" lon="5.89277">
        <ele>703.2</ele>
        <time>2021-08-12T12:37:52Z</time>
      </trkpt>
      <trkpt lat="46.85138" lon="5.8928">
        <ele>703.3</ele>
        <time>2021-08-12T12:37:55Z</time>
      </trkpt>
      <trkpt lat="46.85143" lon="5.89282">
        <ele>703.5</ele>
        <time>2021-08-12T12:37:59Z</time>
      </trkpt>
      <trkpt lat="46.85148" lon="5.89287">
        <ele>703.7</ele>
        <time>2021-08-12T12:38:04Z</time>
      </trkpt>
      <trkpt lat="46.85154" lon="5.89286">
        <ele>704</ele>
        <time>2021-08-12T12:38:08Z</time>
      </trkpt>
      <trkpt lat="46.85157" lon="5.89292">
        <ele>704.2</ele>
        <time>2021-08-12T12:38:14Z</time>
      </trkpt>
      <trkpt lat="46.85171" lon="5.89299">
        <ele>704.3</ele>
        <time>2021-08-12T12:38:27Z</time>
      </trkpt>
      <trkpt lat="46.85179" lon="5.89297">
        <ele>703.9</ele>
        <time>2021-08-12T12:38:30Z</time>
      </trkpt>
      <trkpt lat="46.85184" lon="5.89297">
        <ele>703.5</ele>
        <time>2021-08-12T12:38:33Z</time>
      </trkpt>
      <trkpt lat="46.85189" lon="5.893">
        <ele>703</ele>
        <time>2021-08-12T12:38:37Z</time>
      </trkpt>
      <trkpt lat="46.85192" lon="5.89304">
        <ele>703</ele>
        <time>2021-08-12T12:38:42Z</time>
      </trkpt>
      <trkpt lat="46.85197" lon="5.89306">
        <ele>703.6</ele>
        <time>2021-08-12T12:38:47Z</time>
      </trkpt>
      <trkpt lat="46.85202" lon="5.89309">
        <ele>704</ele>
        <time>2021-08-12T12:38:52Z</time>
      </trkpt>
      <trkpt lat="46.85205" lon="5.89313">
        <ele>704.2</ele>
        <time>2021-08-12T12:38:56Z</time>
      </trkpt>
      <trkpt lat="46.85208" lon="5.89319">
        <ele>704.2</ele>
        <time>2021-08-12T12:39:01Z</time>
      </trkpt>
      <trkpt lat="46.85212" lon="5.89324">
        <ele>704.6</ele>
        <time>2021-08-12T12:39:05Z</time>
      </trkpt>
      <trkpt lat="46.85217" lon="5.89329">
        <ele>704.8</ele>
        <time>2021-08-12T12:39:09Z</time>
      </trkpt>
      <trkpt lat="46.85219" lon="5.89335">
        <ele>705.1</ele>
        <time>2021-08-12T12:39:13Z</time>
      </trkpt>
      <trkpt lat="46.85224" lon="5.89338">
        <ele>705</ele>
        <time>2021-08-12T12:39:16Z</time>
      </trkpt>
      <trkpt lat="46.8523" lon="5.89339">
        <ele>704.8</ele>
        <time>2021-08-12T12:39:20Z</time>
      </trkpt>
      <trkpt lat="46.85236" lon="5.89338">
        <ele>704.6</ele>
        <time>2021-08-12T12:39:23Z</time>
      </trkpt>
      <trkpt lat="46.85243" lon="5.89336">
        <ele>704.6</ele>
        <time>2021-08-12T12:39:26Z</time>
      </trkpt>
      <trkpt lat="46.85247" lon="5.89337">
        <ele>704.7</ele>
        <time>2021-08-12T12:39:30Z</time>
      </trkpt>
      <trkpt lat="46.85251" lon="5.89343">
        <ele>705.3</ele>
        <time>2021-08-12T12:39:36Z</time>
      </trkpt>
      <trkpt lat="46.85251" lon="5.8935">
        <ele>705.3</ele>
        <time>2021-08-12T12:39:41Z</time>
      </trkpt>
      <trkpt lat="46.85251" lon="5.89357">
        <ele>705.2</ele>
        <time>2021-08-12T12:39:44Z</time>
      </trkpt>
      <trkpt lat="46.85251" lon="5.89364">
        <ele>705.1</ele>
        <time>2021-08-12T12:39:48Z</time>
      </trkpt>
      <trkpt lat="46.85251" lon="5.89371">
        <ele>704.9</ele>
        <time>2021-08-12T12:39:51Z</time>
      </trkpt>
      <trkpt lat="46.85252" lon="5.89378">
        <ele>704.5</ele>
        <time>2021-08-12T12:39:55Z</time>
      </trkpt>
      <trkpt lat="46.85256" lon="5.89383">
        <ele>703.7</ele>
        <time>2021-08-12T12:40:00Z</time>
      </trkpt>
      <trkpt lat="46.85261" lon="5.89387">
        <ele>703</ele>
        <time>2021-08-12T12:40:04Z</time>
      </trkpt>
      <trkpt lat="46.85264" lon="5.89392">
        <ele>702.2</ele>
        <time>2021-08-12T12:40:08Z</time>
      </trkpt>
      <trkpt lat="46.85267" lon="5.89398">
        <ele>701.5</ele>
        <time>2021-08-12T12:40:12Z</time>
      </trkpt>
      <trkpt lat="46.8527" lon="5.89404">
        <ele>700.8</ele>
        <time>2021-08-12T12:40:16Z</time>
      </trkpt>
      <trkpt lat="46.85273" lon="5.8941">
        <ele>700.2</ele>
        <time>2021-08-12T12:40:20Z</time>
      </trkpt>
      <trkpt lat="46.85273" lon="5.89418">
        <ele>699.6</ele>
        <time>2021-08-12T12:40:24Z</time>
      </trkpt>
      <trkpt lat="46.85275" lon="5.89424">
        <ele>698.6</ele>
        <time>2021-08-12T12:40:29Z</time>
      </trkpt>
      <trkpt lat="46.8528" lon="5.89427">
        <ele>697.5</ele>
        <time>2021-08-12T12:40:34Z</time>
      </trkpt>
      <trkpt lat="46.85284" lon="5.89431">
        <ele>696.5</ele>
        <time>2021-08-12T12:40:38Z</time>
      </trkpt>
      <trkpt lat="46.85288" lon="5.89436">
        <ele>695.7</ele>
        <time>2021-08-12T12:40:42Z</time>
      </trkpt>
      <trkpt lat="46.85291" lon="5.89441">
        <ele>695</ele>
        <time>2021-08-12T12:40:46Z</time>
      </trkpt>
      <trkpt lat="46.85295" lon="5.89446">
        <ele>694.1</ele>
        <time>2021-08-12T12:40:52Z</time>
      </trkpt>
      <trkpt lat="46.85297" lon="5.89453">
        <ele>693.3</ele>
        <time>2021-08-12T12:40:56Z</time>
      </trkpt>
      <trkpt lat="46.85297" lon="5.89461">
        <ele>692.4</ele>
        <time>2021-08-12T12:41:00Z</time>
      </trkpt>
      <trkpt lat="46.85298" lon="5.89468">
        <ele>691.3</ele>
        <time>2021-08-12T12:41:05Z</time>
      </trkpt>
      <trkpt lat="46.853" lon="5.89475">
        <ele>690</ele>
        <time>2021-08-12T12:41:12Z</time>
      </trkpt>
      <trkpt lat="46.853" lon="5.89482">
        <ele>689.4</ele>
        <time>2021-08-12T12:41:17Z</time>
      </trkpt>
      <trkpt lat="46.85302" lon="5.89488">
        <ele>688.5</ele>
        <time>2021-08-12T12:41:23Z</time>
      </trkpt>
      <trkpt lat="46.85307" lon="5.89492">
        <ele>687.9</ele>
        <time>2021-08-12T12:41:27Z</time>
      </trkpt>
      <trkpt lat="46.85311" lon="5.89497">
        <ele>687.4</ele>
        <time>2021-08-12T12:41:31Z</time>
      </trkpt>
      <trkpt lat="46.85316" lon="5.895">
        <ele>687</ele>
        <time>2021-08-12T12:41:35Z</time>
      </trkpt>
      <trkpt lat="46.85321" lon="5.89503">
        <ele>686.6</ele>
        <time>2021-08-12T12:41:39Z</time>
      </trkpt>
      <trkpt lat="46.85325" lon="5.89509">
        <ele>686.1</ele>
        <time>2021-08-12T12:41:44Z</time>
      </trkpt>
      <trkpt lat="46.85328" lon="5.89516">
        <ele>685.6</ele>
        <time>2021-08-12T12:41:48Z</time>
      </trkpt>
      <trkpt lat="46.85331" lon="5.89521">
        <ele>685.3</ele>
        <time>2021-08-12T12:41:52Z</time>
      </trkpt>
      <trkpt lat="46.85337" lon="5.89523">
        <ele>685.4</ele>
        <time>2021-08-12T12:41:56Z</time>
      </trkpt>
      <trkpt lat="46.85339" lon="5.89529">
        <ele>684.9</ele>
        <time>2021-08-12T12:42:01Z</time>
      </trkpt>
      <trkpt lat="46.85339" lon="5.89537">
        <ele>684.2</ele>
        <time>2021-08-12T12:42:05Z</time>
      </trkpt>
      <trkpt lat="46.85338" lon="5.89544">
        <ele>683.5</ele>
        <time>2021-08-12T12:42:09Z</time>
      </trkpt>
      <trkpt lat="46.85341" lon="5.8955">
        <ele>682.9</ele>
        <time>2021-08-12T12:42:14Z</time>
      </trkpt>
      <trkpt lat="46.85345" lon="5.89555">
        <ele>682.8</ele>
        <time>2021-08-12T12:42:18Z</time>
      </trkpt>
      <trkpt lat="46.85346" lon="5.89562">
        <ele>682.6</ele>
        <time>2021-08-12T12:42:23Z</time>
      </trkpt>
      <trkpt lat="46.8535" lon="5.89567">
        <ele>682.3</ele>
        <time>2021-08-12T12:42:29Z</time>
      </trkpt>
      <trkpt lat="46.85354" lon="5.8957">
        <ele>681.7</ele>
        <time>2021-08-12T12:42:34Z</time>
      </trkpt>
      <trkpt lat="46.85364" lon="5.89581">
        <ele>681.9</ele>
        <time>2021-08-12T12:42:44Z</time>
      </trkpt>
      <trkpt lat="46.85369" lon="5.89583">
        <ele>681.9</ele>
        <time>2021-08-12T12:42:49Z</time>
      </trkpt>
      <trkpt lat="46.85372" lon="5.89588">
        <ele>680.9</ele>
        <time>2021-08-12T12:42:57Z</time>
      </trkpt>
      <trkpt lat="46.85372" lon="5.89597">
        <ele>680.4</ele>
        <time>2021-08-12T12:43:02Z</time>
      </trkpt>
      <trkpt lat="46.85373" lon="5.8961">
        <ele>677.2</ele>
        <time>2021-08-12T12:43:13Z</time>
      </trkpt>
      <trkpt lat="46.85378" lon="5.89611">
        <ele>676.6</ele>
        <time>2021-08-12T12:43:17Z</time>
      </trkpt>
      <trkpt lat="46.85383" lon="5.89612">
        <ele>676</ele>
        <time>2021-08-12T12:43:21Z</time>
      </trkpt>
      <trkpt lat="46.85388" lon="5.89614">
        <ele>675.3</ele>
        <time>2021-08-12T12:43:26Z</time>
      </trkpt>
      <trkpt lat="46.85393" lon="5.89615">
        <ele>674.9</ele>
        <time>2021-08-12T12:43:30Z</time>
      </trkpt>
      <trkpt lat="46.85399" lon="5.89614">
        <ele>674.6</ele>
        <time>2021-08-12T12:43:34Z</time>
      </trkpt>
      <trkpt lat="46.85404" lon="5.8961">
        <ele>674.2</ele>
        <time>2021-08-12T12:43:37Z</time>
      </trkpt>
      <trkpt lat="46.85409" lon="5.89609">
        <ele>673.7</ele>
        <time>2021-08-12T12:43:42Z</time>
      </trkpt>
      <trkpt lat="46.85415" lon="5.8961">
        <ele>673.2</ele>
        <time>2021-08-12T12:43:47Z</time>
      </trkpt>
      <trkpt lat="46.8542" lon="5.89611">
        <ele>672.7</ele>
        <time>2021-08-12T12:43:51Z</time>
      </trkpt>
      <trkpt lat="46.85425" lon="5.89615">
        <ele>672.4</ele>
        <time>2021-08-12T12:43:56Z</time>
      </trkpt>
      <trkpt lat="46.85431" lon="5.89612">
        <ele>672.2</ele>
        <time>2021-08-12T12:43:59Z</time>
      </trkpt>
      <trkpt lat="46.85438" lon="5.89608">
        <ele>672.5</ele>
        <time>2021-08-12T12:44:02Z</time>
      </trkpt>
      <trkpt lat="46.85443" lon="5.89608">
        <ele>672.9</ele>
        <time>2021-08-12T12:44:05Z</time>
      </trkpt>
      <trkpt lat="46.85448" lon="5.89607">
        <ele>673.4</ele>
        <time>2021-08-12T12:44:08Z</time>
      </trkpt>
      <trkpt lat="46.85453" lon="5.89607">
        <ele>673.9</ele>
        <time>2021-08-12T12:44:11Z</time>
      </trkpt>
      <trkpt lat="46.85459" lon="5.89606">
        <ele>674.7</ele>
        <time>2021-08-12T12:44:16Z</time>
      </trkpt>
      <trkpt lat="46.85464" lon="5.89609">
        <ele>674.8</ele>
        <time>2021-08-12T12:44:21Z</time>
      </trkpt>
      <trkpt lat="46.85466" lon="5.89616">
        <ele>674.6</ele>
        <time>2021-08-12T12:44:26Z</time>
      </trkpt>
      <trkpt lat="46.85467" lon="5.89623">
        <ele>674</ele>
        <time>2021-08-12T12:44:32Z</time>
      </trkpt>
      <trkpt lat="46.85471" lon="5.89627">
        <ele>673.5</ele>
        <time>2021-08-12T12:44:39Z</time>
      </trkpt>
      <trkpt lat="46.85474" lon="5.89632">
        <ele>672.9</ele>
        <time>2021-08-12T12:44:44Z</time>
      </trkpt>
      <trkpt lat="46.85477" lon="5.89638">
        <ele>672.2</ele>
        <time>2021-08-12T12:44:50Z</time>
      </trkpt>
      <trkpt lat="46.85483" lon="5.89642">
        <ele>671.6</ele>
        <time>2021-08-12T12:44:56Z</time>
      </trkpt>
      <trkpt lat="46.85491" lon="5.89647">
        <ele>670.7</ele>
        <time>2021-08-12T12:45:06Z</time>
      </trkpt>
      <trkpt lat="46.85503" lon="5.8965">
        <ele>668.7</ele>
        <time>2021-08-12T12:45:16Z</time>
      </trkpt>
      <trkpt lat="46.85505" lon="5.89656">
        <ele>668.1</ele>
        <time>2021-08-12T12:45:20Z</time>
      </trkpt>
      <trkpt lat="46.8551" lon="5.89658">
        <ele>667.2</ele>
        <time>2021-08-12T12:45:25Z</time>
      </trkpt>
      <trkpt lat="46.85518" lon="5.8966">
        <ele>667</ele>
        <time>2021-08-12T12:45:28Z</time>
      </trkpt>
      <trkpt lat="46.85524" lon="5.8966">
        <ele>666.8</ele>
        <time>2021-08-12T12:45:31Z</time>
      </trkpt>
      <trkpt lat="46.85529" lon="5.89662">
        <ele>666.5</ele>
        <time>2021-08-12T12:45:35Z</time>
      </trkpt>
      <trkpt lat="46.85534" lon="5.89664">
        <ele>665.8</ele>
        <time>2021-08-12T12:45:39Z</time>
      </trkpt>
      <trkpt lat="46.85539" lon="5.89668">
        <ele>664.7</ele>
        <time>2021-08-12T12:45:44Z</time>
      </trkpt>
      <trkpt lat="46.85543" lon="5.89668">
        <ele>664.1</ele>
        <time>2021-08-12T12:45:48Z</time>
      </trkpt>
      <trkpt lat="46.85548" lon="5.8967">
        <ele>663.1</ele>
        <time>2021-08-12T12:45:55Z</time>
      </trkpt>
      <trkpt lat="46.85552" lon="5.89673">
        <ele>662</ele>
        <time>2021-08-12T12:46:02Z</time>
      </trkpt>
      <trkpt lat="46.85555" lon="5.89677">
        <ele>661.4</ele>
        <time>2021-08-12T12:46:06Z</time>
      </trkpt>
      <trkpt lat="46.85553" lon="5.89685">
        <ele>660.5</ele>
        <time>2021-08-12T12:46:12Z</time>
      </trkpt>
      <trkpt lat="46.85556" lon="5.8969">
        <ele>660</ele>
        <time>2021-08-12T12:46:18Z</time>
      </trkpt>
      <trkpt lat="46.8556" lon="5.89694">
        <ele>659.7</ele>
        <time>2021-08-12T12:46:23Z</time>
      </trkpt>
      <trkpt lat="46.85566" lon="5.89695">
        <ele>659.4</ele>
        <time>2021-08-12T12:46:27Z</time>
      </trkpt>
      <trkpt lat="46.85572" lon="5.89696">
        <ele>659.2</ele>
        <time>2021-08-12T12:46:33Z</time>
      </trkpt>
      <trkpt lat="46.85577" lon="5.89696">
        <ele>658.8</ele>
        <time>2021-08-12T12:46:37Z</time>
      </trkpt>
      <trkpt lat="46.85583" lon="5.89698">
        <ele>658</ele>
        <time>2021-08-12T12:46:42Z</time>
      </trkpt>
      <trkpt lat="46.85598" lon="5.89699">
        <ele>655.7</ele>
        <time>2021-08-12T12:46:50Z</time>
      </trkpt>
      <trkpt lat="46.85604" lon="5.89699">
        <ele>655.3</ele>
        <time>2021-08-12T12:46:53Z</time>
      </trkpt>
      <trkpt lat="46.85609" lon="5.897">
        <ele>654.7</ele>
        <time>2021-08-12T12:46:56Z</time>
      </trkpt>
      <trkpt lat="46.85613" lon="5.89698">
        <ele>654</ele>
        <time>2021-08-12T12:47:02Z</time>
      </trkpt>
      <trkpt lat="46.85618" lon="5.89699">
        <ele>653.4</ele>
        <time>2021-08-12T12:47:09Z</time>
      </trkpt>
      <trkpt lat="46.85618" lon="5.89706">
        <ele>653</ele>
        <time>2021-08-12T12:47:16Z</time>
      </trkpt>
      <trkpt lat="46.85623" lon="5.89709">
        <ele>653</ele>
        <time>2021-08-12T12:47:21Z</time>
      </trkpt>
      <trkpt lat="46.85628" lon="5.89711">
        <ele>653</ele>
        <time>2021-08-12T12:47:25Z</time>
      </trkpt>
      <trkpt lat="46.85632" lon="5.89716">
        <ele>652.8</ele>
        <time>2021-08-12T12:47:32Z</time>
      </trkpt>
      <trkpt lat="46.85636" lon="5.89718">
        <ele>652.8</ele>
        <time>2021-08-12T12:47:35Z</time>
      </trkpt>
      <trkpt lat="46.85641" lon="5.89721">
        <ele>652.7</ele>
        <time>2021-08-12T12:47:39Z</time>
      </trkpt>
      <trkpt lat="46.85646" lon="5.89722">
        <ele>652.3</ele>
        <time>2021-08-12T12:47:42Z</time>
      </trkpt>
      <trkpt lat="46.85651" lon="5.89724">
        <ele>651.1</ele>
        <time>2021-08-12T12:47:48Z</time>
      </trkpt>
      <trkpt lat="46.85656" lon="5.89724">
        <ele>650.3</ele>
        <time>2021-08-12T12:47:52Z</time>
      </trkpt>
      <trkpt lat="46.85669" lon="5.89723">
        <ele>648.4</ele>
        <time>2021-08-12T12:48:00Z</time>
      </trkpt>
      <trkpt lat="46.85672" lon="5.89728">
        <ele>648</ele>
        <time>2021-08-12T12:48:05Z</time>
      </trkpt>
      <trkpt lat="46.85677" lon="5.89731">
        <ele>647.2</ele>
        <time>2021-08-12T12:48:10Z</time>
      </trkpt>
      <trkpt lat="46.85683" lon="5.89733">
        <ele>646.7</ele>
        <time>2021-08-12T12:48:15Z</time>
      </trkpt>
      <trkpt lat="46.8569" lon="5.89732">
        <ele>646.6</ele>
        <time>2021-08-12T12:48:18Z</time>
      </trkpt>
      <trkpt lat="46.85695" lon="5.89735">
        <ele>646.8</ele>
        <time>2021-08-12T12:48:21Z</time>
      </trkpt>
      <trkpt lat="46.85699" lon="5.89739">
        <ele>646.9</ele>
        <time>2021-08-12T12:48:25Z</time>
      </trkpt>
      <trkpt lat="46.85704" lon="5.89743">
        <ele>647</ele>
        <time>2021-08-12T12:48:29Z</time>
      </trkpt>
      <trkpt lat="46.85707" lon="5.89748">
        <ele>646.8</ele>
        <time>2021-08-12T12:48:33Z</time>
      </trkpt>
      <trkpt lat="46.85711" lon="5.89754">
        <ele>646.3</ele>
        <time>2021-08-12T12:48:37Z</time>
      </trkpt>
      <trkpt lat="46.85714" lon="5.89758">
        <ele>646</ele>
        <time>2021-08-12T12:48:40Z</time>
      </trkpt>
      <trkpt lat="46.85716" lon="5.89765">
        <ele>644.3</ele>
        <time>2021-08-12T12:48:47Z</time>
      </trkpt>
      <trkpt lat="46.85719" lon="5.8977">
        <ele>643</ele>
        <time>2021-08-12T12:48:52Z</time>
      </trkpt>
      <trkpt lat="46.85724" lon="5.89773">
        <ele>642.1</ele>
        <time>2021-08-12T12:48:56Z</time>
      </trkpt>
      <trkpt lat="46.85728" lon="5.89777">
        <ele>641.6</ele>
        <time>2021-08-12T12:49:01Z</time>
      </trkpt>
      <trkpt lat="46.85731" lon="5.89782">
        <ele>641.2</ele>
        <time>2021-08-12T12:49:06Z</time>
      </trkpt>
      <trkpt lat="46.85733" lon="5.89788">
        <ele>639.5</ele>
        <time>2021-08-12T12:49:13Z</time>
      </trkpt>
      <trkpt lat="46.85738" lon="5.8979">
        <ele>633.6</ele>
        <time>2021-08-12T12:49:39Z</time>
      </trkpt>
      <trkpt lat="46.85742" lon="5.89786">
        <ele>633.3</ele>
        <time>2021-08-12T12:49:44Z</time>
      </trkpt>
      <trkpt lat="46.85746" lon="5.89781">
        <ele>633.3</ele>
        <time>2021-08-12T12:49:52Z</time>
      </trkpt>
      <trkpt lat="46.85741" lon="5.89783">
        <ele>636.5</ele>
        <time>2021-08-12T12:50:04Z</time>
      </trkpt>
    </trkseg>
  </trk>
</gpx>